<?xml version='1.0' encoding='UTF-8'?><gpx version="1.1" creator="JPX - https://github.com/jenetics/jpx" xmlns="http://www.topografix.com/GPX/1/1"><trk><trkseg><trkpt lat="45.0819363" lon="7.6742465"><ele>240.0</ele><time>2026-05-02T09:27:16.581Z</time></trkpt><trkpt lat="45.0819889" lon="7.6743224"><ele>240.0</ele><time>2026-05-02T09:27:40.701Z</time></trkpt><trkpt lat="45.0819731" lon="7.6742258"><ele>240.0</ele><time>2026-05-02T09:28:22.736Z</time></trkpt><trkpt lat="45.0819661" lon="7.6741277"><ele>240.0</ele><time>2026-05-02T09:28:29.082Z</time></trkpt><trkpt lat="45.0818832" lon="7.6741239"><ele>240.0</ele><time>2026-05-02T09:28:36.858Z</time></trkpt><trkpt lat="45.0818211" lon="7.6742574"><ele>240.0</ele><time>2026-05-02T09:28:41.495Z</time></trkpt><trkpt lat="45.0818122" lon="7.6743476"><ele>240.28571428571428</ele><time>2026-05-02T09:28:45.542Z</time></trkpt><trkpt lat="45.081793" lon="7.6744459"><ele>240.57142857142856</ele><time>2026-05-02T09:28:50.711Z</time></trkpt><trkpt lat="45.0817696" lon="7.674539"><ele>240.85714285714283</ele><time>2026-05-02T09:28:55.702Z</time></trkpt><trkpt lat="45.0817414" lon="7.67464"><ele>241.14285714285714</ele><time>2026-05-02T09:29:01.395Z</time></trkpt><trkpt lat="45.0817124" lon="7.6747368"><ele>241.4285714285714</ele><time>2026-05-02T09:29:07.697Z</time></trkpt><trkpt lat="45.0816873" lon="7.6748241"><ele>241.7142857142857</ele><time>2026-05-02T09:29:16.626Z</time></trkpt><trkpt lat="45.0816645" lon="7.6749164"><ele>242.0</ele><time>2026-05-02T09:29:23.594Z</time></trkpt><trkpt lat="45.0817169" lon="7.6749778"><ele>242.0</ele><time>2026-05-02T09:29:29.589Z</time></trkpt><trkpt lat="45.0817743" lon="7.6750188"><ele>241.99999999999997</ele><time>2026-05-02T09:29:33.721Z</time></trkpt><trkpt lat="45.0818377" lon="7.6750621"><ele>242.0</ele><time>2026-05-02T09:29:38.621Z</time></trkpt><trkpt lat="45.0818953" lon="7.6750996"><ele>242.0</ele><time>2026-05-02T09:29:44.61Z</time></trkpt><trkpt lat="45.0819529" lon="7.6751381"><ele>241.99999999999997</ele><time>2026-05-02T09:29:50.597Z</time></trkpt><trkpt lat="45.0820133" lon="7.6751867"><ele>242.0</ele><time>2026-05-02T09:29:56.705Z</time></trkpt><trkpt lat="45.0820775" lon="7.6752355"><ele>242.0</ele><time>2026-05-02T09:30:01.596Z</time></trkpt><trkpt lat="45.0821388" lon="7.6752657"><ele>242.14285714285714</ele><time>2026-05-02T09:30:06.536Z</time></trkpt><trkpt lat="45.0821964" lon="7.6753074"><ele>242.28571428571428</ele><time>2026-05-02T09:30:11.613Z</time></trkpt><trkpt lat="45.0822175" lon="7.6753936"><ele>242.42857142857142</ele><time>2026-05-02T09:30:18.577Z</time></trkpt><trkpt lat="45.0822812" lon="7.6753948"><ele>242.57142857142856</ele><time>2026-05-02T09:30:26.64Z</time></trkpt><trkpt lat="45.0823457" lon="7.6753816"><ele>242.71428571428572</ele><time>2026-05-02T09:30:35.677Z</time></trkpt><trkpt lat="45.0824116" lon="7.6754358"><ele>242.85714285714283</ele><time>2026-05-02T09:30:40.696Z</time></trkpt><trkpt lat="45.0824712" lon="7.6754765"><ele>243.0</ele><time>2026-05-02T09:30:45.588Z</time></trkpt><trkpt lat="45.0825284" lon="7.675519"><ele>242.57142857142856</ele><time>2026-05-02T09:30:51.684Z</time></trkpt><trkpt lat="45.0825854" lon="7.675564"><ele>242.14285714285717</ele><time>2026-05-02T09:30:56.588Z</time></trkpt><trkpt lat="45.082642" lon="7.6756086"><ele>241.71428571428572</ele><time>2026-05-02T09:31:00.534Z</time></trkpt><trkpt lat="45.0827013" lon="7.6756549"><ele>241.28571428571428</ele><time>2026-05-02T09:31:04.582Z</time></trkpt><trkpt lat="45.0827637" lon="7.67571"><ele>240.85714285714283</ele><time>2026-05-02T09:31:10.433Z</time></trkpt><trkpt lat="45.0828007" lon="7.6757958"><ele>240.42857142857144</ele><time>2026-05-02T09:31:17.521Z</time></trkpt><trkpt lat="45.0828003" lon="7.6758928"><ele>240.0</ele><time>2026-05-02T09:31:26.636Z</time></trkpt><trkpt lat="45.0827553" lon="7.6759687"><ele>240.0</ele><time>2026-05-02T09:31:30.664Z</time></trkpt><trkpt lat="45.0827264" lon="7.6760519"><ele>240.0</ele><time>2026-05-02T09:31:34.589Z</time></trkpt><trkpt lat="45.0826949" lon="7.6761373"><ele>240.0</ele><time>2026-05-02T09:31:38.613Z</time></trkpt><trkpt lat="45.0826609" lon="7.676224"><ele>240.0</ele><time>2026-05-02T09:31:44.577Z</time></trkpt><trkpt lat="45.0826795" lon="7.6763151"><ele>240.0</ele><time>2026-05-02T09:31:53.417Z</time></trkpt><trkpt lat="45.082754" lon="7.6763529"><ele>240.0</ele><time>2026-05-02T09:31:58.648Z</time></trkpt><trkpt lat="45.0828136" lon="7.6763874"><ele>240.0</ele><time>2026-05-02T09:32:02.68Z</time></trkpt><trkpt lat="45.0828671" lon="7.676437"><ele>239.85714285714286</ele><time>2026-05-02T09:32:07.881Z</time></trkpt><trkpt lat="45.0829294" lon="7.6764743"><ele>239.71428571428572</ele><time>2026-05-02T09:32:14.693Z</time></trkpt><trkpt lat="45.0829392" lon="7.6765758"><ele>239.57142857142858</ele><time>2026-05-02T09:32:21.624Z</time></trkpt><trkpt lat="45.0828935" lon="7.6765102"><ele>239.42857142857144</ele><time>2026-05-02T09:41:31.734Z</time></trkpt><trkpt lat="45.0829563" lon="7.6765482"><ele>239.28571428571428</ele><time>2026-05-02T09:41:47.739Z</time></trkpt><trkpt lat="45.0828903" lon="7.6764824"><ele>239.14285714285717</ele><time>2026-05-02T09:56:53.646Z</time></trkpt><trkpt lat="45.0828169" lon="7.6764343"><ele>239.00000000000003</ele><time>2026-05-02T09:56:56.6Z</time></trkpt><trkpt lat="45.0827555" lon="7.6763591"><ele>239.00000000000003</ele><time>2026-05-02T09:56:59.626Z</time></trkpt><trkpt lat="45.082713" lon="7.67629"><ele>239.0</ele><time>2026-05-02T09:57:04.636Z</time></trkpt><trkpt lat="45.0826458" lon="7.6762706"><ele>239.0</ele><time>2026-05-02T09:58:43.539Z</time></trkpt><trkpt lat="45.0826487" lon="7.6761675"><ele>239.0</ele><time>2026-05-02T09:59:22.601Z</time></trkpt><trkpt lat="45.0826891" lon="7.6760479"><ele>239.00000000000003</ele><time>2026-05-02T09:59:24.601Z</time></trkpt><trkpt lat="45.0827435" lon="7.6759013"><ele>239.0</ele><time>2026-05-02T09:59:26.601Z</time></trkpt><trkpt lat="45.0827862" lon="7.6758243"><ele>239.00000000000003</ele><time>2026-05-02T09:59:28.6Z</time></trkpt><trkpt lat="45.0828511" lon="7.6758129"><ele>239.0</ele><time>2026-05-02T09:59:30.601Z</time></trkpt><trkpt lat="45.0829495" lon="7.675889"><ele>239.0</ele><time>2026-05-02T09:59:32.601Z</time></trkpt><trkpt lat="45.0830017" lon="7.6759544"><ele>239.0</ele><time>2026-05-02T09:59:33.601Z</time></trkpt><trkpt lat="45.083074" lon="7.6760367"><ele>239.00000000000003</ele><time>2026-05-02T09:59:34.601Z</time></trkpt><trkpt lat="45.0831461" lon="7.6761081"><ele>239.0</ele><time>2026-05-02T09:59:35.6Z</time></trkpt><trkpt lat="45.0832204" lon="7.6761759"><ele>238.66666666666669</ele><time>2026-05-02T09:59:36.601Z</time></trkpt><trkpt lat="45.0833045" lon="7.6762346"><ele>238.33333333333334</ele><time>2026-05-02T09:59:37.601Z</time></trkpt><trkpt lat="45.0833954" lon="7.6762892"><ele>238.0</ele><time>2026-05-02T09:59:38.601Z</time></trkpt><trkpt lat="45.083465" lon="7.6763319"><ele>237.66666666666669</ele><time>2026-05-02T09:59:39.601Z</time></trkpt><trkpt lat="45.0835323" lon="7.6763617"><ele>237.33333333333334</ele><time>2026-05-02T09:59:40.601Z</time></trkpt><trkpt lat="45.0836049" lon="7.6763912"><ele>237.0</ele><time>2026-05-02T09:59:41.6Z</time></trkpt><trkpt lat="45.0837096" lon="7.6764506"><ele>237.0</ele><time>2026-05-02T09:59:43.6Z</time></trkpt><trkpt lat="45.0838072" lon="7.6765269"><ele>237.0</ele><time>2026-05-02T09:59:45.601Z</time></trkpt><trkpt lat="45.0838799" lon="7.6765793"><ele>237.0</ele><time>2026-05-02T09:59:46.601Z</time></trkpt><trkpt lat="45.0839616" lon="7.6766311"><ele>237.0</ele><time>2026-05-02T09:59:47.6Z</time></trkpt><trkpt lat="45.0840531" lon="7.6766861"><ele>237.0</ele><time>2026-05-02T09:59:48.6Z</time></trkpt><trkpt lat="45.0841412" lon="7.6767454"><ele>237.0</ele><time>2026-05-02T09:59:49.6Z</time></trkpt><trkpt lat="45.0842236" lon="7.676799"><ele>237.0</ele><time>2026-05-02T09:59:50.601Z</time></trkpt><trkpt lat="45.0842925" lon="7.6768372"><ele>237.0</ele><time>2026-05-02T09:59:51.601Z</time></trkpt><trkpt lat="45.0843968" lon="7.676891"><ele>237.0</ele><time>2026-05-02T09:59:53.6Z</time></trkpt><trkpt lat="45.0845234" lon="7.6769715"><ele>237.0</ele><time>2026-05-02T09:59:55.601Z</time></trkpt><trkpt lat="45.0846195" lon="7.6770339"><ele>237.0</ele><time>2026-05-02T09:59:56.601Z</time></trkpt><trkpt lat="45.0847115" lon="7.6770906"><ele>237.0</ele><time>2026-05-02T09:59:57.601Z</time></trkpt><trkpt lat="45.0848049" lon="7.6771513"><ele>237.0</ele><time>2026-05-02T09:59:58.601Z</time></trkpt><trkpt lat="45.0848933" lon="7.6772135"><ele>237.0</ele><time>2026-05-02T09:59:59.601Z</time></trkpt><trkpt lat="45.0849836" lon="7.6772754"><ele>237.0</ele><time>2026-05-02T10:00:00.6Z</time></trkpt><trkpt lat="45.085054" lon="7.6773254"><ele>236.5</ele><time>2026-05-02T10:00:01.6Z</time></trkpt><trkpt lat="45.0851203" lon="7.6773705"><ele>236.0</ele><time>2026-05-02T10:00:02.601Z</time></trkpt><trkpt lat="45.0851883" lon="7.6774169"><ele>235.5</ele><time>2026-05-02T10:00:03.601Z</time></trkpt><trkpt lat="45.0852679" lon="7.6774761"><ele>235.0</ele><time>2026-05-02T10:00:04.601Z</time></trkpt><trkpt lat="45.0853549" lon="7.6775398"><ele>234.5</ele><time>2026-05-02T10:00:05.601Z</time></trkpt><trkpt lat="45.0854346" lon="7.6776006"><ele>234.0</ele><time>2026-05-02T10:00:06.601Z</time></trkpt><trkpt lat="45.0855028" lon="7.6776471"><ele>234.0</ele><time>2026-05-02T10:00:07.601Z</time></trkpt><trkpt lat="45.0855874" lon="7.6777252"><ele>233.99999999999997</ele><time>2026-05-02T10:00:09.6Z</time></trkpt><trkpt lat="45.0855986" lon="7.6778199"><ele>233.99999999999997</ele><time>2026-05-02T10:00:11.601Z</time></trkpt><trkpt lat="45.0854876" lon="7.677963"><ele>234.0</ele><time>2026-05-02T10:00:13.601Z</time></trkpt><trkpt lat="45.0854218" lon="7.6780572"><ele>234.0</ele><time>2026-05-02T10:00:14.601Z</time></trkpt><trkpt lat="45.085334" lon="7.6781817"><ele>234.0</ele><time>2026-05-02T10:00:15.601Z</time></trkpt><trkpt lat="45.0852551" lon="7.6782951"><ele>234.0</ele><time>2026-05-02T10:00:16.601Z</time></trkpt><trkpt lat="45.0851939" lon="7.6783826"><ele>234.0</ele><time>2026-05-02T10:00:17.601Z</time></trkpt><trkpt lat="45.0851409" lon="7.6784536"><ele>234.0</ele><time>2026-05-02T10:00:18.601Z</time></trkpt><trkpt lat="45.0850993" lon="7.6785213"><ele>234.0</ele><time>2026-05-02T10:00:19.601Z</time></trkpt><trkpt lat="45.0850563" lon="7.678593"><ele>234.0</ele><time>2026-05-02T10:00:20.601Z</time></trkpt><trkpt lat="45.0850036" lon="7.6786665"><ele>234.5</ele><time>2026-05-02T10:00:21.6Z</time></trkpt><trkpt lat="45.0849478" lon="7.678751"><ele>235.0</ele><time>2026-05-02T10:00:22.601Z</time></trkpt><trkpt lat="45.0848883" lon="7.6788353"><ele>235.5</ele><time>2026-05-02T10:00:23.602Z</time></trkpt><trkpt lat="45.0848312" lon="7.6789213"><ele>236.0</ele><time>2026-05-02T10:00:24.601Z</time></trkpt><trkpt lat="45.0847736" lon="7.6790099"><ele>236.5</ele><time>2026-05-02T10:00:25.602Z</time></trkpt><trkpt lat="45.0847089" lon="7.679107"><ele>237.0</ele><time>2026-05-02T10:00:26.602Z</time></trkpt><trkpt lat="45.0846142" lon="7.6792443"><ele>237.2</ele><time>2026-05-02T10:00:27.602Z</time></trkpt><trkpt lat="45.0845204" lon="7.6793989"><ele>237.39999999999998</ele><time>2026-05-02T10:00:28.601Z</time></trkpt><trkpt lat="45.0844384" lon="7.6795216"><ele>237.60000000000002</ele><time>2026-05-02T10:00:29.601Z</time></trkpt><trkpt lat="45.084389" lon="7.6796091"><ele>237.8</ele><time>2026-05-02T10:00:30.602Z</time></trkpt><trkpt lat="45.0843635" lon="7.6797333"><ele>238.0</ele><time>2026-05-02T10:00:32.601Z</time></trkpt><trkpt lat="45.0843257" lon="7.6798524"><ele>237.2</ele><time>2026-05-02T10:00:35.602Z</time></trkpt><trkpt lat="45.0843651" lon="7.6800801"><ele>236.4</ele><time>2026-05-02T10:00:51.602Z</time></trkpt><trkpt lat="45.0844311" lon="7.680152"><ele>235.59999999999997</ele><time>2026-05-02T10:00:52.602Z</time></trkpt><trkpt lat="45.0845019" lon="7.6802155"><ele>234.79999999999998</ele><time>2026-05-02T10:00:53.602Z</time></trkpt><trkpt lat="45.0845784" lon="7.6802705"><ele>234.0</ele><time>2026-05-02T10:00:54.602Z</time></trkpt><trkpt lat="45.0846445" lon="7.6803113"><ele>233.71428571428572</ele><time>2026-05-02T10:00:55.602Z</time></trkpt><trkpt lat="45.0847078" lon="7.680358"><ele>233.42857142857144</ele><time>2026-05-02T10:00:56.602Z</time></trkpt><trkpt lat="45.0847765" lon="7.680402"><ele>233.14285714285717</ele><time>2026-05-02T10:00:57.602Z</time></trkpt><trkpt lat="45.0848419" lon="7.6804493"><ele>232.8571428571429</ele><time>2026-05-02T10:00:58.602Z</time></trkpt><trkpt lat="45.0849127" lon="7.6805"><ele>232.57142857142858</ele><time>2026-05-02T10:00:59.601Z</time></trkpt><trkpt lat="45.0849846" lon="7.6805383"><ele>232.28571428571433</ele><time>2026-05-02T10:01:00.601Z</time></trkpt><trkpt lat="45.0850453" lon="7.6805664"><ele>232.00000000000003</ele><time>2026-05-02T10:01:01.602Z</time></trkpt><trkpt lat="45.0851055" lon="7.6805994"><ele>232.0</ele><time>2026-05-02T10:01:02.602Z</time></trkpt><trkpt lat="45.085186" lon="7.6806499"><ele>232.0</ele><time>2026-05-02T10:01:04.602Z</time></trkpt><trkpt lat="45.0852608" lon="7.6807198"><ele>232.0</ele><time>2026-05-02T10:01:50.602Z</time></trkpt><trkpt lat="45.0852739" lon="7.6808578"><ele>232.0</ele><time>2026-05-02T10:01:52.602Z</time></trkpt><trkpt lat="45.0852353" lon="7.6809746"><ele>232.0</ele><time>2026-05-02T10:01:53.602Z</time></trkpt><trkpt lat="45.0851633" lon="7.6810785"><ele>231.83333333333331</ele><time>2026-05-02T10:01:54.601Z</time></trkpt><trkpt lat="45.0851019" lon="7.681162"><ele>231.66666666666666</ele><time>2026-05-02T10:01:55.602Z</time></trkpt><trkpt lat="45.0850472" lon="7.6812421"><ele>231.5</ele><time>2026-05-02T10:01:56.602Z</time></trkpt><trkpt lat="45.0850092" lon="7.6813276"><ele>231.33333333333331</ele><time>2026-05-02T10:01:57.601Z</time></trkpt><trkpt lat="45.0849748" lon="7.6814381"><ele>231.16666666666666</ele><time>2026-05-02T10:01:58.602Z</time></trkpt><trkpt lat="45.0849317" lon="7.6815705"><ele>231.0</ele><time>2026-05-02T10:01:59.601Z</time></trkpt><trkpt lat="45.0848889" lon="7.681725"><ele>231.25</ele><time>2026-05-02T10:02:00.602Z</time></trkpt><trkpt lat="45.0848412" lon="7.6818959"><ele>231.5</ele><time>2026-05-02T10:02:01.601Z</time></trkpt><trkpt lat="45.0847997" lon="7.6820944"><ele>231.75</ele><time>2026-05-02T10:02:02.601Z</time></trkpt><trkpt lat="45.0847442" lon="7.6822921"><ele>232.0</ele><time>2026-05-02T10:02:03.601Z</time></trkpt><trkpt lat="45.0846861" lon="7.6824956"><ele>232.0</ele><time>2026-05-02T10:02:04.602Z</time></trkpt><trkpt lat="45.0846251" lon="7.6826972"><ele>232.0</ele><time>2026-05-02T10:02:05.601Z</time></trkpt><trkpt lat="45.0845681" lon="7.6828825"><ele>232.0</ele><time>2026-05-02T10:02:06.602Z</time></trkpt><trkpt lat="45.0845129" lon="7.6830489"><ele>232.0</ele><time>2026-05-02T10:02:07.602Z</time></trkpt><trkpt lat="45.0844709" lon="7.683222"><ele>232.25</ele><time>2026-05-02T10:02:08.601Z</time></trkpt><trkpt lat="45.0844161" lon="7.6833786"><ele>232.5</ele><time>2026-05-02T10:02:09.602Z</time></trkpt><trkpt lat="45.084362" lon="7.6835466"><ele>232.75</ele><time>2026-05-02T10:02:10.601Z</time></trkpt><trkpt lat="45.0842809" lon="7.6837349"><ele>233.0</ele><time>2026-05-02T10:02:11.602Z</time></trkpt><trkpt lat="45.0842174" lon="7.6839074"><ele>233.0</ele><time>2026-05-02T10:02:12.601Z</time></trkpt><trkpt lat="45.0841566" lon="7.6840815"><ele>233.0</ele><time>2026-05-02T10:02:13.602Z</time></trkpt><trkpt lat="45.0841008" lon="7.6842529"><ele>233.0</ele><time>2026-05-02T10:02:14.601Z</time></trkpt><trkpt lat="45.0840489" lon="7.6844133"><ele>233.0</ele><time>2026-05-02T10:02:15.601Z</time></trkpt><trkpt lat="45.0840008" lon="7.684557"><ele>233.0</ele><time>2026-05-02T10:02:16.602Z</time></trkpt><trkpt lat="45.0839519" lon="7.6846742"><ele>233.0</ele><time>2026-05-02T10:02:17.601Z</time></trkpt><trkpt lat="45.0839116" lon="7.684786"><ele>233.0</ele><time>2026-05-02T10:02:18.602Z</time></trkpt><trkpt lat="45.0838717" lon="7.6848846"><ele>233.0</ele><time>2026-05-02T10:02:19.602Z</time></trkpt><trkpt lat="45.0838463" lon="7.6849721"><ele>233.0</ele><time>2026-05-02T10:02:20.602Z</time></trkpt><trkpt lat="45.0838005" lon="7.6851299"><ele>233.0</ele><time>2026-05-02T10:02:22.601Z</time></trkpt><trkpt lat="45.0837459" lon="7.685237"><ele>233.0</ele><time>2026-05-02T10:02:24.601Z</time></trkpt><trkpt lat="45.0836988" lon="7.6853149"><ele>233.0</ele><time>2026-05-02T10:02:26.602Z</time></trkpt><trkpt lat="45.0836614" lon="7.6854946"><ele>233.0</ele><time>2026-05-02T10:02:28.603Z</time></trkpt><trkpt lat="45.0836334" lon="7.6856184"><ele>233.0</ele><time>2026-05-02T10:02:29.602Z</time></trkpt><trkpt lat="45.0835947" lon="7.6857689"><ele>233.25</ele><time>2026-05-02T10:02:30.603Z</time></trkpt><trkpt lat="45.0835519" lon="7.6859222"><ele>233.5</ele><time>2026-05-02T10:02:31.602Z</time></trkpt><trkpt lat="45.0834948" lon="7.6861026"><ele>233.75</ele><time>2026-05-02T10:02:32.603Z</time></trkpt><trkpt lat="45.0834317" lon="7.6863007"><ele>234.0</ele><time>2026-05-02T10:02:33.603Z</time></trkpt><trkpt lat="45.0833614" lon="7.6865166"><ele>234.0</ele><time>2026-05-02T10:02:34.603Z</time></trkpt><trkpt lat="45.0832936" lon="7.686715"><ele>234.0</ele><time>2026-05-02T10:02:35.603Z</time></trkpt><trkpt lat="45.0832327" lon="7.6868984"><ele>234.0</ele><time>2026-05-02T10:02:36.602Z</time></trkpt><trkpt lat="45.0831826" lon="7.687056"><ele>234.0</ele><time>2026-05-02T10:02:37.603Z</time></trkpt><trkpt lat="45.0831413" lon="7.6871858"><ele>234.5</ele><time>2026-05-02T10:02:38.602Z</time></trkpt><trkpt lat="45.0831078" lon="7.6872999"><ele>235.0</ele><time>2026-05-02T10:02:39.603Z</time></trkpt><trkpt lat="45.0830842" lon="7.6873891"><ele>235.5</ele><time>2026-05-02T10:02:40.602Z</time></trkpt><trkpt lat="45.0830634" lon="7.6875036"><ele>236.0</ele><time>2026-05-02T10:02:42.603Z</time></trkpt><trkpt lat="45.0830766" lon="7.6874046"><ele>236.5</ele><time>2026-05-02T10:03:07.603Z</time></trkpt><trkpt lat="45.0830077" lon="7.6875704"><ele>237.0</ele><time>2026-05-02T10:03:09.603Z</time></trkpt><trkpt lat="45.0829793" lon="7.6876643"><ele>236.8</ele><time>2026-05-02T10:03:10.603Z</time></trkpt><trkpt lat="45.0829514" lon="7.6877669"><ele>236.6</ele><time>2026-05-02T10:03:11.603Z</time></trkpt><trkpt lat="45.0829273" lon="7.687864"><ele>236.40000000000003</ele><time>2026-05-02T10:03:12.603Z</time></trkpt><trkpt lat="45.0828595" lon="7.6880816"><ele>236.20000000000002</ele><time>2026-05-02T10:03:25.603Z</time></trkpt><trkpt lat="45.0828363" lon="7.6882052"><ele>236.0</ele><time>2026-05-02T10:03:26.602Z</time></trkpt><trkpt lat="45.0828123" lon="7.6883202"><ele>236.0</ele><time>2026-05-02T10:03:27.603Z</time></trkpt><trkpt lat="45.0827753" lon="7.688433"><ele>236.00000000000003</ele><time>2026-05-02T10:03:28.603Z</time></trkpt><trkpt lat="45.0827222" lon="7.6885636"><ele>236.00000000000003</ele><time>2026-05-02T10:03:29.603Z</time></trkpt><trkpt lat="45.0826597" lon="7.6887087"><ele>236.0</ele><time>2026-05-02T10:03:30.603Z</time></trkpt><trkpt lat="45.082596" lon="7.688861"><ele>236.0</ele><time>2026-05-02T10:03:31.602Z</time></trkpt><trkpt lat="45.0825373" lon="7.6890364"><ele>235.8</ele><time>2026-05-02T10:03:32.603Z</time></trkpt><trkpt lat="45.0824864" lon="7.689196"><ele>235.60000000000002</ele><time>2026-05-02T10:03:33.603Z</time></trkpt><trkpt lat="45.0824352" lon="7.6893444"><ele>235.4</ele><time>2026-05-02T10:03:34.603Z</time></trkpt><trkpt lat="45.0823893" lon="7.689477"><ele>235.2</ele><time>2026-05-02T10:03:35.603Z</time></trkpt><trkpt lat="45.0823386" lon="7.6895804"><ele>235.0</ele><time>2026-05-02T10:03:36.602Z</time></trkpt><trkpt lat="45.0823023" lon="7.6896745"><ele>234.83333333333331</ele><time>2026-05-02T10:03:37.603Z</time></trkpt><trkpt lat="45.0822708" lon="7.6897638"><ele>234.66666666666666</ele><time>2026-05-02T10:03:38.603Z</time></trkpt><trkpt lat="45.0822409" lon="7.6898651"><ele>234.5</ele><time>2026-05-02T10:03:39.602Z</time></trkpt><trkpt lat="45.0822093" lon="7.6899694"><ele>234.33333333333331</ele><time>2026-05-02T10:03:40.603Z</time></trkpt><trkpt lat="45.0821787" lon="7.6900798"><ele>234.16666666666666</ele><time>2026-05-02T10:03:41.603Z</time></trkpt><trkpt lat="45.0821506" lon="7.6901904"><ele>234.0</ele><time>2026-05-02T10:03:42.602Z</time></trkpt><trkpt lat="45.0821175" lon="7.6903119"><ele>234.0</ele><time>2026-05-02T10:03:43.603Z</time></trkpt><trkpt lat="45.0820842" lon="7.6904188"><ele>233.99999999999997</ele><time>2026-05-02T10:03:44.603Z</time></trkpt><trkpt lat="45.0820539" lon="7.6905103"><ele>233.99999999999997</ele><time>2026-05-02T10:03:45.602Z</time></trkpt><trkpt lat="45.0820177" lon="7.6906603"><ele>234.0</ele><time>2026-05-02T10:03:47.602Z</time></trkpt><trkpt lat="45.0819746" lon="7.6908292"><ele>234.0</ele><time>2026-05-02T10:03:49.603Z</time></trkpt><trkpt lat="45.0819454" lon="7.6909509"><ele>234.0</ele><time>2026-05-02T10:03:50.603Z</time></trkpt><trkpt lat="45.0819001" lon="7.6910684"><ele>233.99999999999997</ele><time>2026-05-02T10:03:51.603Z</time></trkpt><trkpt lat="45.0818437" lon="7.6911987"><ele>233.99999999999997</ele><time>2026-05-02T10:03:52.602Z</time></trkpt><trkpt lat="45.081792" lon="7.6913188"><ele>234.0</ele><time>2026-05-02T10:03:53.603Z</time></trkpt><trkpt lat="45.0817439" lon="7.6914356"><ele>234.0</ele><time>2026-05-02T10:03:54.603Z</time></trkpt><trkpt lat="45.081701" lon="7.6915447"><ele>233.83333333333334</ele><time>2026-05-02T10:03:55.603Z</time></trkpt><trkpt lat="45.0816663" lon="7.6916528"><ele>233.66666666666669</ele><time>2026-05-02T10:03:56.602Z</time></trkpt><trkpt lat="45.0816281" lon="7.6917522"><ele>233.5</ele><time>2026-05-02T10:03:57.603Z</time></trkpt><trkpt lat="45.0815956" lon="7.6918483"><ele>233.33333333333334</ele><time>2026-05-02T10:03:58.603Z</time></trkpt><trkpt lat="45.0815649" lon="7.6919412"><ele>233.16666666666669</ele><time>2026-05-02T10:03:59.602Z</time></trkpt><trkpt lat="45.0815367" lon="7.6920345"><ele>233.0</ele><time>2026-05-02T10:04:00.603Z</time></trkpt><trkpt lat="45.0814985" lon="7.6921948"><ele>233.00000000000003</ele><time>2026-05-02T10:04:02.602Z</time></trkpt><trkpt lat="45.0814592" lon="7.6922809"><ele>233.0</ele><time>2026-05-02T10:04:03.602Z</time></trkpt><trkpt lat="45.081428" lon="7.6923634"><ele>233.0</ele><time>2026-05-02T10:04:04.603Z</time></trkpt><trkpt lat="45.0813931" lon="7.6924728"><ele>233.0</ele><time>2026-05-02T10:04:06.603Z</time></trkpt><trkpt lat="45.0813368" lon="7.6925594"><ele>233.00000000000003</ele><time>2026-05-02T10:04:09.603Z</time></trkpt><trkpt lat="45.0812796" lon="7.6926903"><ele>233.0</ele><time>2026-05-02T10:04:11.602Z</time></trkpt><trkpt lat="45.081241" lon="7.6927849"><ele>233.0</ele><time>2026-05-02T10:04:12.602Z</time></trkpt><trkpt lat="45.0811985" lon="7.6929022"><ele>233.0</ele><time>2026-05-02T10:04:13.603Z</time></trkpt><trkpt lat="45.0811541" lon="7.6930248"><ele>233.0</ele><time>2026-05-02T10:04:14.603Z</time></trkpt><trkpt lat="45.0811122" lon="7.6931476"><ele>233.0</ele><time>2026-05-02T10:04:15.603Z</time></trkpt><trkpt lat="45.0810735" lon="7.6932696"><ele>233.0</ele><time>2026-05-02T10:04:16.602Z</time></trkpt><trkpt lat="45.0810366" lon="7.6933861"><ele>233.0</ele><time>2026-05-02T10:04:17.603Z</time></trkpt><trkpt lat="45.080996" lon="7.6935132"><ele>233.0</ele><time>2026-05-02T10:04:18.602Z</time></trkpt><trkpt lat="45.0809532" lon="7.6936426"><ele>233.0</ele><time>2026-05-02T10:04:19.603Z</time></trkpt><trkpt lat="45.0809102" lon="7.6937767"><ele>233.0</ele><time>2026-05-02T10:04:20.603Z</time></trkpt><trkpt lat="45.0808688" lon="7.6939093"><ele>233.0</ele><time>2026-05-02T10:04:21.602Z</time></trkpt><trkpt lat="45.0808312" lon="7.6940347"><ele>232.60000000000002</ele><time>2026-05-02T10:04:22.603Z</time></trkpt><trkpt lat="45.0807976" lon="7.6941598"><ele>232.20000000000002</ele><time>2026-05-02T10:04:23.602Z</time></trkpt><trkpt lat="45.0807666" lon="7.6942872"><ele>231.8</ele><time>2026-05-02T10:04:24.602Z</time></trkpt><trkpt lat="45.0807304" lon="7.6944133"><ele>231.4</ele><time>2026-05-02T10:04:25.603Z</time></trkpt><trkpt lat="45.0806946" lon="7.6945371"><ele>231.0</ele><time>2026-05-02T10:04:26.603Z</time></trkpt><trkpt lat="45.0806531" lon="7.6946553"><ele>230.5</ele><time>2026-05-02T10:04:27.603Z</time></trkpt><trkpt lat="45.0806012" lon="7.6947803"><ele>230.0</ele><time>2026-05-02T10:04:28.603Z</time></trkpt><trkpt lat="45.0805592" lon="7.694899"><ele>229.5</ele><time>2026-05-02T10:04:29.603Z</time></trkpt><trkpt lat="45.0805216" lon="7.6950088"><ele>229.0</ele><time>2026-05-02T10:04:30.603Z</time></trkpt><trkpt lat="45.0804852" lon="7.6951137"><ele>228.5</ele><time>2026-05-02T10:04:31.603Z</time></trkpt><trkpt lat="45.0804501" lon="7.6952185"><ele>228.0</ele><time>2026-05-02T10:04:32.603Z</time></trkpt><trkpt lat="45.0804143" lon="7.6953246"><ele>228.0</ele><time>2026-05-02T10:04:33.604Z</time></trkpt><trkpt lat="45.0803768" lon="7.6954344"><ele>228.0</ele><time>2026-05-02T10:04:34.604Z</time></trkpt><trkpt lat="45.0803404" lon="7.695548"><ele>228.0</ele><time>2026-05-02T10:04:35.603Z</time></trkpt><trkpt lat="45.0803043" lon="7.6956606"><ele>228.0</ele><time>2026-05-02T10:04:36.604Z</time></trkpt><trkpt lat="45.0802693" lon="7.6957682"><ele>228.0</ele><time>2026-05-02T10:04:37.603Z</time></trkpt><trkpt lat="45.0802408" lon="7.6958669"><ele>228.0</ele><time>2026-05-02T10:04:38.604Z</time></trkpt><trkpt lat="45.0801934" lon="7.6960317"><ele>228.2</ele><time>2026-05-02T10:04:40.604Z</time></trkpt><trkpt lat="45.0801632" lon="7.6961237"><ele>228.4</ele><time>2026-05-02T10:04:41.603Z</time></trkpt><trkpt lat="45.0801209" lon="7.6962298"><ele>228.59999999999997</ele><time>2026-05-02T10:04:42.604Z</time></trkpt><trkpt lat="45.0800741" lon="7.6963547"><ele>228.79999999999998</ele><time>2026-05-02T10:04:43.604Z</time></trkpt><trkpt lat="45.0800293" lon="7.696488"><ele>229.0</ele><time>2026-05-02T10:04:44.603Z</time></trkpt><trkpt lat="45.0799855" lon="7.6966422"><ele>229.0</ele><time>2026-05-02T10:04:45.603Z</time></trkpt><trkpt lat="45.0799345" lon="7.6968297"><ele>229.0</ele><time>2026-05-02T10:04:46.603Z</time></trkpt><trkpt lat="45.07988" lon="7.6970217"><ele>229.0</ele><time>2026-05-02T10:04:47.604Z</time></trkpt><trkpt lat="45.0798224" lon="7.6971935"><ele>229.0</ele><time>2026-05-02T10:04:48.603Z</time></trkpt><trkpt lat="45.0797567" lon="7.6973604"><ele>229.0</ele><time>2026-05-02T10:04:49.604Z</time></trkpt><trkpt lat="45.0797105" lon="7.6975249"><ele>228.99999999999997</ele><time>2026-05-02T10:04:50.603Z</time></trkpt><trkpt lat="45.0796696" lon="7.6976644"><ele>228.99999999999997</ele><time>2026-05-02T10:04:51.604Z</time></trkpt><trkpt lat="45.0796299" lon="7.6977928"><ele>229.0</ele><time>2026-05-02T10:04:52.604Z</time></trkpt><trkpt lat="45.0795822" lon="7.6979278"><ele>229.0</ele><time>2026-05-02T10:04:53.604Z</time></trkpt><trkpt lat="45.0795136" lon="7.6980555"><ele>229.0</ele><time>2026-05-02T10:04:54.604Z</time></trkpt><trkpt lat="45.0794158" lon="7.6981905"><ele>229.0</ele><time>2026-05-02T10:04:55.604Z</time></trkpt><trkpt lat="45.0792998" lon="7.6983041"><ele>229.0</ele><time>2026-05-02T10:04:56.604Z</time></trkpt><trkpt lat="45.079187" lon="7.6984001"><ele>229.0</ele><time>2026-05-02T10:04:57.604Z</time></trkpt><trkpt lat="45.0790866" lon="7.6984811"><ele>228.99999999999997</ele><time>2026-05-02T10:04:58.604Z</time></trkpt><trkpt lat="45.0790032" lon="7.6985481"><ele>229.0</ele><time>2026-05-02T10:04:59.604Z</time></trkpt><trkpt lat="45.0789335" lon="7.6985979"><ele>229.0</ele><time>2026-05-02T10:05:00.604Z</time></trkpt><trkpt lat="45.0788397" lon="7.6986612"><ele>229.0</ele><time>2026-05-02T10:05:02.603Z</time></trkpt><trkpt lat="45.0787582" lon="7.6987103"><ele>228.99999999999997</ele><time>2026-05-02T10:05:04.604Z</time></trkpt><trkpt lat="45.0786992" lon="7.6987607"><ele>229.0</ele><time>2026-05-02T10:05:06.604Z</time></trkpt><trkpt lat="45.0787187" lon="7.6988919"><ele>229.0</ele><time>2026-05-02T10:05:20.604Z</time></trkpt><trkpt lat="45.0787564" lon="7.6990015"><ele>228.99999999999997</ele><time>2026-05-02T10:05:21.603Z</time></trkpt><trkpt lat="45.0787989" lon="7.6991053"><ele>228.99999999999997</ele><time>2026-05-02T10:05:22.603Z</time></trkpt><trkpt lat="45.0788603" lon="7.6992415"><ele>229.0</ele><time>2026-05-02T10:05:23.603Z</time></trkpt><trkpt lat="45.0789363" lon="7.6993963"><ele>229.0</ele><time>2026-05-02T10:05:24.603Z</time></trkpt><trkpt lat="45.0789989" lon="7.6995587"><ele>228.2</ele><time>2026-05-02T10:05:25.604Z</time></trkpt><trkpt lat="45.0790638" lon="7.6997298"><ele>227.39999999999998</ele><time>2026-05-02T10:05:26.604Z</time></trkpt><trkpt lat="45.0791272" lon="7.6998629"><ele>226.6</ele><time>2026-05-02T10:05:27.604Z</time></trkpt><trkpt lat="45.079186" lon="7.6999781"><ele>225.8</ele><time>2026-05-02T10:05:28.604Z</time></trkpt><trkpt lat="45.0792335" lon="7.7000616"><ele>225.0</ele><time>2026-05-02T10:05:29.604Z</time></trkpt><trkpt lat="45.0792757" lon="7.7001375"><ele>225.0</ele><time>2026-05-02T10:05:30.604Z</time></trkpt><trkpt lat="45.0793253" lon="7.7002248"><ele>225.0</ele><time>2026-05-02T10:05:32.604Z</time></trkpt><trkpt lat="45.0793709" lon="7.7002869"><ele>225.0</ele><time>2026-05-02T10:05:35.603Z</time></trkpt><trkpt lat="45.0793989" lon="7.7004104"><ele>225.0</ele><time>2026-05-02T10:06:20.604Z</time></trkpt><trkpt lat="45.0794349" lon="7.700497"><ele>225.0</ele><time>2026-05-02T10:06:23.604Z</time></trkpt><trkpt lat="45.079427" lon="7.7005873"><ele>225.0</ele><time>2026-05-02T10:06:25.605Z</time></trkpt><trkpt lat="45.0793132" lon="7.7007127"><ele>225.0</ele><time>2026-05-02T10:06:27.604Z</time></trkpt><trkpt lat="45.0792313" lon="7.7007688"><ele>225.0</ele><time>2026-05-02T10:06:28.605Z</time></trkpt><trkpt lat="45.0791498" lon="7.700827"><ele>225.0</ele><time>2026-05-02T10:06:29.605Z</time></trkpt><trkpt lat="45.0790756" lon="7.7008856"><ele>225.0</ele><time>2026-05-02T10:06:30.605Z</time></trkpt><trkpt lat="45.0790134" lon="7.7009473"><ele>225.0</ele><time>2026-05-02T10:06:31.605Z</time></trkpt><trkpt lat="45.078959" lon="7.700995"><ele>225.0</ele><time>2026-05-02T10:06:32.605Z</time></trkpt><trkpt lat="45.0788743" lon="7.7010743"><ele>225.0</ele><time>2026-05-02T10:06:34.604Z</time></trkpt><trkpt lat="45.0787515" lon="7.7011976"><ele>225.0</ele><time>2026-05-02T10:06:47.604Z</time></trkpt><trkpt lat="45.0786394" lon="7.7012885"><ele>225.0</ele><time>2026-05-02T10:06:49.605Z</time></trkpt><trkpt lat="45.0785705" lon="7.7013471"><ele>225.0</ele><time>2026-05-02T10:06:50.605Z</time></trkpt><trkpt lat="45.0784964" lon="7.7014151"><ele>225.0</ele><time>2026-05-02T10:06:51.605Z</time></trkpt><trkpt lat="45.0784102" lon="7.7014902"><ele>225.0</ele><time>2026-05-02T10:06:52.605Z</time></trkpt><trkpt lat="45.0783151" lon="7.7015756"><ele>225.0</ele><time>2026-05-02T10:06:53.605Z</time></trkpt><trkpt lat="45.0782253" lon="7.7016569"><ele>225.0</ele><time>2026-05-02T10:06:54.605Z</time></trkpt><trkpt lat="45.0781428" lon="7.7017329"><ele>225.0</ele><time>2026-05-02T10:06:55.605Z</time></trkpt><trkpt lat="45.0780572" lon="7.7018092"><ele>225.0</ele><time>2026-05-02T10:06:56.604Z</time></trkpt><trkpt lat="45.0779651" lon="7.7018886"><ele>224.8</ele><time>2026-05-02T10:06:57.605Z</time></trkpt><trkpt lat="45.0778789" lon="7.7019627"><ele>224.6</ele><time>2026-05-02T10:06:58.604Z</time></trkpt><trkpt lat="45.0777864" lon="7.7020395"><ele>224.39999999999998</ele><time>2026-05-02T10:06:59.605Z</time></trkpt><trkpt lat="45.0776957" lon="7.7021216"><ele>224.2</ele><time>2026-05-02T10:07:00.605Z</time></trkpt><trkpt lat="45.0776003" lon="7.7022091"><ele>224.0</ele><time>2026-05-02T10:07:01.604Z</time></trkpt><trkpt lat="45.0775123" lon="7.702291"><ele>223.79999999999998</ele><time>2026-05-02T10:07:02.604Z</time></trkpt><trkpt lat="45.0774268" lon="7.7023714"><ele>223.59999999999997</ele><time>2026-05-02T10:07:03.605Z</time></trkpt><trkpt lat="45.0773445" lon="7.7024467"><ele>223.4</ele><time>2026-05-02T10:07:04.605Z</time></trkpt><trkpt lat="45.0772613" lon="7.7025219"><ele>223.2</ele><time>2026-05-02T10:07:05.605Z</time></trkpt><trkpt lat="45.0771821" lon="7.7025923"><ele>223.0</ele><time>2026-05-02T10:07:06.605Z</time></trkpt><trkpt lat="45.0771074" lon="7.7026559"><ele>222.99999999999997</ele><time>2026-05-02T10:07:07.604Z</time></trkpt><trkpt lat="45.077036" lon="7.7027196"><ele>223.0</ele><time>2026-05-02T10:07:08.605Z</time></trkpt><trkpt lat="45.076967" lon="7.7027825"><ele>223.0</ele><time>2026-05-02T10:07:09.605Z</time></trkpt><trkpt lat="45.0768955" lon="7.7028466"><ele>223.0</ele><time>2026-05-02T10:07:10.605Z</time></trkpt><trkpt lat="45.0768239" lon="7.7029126"><ele>222.99999999999997</ele><time>2026-05-02T10:07:11.605Z</time></trkpt><trkpt lat="45.0767639" lon="7.7029763"><ele>223.0</ele><time>2026-05-02T10:07:12.604Z</time></trkpt><trkpt lat="45.0767027" lon="7.7030382"><ele>223.16666666666666</ele><time>2026-05-02T10:07:13.605Z</time></trkpt><trkpt lat="45.0766345" lon="7.7030998"><ele>223.33333333333331</ele><time>2026-05-02T10:07:14.604Z</time></trkpt><trkpt lat="45.0765693" lon="7.7031589"><ele>223.5</ele><time>2026-05-02T10:07:15.605Z</time></trkpt><trkpt lat="45.076507" lon="7.7032219"><ele>223.66666666666669</ele><time>2026-05-02T10:07:16.604Z</time></trkpt><trkpt lat="45.0764466" lon="7.7032863"><ele>223.83333333333334</ele><time>2026-05-02T10:07:17.605Z</time></trkpt><trkpt lat="45.0763866" lon="7.7033478"><ele>224.0</ele><time>2026-05-02T10:07:18.605Z</time></trkpt><trkpt lat="45.076304" lon="7.7034395"><ele>224.2</ele><time>2026-05-02T10:07:20.604Z</time></trkpt><trkpt lat="45.0762372" lon="7.7035228"><ele>224.39999999999998</ele><time>2026-05-02T10:07:22.605Z</time></trkpt><trkpt lat="45.0761409" lon="7.7036188"><ele>224.6</ele><time>2026-05-02T10:07:24.605Z</time></trkpt><trkpt lat="45.0760509" lon="7.7037189"><ele>224.8</ele><time>2026-05-02T10:07:26.605Z</time></trkpt><trkpt lat="45.0759633" lon="7.7038014"><ele>225.0</ele><time>2026-05-02T10:07:28.605Z</time></trkpt><trkpt lat="45.0758937" lon="7.7038538"><ele>225.0</ele><time>2026-05-02T10:07:29.604Z</time></trkpt><trkpt lat="45.0758117" lon="7.7039214"><ele>225.0</ele><time>2026-05-02T10:07:30.604Z</time></trkpt><trkpt lat="45.0757198" lon="7.703997"><ele>225.0</ele><time>2026-05-02T10:07:31.605Z</time></trkpt><trkpt lat="45.0756505" lon="7.7040602"><ele>225.0</ele><time>2026-05-02T10:07:32.604Z</time></trkpt><trkpt lat="45.0755758" lon="7.704129"><ele>225.0</ele><time>2026-05-02T10:07:33.605Z</time></trkpt><trkpt lat="45.0754907" lon="7.7042103"><ele>224.6</ele><time>2026-05-02T10:07:34.605Z</time></trkpt><trkpt lat="45.0754043" lon="7.7042973"><ele>224.2</ele><time>2026-05-02T10:07:35.605Z</time></trkpt><trkpt lat="45.075326" lon="7.7043812"><ele>223.8</ele><time>2026-05-02T10:07:36.605Z</time></trkpt><trkpt lat="45.0752466" lon="7.7044649"><ele>223.4</ele><time>2026-05-02T10:07:37.605Z</time></trkpt><trkpt lat="45.0751724" lon="7.704543"><ele>223.0</ele><time>2026-05-02T10:07:38.605Z</time></trkpt><trkpt lat="45.0750964" lon="7.7046274"><ele>222.5</ele><time>2026-05-02T10:07:39.605Z</time></trkpt><trkpt lat="45.0750205" lon="7.7047149"><ele>222.0</ele><time>2026-05-02T10:07:40.605Z</time></trkpt><trkpt lat="45.0749288" lon="7.7048223"><ele>221.5</ele><time>2026-05-02T10:07:41.605Z</time></trkpt><trkpt lat="45.0748144" lon="7.7049443"><ele>221.0</ele><time>2026-05-02T10:07:42.605Z</time></trkpt><trkpt lat="45.0746768" lon="7.7050738"><ele>221.66666666666669</ele><time>2026-05-02T10:07:43.604Z</time></trkpt><trkpt lat="45.0745313" lon="7.7052018"><ele>222.33333333333331</ele><time>2026-05-02T10:07:44.605Z</time></trkpt><trkpt lat="45.0743792" lon="7.7053374"><ele>223.0</ele><time>2026-05-02T10:07:45.605Z</time></trkpt><trkpt lat="45.0742232" lon="7.7054724"><ele>223.0</ele><time>2026-05-02T10:07:46.604Z</time></trkpt><trkpt lat="45.0740524" lon="7.70562"><ele>223.0</ele><time>2026-05-02T10:07:47.605Z</time></trkpt><trkpt lat="45.0738776" lon="7.7057639"><ele>223.0</ele><time>2026-05-02T10:07:48.605Z</time></trkpt><trkpt lat="45.073714" lon="7.7059003"><ele>223.0</ele><time>2026-05-02T10:07:49.604Z</time></trkpt><trkpt lat="45.073553" lon="7.706035"><ele>223.0</ele><time>2026-05-02T10:07:50.605Z</time></trkpt><trkpt lat="45.073399" lon="7.7061738"><ele>223.0</ele><time>2026-05-02T10:07:51.605Z</time></trkpt><trkpt lat="45.0732436" lon="7.7063119"><ele>223.66666666666666</ele><time>2026-05-02T10:07:52.604Z</time></trkpt><trkpt lat="45.0730909" lon="7.7064509"><ele>224.33333333333331</ele><time>2026-05-02T10:07:53.605Z</time></trkpt><trkpt lat="45.0729355" lon="7.7065939"><ele>225.0</ele><time>2026-05-02T10:07:54.605Z</time></trkpt><trkpt lat="45.0727768" lon="7.706733"><ele>225.0</ele><time>2026-05-02T10:07:55.605Z</time></trkpt><trkpt lat="45.0726222" lon="7.7068752"><ele>225.0</ele><time>2026-05-02T10:07:56.605Z</time></trkpt><trkpt lat="45.0724721" lon="7.7069836"><ele>225.0</ele><time>2026-05-02T10:07:57.604Z</time></trkpt><trkpt lat="45.0723389" lon="7.7070959"><ele>225.66666666666669</ele><time>2026-05-02T10:07:58.605Z</time></trkpt><trkpt lat="45.0722154" lon="7.7072034"><ele>226.33333333333334</ele><time>2026-05-02T10:07:59.605Z</time></trkpt><trkpt lat="45.0720939" lon="7.7073213"><ele>227.0</ele><time>2026-05-02T10:08:00.605Z</time></trkpt><trkpt lat="45.0719325" lon="7.7073826"><ele>227.0</ele><time>2026-05-02T10:08:01.605Z</time></trkpt><trkpt lat="45.071777" lon="7.7074421"><ele>227.0</ele><time>2026-05-02T10:08:02.605Z</time></trkpt><trkpt lat="45.0716147" lon="7.7074929"><ele>227.0</ele><time>2026-05-02T10:08:03.604Z</time></trkpt><trkpt lat="45.0714514" lon="7.7075508"><ele>228.66666666666669</ele><time>2026-05-02T10:08:04.605Z</time></trkpt><trkpt lat="45.0712819" lon="7.707606"><ele>230.33333333333331</ele><time>2026-05-02T10:08:05.605Z</time></trkpt><trkpt lat="45.0710959" lon="7.7076674"><ele>232.0</ele><time>2026-05-02T10:08:06.604Z</time></trkpt><trkpt lat="45.070914" lon="7.7077289"><ele>231.33333333333331</ele><time>2026-05-02T10:08:07.605Z</time></trkpt><trkpt lat="45.0707241" lon="7.7077806"><ele>230.66666666666669</ele><time>2026-05-02T10:08:08.605Z</time></trkpt><trkpt lat="45.0705477" lon="7.7078283"><ele>230.0</ele><time>2026-05-02T10:08:09.605Z</time></trkpt><trkpt lat="45.0703834" lon="7.7078821"><ele>230.0</ele><time>2026-05-02T10:08:10.605Z</time></trkpt><trkpt lat="45.0702088" lon="7.7079367"><ele>230.0</ele><time>2026-05-02T10:08:11.605Z</time></trkpt><trkpt lat="45.0700446" lon="7.7079774"><ele>230.0</ele><time>2026-05-02T10:08:12.605Z</time></trkpt><trkpt lat="45.0698873" lon="7.7080145"><ele>228.25</ele><time>2026-05-02T10:08:13.604Z</time></trkpt><trkpt lat="45.0697357" lon="7.7080569"><ele>226.5</ele><time>2026-05-02T10:08:14.604Z</time></trkpt><trkpt lat="45.0695988" lon="7.7081018"><ele>224.75</ele><time>2026-05-02T10:08:15.605Z</time></trkpt><trkpt lat="45.0694711" lon="7.7081487"><ele>223.0</ele><time>2026-05-02T10:08:16.605Z</time></trkpt><trkpt lat="45.069353" lon="7.7081871"><ele>223.0</ele><time>2026-05-02T10:08:17.605Z</time></trkpt><trkpt lat="45.0692489" lon="7.7081957"><ele>223.0</ele><time>2026-05-02T10:08:18.605Z</time></trkpt><trkpt lat="45.0691002" lon="7.7081413"><ele>223.0</ele><time>2026-05-02T10:08:19.605Z</time></trkpt><trkpt lat="45.0689593" lon="7.7080567"><ele>223.0</ele><time>2026-05-02T10:08:20.604Z</time></trkpt><trkpt lat="45.068856" lon="7.7079704"><ele>221.33333333333331</ele><time>2026-05-02T10:08:21.605Z</time></trkpt><trkpt lat="45.0687725" lon="7.7079226"><ele>219.66666666666666</ele><time>2026-05-02T10:08:22.604Z</time></trkpt><trkpt lat="45.0686921" lon="7.7079028"><ele>218.0</ele><time>2026-05-02T10:08:23.605Z</time></trkpt><trkpt lat="45.0686234" lon="7.7079282"><ele>216.33333333333331</ele><time>2026-05-02T10:08:24.604Z</time></trkpt><trkpt lat="45.0685364" lon="7.7079843"><ele>214.66666666666666</ele><time>2026-05-02T10:08:25.605Z</time></trkpt><trkpt lat="45.0684429" lon="7.7080621"><ele>213.0</ele><time>2026-05-02T10:08:26.605Z</time></trkpt><trkpt lat="45.0683362" lon="7.708143"><ele>214.0</ele><time>2026-05-02T10:08:27.604Z</time></trkpt><trkpt lat="45.0682404" lon="7.7082041"><ele>215.0</ele><time>2026-05-02T10:08:28.606Z</time></trkpt><trkpt lat="45.0681459" lon="7.7082568"><ele>216.0</ele><time>2026-05-02T10:08:29.605Z</time></trkpt><trkpt lat="45.0680697" lon="7.7083049"><ele>217.0</ele><time>2026-05-02T10:08:30.606Z</time></trkpt><trkpt lat="45.0680098" lon="7.7083469"><ele>218.0</ele><time>2026-05-02T10:08:31.605Z</time></trkpt><trkpt lat="45.0679481" lon="7.7083887"><ele>219.0</ele><time>2026-05-02T10:08:33.606Z</time></trkpt><trkpt lat="45.0678611" lon="7.708403"><ele>219.0</ele><time>2026-05-02T10:08:38.606Z</time></trkpt><trkpt lat="45.0677904" lon="7.7084361"><ele>219.0</ele><time>2026-05-02T10:08:39.606Z</time></trkpt><trkpt lat="45.0677201" lon="7.7084752"><ele>219.0</ele><time>2026-05-02T10:08:40.606Z</time></trkpt><trkpt lat="45.0676604" lon="7.7085172"><ele>219.0</ele><time>2026-05-02T10:08:41.606Z</time></trkpt><trkpt lat="45.067551" lon="7.7085848"><ele>219.0</ele><time>2026-05-02T10:08:43.606Z</time></trkpt><trkpt lat="45.067445" lon="7.7086383"><ele>219.0</ele><time>2026-05-02T10:08:45.605Z</time></trkpt><trkpt lat="45.0673385" lon="7.7087023"><ele>220.16666666666666</ele><time>2026-05-02T10:08:47.606Z</time></trkpt><trkpt lat="45.0672728" lon="7.7087391"><ele>221.33333333333331</ele><time>2026-05-02T10:08:48.605Z</time></trkpt><trkpt lat="45.0672115" lon="7.7087921"><ele>222.5</ele><time>2026-05-02T10:08:49.606Z</time></trkpt><trkpt lat="45.0671713" lon="7.7088781"><ele>223.66666666666666</ele><time>2026-05-02T10:08:50.605Z</time></trkpt><trkpt lat="45.067159" lon="7.7089973"><ele>224.83333333333331</ele><time>2026-05-02T10:08:51.606Z</time></trkpt><trkpt lat="45.0671681" lon="7.7091002"><ele>226.0</ele><time>2026-05-02T10:08:52.606Z</time></trkpt><trkpt lat="45.0671986" lon="7.7092194"><ele>225.99999999999997</ele><time>2026-05-02T10:08:53.606Z</time></trkpt><trkpt lat="45.0672304" lon="7.7093404"><ele>226.0</ele><time>2026-05-02T10:08:54.605Z</time></trkpt><trkpt lat="45.0672573" lon="7.7094543"><ele>226.0</ele><time>2026-05-02T10:08:55.605Z</time></trkpt><trkpt lat="45.0672913" lon="7.709572"><ele>226.0</ele><time>2026-05-02T10:08:56.606Z</time></trkpt><trkpt lat="45.0673188" lon="7.7096664"><ele>225.99999999999997</ele><time>2026-05-02T10:08:57.605Z</time></trkpt><trkpt lat="45.0673591" lon="7.7097992"><ele>226.0</ele><time>2026-05-02T10:08:59.606Z</time></trkpt><trkpt lat="45.0673876" lon="7.7099173"><ele>226.33333333333331</ele><time>2026-05-02T10:09:01.605Z</time></trkpt><trkpt lat="45.0674066" lon="7.7100186"><ele>226.66666666666666</ele><time>2026-05-02T10:09:03.606Z</time></trkpt><trkpt lat="45.0674083" lon="7.7101274"><ele>227.0</ele><time>2026-05-02T10:09:06.606Z</time></trkpt><trkpt lat="45.0674354" lon="7.7102184"><ele>227.33333333333331</ele><time>2026-05-02T10:09:08.606Z</time></trkpt><trkpt lat="45.0674528" lon="7.7103246"><ele>227.66666666666666</ele><time>2026-05-02T10:09:09.606Z</time></trkpt><trkpt lat="45.0674798" lon="7.7104734"><ele>228.0</ele><time>2026-05-02T10:09:10.606Z</time></trkpt><trkpt lat="45.0675149" lon="7.710639"><ele>227.33333333333334</ele><time>2026-05-02T10:09:11.606Z</time></trkpt><trkpt lat="45.0675491" lon="7.7107692"><ele>226.66666666666669</ele><time>2026-05-02T10:09:12.606Z</time></trkpt><trkpt lat="45.0675751" lon="7.7108855"><ele>226.0</ele><time>2026-05-02T10:09:13.605Z</time></trkpt><trkpt lat="45.0675981" lon="7.7109716"><ele>225.33333333333334</ele><time>2026-05-02T10:09:14.606Z</time></trkpt><trkpt lat="45.0676323" lon="7.7111288"><ele>224.66666666666669</ele><time>2026-05-02T10:09:16.606Z</time></trkpt><trkpt lat="45.0676496" lon="7.711222"><ele>224.0</ele><time>2026-05-02T10:09:17.605Z</time></trkpt><trkpt lat="45.0676661" lon="7.7113096"><ele>223.83333333333334</ele><time>2026-05-02T10:09:18.606Z</time></trkpt><trkpt lat="45.0676879" lon="7.7114461"><ele>223.66666666666669</ele><time>2026-05-02T10:09:20.606Z</time></trkpt><trkpt lat="45.0677195" lon="7.7115557"><ele>223.5</ele><time>2026-05-02T10:09:22.606Z</time></trkpt><trkpt lat="45.0677551" lon="7.7116641"><ele>223.33333333333331</ele><time>2026-05-02T10:09:24.605Z</time></trkpt><trkpt lat="45.0677825" lon="7.7117836"><ele>223.16666666666666</ele><time>2026-05-02T10:09:27.605Z</time></trkpt><trkpt lat="45.0678048" lon="7.7118858"><ele>223.0</ele><time>2026-05-02T10:09:29.605Z</time></trkpt><trkpt lat="45.067839" lon="7.7120266"><ele>223.0</ele><time>2026-05-02T10:09:31.605Z</time></trkpt><trkpt lat="45.0678578" lon="7.7121197"><ele>223.0</ele><time>2026-05-02T10:09:32.606Z</time></trkpt><trkpt lat="45.0678733" lon="7.7122258"><ele>223.0</ele><time>2026-05-02T10:09:33.605Z</time></trkpt><trkpt lat="45.0678849" lon="7.7123135"><ele>223.0</ele><time>2026-05-02T10:09:34.606Z</time></trkpt><trkpt lat="45.0678996" lon="7.7124343"><ele>223.0</ele><time>2026-05-02T10:09:36.605Z</time></trkpt><trkpt lat="45.0679211" lon="7.7125377"><ele>223.0</ele><time>2026-05-02T10:09:38.606Z</time></trkpt><trkpt lat="45.0679268" lon="7.7126452"><ele>223.0</ele><time>2026-05-02T10:09:40.606Z</time></trkpt><trkpt lat="45.0679344" lon="7.7127589"><ele>223.60000000000002</ele><time>2026-05-02T10:09:43.606Z</time></trkpt><trkpt lat="45.0679535" lon="7.7128483"><ele>224.20000000000002</ele><time>2026-05-02T10:09:45.606Z</time></trkpt><trkpt lat="45.0679773" lon="7.7129745"><ele>224.8</ele><time>2026-05-02T10:09:47.605Z</time></trkpt><trkpt lat="45.0680055" lon="7.7131387"><ele>225.4</ele><time>2026-05-02T10:09:49.606Z</time></trkpt><trkpt lat="45.0680366" lon="7.7132866"><ele>226.0</ele><time>2026-05-02T10:09:51.606Z</time></trkpt><trkpt lat="45.0680614" lon="7.7133944"><ele>225.99999999999997</ele><time>2026-05-02T10:09:53.605Z</time></trkpt><trkpt lat="45.068074" lon="7.7135108"><ele>226.0</ele><time>2026-05-02T10:09:56.606Z</time></trkpt><trkpt lat="45.0681009" lon="7.7136407"><ele>226.0</ele><time>2026-05-02T10:09:58.606Z</time></trkpt><trkpt lat="45.0681184" lon="7.7137414"><ele>226.0</ele><time>2026-05-02T10:09:59.606Z</time></trkpt><trkpt lat="45.0681379" lon="7.7138456"><ele>225.99999999999997</ele><time>2026-05-02T10:10:00.606Z</time></trkpt><trkpt lat="45.0681547" lon="7.7139496"><ele>226.0</ele><time>2026-05-02T10:10:01.606Z</time></trkpt><trkpt lat="45.0681698" lon="7.714037"><ele>225.8</ele><time>2026-05-02T10:10:02.605Z</time></trkpt><trkpt lat="45.0681907" lon="7.7141522"><ele>225.60000000000002</ele><time>2026-05-02T10:10:04.605Z</time></trkpt><trkpt lat="45.0682055" lon="7.7142573"><ele>225.4</ele><time>2026-05-02T10:10:06.606Z</time></trkpt><trkpt lat="45.0682333" lon="7.7144297"><ele>225.2</ele><time>2026-05-02T10:10:08.605Z</time></trkpt><trkpt lat="45.0682503" lon="7.7145443"><ele>225.0</ele><time>2026-05-02T10:10:09.605Z</time></trkpt><trkpt lat="45.0682725" lon="7.7146593"><ele>224.83333333333334</ele><time>2026-05-02T10:10:10.605Z</time></trkpt><trkpt lat="45.0682908" lon="7.7147508"><ele>224.66666666666669</ele><time>2026-05-02T10:10:11.605Z</time></trkpt><trkpt lat="45.0683155" lon="7.7148889"><ele>224.5</ele><time>2026-05-02T10:10:13.606Z</time></trkpt><trkpt lat="45.0683242" lon="7.7149936"><ele>224.33333333333334</ele><time>2026-05-02T10:10:15.605Z</time></trkpt><trkpt lat="45.0683325" lon="7.715084"><ele>224.16666666666669</ele><time>2026-05-02T10:10:17.606Z</time></trkpt><trkpt lat="45.068356" lon="7.715187"><ele>224.0</ele><time>2026-05-02T10:10:27.606Z</time></trkpt><trkpt lat="45.0683735" lon="7.7153799"><ele>224.0</ele><time>2026-05-02T10:10:29.607Z</time></trkpt><trkpt lat="45.0684052" lon="7.7155482"><ele>224.0</ele><time>2026-05-02T10:10:30.607Z</time></trkpt><trkpt lat="45.0684378" lon="7.7157273"><ele>224.0</ele><time>2026-05-02T10:10:31.607Z</time></trkpt><trkpt lat="45.0684722" lon="7.7159237"><ele>224.0</ele><time>2026-05-02T10:10:32.607Z</time></trkpt><trkpt lat="45.0685071" lon="7.7161188"><ele>223.5</ele><time>2026-05-02T10:10:33.606Z</time></trkpt><trkpt lat="45.0685402" lon="7.7163109"><ele>223.0</ele><time>2026-05-02T10:10:34.607Z</time></trkpt><trkpt lat="45.0685723" lon="7.7165023"><ele>222.5</ele><time>2026-05-02T10:10:35.607Z</time></trkpt><trkpt lat="45.0686013" lon="7.7167084"><ele>222.0</ele><time>2026-05-02T10:10:36.607Z</time></trkpt><trkpt lat="45.0686358" lon="7.7169054"><ele>222.0</ele><time>2026-05-02T10:10:37.607Z</time></trkpt><trkpt lat="45.0686702" lon="7.717096"><ele>222.0</ele><time>2026-05-02T10:10:38.607Z</time></trkpt><trkpt lat="45.0687038" lon="7.7172822"><ele>222.0</ele><time>2026-05-02T10:10:39.606Z</time></trkpt><trkpt lat="45.068737" lon="7.7174714"><ele>222.0</ele><time>2026-05-02T10:10:40.607Z</time></trkpt><trkpt lat="45.0687609" lon="7.7176655"><ele>221.5</ele><time>2026-05-02T10:10:41.607Z</time></trkpt><trkpt lat="45.0687929" lon="7.7178572"><ele>221.0</ele><time>2026-05-02T10:10:42.606Z</time></trkpt><trkpt lat="45.0688284" lon="7.7180593"><ele>220.5</ele><time>2026-05-02T10:10:43.606Z</time></trkpt><trkpt lat="45.0688654" lon="7.7182668"><ele>220.0</ele><time>2026-05-02T10:10:44.606Z</time></trkpt><trkpt lat="45.0689071" lon="7.7184831"><ele>219.5</ele><time>2026-05-02T10:10:45.607Z</time></trkpt><trkpt lat="45.0689498" lon="7.7186951"><ele>219.0</ele><time>2026-05-02T10:10:46.607Z</time></trkpt><trkpt lat="45.0689854" lon="7.7188884"><ele>218.5</ele><time>2026-05-02T10:10:47.607Z</time></trkpt><trkpt lat="45.0690147" lon="7.7190627"><ele>218.0</ele><time>2026-05-02T10:10:48.606Z</time></trkpt><trkpt lat="45.0690437" lon="7.7192205"><ele>218.00000000000003</ele><time>2026-05-02T10:10:49.607Z</time></trkpt><trkpt lat="45.0690679" lon="7.719357"><ele>218.0</ele><time>2026-05-02T10:10:50.607Z</time></trkpt><trkpt lat="45.0690924" lon="7.7194766"><ele>218.0</ele><time>2026-05-02T10:10:51.606Z</time></trkpt><trkpt lat="45.0691155" lon="7.7195931"><ele>218.0</ele><time>2026-05-02T10:10:52.606Z</time></trkpt><trkpt lat="45.0691338" lon="7.7196993"><ele>218.00000000000003</ele><time>2026-05-02T10:10:53.607Z</time></trkpt><trkpt lat="45.069155" lon="7.7198203"><ele>218.0</ele><time>2026-05-02T10:10:54.607Z</time></trkpt><trkpt lat="45.0691735" lon="7.7199637"><ele>218.75</ele><time>2026-05-02T10:10:55.606Z</time></trkpt><trkpt lat="45.0691864" lon="7.7201203"><ele>219.5</ele><time>2026-05-02T10:10:56.607Z</time></trkpt><trkpt lat="45.0692052" lon="7.7202808"><ele>220.25</ele><time>2026-05-02T10:10:57.607Z</time></trkpt><trkpt lat="45.0692319" lon="7.7204385"><ele>221.0</ele><time>2026-05-02T10:10:58.607Z</time></trkpt><trkpt lat="45.0692613" lon="7.7205931"><ele>221.0</ele><time>2026-05-02T10:10:59.606Z</time></trkpt><trkpt lat="45.0692926" lon="7.720744"><ele>221.00000000000003</ele><time>2026-05-02T10:11:00.607Z</time></trkpt><trkpt lat="45.0693186" lon="7.7208809"><ele>221.00000000000003</ele><time>2026-05-02T10:11:01.607Z</time></trkpt><trkpt lat="45.0693449" lon="7.7210179"><ele>221.0</ele><time>2026-05-02T10:11:02.607Z</time></trkpt><trkpt lat="45.0693672" lon="7.7211453"><ele>221.0</ele><time>2026-05-02T10:11:03.607Z</time></trkpt><trkpt lat="45.0693909" lon="7.7212619"><ele>220.85714285714286</ele><time>2026-05-02T10:11:04.607Z</time></trkpt><trkpt lat="45.0694141" lon="7.7213589"><ele>220.71428571428572</ele><time>2026-05-02T10:11:05.606Z</time></trkpt><trkpt lat="45.0694268" lon="7.7214516"><ele>220.57142857142856</ele><time>2026-05-02T10:11:06.606Z</time></trkpt><trkpt lat="45.0694451" lon="7.7215409"><ele>220.42857142857144</ele><time>2026-05-02T10:11:07.607Z</time></trkpt><trkpt lat="45.0694644" lon="7.7216387"><ele>220.28571428571428</ele><time>2026-05-02T10:11:08.606Z</time></trkpt><trkpt lat="45.0694808" lon="7.7217445"><ele>220.14285714285714</ele><time>2026-05-02T10:11:09.607Z</time></trkpt><trkpt lat="45.069497" lon="7.7218787"><ele>220.0</ele><time>2026-05-02T10:11:10.607Z</time></trkpt><trkpt lat="45.0695079" lon="7.7220334"><ele>219.8</ele><time>2026-05-02T10:11:11.607Z</time></trkpt><trkpt lat="45.0695335" lon="7.7222085"><ele>219.6</ele><time>2026-05-02T10:11:12.607Z</time></trkpt><trkpt lat="45.069556" lon="7.7223609"><ele>219.39999999999998</ele><time>2026-05-02T10:11:13.606Z</time></trkpt><trkpt lat="45.0695794" lon="7.7224831"><ele>219.2</ele><time>2026-05-02T10:11:14.607Z</time></trkpt><trkpt lat="45.0695983" lon="7.7225844"><ele>219.0</ele><time>2026-05-02T10:11:15.607Z</time></trkpt><trkpt lat="45.0696197" lon="7.7226868"><ele>219.16666666666666</ele><time>2026-05-02T10:11:16.607Z</time></trkpt><trkpt lat="45.0696444" lon="7.7228135"><ele>219.33333333333331</ele><time>2026-05-02T10:11:17.607Z</time></trkpt><trkpt lat="45.0696702" lon="7.7229452"><ele>219.5</ele><time>2026-05-02T10:11:18.607Z</time></trkpt><trkpt lat="45.0696896" lon="7.7230655"><ele>219.66666666666666</ele><time>2026-05-02T10:11:19.606Z</time></trkpt><trkpt lat="45.0697065" lon="7.72316"><ele>219.83333333333331</ele><time>2026-05-02T10:11:20.607Z</time></trkpt><trkpt lat="45.0697367" lon="7.7232912"><ele>220.0</ele><time>2026-05-02T10:11:22.606Z</time></trkpt><trkpt lat="45.0697815" lon="7.7234337"><ele>219.99999999999997</ele><time>2026-05-02T10:11:24.606Z</time></trkpt><trkpt lat="45.0698107" lon="7.7235355"><ele>220.0</ele><time>2026-05-02T10:11:25.607Z</time></trkpt><trkpt lat="45.0698292" lon="7.7236384"><ele>220.0</ele><time>2026-05-02T10:11:26.607Z</time></trkpt><trkpt lat="45.0698418" lon="7.7237286"><ele>220.0</ele><time>2026-05-02T10:11:27.607Z</time></trkpt><trkpt lat="45.0698613" lon="7.7238779"><ele>219.99999999999997</ele><time>2026-05-02T10:11:29.607Z</time></trkpt><trkpt lat="45.0698941" lon="7.7240228"><ele>220.0</ele><time>2026-05-02T10:11:31.607Z</time></trkpt><trkpt lat="45.0699247" lon="7.7242029"><ele>219.85714285714283</ele><time>2026-05-02T10:11:33.607Z</time></trkpt><trkpt lat="45.0699464" lon="7.7243169"><ele>219.71428571428572</ele><time>2026-05-02T10:11:34.607Z</time></trkpt><trkpt lat="45.0699587" lon="7.7244063"><ele>219.57142857142856</ele><time>2026-05-02T10:11:35.607Z</time></trkpt><trkpt lat="45.0699767" lon="7.7245019"><ele>219.42857142857142</ele><time>2026-05-02T10:11:36.607Z</time></trkpt><trkpt lat="45.0700007" lon="7.7246037"><ele>219.28571428571428</ele><time>2026-05-02T10:11:37.606Z</time></trkpt><trkpt lat="45.0700232" lon="7.7247067"><ele>219.14285714285714</ele><time>2026-05-02T10:11:38.607Z</time></trkpt><trkpt lat="45.0700494" lon="7.7248045"><ele>219.0</ele><time>2026-05-02T10:11:39.607Z</time></trkpt><trkpt lat="45.0700584" lon="7.7249084"><ele>219.0</ele><time>2026-05-02T10:11:40.607Z</time></trkpt><trkpt lat="45.0700775" lon="7.7250578"><ele>218.99999999999997</ele><time>2026-05-02T10:11:42.607Z</time></trkpt><trkpt lat="45.0700972" lon="7.7251604"><ele>218.99999999999997</ele><time>2026-05-02T10:11:44.606Z</time></trkpt><trkpt lat="45.0701172" lon="7.7253446"><ele>219.0</ele><time>2026-05-02T10:11:46.607Z</time></trkpt><trkpt lat="45.0701282" lon="7.7254576"><ele>219.0</ele><time>2026-05-02T10:11:47.606Z</time></trkpt><trkpt lat="45.0701313" lon="7.7255554"><ele>219.0</ele><time>2026-05-02T10:11:48.607Z</time></trkpt><trkpt lat="45.0701302" lon="7.7256534"><ele>218.99999999999997</ele><time>2026-05-02T10:11:49.607Z</time></trkpt><trkpt lat="45.0701362" lon="7.7257833"><ele>218.99999999999997</ele><time>2026-05-02T10:11:50.606Z</time></trkpt><trkpt lat="45.0701488" lon="7.725951"><ele>219.0</ele><time>2026-05-02T10:11:51.606Z</time></trkpt><trkpt lat="45.0701675" lon="7.7261237"><ele>219.0</ele><time>2026-05-02T10:11:52.607Z</time></trkpt><trkpt lat="45.0701846" lon="7.726265"><ele>219.79999999999998</ele><time>2026-05-02T10:11:53.607Z</time></trkpt><trkpt lat="45.0702013" lon="7.7263948"><ele>220.59999999999997</ele><time>2026-05-02T10:11:54.606Z</time></trkpt><trkpt lat="45.0702122" lon="7.7265075"><ele>221.4</ele><time>2026-05-02T10:11:55.607Z</time></trkpt><trkpt lat="45.0702117" lon="7.7266338"><ele>222.2</ele><time>2026-05-02T10:11:56.607Z</time></trkpt><trkpt lat="45.0702455" lon="7.726771"><ele>223.0</ele><time>2026-05-02T10:11:57.606Z</time></trkpt><trkpt lat="45.0703102" lon="7.7269068"><ele>223.60000000000002</ele><time>2026-05-02T10:11:58.606Z</time></trkpt><trkpt lat="45.0703924" lon="7.7270184"><ele>224.20000000000002</ele><time>2026-05-02T10:11:59.607Z</time></trkpt><trkpt lat="45.0704721" lon="7.7270926"><ele>224.8</ele><time>2026-05-02T10:12:00.607Z</time></trkpt><trkpt lat="45.0705586" lon="7.7271519"><ele>225.4</ele><time>2026-05-02T10:12:01.607Z</time></trkpt><trkpt lat="45.0706308" lon="7.7271813"><ele>226.0</ele><time>2026-05-02T10:12:02.606Z</time></trkpt><trkpt lat="45.0707014" lon="7.7272231"><ele>225.99999999999997</ele><time>2026-05-02T10:12:03.606Z</time></trkpt><trkpt lat="45.0707733" lon="7.7272715"><ele>226.0</ele><time>2026-05-02T10:12:04.607Z</time></trkpt><trkpt lat="45.070838" lon="7.7273149"><ele>226.0</ele><time>2026-05-02T10:12:05.607Z</time></trkpt><trkpt lat="45.0709084" lon="7.7273622"><ele>226.0</ele><time>2026-05-02T10:12:06.606Z</time></trkpt><trkpt lat="45.0709801" lon="7.7274036"><ele>225.99999999999997</ele><time>2026-05-02T10:12:07.606Z</time></trkpt><trkpt lat="45.0710526" lon="7.7274497"><ele>226.0</ele><time>2026-05-02T10:12:08.607Z</time></trkpt><trkpt lat="45.0711165" lon="7.7275055"><ele>225.49999999999997</ele><time>2026-05-02T10:12:09.607Z</time></trkpt><trkpt lat="45.0711773" lon="7.7275607"><ele>225.0</ele><time>2026-05-02T10:12:10.607Z</time></trkpt><trkpt lat="45.0712425" lon="7.7276269"><ele>224.5</ele><time>2026-05-02T10:12:11.607Z</time></trkpt><trkpt lat="45.0713203" lon="7.727696"><ele>224.0</ele><time>2026-05-02T10:12:12.606Z</time></trkpt><trkpt lat="45.0713964" lon="7.7277586"><ele>223.49999999999997</ele><time>2026-05-02T10:12:13.606Z</time></trkpt><trkpt lat="45.0714659" lon="7.7278137"><ele>223.0</ele><time>2026-05-02T10:12:14.608Z</time></trkpt><trkpt lat="45.071534" lon="7.7278717"><ele>223.66666666666666</ele><time>2026-05-02T10:12:15.608Z</time></trkpt><trkpt lat="45.0716016" lon="7.7279301"><ele>224.33333333333331</ele><time>2026-05-02T10:12:16.608Z</time></trkpt><trkpt lat="45.0716693" lon="7.7279908"><ele>225.0</ele><time>2026-05-02T10:12:17.608Z</time></trkpt><trkpt lat="45.0717348" lon="7.7280498"><ele>225.66666666666669</ele><time>2026-05-02T10:12:18.608Z</time></trkpt><trkpt lat="45.0718029" lon="7.7281101"><ele>226.33333333333334</ele><time>2026-05-02T10:12:19.608Z</time></trkpt><trkpt lat="45.0718761" lon="7.7281659"><ele>227.0</ele><time>2026-05-02T10:12:20.608Z</time></trkpt><trkpt lat="45.071948" lon="7.7282215"><ele>227.00000000000003</ele><time>2026-05-02T10:12:21.607Z</time></trkpt><trkpt lat="45.0720187" lon="7.7282842"><ele>227.0</ele><time>2026-05-02T10:12:22.608Z</time></trkpt><trkpt lat="45.0720927" lon="7.7283542"><ele>227.0</ele><time>2026-05-02T10:12:23.608Z</time></trkpt><trkpt lat="45.0721671" lon="7.7284221"><ele>227.0</ele><time>2026-05-02T10:12:24.608Z</time></trkpt><trkpt lat="45.0722403" lon="7.7284853"><ele>227.00000000000003</ele><time>2026-05-02T10:12:25.608Z</time></trkpt><trkpt lat="45.0723149" lon="7.7285582"><ele>227.0</ele><time>2026-05-02T10:12:26.608Z</time></trkpt><trkpt lat="45.0723912" lon="7.7286303"><ele>227.50000000000003</ele><time>2026-05-02T10:12:27.608Z</time></trkpt><trkpt lat="45.0724676" lon="7.728704"><ele>228.0</ele><time>2026-05-02T10:12:28.608Z</time></trkpt><trkpt lat="45.0725426" lon="7.7287723"><ele>228.5</ele><time>2026-05-02T10:12:29.608Z</time></trkpt><trkpt lat="45.072612" lon="7.7288347"><ele>229.0</ele><time>2026-05-02T10:12:30.608Z</time></trkpt><trkpt lat="45.0726762" lon="7.7288923"><ele>229.50000000000003</ele><time>2026-05-02T10:12:31.608Z</time></trkpt><trkpt lat="45.0727347" lon="7.7289514"><ele>230.0</ele><time>2026-05-02T10:12:32.608Z</time></trkpt><trkpt lat="45.0727984" lon="7.7290144"><ele>230.00000000000003</ele><time>2026-05-02T10:12:33.608Z</time></trkpt><trkpt lat="45.0728665" lon="7.7290787"><ele>230.0</ele><time>2026-05-02T10:12:34.608Z</time></trkpt><trkpt lat="45.0729421" lon="7.7291399"><ele>230.0</ele><time>2026-05-02T10:12:35.608Z</time></trkpt><trkpt lat="45.0730266" lon="7.7291932"><ele>230.0</ele><time>2026-05-02T10:12:36.607Z</time></trkpt><trkpt lat="45.0731085" lon="7.7292449"><ele>230.00000000000003</ele><time>2026-05-02T10:12:37.608Z</time></trkpt><trkpt lat="45.0731897" lon="7.729292"><ele>230.0</ele><time>2026-05-02T10:12:38.608Z</time></trkpt><trkpt lat="45.0732724" lon="7.72934"><ele>230.2</ele><time>2026-05-02T10:12:39.608Z</time></trkpt><trkpt lat="45.0733604" lon="7.7293921"><ele>230.4</ele><time>2026-05-02T10:12:40.608Z</time></trkpt><trkpt lat="45.0734511" lon="7.7294451"><ele>230.60000000000002</ele><time>2026-05-02T10:12:41.608Z</time></trkpt><trkpt lat="45.0735417" lon="7.7295001"><ele>230.8</ele><time>2026-05-02T10:12:42.608Z</time></trkpt><trkpt lat="45.0736275" lon="7.7295566"><ele>231.0</ele><time>2026-05-02T10:12:43.608Z</time></trkpt><trkpt lat="45.0737154" lon="7.7296177"><ele>231.0</ele><time>2026-05-02T10:12:44.608Z</time></trkpt><trkpt lat="45.0738067" lon="7.7296866"><ele>231.00000000000003</ele><time>2026-05-02T10:12:45.607Z</time></trkpt><trkpt lat="45.0738985" lon="7.7297556"><ele>231.00000000000003</ele><time>2026-05-02T10:12:46.608Z</time></trkpt><trkpt lat="45.0739944" lon="7.729826"><ele>231.0</ele><time>2026-05-02T10:12:47.608Z</time></trkpt><trkpt lat="45.0740945" lon="7.7298938"><ele>231.0</ele><time>2026-05-02T10:12:48.607Z</time></trkpt><trkpt lat="45.0742012" lon="7.729959"><ele>229.25</ele><time>2026-05-02T10:12:49.608Z</time></trkpt><trkpt lat="45.074314" lon="7.7300296"><ele>227.5</ele><time>2026-05-02T10:12:50.608Z</time></trkpt><trkpt lat="45.0744391" lon="7.7301015"><ele>225.75</ele><time>2026-05-02T10:12:51.608Z</time></trkpt><trkpt lat="45.0745821" lon="7.73018"><ele>224.0</ele><time>2026-05-02T10:12:52.607Z</time></trkpt><trkpt lat="45.0747333" lon="7.7302824"><ele>223.66666666666669</ele><time>2026-05-02T10:12:53.608Z</time></trkpt><trkpt lat="45.0748777" lon="7.7303878"><ele>223.33333333333331</ele><time>2026-05-02T10:12:54.607Z</time></trkpt><trkpt lat="45.0750096" lon="7.7304816"><ele>223.0</ele><time>2026-05-02T10:12:55.608Z</time></trkpt><trkpt lat="45.0751422" lon="7.7305725"><ele>223.0</ele><time>2026-05-02T10:12:56.608Z</time></trkpt><trkpt lat="45.0752805" lon="7.7306647"><ele>223.0</ele><time>2026-05-02T10:12:57.607Z</time></trkpt><trkpt lat="45.0754316" lon="7.7307606"><ele>223.0</ele><time>2026-05-02T10:12:58.608Z</time></trkpt><trkpt lat="45.0755805" lon="7.7308539"><ele>223.0</ele><time>2026-05-02T10:12:59.608Z</time></trkpt><trkpt lat="45.0757234" lon="7.7309477"><ele>223.0</ele><time>2026-05-02T10:13:00.608Z</time></trkpt><trkpt lat="45.0758583" lon="7.7310447"><ele>223.0</ele><time>2026-05-02T10:13:01.608Z</time></trkpt><trkpt lat="45.0759818" lon="7.7311406"><ele>224.25</ele><time>2026-05-02T10:13:02.608Z</time></trkpt><trkpt lat="45.0760963" lon="7.7312284"><ele>225.5</ele><time>2026-05-02T10:13:03.607Z</time></trkpt><trkpt lat="45.0762085" lon="7.7313044"><ele>226.75</ele><time>2026-05-02T10:13:04.608Z</time></trkpt><trkpt lat="45.0763198" lon="7.7313817"><ele>228.0</ele><time>2026-05-02T10:13:05.608Z</time></trkpt><trkpt lat="45.0764247" lon="7.7314556"><ele>228.0</ele><time>2026-05-02T10:13:06.608Z</time></trkpt><trkpt lat="45.0765269" lon="7.7315247"><ele>228.0</ele><time>2026-05-02T10:13:07.608Z</time></trkpt><trkpt lat="45.0766304" lon="7.7315871"><ele>228.0</ele><time>2026-05-02T10:13:08.607Z</time></trkpt><trkpt lat="45.0767364" lon="7.7316566"><ele>228.0</ele><time>2026-05-02T10:13:09.607Z</time></trkpt><trkpt lat="45.0768402" lon="7.7317252"><ele>227.60000000000002</ele><time>2026-05-02T10:13:10.608Z</time></trkpt><trkpt lat="45.0769354" lon="7.7317918"><ele>227.20000000000002</ele><time>2026-05-02T10:13:11.608Z</time></trkpt><trkpt lat="45.0770297" lon="7.7318528"><ele>226.8</ele><time>2026-05-02T10:13:12.608Z</time></trkpt><trkpt lat="45.0771215" lon="7.7319135"><ele>226.4</ele><time>2026-05-02T10:13:13.608Z</time></trkpt><trkpt lat="45.0772003" lon="7.7319663"><ele>226.0</ele><time>2026-05-02T10:13:14.608Z</time></trkpt><trkpt lat="45.077277" lon="7.7320139"><ele>226.0</ele><time>2026-05-02T10:13:15.607Z</time></trkpt><trkpt lat="45.0773593" lon="7.7320645"><ele>226.00000000000003</ele><time>2026-05-02T10:13:16.608Z</time></trkpt><trkpt lat="45.07745" lon="7.7321272"><ele>226.00000000000003</ele><time>2026-05-02T10:13:17.608Z</time></trkpt><trkpt lat="45.0775502" lon="7.7321953"><ele>226.0</ele><time>2026-05-02T10:13:18.608Z</time></trkpt><trkpt lat="45.0776489" lon="7.7322556"><ele>226.0</ele><time>2026-05-02T10:13:19.608Z</time></trkpt><trkpt lat="45.077743" lon="7.7323246"><ele>226.16666666666666</ele><time>2026-05-02T10:13:20.608Z</time></trkpt><trkpt lat="45.0778259" lon="7.7323836"><ele>226.33333333333331</ele><time>2026-05-02T10:13:21.608Z</time></trkpt><trkpt lat="45.0778898" lon="7.7324285"><ele>226.5</ele><time>2026-05-02T10:13:22.607Z</time></trkpt><trkpt lat="45.0779652" lon="7.7324777"><ele>226.66666666666669</ele><time>2026-05-02T10:13:24.608Z</time></trkpt><trkpt lat="45.0780494" lon="7.7325124"><ele>226.83333333333334</ele><time>2026-05-02T10:13:29.607Z</time></trkpt><trkpt lat="45.078143" lon="7.7325704"><ele>227.0</ele><time>2026-05-02T10:13:31.608Z</time></trkpt><trkpt lat="45.0782159" lon="7.7325911"><ele>227.16666666666669</ele><time>2026-05-02T10:13:32.608Z</time></trkpt><trkpt lat="45.0782955" lon="7.7325924"><ele>227.33333333333334</ele><time>2026-05-02T10:13:33.608Z</time></trkpt><trkpt lat="45.0783802" lon="7.7325724"><ele>227.5</ele><time>2026-05-02T10:13:34.608Z</time></trkpt><trkpt lat="45.0784603" lon="7.7325411"><ele>227.66666666666669</ele><time>2026-05-02T10:13:35.608Z</time></trkpt><trkpt lat="45.0785296" lon="7.7324993"><ele>227.83333333333334</ele><time>2026-05-02T10:13:36.608Z</time></trkpt><trkpt lat="45.0785985" lon="7.732452"><ele>228.0</ele><time>2026-05-02T10:13:37.608Z</time></trkpt><trkpt lat="45.0786669" lon="7.7324032"><ele>228.0</ele><time>2026-05-02T10:13:38.608Z</time></trkpt><trkpt lat="45.0787379" lon="7.7323496"><ele>228.0</ele><time>2026-05-02T10:13:39.607Z</time></trkpt><trkpt lat="45.0788063" lon="7.7322917"><ele>228.0</ele><time>2026-05-02T10:13:40.607Z</time></trkpt><trkpt lat="45.0788789" lon="7.7322346"><ele>228.0</ele><time>2026-05-02T10:13:41.608Z</time></trkpt><trkpt lat="45.0789466" lon="7.73217"><ele>228.0</ele><time>2026-05-02T10:13:42.608Z</time></trkpt><trkpt lat="45.0790189" lon="7.7321115"><ele>228.0</ele><time>2026-05-02T10:13:43.608Z</time></trkpt><trkpt lat="45.079102" lon="7.73206"><ele>227.83333333333334</ele><time>2026-05-02T10:13:44.607Z</time></trkpt><trkpt lat="45.079179" lon="7.7319982"><ele>227.66666666666669</ele><time>2026-05-02T10:13:45.608Z</time></trkpt><trkpt lat="45.0792496" lon="7.731947"><ele>227.5</ele><time>2026-05-02T10:13:46.608Z</time></trkpt><trkpt lat="45.0793149" lon="7.7318978"><ele>227.33333333333334</ele><time>2026-05-02T10:13:47.608Z</time></trkpt><trkpt lat="45.079384" lon="7.7318449"><ele>227.16666666666669</ele><time>2026-05-02T10:13:48.608Z</time></trkpt><trkpt lat="45.0794585" lon="7.7317915"><ele>227.0</ele><time>2026-05-02T10:13:49.608Z</time></trkpt><trkpt lat="45.0795253" lon="7.7317425"><ele>226.83333333333334</ele><time>2026-05-02T10:13:50.607Z</time></trkpt><trkpt lat="45.079622" lon="7.7316709"><ele>226.66666666666669</ele><time>2026-05-02T10:13:52.608Z</time></trkpt><trkpt lat="45.0796871" lon="7.7316178"><ele>226.5</ele><time>2026-05-02T10:13:54.608Z</time></trkpt><trkpt lat="45.0797675" lon="7.7315774"><ele>226.33333333333331</ele><time>2026-05-02T10:13:57.607Z</time></trkpt><trkpt lat="45.0798301" lon="7.7315499"><ele>226.16666666666666</ele><time>2026-05-02T10:14:00.608Z</time></trkpt><trkpt lat="45.0799155" lon="7.7315078"><ele>226.0</ele><time>2026-05-02T10:14:18.609Z</time></trkpt><trkpt lat="45.0800133" lon="7.7314424"><ele>226.0</ele><time>2026-05-02T10:14:20.608Z</time></trkpt><trkpt lat="45.0801271" lon="7.7313737"><ele>226.00000000000003</ele><time>2026-05-02T10:14:22.608Z</time></trkpt><trkpt lat="45.0801905" lon="7.7313342"><ele>226.00000000000003</ele><time>2026-05-02T10:14:23.609Z</time></trkpt><trkpt lat="45.0802553" lon="7.7312919"><ele>226.0</ele><time>2026-05-02T10:14:24.609Z</time></trkpt><trkpt lat="45.0803556" lon="7.7312168"><ele>226.0</ele><time>2026-05-02T10:14:26.608Z</time></trkpt><trkpt lat="45.0804567" lon="7.7311689"><ele>226.0</ele><time>2026-05-02T10:14:28.609Z</time></trkpt><trkpt lat="45.080584" lon="7.7312062"><ele>226.0</ele><time>2026-05-02T10:14:30.609Z</time></trkpt><trkpt lat="45.080664" lon="7.7313278"><ele>226.0</ele><time>2026-05-02T10:14:31.609Z</time></trkpt><trkpt lat="45.0807319" lon="7.7314576"><ele>226.0</ele><time>2026-05-02T10:14:32.608Z</time></trkpt><trkpt lat="45.080823" lon="7.7315962"><ele>225.66666666666666</ele><time>2026-05-02T10:14:33.608Z</time></trkpt><trkpt lat="45.0809216" lon="7.7317603"><ele>225.33333333333331</ele><time>2026-05-02T10:14:34.609Z</time></trkpt><trkpt lat="45.0810225" lon="7.731944"><ele>225.0</ele><time>2026-05-02T10:14:35.609Z</time></trkpt><trkpt lat="45.0811241" lon="7.7321256"><ele>225.66666666666669</ele><time>2026-05-02T10:14:36.609Z</time></trkpt><trkpt lat="45.081229" lon="7.7323014"><ele>226.33333333333334</ele><time>2026-05-02T10:14:37.608Z</time></trkpt><trkpt lat="45.0813381" lon="7.7324718"><ele>227.0</ele><time>2026-05-02T10:14:38.609Z</time></trkpt><trkpt lat="45.0814352" lon="7.7326167"><ele>227.6</ele><time>2026-05-02T10:14:39.609Z</time></trkpt><trkpt lat="45.0815164" lon="7.7327465"><ele>228.2</ele><time>2026-05-02T10:14:40.609Z</time></trkpt><trkpt lat="45.0815846" lon="7.732861"><ele>228.8</ele><time>2026-05-02T10:14:41.609Z</time></trkpt><trkpt lat="45.0816433" lon="7.7329618"><ele>229.4</ele><time>2026-05-02T10:14:42.609Z</time></trkpt><trkpt lat="45.0817061" lon="7.7330382"><ele>230.0</ele><time>2026-05-02T10:14:43.609Z</time></trkpt><trkpt lat="45.0817693" lon="7.7330868"><ele>231.0</ele><time>2026-05-02T10:14:44.609Z</time></trkpt><trkpt lat="45.0818479" lon="7.7331215"><ele>232.0</ele><time>2026-05-02T10:14:45.609Z</time></trkpt><trkpt lat="45.0819512" lon="7.7331469"><ele>233.0</ele><time>2026-05-02T10:14:46.609Z</time></trkpt><trkpt lat="45.0820627" lon="7.7331784"><ele>234.0</ele><time>2026-05-02T10:14:47.609Z</time></trkpt><trkpt lat="45.0821821" lon="7.7332294"><ele>235.0</ele><time>2026-05-02T10:14:48.609Z</time></trkpt><trkpt lat="45.0823098" lon="7.7332928"><ele>239.0</ele><time>2026-05-02T10:14:49.609Z</time></trkpt><trkpt lat="45.082435" lon="7.7333605"><ele>243.0</ele><time>2026-05-02T10:14:50.608Z</time></trkpt><trkpt lat="45.0825458" lon="7.7334427"><ele>247.0</ele><time>2026-05-02T10:14:51.608Z</time></trkpt><trkpt lat="45.0826318" lon="7.733534"><ele>251.0</ele><time>2026-05-02T10:14:52.609Z</time></trkpt><trkpt lat="45.0826932" lon="7.7336382"><ele>252.50000000000003</ele><time>2026-05-02T10:14:53.609Z</time></trkpt><trkpt lat="45.0827261" lon="7.7337612"><ele>254.0</ele><time>2026-05-02T10:14:54.608Z</time></trkpt><trkpt lat="45.0827411" lon="7.733907"><ele>255.5</ele><time>2026-05-02T10:14:55.609Z</time></trkpt><trkpt lat="45.0827571" lon="7.7340369"><ele>257.0</ele><time>2026-05-02T10:14:56.609Z</time></trkpt><trkpt lat="45.0827729" lon="7.7341603"><ele>258.5</ele><time>2026-05-02T10:14:57.608Z</time></trkpt><trkpt lat="45.0827853" lon="7.7342563"><ele>260.0</ele><time>2026-05-02T10:14:58.609Z</time></trkpt><trkpt lat="45.0827999" lon="7.7343865"><ele>261.4</ele><time>2026-05-02T10:15:00.609Z</time></trkpt><trkpt lat="45.0828186" lon="7.7345099"><ele>262.8</ele><time>2026-05-02T10:15:02.609Z</time></trkpt><trkpt lat="45.082852" lon="7.7346366"><ele>264.2</ele><time>2026-05-02T10:15:04.609Z</time></trkpt><trkpt lat="45.0829069" lon="7.7347775"><ele>265.6</ele><time>2026-05-02T10:15:06.609Z</time></trkpt><trkpt lat="45.0829512" lon="7.7348552"><ele>267.0</ele><time>2026-05-02T10:15:07.609Z</time></trkpt><trkpt lat="45.0830577" lon="7.7349597"><ele>267.0</ele><time>2026-05-02T10:15:09.608Z</time></trkpt><trkpt lat="45.0831192" lon="7.7349875"><ele>267.0</ele><time>2026-05-02T10:15:10.609Z</time></trkpt><trkpt lat="45.0831956" lon="7.7350052"><ele>267.0</ele><time>2026-05-02T10:15:11.609Z</time></trkpt><trkpt lat="45.0832712" lon="7.734996"><ele>267.0</ele><time>2026-05-02T10:15:12.609Z</time></trkpt><trkpt lat="45.0833479" lon="7.7349787"><ele>267.0</ele><time>2026-05-02T10:15:13.608Z</time></trkpt><trkpt lat="45.083436" lon="7.7349941"><ele>267.0</ele><time>2026-05-02T10:15:14.609Z</time></trkpt><trkpt lat="45.0835035" lon="7.7350003"><ele>267.8333333333333</ele><time>2026-05-02T10:15:15.609Z</time></trkpt><trkpt lat="45.0835632" lon="7.7350295"><ele>268.6666666666667</ele><time>2026-05-02T10:15:16.608Z</time></trkpt><trkpt lat="45.0836168" lon="7.7350954"><ele>269.5</ele><time>2026-05-02T10:15:17.608Z</time></trkpt><trkpt lat="45.0836654" lon="7.7351882"><ele>270.33333333333337</ele><time>2026-05-02T10:15:18.608Z</time></trkpt><trkpt lat="45.0837101" lon="7.7353026"><ele>271.1666666666667</ele><time>2026-05-02T10:15:19.609Z</time></trkpt><trkpt lat="45.0837479" lon="7.7354131"><ele>272.0</ele><time>2026-05-02T10:15:20.609Z</time></trkpt><trkpt lat="45.0837763" lon="7.7355204"><ele>274.33333333333337</ele><time>2026-05-02T10:15:21.609Z</time></trkpt><trkpt lat="45.0838052" lon="7.7356341"><ele>276.6666666666667</ele><time>2026-05-02T10:15:22.609Z</time></trkpt><trkpt lat="45.0838353" lon="7.7357431"><ele>279.0</ele><time>2026-05-02T10:15:23.609Z</time></trkpt><trkpt lat="45.0838665" lon="7.7358402"><ele>281.3333333333333</ele><time>2026-05-02T10:15:24.609Z</time></trkpt><trkpt lat="45.0838985" lon="7.7359329"><ele>283.66666666666663</ele><time>2026-05-02T10:15:25.609Z</time></trkpt><trkpt lat="45.0839368" lon="7.7360112"><ele>286.0</ele><time>2026-05-02T10:15:26.609Z</time></trkpt><trkpt lat="45.0839837" lon="7.7360816"><ele>287.1428571428571</ele><time>2026-05-02T10:15:27.609Z</time></trkpt><trkpt lat="45.0840404" lon="7.7361491"><ele>288.2857142857143</ele><time>2026-05-02T10:15:28.608Z</time></trkpt><trkpt lat="45.0841063" lon="7.736215"><ele>289.42857142857144</ele><time>2026-05-02T10:15:29.609Z</time></trkpt><trkpt lat="45.0841748" lon="7.736275"><ele>290.57142857142856</ele><time>2026-05-02T10:15:30.608Z</time></trkpt><trkpt lat="45.0842366" lon="7.7363286"><ele>291.7142857142857</ele><time>2026-05-02T10:15:31.609Z</time></trkpt><trkpt lat="45.0842958" lon="7.7363744"><ele>292.85714285714283</ele><time>2026-05-02T10:15:32.609Z</time></trkpt><trkpt lat="45.0843557" lon="7.7364173"><ele>294.0</ele><time>2026-05-02T10:15:33.609Z</time></trkpt><trkpt lat="45.0844196" lon="7.7364574"><ele>294.0</ele><time>2026-05-02T10:15:34.609Z</time></trkpt><trkpt lat="45.084491" lon="7.7364953"><ele>294.0</ele><time>2026-05-02T10:15:35.609Z</time></trkpt><trkpt lat="45.084572" lon="7.7365417"><ele>294.0</ele><time>2026-05-02T10:15:36.609Z</time></trkpt><trkpt lat="45.084661" lon="7.7366087"><ele>294.0</ele><time>2026-05-02T10:15:37.609Z</time></trkpt><trkpt lat="45.0847446" lon="7.7366926"><ele>294.0</ele><time>2026-05-02T10:15:38.609Z</time></trkpt><trkpt lat="45.0848123" lon="7.7367991"><ele>295.3333333333333</ele><time>2026-05-02T10:15:39.609Z</time></trkpt><trkpt lat="45.0848459" lon="7.7369216"><ele>296.6666666666667</ele><time>2026-05-02T10:15:40.609Z</time></trkpt><trkpt lat="45.0848613" lon="7.7370374"><ele>298.0</ele><time>2026-05-02T10:15:41.609Z</time></trkpt><trkpt lat="45.08486" lon="7.737147"><ele>299.33333333333337</ele><time>2026-05-02T10:15:42.609Z</time></trkpt><trkpt lat="45.0848402" lon="7.7372603"><ele>300.6666666666667</ele><time>2026-05-02T10:15:43.609Z</time></trkpt><trkpt lat="45.0848009" lon="7.7373752"><ele>302.0</ele><time>2026-05-02T10:15:44.609Z</time></trkpt><trkpt lat="45.0847309" lon="7.7374864"><ele>302.0</ele><time>2026-05-02T10:15:45.609Z</time></trkpt><trkpt lat="45.0846383" lon="7.7375875"><ele>302.0</ele><time>2026-05-02T10:15:46.609Z</time></trkpt><trkpt lat="45.0845297" lon="7.7376646"><ele>302.0</ele><time>2026-05-02T10:15:47.609Z</time></trkpt><trkpt lat="45.0844331" lon="7.7377166"><ele>302.0</ele><time>2026-05-02T10:15:48.608Z</time></trkpt><trkpt lat="45.0843667" lon="7.7377552"><ele>302.0</ele><time>2026-05-02T10:15:49.608Z</time></trkpt><trkpt lat="45.0842712" lon="7.7378157"><ele>302.0</ele><time>2026-05-02T10:15:51.608Z</time></trkpt><trkpt lat="45.0841978" lon="7.7378829"><ele>302.0</ele><time>2026-05-02T10:15:53.608Z</time></trkpt><trkpt lat="45.0841493" lon="7.7379442"><ele>302.0</ele><time>2026-05-02T10:15:54.609Z</time></trkpt><trkpt lat="45.0840917" lon="7.7380413"><ele>302.0</ele><time>2026-05-02T10:15:55.608Z</time></trkpt><trkpt lat="45.0840423" lon="7.7381767"><ele>302.0</ele><time>2026-05-02T10:15:56.609Z</time></trkpt><trkpt lat="45.0839943" lon="7.7383577"><ele>302.0</ele><time>2026-05-02T10:15:57.608Z</time></trkpt><trkpt lat="45.0839652" lon="7.7385435"><ele>302.0</ele><time>2026-05-02T10:15:58.608Z</time></trkpt><trkpt lat="45.0839401" lon="7.7387374"><ele>302.0</ele><time>2026-05-02T10:15:59.609Z</time></trkpt><trkpt lat="45.083905" lon="7.7389386"><ele>302.0</ele><time>2026-05-02T10:16:00.609Z</time></trkpt><trkpt lat="45.0838603" lon="7.7391651"><ele>306.6666666666667</ele><time>2026-05-02T10:16:01.61Z</time></trkpt><trkpt lat="45.083798" lon="7.739408"><ele>311.3333333333333</ele><time>2026-05-02T10:16:02.61Z</time></trkpt><trkpt lat="45.0837347" lon="7.7396365"><ele>316.0</ele><time>2026-05-02T10:16:03.61Z</time></trkpt><trkpt lat="45.0836598" lon="7.7398472"><ele>316.0</ele><time>2026-05-02T10:16:04.61Z</time></trkpt><trkpt lat="45.0835886" lon="7.7400485"><ele>316.0</ele><time>2026-05-02T10:16:05.609Z</time></trkpt><trkpt lat="45.0835261" lon="7.7402641"><ele>316.0</ele><time>2026-05-02T10:16:06.61Z</time></trkpt><trkpt lat="45.0834731" lon="7.7405041"><ele>316.66666666666663</ele><time>2026-05-02T10:16:07.61Z</time></trkpt><trkpt lat="45.0834089" lon="7.7407274"><ele>317.3333333333333</ele><time>2026-05-02T10:16:08.61Z</time></trkpt><trkpt lat="45.083313" lon="7.7409382"><ele>318.0</ele><time>2026-05-02T10:16:09.61Z</time></trkpt><trkpt lat="45.0831995" lon="7.7411108"><ele>318.0</ele><time>2026-05-02T10:16:10.61Z</time></trkpt><trkpt lat="45.0831029" lon="7.7412593"><ele>318.0</ele><time>2026-05-02T10:16:11.61Z</time></trkpt><trkpt lat="45.0830515" lon="7.7413879"><ele>318.0</ele><time>2026-05-02T10:16:12.61Z</time></trkpt><trkpt lat="45.0830179" lon="7.7414906"><ele>318.0</ele><time>2026-05-02T10:16:13.61Z</time></trkpt><trkpt lat="45.0830086" lon="7.7416086"><ele>318.0</ele><time>2026-05-02T10:16:14.61Z</time></trkpt><trkpt lat="45.0830248" lon="7.7417192"><ele>318.0</ele><time>2026-05-02T10:16:15.61Z</time></trkpt><trkpt lat="45.0830696" lon="7.741829"><ele>318.0</ele><time>2026-05-02T10:16:16.61Z</time></trkpt><trkpt lat="45.0831301" lon="7.7419501"><ele>318.0</ele><time>2026-05-02T10:16:17.609Z</time></trkpt><trkpt lat="45.083186" lon="7.7420557"><ele>318.0</ele><time>2026-05-02T10:16:18.609Z</time></trkpt><trkpt lat="45.0832386" lon="7.7421536"><ele>318.0</ele><time>2026-05-02T10:16:19.61Z</time></trkpt><trkpt lat="45.0833129" lon="7.7422385"><ele>320.8</ele><time>2026-05-02T10:16:21.609Z</time></trkpt><trkpt lat="45.0833823" lon="7.7423436"><ele>323.6</ele><time>2026-05-02T10:16:24.61Z</time></trkpt><trkpt lat="45.0834145" lon="7.7424301"><ele>326.40000000000003</ele><time>2026-05-02T10:16:25.61Z</time></trkpt><trkpt lat="45.0834652" lon="7.7425645"><ele>329.20000000000005</ele><time>2026-05-02T10:16:26.61Z</time></trkpt><trkpt lat="45.0835117" lon="7.7427172"><ele>332.0</ele><time>2026-05-02T10:16:27.61Z</time></trkpt><trkpt lat="45.0835474" lon="7.7428957"><ele>334.6666666666667</ele><time>2026-05-02T10:16:28.61Z</time></trkpt><trkpt lat="45.083555" lon="7.7431032"><ele>337.3333333333333</ele><time>2026-05-02T10:16:29.609Z</time></trkpt><trkpt lat="45.0835222" lon="7.743315"><ele>340.0</ele><time>2026-05-02T10:16:30.61Z</time></trkpt><trkpt lat="45.083462" lon="7.7435214"><ele>340.0</ele><time>2026-05-02T10:16:31.61Z</time></trkpt><trkpt lat="45.0833831" lon="7.7437272"><ele>340.0</ele><time>2026-05-02T10:16:32.61Z</time></trkpt><trkpt lat="45.0833106" lon="7.7439051"><ele>340.0</ele><time>2026-05-02T10:16:33.61Z</time></trkpt><trkpt lat="45.0832462" lon="7.7440613"><ele>340.0</ele><time>2026-05-02T10:16:34.61Z</time></trkpt><trkpt lat="45.0831821" lon="7.7441971"><ele>341.0</ele><time>2026-05-02T10:16:35.609Z</time></trkpt><trkpt lat="45.0831093" lon="7.7443092"><ele>342.0</ele><time>2026-05-02T10:16:36.609Z</time></trkpt><trkpt lat="45.0830087" lon="7.7444148"><ele>343.0</ele><time>2026-05-02T10:16:37.61Z</time></trkpt><trkpt lat="45.0828886" lon="7.7445281"><ele>344.0</ele><time>2026-05-02T10:16:38.61Z</time></trkpt><trkpt lat="45.0827453" lon="7.7446517"><ele>346.0</ele><time>2026-05-02T10:16:39.61Z</time></trkpt><trkpt lat="45.0825849" lon="7.7447845"><ele>348.0</ele><time>2026-05-02T10:16:40.61Z</time></trkpt><trkpt lat="45.0824214" lon="7.7449147"><ele>350.0</ele><time>2026-05-02T10:16:41.61Z</time></trkpt><trkpt lat="45.082253" lon="7.7450292"><ele>350.33333333333337</ele><time>2026-05-02T10:16:42.61Z</time></trkpt><trkpt lat="45.0820789" lon="7.7451267"><ele>350.6666666666667</ele><time>2026-05-02T10:16:43.609Z</time></trkpt><trkpt lat="45.081899" lon="7.7452099"><ele>351.0</ele><time>2026-05-02T10:16:44.609Z</time></trkpt><trkpt lat="45.0817127" lon="7.7452762"><ele>358.0</ele><time>2026-05-02T10:16:45.61Z</time></trkpt><trkpt lat="45.0815267" lon="7.7453243"><ele>365.0</ele><time>2026-05-02T10:16:46.61Z</time></trkpt><trkpt lat="45.0813478" lon="7.7453521"><ele>372.0</ele><time>2026-05-02T10:16:47.61Z</time></trkpt><trkpt lat="45.0811754" lon="7.7453783"><ele>372.0</ele><time>2026-05-02T10:16:48.61Z</time></trkpt><trkpt lat="45.0810116" lon="7.7454177"><ele>372.0</ele><time>2026-05-02T10:16:49.61Z</time></trkpt><trkpt lat="45.080859" lon="7.7454666"><ele>372.0</ele><time>2026-05-02T10:16:50.609Z</time></trkpt><trkpt lat="45.0807287" lon="7.7455269"><ele>370.25</ele><time>2026-05-02T10:16:51.609Z</time></trkpt><trkpt lat="45.0806412" lon="7.7455761"><ele>368.5</ele><time>2026-05-02T10:16:52.61Z</time></trkpt><trkpt lat="45.0805675" lon="7.745733"><ele>366.75</ele><time>2026-05-02T10:16:54.61Z</time></trkpt><trkpt lat="45.0805625" lon="7.7458973"><ele>365.0</ele><time>2026-05-02T10:16:55.61Z</time></trkpt><trkpt lat="45.0805864" lon="7.7461138"><ele>365.0</ele><time>2026-05-02T10:16:56.61Z</time></trkpt><trkpt lat="45.0806183" lon="7.7463374"><ele>365.0</ele><time>2026-05-02T10:16:57.61Z</time></trkpt><trkpt lat="45.0806549" lon="7.7465422"><ele>365.0</ele><time>2026-05-02T10:16:58.609Z</time></trkpt><trkpt lat="45.0806679" lon="7.74674"><ele>369.33333333333337</ele><time>2026-05-02T10:16:59.61Z</time></trkpt><trkpt lat="45.0806576" lon="7.7469559"><ele>373.6666666666667</ele><time>2026-05-02T10:17:00.609Z</time></trkpt><trkpt lat="45.0806218" lon="7.7471956"><ele>378.0</ele><time>2026-05-02T10:17:01.61Z</time></trkpt><trkpt lat="45.0805976" lon="7.7474409"><ele>378.0</ele><time>2026-05-02T10:17:02.609Z</time></trkpt><trkpt lat="45.0805726" lon="7.7476711"><ele>378.0</ele><time>2026-05-02T10:17:03.61Z</time></trkpt><trkpt lat="45.0805504" lon="7.7478746"><ele>378.0</ele><time>2026-05-02T10:17:04.61Z</time></trkpt><trkpt lat="45.0805404" lon="7.7480359"><ele>378.0</ele><time>2026-05-02T10:17:05.61Z</time></trkpt><trkpt lat="45.0805411" lon="7.7481828"><ele>382.2</ele><time>2026-05-02T10:17:06.61Z</time></trkpt><trkpt lat="45.0805553" lon="7.7483096"><ele>386.4</ele><time>2026-05-02T10:17:07.61Z</time></trkpt><trkpt lat="45.0805834" lon="7.7483996"><ele>390.59999999999997</ele><time>2026-05-02T10:17:08.61Z</time></trkpt><trkpt lat="45.0805964" lon="7.7485148"><ele>394.79999999999995</ele><time>2026-05-02T10:17:09.609Z</time></trkpt><trkpt lat="45.080583" lon="7.7486702"><ele>399.0</ele><time>2026-05-02T10:17:10.61Z</time></trkpt><trkpt lat="45.0805486" lon="7.7488451"><ele>403.0</ele><time>2026-05-02T10:17:11.61Z</time></trkpt><trkpt lat="45.080505" lon="7.7490223"><ele>407.0</ele><time>2026-05-02T10:17:12.609Z</time></trkpt><trkpt lat="45.0804468" lon="7.7492041"><ele>411.0</ele><time>2026-05-02T10:17:13.61Z</time></trkpt><trkpt lat="45.0803795" lon="7.7493911"><ele>415.0</ele><time>2026-05-02T10:17:14.61Z</time></trkpt><trkpt lat="45.0803299" lon="7.749558"><ele>416.75</ele><time>2026-05-02T10:17:15.61Z</time></trkpt><trkpt lat="45.0803058" lon="7.7497133"><ele>418.5</ele><time>2026-05-02T10:17:16.61Z</time></trkpt><trkpt lat="45.0802946" lon="7.7498922"><ele>420.25</ele><time>2026-05-02T10:17:17.609Z</time></trkpt><trkpt lat="45.0803055" lon="7.750092"><ele>422.0</ele><time>2026-05-02T10:17:18.609Z</time></trkpt><trkpt lat="45.0803239" lon="7.7502871"><ele>422.0</ele><time>2026-05-02T10:17:19.61Z</time></trkpt><trkpt lat="45.0803284" lon="7.7504323"><ele>422.0</ele><time>2026-05-02T10:17:20.61Z</time></trkpt><trkpt lat="45.0803168" lon="7.7505656"><ele>422.0</ele><time>2026-05-02T10:17:21.61Z</time></trkpt><trkpt lat="45.0803009" lon="7.7506638"><ele>422.0</ele><time>2026-05-02T10:17:22.609Z</time></trkpt><trkpt lat="45.0801824" lon="7.7507591"><ele>422.0</ele><time>2026-05-02T10:17:24.61Z</time></trkpt><trkpt lat="45.0800364" lon="7.7508098"><ele>433.0</ele><time>2026-05-02T10:17:25.61Z</time></trkpt><trkpt lat="45.0799052" lon="7.750892"><ele>444.0</ele><time>2026-05-02T10:17:26.61Z</time></trkpt><trkpt lat="45.0797336" lon="7.7510007"><ele>455.0</ele><time>2026-05-02T10:17:27.61Z</time></trkpt><trkpt lat="45.0796098" lon="7.7511533"><ele>455.0</ele><time>2026-05-02T10:17:28.61Z</time></trkpt><trkpt lat="45.0795388" lon="7.7513139"><ele>455.0</ele><time>2026-05-02T10:17:29.61Z</time></trkpt><trkpt lat="45.079501" lon="7.7514645"><ele>455.0</ele><time>2026-05-02T10:17:30.61Z</time></trkpt><trkpt lat="45.0794726" lon="7.751591"><ele>455.0</ele><time>2026-05-02T10:17:31.609Z</time></trkpt><trkpt lat="45.0794539" lon="7.7517012"><ele>455.0</ele><time>2026-05-02T10:17:32.61Z</time></trkpt><trkpt lat="45.0794538" lon="7.7518327"><ele>455.0</ele><time>2026-05-02T10:17:33.61Z</time></trkpt><trkpt lat="45.0794793" lon="7.7519946"><ele>455.0</ele><time>2026-05-02T10:17:34.61Z</time></trkpt><trkpt lat="45.0795052" lon="7.7521426"><ele>455.0</ele><time>2026-05-02T10:17:35.61Z</time></trkpt><trkpt lat="45.0795402" lon="7.7523224"><ele>455.0</ele><time>2026-05-02T10:17:36.61Z</time></trkpt><trkpt lat="45.0795788" lon="7.7524641"><ele>455.0</ele><time>2026-05-02T10:17:37.61Z</time></trkpt><trkpt lat="45.0795984" lon="7.7525716"><ele>455.0</ele><time>2026-05-02T10:17:38.61Z</time></trkpt><trkpt lat="45.0795684" lon="7.7526522"><ele>455.0</ele><time>2026-05-02T10:17:40.61Z</time></trkpt><trkpt lat="45.0794374" lon="7.7524115"><ele>455.0</ele><time>2026-05-02T10:17:45.61Z</time></trkpt><trkpt lat="45.0793483" lon="7.7522204"><ele>455.0</ele><time>2026-05-02T10:17:46.61Z</time></trkpt><trkpt lat="45.0792726" lon="7.7520244"><ele>455.0</ele><time>2026-05-02T10:17:47.61Z</time></trkpt><trkpt lat="45.0792211" lon="7.7518055"><ele>455.0</ele><time>2026-05-02T10:17:48.609Z</time></trkpt><trkpt lat="45.0791678" lon="7.751549"><ele>455.0</ele><time>2026-05-02T10:17:49.61Z</time></trkpt><trkpt lat="45.0791253" lon="7.7513395"><ele>455.0</ele><time>2026-05-02T10:17:50.61Z</time></trkpt><trkpt lat="45.0790595" lon="7.7511814"><ele>455.0</ele><time>2026-05-02T10:17:51.61Z</time></trkpt><trkpt lat="45.0789751" lon="7.7510613"><ele>455.0</ele><time>2026-05-02T10:17:52.611Z</time></trkpt><trkpt lat="45.0789156" lon="7.7509229"><ele>455.75</ele><time>2026-05-02T10:17:53.611Z</time></trkpt><trkpt lat="45.0788289" lon="7.751005"><ele>456.5</ele><time>2026-05-02T10:17:55.611Z</time></trkpt><trkpt lat="45.0787707" lon="7.7511505"><ele>457.25</ele><time>2026-05-02T10:17:56.611Z</time></trkpt><trkpt lat="45.0787133" lon="7.7512913"><ele>458.0</ele><time>2026-05-02T10:17:57.611Z</time></trkpt><trkpt lat="45.0786969" lon="7.7514612"><ele>458.0</ele><time>2026-05-02T10:17:58.61Z</time></trkpt><trkpt lat="45.0787129" lon="7.7516463"><ele>458.0</ele><time>2026-05-02T10:17:59.611Z</time></trkpt><trkpt lat="45.0787254" lon="7.7518433"><ele>458.0</ele><time>2026-05-02T10:18:00.611Z</time></trkpt><trkpt lat="45.0787322" lon="7.7520462"><ele>458.0</ele><time>2026-05-02T10:18:01.61Z</time></trkpt><trkpt lat="45.0787118" lon="7.7522639"><ele>459.75</ele><time>2026-05-02T10:18:02.61Z</time></trkpt><trkpt lat="45.0786632" lon="7.7524479"><ele>461.5</ele><time>2026-05-02T10:18:03.61Z</time></trkpt><trkpt lat="45.0786" lon="7.7526145"><ele>463.25</ele><time>2026-05-02T10:18:04.611Z</time></trkpt><trkpt lat="45.0785289" lon="7.7527887"><ele>465.0</ele><time>2026-05-02T10:18:05.61Z</time></trkpt><trkpt lat="45.0784618" lon="7.7529796"><ele>466.0</ele><time>2026-05-02T10:18:06.611Z</time></trkpt><trkpt lat="45.0784055" lon="7.7531738"><ele>467.0</ele><time>2026-05-02T10:18:07.611Z</time></trkpt><trkpt lat="45.0783481" lon="7.7533963"><ele>468.0</ele><time>2026-05-02T10:18:08.611Z</time></trkpt><trkpt lat="45.0783081" lon="7.7536065"><ele>470.33333333333337</ele><time>2026-05-02T10:18:09.611Z</time></trkpt><trkpt lat="45.0783125" lon="7.7538106"><ele>472.6666666666667</ele><time>2026-05-02T10:18:10.611Z</time></trkpt><trkpt lat="45.0783627" lon="7.7540463"><ele>475.0</ele><time>2026-05-02T10:18:11.611Z</time></trkpt><trkpt lat="45.0784307" lon="7.7542931"><ele>476.5</ele><time>2026-05-02T10:18:12.611Z</time></trkpt><trkpt lat="45.0784982" lon="7.7545092"><ele>478.0</ele><time>2026-05-02T10:18:13.611Z</time></trkpt><trkpt lat="45.0785463" lon="7.7546877"><ele>479.5</ele><time>2026-05-02T10:18:14.611Z</time></trkpt><trkpt lat="45.0785715" lon="7.7548628"><ele>481.0</ele><time>2026-05-02T10:18:15.611Z</time></trkpt><trkpt lat="45.0785641" lon="7.7550464"><ele>481.75</ele><time>2026-05-02T10:18:16.61Z</time></trkpt><trkpt lat="45.0785366" lon="7.7552323"><ele>482.5</ele><time>2026-05-02T10:18:17.611Z</time></trkpt><trkpt lat="45.0785063" lon="7.7554148"><ele>483.25</ele><time>2026-05-02T10:18:18.61Z</time></trkpt><trkpt lat="45.0784972" lon="7.7556228"><ele>484.0</ele><time>2026-05-02T10:18:19.611Z</time></trkpt><trkpt lat="45.0785096" lon="7.7558252"><ele>484.0</ele><time>2026-05-02T10:18:20.61Z</time></trkpt><trkpt lat="45.0785347" lon="7.7560073"><ele>484.0</ele><time>2026-05-02T10:18:21.611Z</time></trkpt><trkpt lat="45.0785402" lon="7.7561964"><ele>484.0</ele><time>2026-05-02T10:18:22.611Z</time></trkpt><trkpt lat="45.0785167" lon="7.7563978"><ele>484.0</ele><time>2026-05-02T10:18:23.611Z</time></trkpt><trkpt lat="45.0784732" lon="7.7566046"><ele>485.0</ele><time>2026-05-02T10:18:24.611Z</time></trkpt><trkpt lat="45.078451" lon="7.7568251"><ele>486.0</ele><time>2026-05-02T10:18:25.61Z</time></trkpt><trkpt lat="45.0784474" lon="7.7570533"><ele>487.0</ele><time>2026-05-02T10:18:26.61Z</time></trkpt><trkpt lat="45.0784525" lon="7.7572986"><ele>487.0</ele><time>2026-05-02T10:18:27.611Z</time></trkpt><trkpt lat="45.0784618" lon="7.7575628"><ele>487.0</ele><time>2026-05-02T10:18:28.611Z</time></trkpt><trkpt lat="45.0784623" lon="7.7578371"><ele>487.0</ele><time>2026-05-02T10:18:29.611Z</time></trkpt><trkpt lat="45.0784533" lon="7.7581134"><ele>488.0</ele><time>2026-05-02T10:18:30.611Z</time></trkpt><trkpt lat="45.0784335" lon="7.7584018"><ele>489.0</ele><time>2026-05-02T10:18:31.611Z</time></trkpt><trkpt lat="45.0784072" lon="7.7586762"><ele>490.0</ele><time>2026-05-02T10:18:32.611Z</time></trkpt><trkpt lat="45.0783899" lon="7.7589348"><ele>493.6666666666667</ele><time>2026-05-02T10:18:33.61Z</time></trkpt><trkpt lat="45.0783805" lon="7.7591871"><ele>497.33333333333337</ele><time>2026-05-02T10:18:34.61Z</time></trkpt><trkpt lat="45.0783747" lon="7.7594344"><ele>501.0</ele><time>2026-05-02T10:18:35.611Z</time></trkpt><trkpt lat="45.0783733" lon="7.7596846"><ele>505.0</ele><time>2026-05-02T10:18:36.611Z</time></trkpt><trkpt lat="45.078372" lon="7.7599332"><ele>509.0</ele><time>2026-05-02T10:18:37.611Z</time></trkpt><trkpt lat="45.0783769" lon="7.760161"><ele>513.0</ele><time>2026-05-02T10:18:38.61Z</time></trkpt><trkpt lat="45.0783823" lon="7.7603605"><ele>515.6</ele><time>2026-05-02T10:18:39.61Z</time></trkpt><trkpt lat="45.0783865" lon="7.7605218"><ele>518.1999999999999</ele><time>2026-05-02T10:18:40.61Z</time></trkpt><trkpt lat="45.0783811" lon="7.760645"><ele>520.8</ele><time>2026-05-02T10:18:41.611Z</time></trkpt><trkpt lat="45.0783418" lon="7.7607855"><ele>523.4</ele><time>2026-05-02T10:18:42.611Z</time></trkpt><trkpt lat="45.0782698" lon="7.7609232"><ele>526.0</ele><time>2026-05-02T10:18:43.61Z</time></trkpt><trkpt lat="45.0781935" lon="7.7610675"><ele>528.75</ele><time>2026-05-02T10:18:44.61Z</time></trkpt><trkpt lat="45.0781059" lon="7.7612232"><ele>531.5</ele><time>2026-05-02T10:18:45.61Z</time></trkpt><trkpt lat="45.0780059" lon="7.7613624"><ele>534.25</ele><time>2026-05-02T10:18:46.611Z</time></trkpt><trkpt lat="45.0778859" lon="7.761481"><ele>537.0</ele><time>2026-05-02T10:18:47.611Z</time></trkpt><trkpt lat="45.0777487" lon="7.7615785"><ele>537.0</ele><time>2026-05-02T10:18:48.611Z</time></trkpt><trkpt lat="45.0776098" lon="7.7616356"><ele>537.0</ele><time>2026-05-02T10:18:49.611Z</time></trkpt><trkpt lat="45.077468" lon="7.7616644"><ele>537.0</ele><time>2026-05-02T10:18:50.611Z</time></trkpt><trkpt lat="45.077346" lon="7.7617123"><ele>537.0</ele><time>2026-05-02T10:18:51.611Z</time></trkpt><trkpt lat="45.0772569" lon="7.7618052"><ele>538.75</ele><time>2026-05-02T10:18:52.61Z</time></trkpt><trkpt lat="45.0771818" lon="7.7619255"><ele>540.5</ele><time>2026-05-02T10:18:53.611Z</time></trkpt><trkpt lat="45.0770877" lon="7.7620535"><ele>542.25</ele><time>2026-05-02T10:18:54.611Z</time></trkpt><trkpt lat="45.0769721" lon="7.7621663"><ele>544.0</ele><time>2026-05-02T10:18:55.611Z</time></trkpt><trkpt lat="45.0768486" lon="7.7622698"><ele>544.0</ele><time>2026-05-02T10:18:56.611Z</time></trkpt><trkpt lat="45.0767579" lon="7.7623776"><ele>544.0</ele><time>2026-05-02T10:18:57.611Z</time></trkpt><trkpt lat="45.0766954" lon="7.7625154"><ele>544.0</ele><time>2026-05-02T10:18:58.61Z</time></trkpt><trkpt lat="45.0766348" lon="7.7626663"><ele>544.0</ele><time>2026-05-02T10:18:59.611Z</time></trkpt><trkpt lat="45.0765997" lon="7.7628143"><ele>545.0</ele><time>2026-05-02T10:19:00.611Z</time></trkpt><trkpt lat="45.0765811" lon="7.7629509"><ele>546.0</ele><time>2026-05-02T10:19:01.61Z</time></trkpt><trkpt lat="45.0765875" lon="7.763062"><ele>547.0</ele><time>2026-05-02T10:19:02.61Z</time></trkpt><trkpt lat="45.0766218" lon="7.7631529"><ele>548.0</ele><time>2026-05-02T10:19:03.611Z</time></trkpt><trkpt lat="45.0766869" lon="7.7632476"><ele>549.0</ele><time>2026-05-02T10:19:04.611Z</time></trkpt><trkpt lat="45.0767791" lon="7.7633432"><ele>549.0</ele><time>2026-05-02T10:19:05.611Z</time></trkpt><trkpt lat="45.0768755" lon="7.7634658"><ele>549.0</ele><time>2026-05-02T10:19:06.611Z</time></trkpt><trkpt lat="45.0769718" lon="7.7636032"><ele>549.0</ele><time>2026-05-02T10:19:07.611Z</time></trkpt><trkpt lat="45.0770741" lon="7.7637516"><ele>549.0</ele><time>2026-05-02T10:19:08.611Z</time></trkpt><trkpt lat="45.0771808" lon="7.7639084"><ele>547.75</ele><time>2026-05-02T10:19:09.611Z</time></trkpt><trkpt lat="45.077282" lon="7.7640543"><ele>546.5</ele><time>2026-05-02T10:19:10.611Z</time></trkpt><trkpt lat="45.0773817" lon="7.7641993"><ele>545.25</ele><time>2026-05-02T10:19:11.611Z</time></trkpt><trkpt lat="45.0774803" lon="7.7643402"><ele>544.0</ele><time>2026-05-02T10:19:12.611Z</time></trkpt><trkpt lat="45.0775726" lon="7.7644887"><ele>552.0</ele><time>2026-05-02T10:19:13.61Z</time></trkpt><trkpt lat="45.0776373" lon="7.7646535"><ele>560.0</ele><time>2026-05-02T10:19:14.61Z</time></trkpt><trkpt lat="45.0776512" lon="7.7648027"><ele>568.0</ele><time>2026-05-02T10:19:15.611Z</time></trkpt><trkpt lat="45.0776191" lon="7.7649549"><ele>576.0</ele><time>2026-05-02T10:19:16.61Z</time></trkpt><trkpt lat="45.0775623" lon="7.7651066"><ele>579.0</ele><time>2026-05-02T10:19:17.611Z</time></trkpt><trkpt lat="45.0774813" lon="7.7652589"><ele>582.0</ele><time>2026-05-02T10:19:18.61Z</time></trkpt><trkpt lat="45.0774" lon="7.7654501"><ele>585.0</ele><time>2026-05-02T10:19:19.611Z</time></trkpt><trkpt lat="45.0773365" lon="7.7656468"><ele>588.0</ele><time>2026-05-02T10:19:20.611Z</time></trkpt><trkpt lat="45.0772926" lon="7.7658584"><ele>583.6666666666666</ele><time>2026-05-02T10:19:21.611Z</time></trkpt><trkpt lat="45.0772522" lon="7.766076"><ele>579.3333333333333</ele><time>2026-05-02T10:19:22.611Z</time></trkpt><trkpt lat="45.077203" lon="7.7662855"><ele>575.0</ele><time>2026-05-02T10:19:23.61Z</time></trkpt><trkpt lat="45.0771425" lon="7.766474"><ele>575.0</ele><time>2026-05-02T10:19:24.611Z</time></trkpt><trkpt lat="45.0770758" lon="7.7666484"><ele>575.0</ele><time>2026-05-02T10:19:25.611Z</time></trkpt><trkpt lat="45.0770068" lon="7.7667968"><ele>575.0</ele><time>2026-05-02T10:19:26.61Z</time></trkpt><trkpt lat="45.0769374" lon="7.7669073"><ele>575.0</ele><time>2026-05-02T10:19:27.611Z</time></trkpt><trkpt lat="45.0768772" lon="7.7670028"><ele>577.8</ele><time>2026-05-02T10:19:28.61Z</time></trkpt><trkpt lat="45.0768468" lon="7.7670978"><ele>580.6</ele><time>2026-05-02T10:19:29.611Z</time></trkpt><trkpt lat="45.0768491" lon="7.7672308"><ele>583.4</ele><time>2026-05-02T10:19:30.611Z</time></trkpt><trkpt lat="45.0768634" lon="7.7673939"><ele>586.2</ele><time>2026-05-02T10:19:31.611Z</time></trkpt><trkpt lat="45.0768672" lon="7.7675689"><ele>589.0</ele><time>2026-05-02T10:19:32.611Z</time></trkpt><trkpt lat="45.0768627" lon="7.767754"><ele>589.25</ele><time>2026-05-02T10:19:33.61Z</time></trkpt><trkpt lat="45.0768344" lon="7.7679434"><ele>589.5</ele><time>2026-05-02T10:19:34.611Z</time></trkpt><trkpt lat="45.0768031" lon="7.7681399"><ele>589.75</ele><time>2026-05-02T10:19:35.61Z</time></trkpt><trkpt lat="45.0768011" lon="7.7683346"><ele>590.0</ele><time>2026-05-02T10:19:36.611Z</time></trkpt><trkpt lat="45.0768331" lon="7.7685296"><ele>586.6666666666666</ele><time>2026-05-02T10:19:37.611Z</time></trkpt><trkpt lat="45.0769041" lon="7.7687369"><ele>583.3333333333334</ele><time>2026-05-02T10:19:38.611Z</time></trkpt><trkpt lat="45.0769976" lon="7.7689405"><ele>580.0</ele><time>2026-05-02T10:19:39.611Z</time></trkpt><trkpt lat="45.0771004" lon="7.7691485"><ele>580.0</ele><time>2026-05-02T10:19:40.611Z</time></trkpt><trkpt lat="45.0771936" lon="7.7693496"><ele>580.0</ele><time>2026-05-02T10:19:41.611Z</time></trkpt><trkpt lat="45.0772785" lon="7.7695518"><ele>580.0</ele><time>2026-05-02T10:19:42.612Z</time></trkpt><trkpt lat="45.0773562" lon="7.7697548"><ele>578.3333333333334</ele><time>2026-05-02T10:19:43.612Z</time></trkpt><trkpt lat="45.0774295" lon="7.7699507"><ele>576.6666666666666</ele><time>2026-05-02T10:19:44.611Z</time></trkpt><trkpt lat="45.0775002" lon="7.7701426"><ele>575.0</ele><time>2026-05-02T10:19:45.612Z</time></trkpt><trkpt lat="45.0775672" lon="7.7703255"><ele>581.6</ele><time>2026-05-02T10:19:46.612Z</time></trkpt><trkpt lat="45.0776298" lon="7.7704846"><ele>588.2</ele><time>2026-05-02T10:19:47.612Z</time></trkpt><trkpt lat="45.0776911" lon="7.7706147"><ele>594.8</ele><time>2026-05-02T10:19:48.612Z</time></trkpt><trkpt lat="45.0777452" lon="7.7707181"><ele>601.4</ele><time>2026-05-02T10:19:49.612Z</time></trkpt><trkpt lat="45.0777993" lon="7.7708147"><ele>608.0</ele><time>2026-05-02T10:19:50.612Z</time></trkpt><trkpt lat="45.0778621" lon="7.770931"><ele>607.8333333333333</ele><time>2026-05-02T10:19:51.612Z</time></trkpt><trkpt lat="45.0779166" lon="7.7710563"><ele>607.6666666666666</ele><time>2026-05-02T10:19:52.611Z</time></trkpt><trkpt lat="45.0779624" lon="7.7711631"><ele>607.5</ele><time>2026-05-02T10:19:53.612Z</time></trkpt><trkpt lat="45.0780047" lon="7.7712323"><ele>607.3333333333334</ele><time>2026-05-02T10:19:54.612Z</time></trkpt><trkpt lat="45.0780577" lon="7.7712992"><ele>607.1666666666667</ele><time>2026-05-02T10:19:56.611Z</time></trkpt><trkpt lat="45.0781379" lon="7.7713524"><ele>607.0</ele><time>2026-05-02T10:19:59.612Z</time></trkpt><trkpt lat="45.0782201" lon="7.7713936"><ele>608.6</ele><time>2026-05-02T10:20:01.612Z</time></trkpt><trkpt lat="45.0783368" lon="7.7714598"><ele>610.2</ele><time>2026-05-02T10:20:03.612Z</time></trkpt><trkpt lat="45.078427" lon="7.7715749"><ele>611.8</ele><time>2026-05-02T10:20:05.612Z</time></trkpt><trkpt lat="45.078452" lon="7.7716589"><ele>613.4</ele><time>2026-05-02T10:20:06.611Z</time></trkpt><trkpt lat="45.0784493" lon="7.7717585"><ele>615.0</ele><time>2026-05-02T10:20:07.611Z</time></trkpt><trkpt lat="45.0784314" lon="7.7718568"><ele>615.1666666666666</ele><time>2026-05-02T10:20:08.612Z</time></trkpt><trkpt lat="45.0784197" lon="7.771953"><ele>615.3333333333334</ele><time>2026-05-02T10:20:09.612Z</time></trkpt><trkpt lat="45.078412" lon="7.7720424"><ele>615.5</ele><time>2026-05-02T10:20:10.612Z</time></trkpt><trkpt lat="45.0784144" lon="7.7721753"><ele>615.6666666666667</ele><time>2026-05-02T10:20:12.612Z</time></trkpt><trkpt lat="45.0784267" lon="7.7723466"><ele>615.8333333333334</ele><time>2026-05-02T10:20:14.612Z</time></trkpt><trkpt lat="45.0784237" lon="7.7724598"><ele>616.0</ele><time>2026-05-02T10:20:15.612Z</time></trkpt><trkpt lat="45.0784057" lon="7.7725914"><ele>616.75</ele><time>2026-05-02T10:20:16.612Z</time></trkpt><trkpt lat="45.0783779" lon="7.772727"><ele>617.5</ele><time>2026-05-02T10:20:17.611Z</time></trkpt><trkpt lat="45.0783324" lon="7.7728767"><ele>618.25</ele><time>2026-05-02T10:20:18.612Z</time></trkpt><trkpt lat="45.078272" lon="7.7730373"><ele>619.0</ele><time>2026-05-02T10:20:19.612Z</time></trkpt><trkpt lat="45.078204" lon="7.773182"><ele>619.0</ele><time>2026-05-02T10:20:20.611Z</time></trkpt><trkpt lat="45.0781387" lon="7.7733023"><ele>619.0</ele><time>2026-05-02T10:20:21.612Z</time></trkpt><trkpt lat="45.0780826" lon="7.7733705"><ele>619.0</ele><time>2026-05-02T10:20:22.611Z</time></trkpt><trkpt lat="45.0779792" lon="7.7733919"><ele>619.0</ele><time>2026-05-02T10:20:24.612Z</time></trkpt><trkpt lat="45.077843" lon="7.7734736"><ele>619.0</ele><time>2026-05-02T10:20:26.612Z</time></trkpt><trkpt lat="45.0777623" lon="7.7735492"><ele>620.0</ele><time>2026-05-02T10:20:27.612Z</time></trkpt><trkpt lat="45.0776891" lon="7.7736423"><ele>621.0</ele><time>2026-05-02T10:20:28.612Z</time></trkpt><trkpt lat="45.0776161" lon="7.7737464"><ele>622.0</ele><time>2026-05-02T10:20:29.611Z</time></trkpt><trkpt lat="45.0775387" lon="7.7738478"><ele>623.0</ele><time>2026-05-02T10:20:30.611Z</time></trkpt><trkpt lat="45.0774556" lon="7.7739419"><ele>624.0</ele><time>2026-05-02T10:20:31.612Z</time></trkpt><trkpt lat="45.0773626" lon="7.774034"><ele>627.25</ele><time>2026-05-02T10:20:32.612Z</time></trkpt><trkpt lat="45.0772623" lon="7.7741199"><ele>630.5</ele><time>2026-05-02T10:20:33.612Z</time></trkpt><trkpt lat="45.0771489" lon="7.7741853"><ele>633.75</ele><time>2026-05-02T10:20:34.612Z</time></trkpt><trkpt lat="45.0770268" lon="7.7742002"><ele>637.0</ele><time>2026-05-02T10:20:35.611Z</time></trkpt><trkpt lat="45.0768859" lon="7.77418"><ele>637.0</ele><time>2026-05-02T10:20:36.611Z</time></trkpt><trkpt lat="45.0767348" lon="7.7741678"><ele>637.0</ele><time>2026-05-02T10:20:37.612Z</time></trkpt><trkpt lat="45.0765759" lon="7.7741461"><ele>637.0</ele><time>2026-05-02T10:20:38.611Z</time></trkpt><trkpt lat="45.0764146" lon="7.7741188"><ele>640.0</ele><time>2026-05-02T10:20:39.612Z</time></trkpt><trkpt lat="45.0762478" lon="7.7740918"><ele>643.0</ele><time>2026-05-02T10:20:40.612Z</time></trkpt><trkpt lat="45.0760724" lon="7.7740656"><ele>646.0</ele><time>2026-05-02T10:20:41.612Z</time></trkpt><trkpt lat="45.0759168" lon="7.7740383"><ele>646.0</ele><time>2026-05-02T10:20:42.612Z</time></trkpt><trkpt lat="45.0757867" lon="7.7740029"><ele>646.0</ele><time>2026-05-02T10:20:43.612Z</time></trkpt><trkpt lat="45.0756868" lon="7.773956"><ele>646.0</ele><time>2026-05-02T10:20:44.612Z</time></trkpt><trkpt lat="45.0756139" lon="7.773902"><ele>646.0</ele><time>2026-05-02T10:20:45.612Z</time></trkpt><trkpt lat="45.0755344" lon="7.7738956"><ele>646.0</ele><time>2026-05-02T10:20:46.612Z</time></trkpt><trkpt lat="45.0754501" lon="7.773923"><ele>644.1999999999999</ele><time>2026-05-02T10:20:47.611Z</time></trkpt><trkpt lat="45.0753797" lon="7.7739999"><ele>642.4</ele><time>2026-05-02T10:20:48.612Z</time></trkpt><trkpt lat="45.075318" lon="7.7741155"><ele>640.6</ele><time>2026-05-02T10:20:49.612Z</time></trkpt><trkpt lat="45.0752707" lon="7.774235"><ele>638.8</ele><time>2026-05-02T10:20:50.612Z</time></trkpt><trkpt lat="45.0752544" lon="7.7743745"><ele>637.0</ele><time>2026-05-02T10:20:51.612Z</time></trkpt><trkpt lat="45.0752462" lon="7.7745572"><ele>637.0</ele><time>2026-05-02T10:20:52.612Z</time></trkpt><trkpt lat="45.075224" lon="7.7747876"><ele>637.0</ele><time>2026-05-02T10:20:53.612Z</time></trkpt><trkpt lat="45.075185" lon="7.7750231"><ele>637.0</ele><time>2026-05-02T10:20:54.612Z</time></trkpt><trkpt lat="45.0751176" lon="7.7752798"><ele>637.3333333333334</ele><time>2026-05-02T10:20:55.612Z</time></trkpt><trkpt lat="45.0750265" lon="7.7754909"><ele>637.6666666666666</ele><time>2026-05-02T10:20:56.611Z</time></trkpt><trkpt lat="45.0749138" lon="7.7756825"><ele>638.0</ele><time>2026-05-02T10:20:57.612Z</time></trkpt><trkpt lat="45.0747871" lon="7.7758361"><ele>638.0</ele><time>2026-05-02T10:20:58.612Z</time></trkpt><trkpt lat="45.0746432" lon="7.7759554"><ele>638.0</ele><time>2026-05-02T10:20:59.612Z</time></trkpt><trkpt lat="45.0744911" lon="7.7760467"><ele>638.0</ele><time>2026-05-02T10:21:00.612Z</time></trkpt><trkpt lat="45.0743497" lon="7.7761184"><ele>641.75</ele><time>2026-05-02T10:21:01.612Z</time></trkpt><trkpt lat="45.0742289" lon="7.7761983"><ele>645.5</ele><time>2026-05-02T10:21:02.612Z</time></trkpt><trkpt lat="45.0741459" lon="7.7763005"><ele>649.25</ele><time>2026-05-02T10:21:03.612Z</time></trkpt><trkpt lat="45.0740999" lon="7.77643"><ele>653.0</ele><time>2026-05-02T10:21:04.612Z</time></trkpt><trkpt lat="45.0740625" lon="7.7766018"><ele>644.3333333333333</ele><time>2026-05-02T10:21:05.612Z</time></trkpt><trkpt lat="45.0740438" lon="7.7768183"><ele>635.6666666666666</ele><time>2026-05-02T10:21:06.611Z</time></trkpt><trkpt lat="45.0740252" lon="7.7770404"><ele>627.0</ele><time>2026-05-02T10:21:07.612Z</time></trkpt><trkpt lat="45.0740041" lon="7.7772722"><ele>627.0</ele><time>2026-05-02T10:21:08.612Z</time></trkpt><trkpt lat="45.0739715" lon="7.7775244"><ele>627.0</ele><time>2026-05-02T10:21:09.612Z</time></trkpt><trkpt lat="45.0739329" lon="7.7777742"><ele>627.0</ele><time>2026-05-02T10:21:10.612Z</time></trkpt><trkpt lat="45.0738959" lon="7.7780015"><ele>628.0</ele><time>2026-05-02T10:21:11.612Z</time></trkpt><trkpt lat="45.0738689" lon="7.7782065"><ele>629.0</ele><time>2026-05-02T10:21:12.612Z</time></trkpt><trkpt lat="45.0738607" lon="7.7784022"><ele>630.0</ele><time>2026-05-02T10:21:13.612Z</time></trkpt><trkpt lat="45.0738641" lon="7.7785994"><ele>631.0</ele><time>2026-05-02T10:21:14.612Z</time></trkpt><trkpt lat="45.0739002" lon="7.7787769"><ele>631.0</ele><time>2026-05-02T10:21:15.612Z</time></trkpt><trkpt lat="45.0739411" lon="7.7789512"><ele>631.0</ele><time>2026-05-02T10:21:16.611Z</time></trkpt><trkpt lat="45.0739849" lon="7.7791089"><ele>631.0</ele><time>2026-05-02T10:21:17.612Z</time></trkpt><trkpt lat="45.0740269" lon="7.7792461"><ele>631.0</ele><time>2026-05-02T10:21:18.612Z</time></trkpt><trkpt lat="45.0740502" lon="7.7793856"><ele>631.5</ele><time>2026-05-02T10:21:19.612Z</time></trkpt><trkpt lat="45.0740701" lon="7.7795167"><ele>632.0</ele><time>2026-05-02T10:21:20.611Z</time></trkpt><trkpt lat="45.0740757" lon="7.7796393"><ele>632.5</ele><time>2026-05-02T10:21:21.612Z</time></trkpt><trkpt lat="45.0740658" lon="7.7797409"><ele>633.0</ele><time>2026-05-02T10:21:22.612Z</time></trkpt><trkpt lat="45.0740534" lon="7.7798311"><ele>633.5</ele><time>2026-05-02T10:21:23.612Z</time></trkpt><trkpt lat="45.0740405" lon="7.77992"><ele>634.0</ele><time>2026-05-02T10:21:24.612Z</time></trkpt><trkpt lat="45.0740299" lon="7.780021"><ele>634.0</ele><time>2026-05-02T10:21:25.612Z</time></trkpt><trkpt lat="45.0740196" lon="7.7801339"><ele>634.0</ele><time>2026-05-02T10:21:26.612Z</time></trkpt><trkpt lat="45.0740017" lon="7.7802717"><ele>634.0</ele><time>2026-05-02T10:21:27.612Z</time></trkpt><trkpt lat="45.0739817" lon="7.7804179"><ele>634.0</ele><time>2026-05-02T10:21:28.612Z</time></trkpt><trkpt lat="45.0739621" lon="7.7805781"><ele>634.0</ele><time>2026-05-02T10:21:29.612Z</time></trkpt><trkpt lat="45.0739366" lon="7.7807562"><ele>635.0</ele><time>2026-05-02T10:21:30.612Z</time></trkpt><trkpt lat="45.07391" lon="7.7809198"><ele>636.0</ele><time>2026-05-02T10:21:31.612Z</time></trkpt><trkpt lat="45.0738839" lon="7.7810834"><ele>637.0</ele><time>2026-05-02T10:21:32.613Z</time></trkpt><trkpt lat="45.0738559" lon="7.7812392"><ele>638.0</ele><time>2026-05-02T10:21:33.613Z</time></trkpt><trkpt lat="45.0738229" lon="7.7813876"><ele>638.8</ele><time>2026-05-02T10:21:34.613Z</time></trkpt><trkpt lat="45.0737996" lon="7.7815252"><ele>639.5999999999999</ele><time>2026-05-02T10:21:35.613Z</time></trkpt><trkpt lat="45.0737807" lon="7.7816553"><ele>640.4000000000001</ele><time>2026-05-02T10:21:36.613Z</time></trkpt><trkpt lat="45.0737612" lon="7.7817831"><ele>641.2</ele><time>2026-05-02T10:21:37.613Z</time></trkpt><trkpt lat="45.0737352" lon="7.7819035"><ele>642.0</ele><time>2026-05-02T10:21:38.613Z</time></trkpt><trkpt lat="45.0736964" lon="7.7820192"><ele>643.1666666666666</ele><time>2026-05-02T10:21:39.612Z</time></trkpt><trkpt lat="45.0736512" lon="7.7821353"><ele>644.3333333333334</ele><time>2026-05-02T10:21:40.612Z</time></trkpt><trkpt lat="45.0736081" lon="7.782242"><ele>645.5</ele><time>2026-05-02T10:21:41.613Z</time></trkpt><trkpt lat="45.0735627" lon="7.7823412"><ele>646.6666666666667</ele><time>2026-05-02T10:21:42.613Z</time></trkpt><trkpt lat="45.0735195" lon="7.7824297"><ele>647.8333333333334</ele><time>2026-05-02T10:21:43.613Z</time></trkpt><trkpt lat="45.073476" lon="7.7825137"><ele>649.0</ele><time>2026-05-02T10:21:44.613Z</time></trkpt><trkpt lat="45.0734246" lon="7.7825957"><ele>649.8000000000001</ele><time>2026-05-02T10:21:45.613Z</time></trkpt><trkpt lat="45.0733683" lon="7.7826844"><ele>650.6</ele><time>2026-05-02T10:21:46.612Z</time></trkpt><trkpt lat="45.0733182" lon="7.782787"><ele>651.4</ele><time>2026-05-02T10:21:47.613Z</time></trkpt><trkpt lat="45.073276" lon="7.7828963"><ele>652.2</ele><time>2026-05-02T10:21:48.613Z</time></trkpt><trkpt lat="45.073242" lon="7.7830223"><ele>653.0</ele><time>2026-05-02T10:21:49.613Z</time></trkpt><trkpt lat="45.073216" lon="7.7831612"><ele>651.0</ele><time>2026-05-02T10:21:50.613Z</time></trkpt><trkpt lat="45.0731936" lon="7.7832973"><ele>649.0</ele><time>2026-05-02T10:21:51.612Z</time></trkpt><trkpt lat="45.0731729" lon="7.7834294"><ele>647.0</ele><time>2026-05-02T10:21:52.613Z</time></trkpt><trkpt lat="45.0731563" lon="7.783567"><ele>645.0</ele><time>2026-05-02T10:21:53.613Z</time></trkpt><trkpt lat="45.073134" lon="7.7836902"><ele>643.0</ele><time>2026-05-02T10:21:54.613Z</time></trkpt><trkpt lat="45.0731075" lon="7.7838012"><ele>643.0</ele><time>2026-05-02T10:21:55.613Z</time></trkpt><trkpt lat="45.0730755" lon="7.7839047"><ele>643.0</ele><time>2026-05-02T10:21:56.612Z</time></trkpt><trkpt lat="45.0730325" lon="7.7840041"><ele>643.0</ele><time>2026-05-02T10:21:57.612Z</time></trkpt><trkpt lat="45.0729696" lon="7.7841013"><ele>643.0</ele><time>2026-05-02T10:21:58.613Z</time></trkpt><trkpt lat="45.0728981" lon="7.7841813"><ele>643.0</ele><time>2026-05-02T10:21:59.612Z</time></trkpt><trkpt lat="45.0728297" lon="7.7842309"><ele>643.0</ele><time>2026-05-02T10:22:00.612Z</time></trkpt><trkpt lat="45.072761" lon="7.7842697"><ele>643.0</ele><time>2026-05-02T10:22:01.613Z</time></trkpt><trkpt lat="45.0726778" lon="7.7843061"><ele>643.0</ele><time>2026-05-02T10:22:02.613Z</time></trkpt><trkpt lat="45.0725946" lon="7.7843245"><ele>643.0</ele><time>2026-05-02T10:22:03.613Z</time></trkpt><trkpt lat="45.0725041" lon="7.7843204"><ele>643.0</ele><time>2026-05-02T10:22:04.613Z</time></trkpt><trkpt lat="45.0724104" lon="7.7843062"><ele>643.0</ele><time>2026-05-02T10:22:05.613Z</time></trkpt><trkpt lat="45.0723038" lon="7.7842812"><ele>640.5</ele><time>2026-05-02T10:22:06.613Z</time></trkpt><trkpt lat="45.0721821" lon="7.7842533"><ele>638.0</ele><time>2026-05-02T10:22:07.612Z</time></trkpt><trkpt lat="45.072066" lon="7.7842321"><ele>635.5</ele><time>2026-05-02T10:22:08.613Z</time></trkpt><trkpt lat="45.0719525" lon="7.7842193"><ele>633.0</ele><time>2026-05-02T10:22:09.613Z</time></trkpt><trkpt lat="45.0718562" lon="7.7842108"><ele>633.0</ele><time>2026-05-02T10:22:10.612Z</time></trkpt><trkpt lat="45.0717593" lon="7.7842022"><ele>633.0</ele><time>2026-05-02T10:22:11.613Z</time></trkpt><trkpt lat="45.0716652" lon="7.7841979"><ele>633.0</ele><time>2026-05-02T10:22:12.613Z</time></trkpt><trkpt lat="45.0715715" lon="7.784199"><ele>633.0</ele><time>2026-05-02T10:22:13.612Z</time></trkpt><trkpt lat="45.0714796" lon="7.7842017"><ele>633.0</ele><time>2026-05-02T10:22:14.613Z</time></trkpt><trkpt lat="45.0713959" lon="7.7842123"><ele>632.6666666666666</ele><time>2026-05-02T10:22:15.612Z</time></trkpt><trkpt lat="45.0713221" lon="7.7842238"><ele>632.3333333333334</ele><time>2026-05-02T10:22:16.613Z</time></trkpt><trkpt lat="45.0712336" lon="7.7842474"><ele>632.0</ele><time>2026-05-02T10:22:18.612Z</time></trkpt><trkpt lat="45.0712233" lon="7.7843727"><ele>631.6666666666667</ele><time>2026-05-02T10:22:20.612Z</time></trkpt><trkpt lat="45.0712535" lon="7.7844598"><ele>631.3333333333334</ele><time>2026-05-02T10:22:21.613Z</time></trkpt><trkpt lat="45.0712977" lon="7.7845711"><ele>631.0</ele><time>2026-05-02T10:22:22.612Z</time></trkpt><trkpt lat="45.0713558" lon="7.7847025"><ele>627.0</ele><time>2026-05-02T10:22:23.613Z</time></trkpt><trkpt lat="45.0714371" lon="7.7848743"><ele>623.0</ele><time>2026-05-02T10:22:24.613Z</time></trkpt><trkpt lat="45.0715225" lon="7.7850535"><ele>619.0</ele><time>2026-05-02T10:22:25.613Z</time></trkpt><trkpt lat="45.0716042" lon="7.7852221"><ele>615.0</ele><time>2026-05-02T10:22:26.612Z</time></trkpt><trkpt lat="45.0716818" lon="7.7853793"><ele>614.0</ele><time>2026-05-02T10:22:27.613Z</time></trkpt><trkpt lat="45.0717535" lon="7.7855204"><ele>613.0</ele><time>2026-05-02T10:22:28.613Z</time></trkpt><trkpt lat="45.0718318" lon="7.785659"><ele>612.0</ele><time>2026-05-02T10:22:29.613Z</time></trkpt><trkpt lat="45.0719206" lon="7.7858027"><ele>611.0</ele><time>2026-05-02T10:22:30.612Z</time></trkpt><trkpt lat="45.0720161" lon="7.7859424"><ele>608.6</ele><time>2026-05-02T10:22:31.613Z</time></trkpt><trkpt lat="45.0721111" lon="7.7860673"><ele>606.2</ele><time>2026-05-02T10:22:32.613Z</time></trkpt><trkpt lat="45.0721997" lon="7.7861724"><ele>603.8</ele><time>2026-05-02T10:22:33.613Z</time></trkpt><trkpt lat="45.0722819" lon="7.7862601"><ele>601.4</ele><time>2026-05-02T10:22:34.612Z</time></trkpt><trkpt lat="45.0723516" lon="7.7863333"><ele>599.0</ele><time>2026-05-02T10:22:35.613Z</time></trkpt><trkpt lat="45.0723988" lon="7.7864148"><ele>599.0</ele><time>2026-05-02T10:22:36.613Z</time></trkpt><trkpt lat="45.0724154" lon="7.7865101"><ele>599.0</ele><time>2026-05-02T10:22:37.612Z</time></trkpt><trkpt lat="45.0724117" lon="7.7866051"><ele>599.0</ele><time>2026-05-02T10:22:38.613Z</time></trkpt><trkpt lat="45.0723391" lon="7.7867376"><ele>599.0</ele><time>2026-05-02T10:22:40.613Z</time></trkpt><trkpt lat="45.0722525" lon="7.7867777"><ele>599.0</ele><time>2026-05-02T10:22:41.613Z</time></trkpt><trkpt lat="45.072152" lon="7.7868289"><ele>598.0</ele><time>2026-05-02T10:22:42.612Z</time></trkpt><trkpt lat="45.0720497" lon="7.786878"><ele>597.0</ele><time>2026-05-02T10:22:43.613Z</time></trkpt><trkpt lat="45.0719643" lon="7.7869274"><ele>596.0</ele><time>2026-05-02T10:22:44.613Z</time></trkpt><trkpt lat="45.0718725" lon="7.7870072"><ele>595.0</ele><time>2026-05-02T10:22:45.612Z</time></trkpt><trkpt lat="45.0718355" lon="7.7871053"><ele>594.0</ele><time>2026-05-02T10:22:46.612Z</time></trkpt><trkpt lat="45.0718261" lon="7.7872223"><ele>594.0</ele><time>2026-05-02T10:22:47.613Z</time></trkpt><trkpt lat="45.0718474" lon="7.7873676"><ele>594.0</ele><time>2026-05-02T10:22:48.613Z</time></trkpt><trkpt lat="45.0718704" lon="7.7875095"><ele>594.0</ele><time>2026-05-02T10:22:49.613Z</time></trkpt><trkpt lat="45.0718708" lon="7.7876362"><ele>594.0</ele><time>2026-05-02T10:22:50.612Z</time></trkpt><trkpt lat="45.0718571" lon="7.7877482"><ele>594.0</ele><time>2026-05-02T10:22:51.613Z</time></trkpt><trkpt lat="45.0717927" lon="7.787843"><ele>594.0</ele><time>2026-05-02T10:22:52.613Z</time></trkpt><trkpt lat="45.0717177" lon="7.7879213"><ele>594.0</ele><time>2026-05-02T10:22:53.612Z</time></trkpt><trkpt lat="45.0716286" lon="7.7879842"><ele>594.0</ele><time>2026-05-02T10:22:54.613Z</time></trkpt><trkpt lat="45.0715509" lon="7.7880836"><ele>594.0</ele><time>2026-05-02T10:22:55.612Z</time></trkpt><trkpt lat="45.0714894" lon="7.7882018"><ele>594.0</ele><time>2026-05-02T10:22:56.612Z</time></trkpt><trkpt lat="45.071429" lon="7.7883451"><ele>589.5</ele><time>2026-05-02T10:22:57.612Z</time></trkpt><trkpt lat="45.0713686" lon="7.788503"><ele>585.0</ele><time>2026-05-02T10:22:58.613Z</time></trkpt><trkpt lat="45.0713134" lon="7.7886646"><ele>580.5</ele><time>2026-05-02T10:22:59.613Z</time></trkpt><trkpt lat="45.0712433" lon="7.7888539"><ele>576.0</ele><time>2026-05-02T10:23:00.612Z</time></trkpt><trkpt lat="45.0711685" lon="7.7890162"><ele>576.0</ele><time>2026-05-02T10:23:01.613Z</time></trkpt><trkpt lat="45.0710962" lon="7.7891609"><ele>576.0</ele><time>2026-05-02T10:23:02.613Z</time></trkpt><trkpt lat="45.0710262" lon="7.7892817"><ele>576.0</ele><time>2026-05-02T10:23:03.613Z</time></trkpt><trkpt lat="45.0709705" lon="7.7893859"><ele>576.0</ele><time>2026-05-02T10:23:04.613Z</time></trkpt><trkpt lat="45.0709806" lon="7.7895658"><ele>575.4</ele><time>2026-05-02T10:23:06.613Z</time></trkpt><trkpt lat="45.0710283" lon="7.7896691"><ele>574.8</ele><time>2026-05-02T10:23:07.613Z</time></trkpt><trkpt lat="45.071116" lon="7.7897905"><ele>574.1999999999999</ele><time>2026-05-02T10:23:08.613Z</time></trkpt><trkpt lat="45.0711794" lon="7.7899171"><ele>573.6</ele><time>2026-05-02T10:23:09.613Z</time></trkpt><trkpt lat="45.0712056" lon="7.7900675"><ele>573.0</ele><time>2026-05-02T10:23:10.613Z</time></trkpt><trkpt lat="45.071192" lon="7.7902408"><ele>573.0</ele><time>2026-05-02T10:23:11.613Z</time></trkpt><trkpt lat="45.0711661" lon="7.7904091"><ele>573.0</ele><time>2026-05-02T10:23:12.612Z</time></trkpt><trkpt lat="45.0711209" lon="7.790574"><ele>573.0</ele><time>2026-05-02T10:23:13.612Z</time></trkpt><trkpt lat="45.0710924" lon="7.7907125"><ele>573.0</ele><time>2026-05-02T10:23:14.612Z</time></trkpt><trkpt lat="45.0710603" lon="7.7908466"><ele>573.0</ele><time>2026-05-02T10:23:15.614Z</time></trkpt><trkpt lat="45.0710214" lon="7.79097"><ele>573.1666666666666</ele><time>2026-05-02T10:23:16.613Z</time></trkpt><trkpt lat="45.0709581" lon="7.7910782"><ele>573.3333333333334</ele><time>2026-05-02T10:23:17.613Z</time></trkpt><trkpt lat="45.0708909" lon="7.7911651"><ele>573.5</ele><time>2026-05-02T10:23:18.614Z</time></trkpt><trkpt lat="45.0708374" lon="7.791239"><ele>573.6666666666667</ele><time>2026-05-02T10:23:19.614Z</time></trkpt><trkpt lat="45.0708089" lon="7.7913363"><ele>573.8333333333334</ele><time>2026-05-02T10:23:20.614Z</time></trkpt><trkpt lat="45.0708091" lon="7.7914396"><ele>574.0</ele><time>2026-05-02T10:23:21.613Z</time></trkpt><trkpt lat="45.0708784" lon="7.7915448"><ele>574.0</ele><time>2026-05-02T10:23:22.614Z</time></trkpt><trkpt lat="45.0709713" lon="7.7916258"><ele>574.0</ele><time>2026-05-02T10:23:23.614Z</time></trkpt><trkpt lat="45.071081" lon="7.7916921"><ele>574.0</ele><time>2026-05-02T10:23:24.614Z</time></trkpt><trkpt lat="45.0712119" lon="7.7917505"><ele>574.0</ele><time>2026-05-02T10:23:25.613Z</time></trkpt><trkpt lat="45.0713432" lon="7.7917992"><ele>571.75</ele><time>2026-05-02T10:23:26.613Z</time></trkpt><trkpt lat="45.0714759" lon="7.7918437"><ele>569.5</ele><time>2026-05-02T10:23:27.613Z</time></trkpt><trkpt lat="45.0716067" lon="7.7918708"><ele>567.25</ele><time>2026-05-02T10:23:28.614Z</time></trkpt><trkpt lat="45.0717395" lon="7.7918831"><ele>565.0</ele><time>2026-05-02T10:23:29.613Z</time></trkpt><trkpt lat="45.0718752" lon="7.7918624"><ele>565.3333333333334</ele><time>2026-05-02T10:23:30.614Z</time></trkpt><trkpt lat="45.0719992" lon="7.7917661"><ele>565.6666666666666</ele><time>2026-05-02T10:23:31.614Z</time></trkpt><trkpt lat="45.0721206" lon="7.7916061"><ele>566.0</ele><time>2026-05-02T10:23:32.614Z</time></trkpt><trkpt lat="45.0722558" lon="7.7914583"><ele>566.0</ele><time>2026-05-02T10:23:33.614Z</time></trkpt><trkpt lat="45.0723835" lon="7.7913235"><ele>566.0</ele><time>2026-05-02T10:23:34.614Z</time></trkpt><trkpt lat="45.0725036" lon="7.7912377"><ele>566.0</ele><time>2026-05-02T10:23:35.614Z</time></trkpt><trkpt lat="45.0726167" lon="7.7911805"><ele>566.0</ele><time>2026-05-02T10:23:36.614Z</time></trkpt><trkpt lat="45.0727178" lon="7.7911453"><ele>563.8333333333333</ele><time>2026-05-02T10:23:37.614Z</time></trkpt><trkpt lat="45.0728137" lon="7.7911321"><ele>561.6666666666666</ele><time>2026-05-02T10:23:38.613Z</time></trkpt><trkpt lat="45.0728971" lon="7.79113"><ele>559.5</ele><time>2026-05-02T10:23:39.614Z</time></trkpt><trkpt lat="45.0729631" lon="7.7911244"><ele>557.3333333333334</ele><time>2026-05-02T10:23:40.614Z</time></trkpt><trkpt lat="45.0730566" lon="7.7911143"><ele>555.1666666666667</ele><time>2026-05-02T10:23:42.614Z</time></trkpt><trkpt lat="45.0731239" lon="7.79113"><ele>553.0</ele><time>2026-05-02T10:23:44.613Z</time></trkpt><trkpt lat="45.073224" lon="7.7911166"><ele>553.0</ele><time>2026-05-02T10:23:46.614Z</time></trkpt><trkpt lat="45.0733307" lon="7.7910743"><ele>553.0</ele><time>2026-05-02T10:23:48.614Z</time></trkpt><trkpt lat="45.0733974" lon="7.7911271"><ele>553.0</ele><time>2026-05-02T10:23:50.614Z</time></trkpt><trkpt lat="45.0734348" lon="7.7912205"><ele>553.0</ele><time>2026-05-02T10:23:51.614Z</time></trkpt><trkpt lat="45.0734646" lon="7.7913739"><ele>553.0</ele><time>2026-05-02T10:23:52.614Z</time></trkpt><trkpt lat="45.0734873" lon="7.7915473"><ele>553.0</ele><time>2026-05-02T10:23:53.614Z</time></trkpt><trkpt lat="45.0735119" lon="7.7917209"><ele>553.0</ele><time>2026-05-02T10:23:54.614Z</time></trkpt><trkpt lat="45.0735252" lon="7.7919096"><ele>553.0</ele><time>2026-05-02T10:23:55.614Z</time></trkpt><trkpt lat="45.0735241" lon="7.7921157"><ele>553.0</ele><time>2026-05-02T10:23:56.613Z</time></trkpt><trkpt lat="45.0735156" lon="7.7923181"><ele>552.6666666666667</ele><time>2026-05-02T10:23:57.614Z</time></trkpt><trkpt lat="45.0735098" lon="7.792539"><ele>552.3333333333334</ele><time>2026-05-02T10:23:58.614Z</time></trkpt><trkpt lat="45.0735048" lon="7.7927917"><ele>552.0</ele><time>2026-05-02T10:23:59.614Z</time></trkpt><trkpt lat="45.0735062" lon="7.7930508"><ele>552.0</ele><time>2026-05-02T10:24:00.613Z</time></trkpt><trkpt lat="45.0735145" lon="7.7933091"><ele>552.0</ele><time>2026-05-02T10:24:01.613Z</time></trkpt><trkpt lat="45.0735353" lon="7.7935605"><ele>552.0</ele><time>2026-05-02T10:24:02.614Z</time></trkpt><trkpt lat="45.073568" lon="7.7937867"><ele>554.0</ele><time>2026-05-02T10:24:03.614Z</time></trkpt><trkpt lat="45.0736332" lon="7.7939858"><ele>556.0</ele><time>2026-05-02T10:24:04.613Z</time></trkpt><trkpt lat="45.0737239" lon="7.7941918"><ele>558.0</ele><time>2026-05-02T10:24:05.614Z</time></trkpt><trkpt lat="45.0738433" lon="7.7943862"><ele>559.3333333333334</ele><time>2026-05-02T10:24:06.613Z</time></trkpt><trkpt lat="45.0739839" lon="7.7945747"><ele>560.6666666666667</ele><time>2026-05-02T10:24:07.614Z</time></trkpt><trkpt lat="45.0741029" lon="7.7947399"><ele>562.0</ele><time>2026-05-02T10:24:08.614Z</time></trkpt><trkpt lat="45.0742116" lon="7.79487"><ele>563.0</ele><time>2026-05-02T10:24:09.614Z</time></trkpt><trkpt lat="45.0742933" lon="7.795029"><ele>564.0</ele><time>2026-05-02T10:24:10.613Z</time></trkpt><trkpt lat="45.0743441" lon="7.7951844"><ele>565.0</ele><time>2026-05-02T10:24:11.614Z</time></trkpt><trkpt lat="45.0743775" lon="7.7953456"><ele>566.0</ele><time>2026-05-02T10:24:12.614Z</time></trkpt><trkpt lat="45.0743856" lon="7.7955215"><ele>566.25</ele><time>2026-05-02T10:24:13.614Z</time></trkpt><trkpt lat="45.0743827" lon="7.7957089"><ele>566.5</ele><time>2026-05-02T10:24:14.613Z</time></trkpt><trkpt lat="45.074368" lon="7.7958898"><ele>566.75</ele><time>2026-05-02T10:24:15.614Z</time></trkpt><trkpt lat="45.0743463" lon="7.7960445"><ele>567.0</ele><time>2026-05-02T10:24:16.613Z</time></trkpt><trkpt lat="45.0743287" lon="7.7961518"><ele>565.8000000000001</ele><time>2026-05-02T10:24:17.614Z</time></trkpt><trkpt lat="45.0743387" lon="7.7962411"><ele>564.6</ele><time>2026-05-02T10:24:19.614Z</time></trkpt><trkpt lat="45.0743984" lon="7.7962785"><ele>563.4000000000001</ele><time>2026-05-02T10:24:20.614Z</time></trkpt><trkpt lat="45.074508" lon="7.796338"><ele>562.2</ele><time>2026-05-02T10:24:21.613Z</time></trkpt><trkpt lat="45.0746284" lon="7.7963976"><ele>561.0</ele><time>2026-05-02T10:24:22.613Z</time></trkpt><trkpt lat="45.074749" lon="7.7964608"><ele>561.0</ele><time>2026-05-02T10:24:23.614Z</time></trkpt><trkpt lat="45.074871" lon="7.7965323"><ele>561.0</ele><time>2026-05-02T10:24:24.614Z</time></trkpt><trkpt lat="45.0749838" lon="7.7966012"><ele>561.0</ele><time>2026-05-02T10:24:25.614Z</time></trkpt><trkpt lat="45.0750777" lon="7.796672"><ele>561.0</ele><time>2026-05-02T10:24:26.614Z</time></trkpt><trkpt lat="45.0751668" lon="7.7967678"><ele>564.5</ele><time>2026-05-02T10:24:27.614Z</time></trkpt><trkpt lat="45.0752468" lon="7.7969079"><ele>568.0</ele><time>2026-05-02T10:24:28.613Z</time></trkpt><trkpt lat="45.0753295" lon="7.7970672"><ele>571.5</ele><time>2026-05-02T10:24:29.613Z</time></trkpt><trkpt lat="45.0754199" lon="7.7972262"><ele>575.0</ele><time>2026-05-02T10:24:30.613Z</time></trkpt><trkpt lat="45.0755114" lon="7.7973759"><ele>575.0</ele><time>2026-05-02T10:24:31.614Z</time></trkpt><trkpt lat="45.0756164" lon="7.7975138"><ele>575.0</ele><time>2026-05-02T10:24:32.613Z</time></trkpt><trkpt lat="45.0757438" lon="7.7976221"><ele>575.0</ele><time>2026-05-02T10:24:33.614Z</time></trkpt><trkpt lat="45.0758878" lon="7.7977134"><ele>574.5</ele><time>2026-05-02T10:24:34.614Z</time></trkpt><trkpt lat="45.0760343" lon="7.7977735"><ele>574.0</ele><time>2026-05-02T10:24:35.614Z</time></trkpt><trkpt lat="45.0761736" lon="7.7978101"><ele>573.5</ele><time>2026-05-02T10:24:36.614Z</time></trkpt><trkpt lat="45.076291" lon="7.7978413"><ele>573.0</ele><time>2026-05-02T10:24:37.613Z</time></trkpt><trkpt lat="45.0763715" lon="7.7978655"><ele>573.0</ele><time>2026-05-02T10:24:38.614Z</time></trkpt><trkpt lat="45.076432" lon="7.7978908"><ele>573.0</ele><time>2026-05-02T10:24:39.613Z</time></trkpt><trkpt lat="45.0764555" lon="7.7980042"><ele>573.0</ele><time>2026-05-02T10:24:42.614Z</time></trkpt><trkpt lat="45.0764034" lon="7.7980789"><ele>573.0</ele><time>2026-05-02T10:24:43.614Z</time></trkpt><trkpt lat="45.0763233" lon="7.7981593"><ele>573.0</ele><time>2026-05-02T10:24:44.614Z</time></trkpt><trkpt lat="45.0762339" lon="7.7982513"><ele>573.0</ele><time>2026-05-02T10:24:45.614Z</time></trkpt><trkpt lat="45.0761386" lon="7.7983481"><ele>573.0</ele><time>2026-05-02T10:24:46.614Z</time></trkpt><trkpt lat="45.0760263" lon="7.7984368"><ele>573.0</ele><time>2026-05-02T10:24:47.614Z</time></trkpt><trkpt lat="45.0758939" lon="7.7985004"><ele>573.0</ele><time>2026-05-02T10:24:48.613Z</time></trkpt><trkpt lat="45.0757433" lon="7.7985696"><ele>573.0</ele><time>2026-05-02T10:24:49.614Z</time></trkpt><trkpt lat="45.0756049" lon="7.798646"><ele>571.5</ele><time>2026-05-02T10:24:50.614Z</time></trkpt><trkpt lat="45.0754886" lon="7.7987273"><ele>570.0</ele><time>2026-05-02T10:24:51.614Z</time></trkpt><trkpt lat="45.0753827" lon="7.7988047"><ele>568.5</ele><time>2026-05-02T10:24:52.614Z</time></trkpt><trkpt lat="45.0752869" lon="7.7988666"><ele>567.0</ele><time>2026-05-02T10:24:53.614Z</time></trkpt><trkpt lat="45.0751887" lon="7.7989255"><ele>567.0</ele><time>2026-05-02T10:24:54.614Z</time></trkpt><trkpt lat="45.0750936" lon="7.7989886"><ele>567.0</ele><time>2026-05-02T10:24:55.613Z</time></trkpt><trkpt lat="45.0750059" lon="7.7990515"><ele>567.0</ele><time>2026-05-02T10:24:56.613Z</time></trkpt><trkpt lat="45.0749356" lon="7.7991264"><ele>567.0</ele><time>2026-05-02T10:24:57.613Z</time></trkpt><trkpt lat="45.0748642" lon="7.7992147"><ele>567.0</ele><time>2026-05-02T10:24:58.614Z</time></trkpt><trkpt lat="45.0747889" lon="7.7993034"><ele>566.4</ele><time>2026-05-02T10:24:59.614Z</time></trkpt><trkpt lat="45.0747203" lon="7.7993797"><ele>565.8000000000001</ele><time>2026-05-02T10:25:00.614Z</time></trkpt><trkpt lat="45.0746401" lon="7.7995049"><ele>565.2</ele><time>2026-05-02T10:25:02.614Z</time></trkpt><trkpt lat="45.0746032" lon="7.7996441"><ele>564.6</ele><time>2026-05-02T10:25:04.614Z</time></trkpt><trkpt lat="45.0745616" lon="7.7997924"><ele>564.0</ele><time>2026-05-02T10:25:06.614Z</time></trkpt><trkpt lat="45.0745226" lon="7.7999136"><ele>564.0</ele><time>2026-05-02T10:25:08.614Z</time></trkpt><trkpt lat="45.0744561" lon="7.800079"><ele>564.0</ele><time>2026-05-02T10:25:10.615Z</time></trkpt><trkpt lat="45.0744072" lon="7.8001618"><ele>564.0</ele><time>2026-05-02T10:25:11.615Z</time></trkpt><trkpt lat="45.0743552" lon="7.8002424"><ele>564.0</ele><time>2026-05-02T10:25:12.615Z</time></trkpt><trkpt lat="45.0742948" lon="7.8003218"><ele>564.0</ele><time>2026-05-02T10:25:13.615Z</time></trkpt><trkpt lat="45.0742321" lon="7.8003943"><ele>561.0</ele><time>2026-05-02T10:25:14.615Z</time></trkpt><trkpt lat="45.0741681" lon="7.8004565"><ele>558.0</ele><time>2026-05-02T10:25:15.614Z</time></trkpt><trkpt lat="45.0741012" lon="7.8005139"><ele>555.0</ele><time>2026-05-02T10:25:16.615Z</time></trkpt><trkpt lat="45.0739996" lon="7.8005735"><ele>552.0</ele><time>2026-05-02T10:25:17.615Z</time></trkpt><trkpt lat="45.0738825" lon="7.8006331"><ele>549.0</ele><time>2026-05-02T10:25:18.614Z</time></trkpt><trkpt lat="45.0737607" lon="7.8006799"><ele>548.2</ele><time>2026-05-02T10:25:19.615Z</time></trkpt><trkpt lat="45.0736517" lon="7.8007323"><ele>547.4</ele><time>2026-05-02T10:25:20.615Z</time></trkpt><trkpt lat="45.0735559" lon="7.800783"><ele>546.6</ele><time>2026-05-02T10:25:21.615Z</time></trkpt><trkpt lat="45.0734778" lon="7.8008258"><ele>545.8</ele><time>2026-05-02T10:25:22.615Z</time></trkpt><trkpt lat="45.0734069" lon="7.800857"><ele>545.0</ele><time>2026-05-02T10:25:24.615Z</time></trkpt><trkpt lat="45.0733418" lon="7.8009278"><ele>544.25</ele><time>2026-05-02T10:25:27.615Z</time></trkpt><trkpt lat="45.073295" lon="7.8010122"><ele>543.5</ele><time>2026-05-02T10:25:28.615Z</time></trkpt><trkpt lat="45.0732498" lon="7.801143"><ele>542.75</ele><time>2026-05-02T10:25:29.614Z</time></trkpt><trkpt lat="45.0731975" lon="7.8013183"><ele>542.0</ele><time>2026-05-02T10:25:30.615Z</time></trkpt><trkpt lat="45.073122" lon="7.8015217"><ele>539.3333333333333</ele><time>2026-05-02T10:25:31.615Z</time></trkpt><trkpt lat="45.0730383" lon="7.8017517"><ele>536.6666666666666</ele><time>2026-05-02T10:25:32.614Z</time></trkpt><trkpt lat="45.0729587" lon="7.8020009"><ele>534.0</ele><time>2026-05-02T10:25:33.615Z</time></trkpt><trkpt lat="45.072905" lon="7.802212"><ele>534.0</ele><time>2026-05-02T10:25:34.615Z</time></trkpt><trkpt lat="45.0728653" lon="7.8024126"><ele>534.0</ele><time>2026-05-02T10:25:35.615Z</time></trkpt><trkpt lat="45.0728355" lon="7.8026248"><ele>534.0</ele><time>2026-05-02T10:25:36.615Z</time></trkpt><trkpt lat="45.0728058" lon="7.8028324"><ele>534.0</ele><time>2026-05-02T10:25:37.615Z</time></trkpt><trkpt lat="45.0727719" lon="7.803027"><ele>531.75</ele><time>2026-05-02T10:25:38.615Z</time></trkpt><trkpt lat="45.0727252" lon="7.8031985"><ele>529.5</ele><time>2026-05-02T10:25:39.614Z</time></trkpt><trkpt lat="45.072644" lon="7.8033777"><ele>527.25</ele><time>2026-05-02T10:25:40.615Z</time></trkpt><trkpt lat="45.0725509" lon="7.8035698"><ele>525.0</ele><time>2026-05-02T10:25:41.615Z</time></trkpt><trkpt lat="45.0724539" lon="7.8037804"><ele>520.0</ele><time>2026-05-02T10:25:42.615Z</time></trkpt><trkpt lat="45.0723557" lon="7.8040123"><ele>515.0</ele><time>2026-05-02T10:25:43.614Z</time></trkpt><trkpt lat="45.0722579" lon="7.8042432"><ele>510.0</ele><time>2026-05-02T10:25:44.614Z</time></trkpt><trkpt lat="45.0721677" lon="7.8044551"><ele>508.0</ele><time>2026-05-02T10:25:45.614Z</time></trkpt><trkpt lat="45.0720859" lon="7.804663"><ele>506.0</ele><time>2026-05-02T10:25:46.614Z</time></trkpt><trkpt lat="45.0720068" lon="7.8048623"><ele>504.0</ele><time>2026-05-02T10:25:47.615Z</time></trkpt><trkpt lat="45.0719307" lon="7.8050514"><ele>503.5</ele><time>2026-05-02T10:25:48.615Z</time></trkpt><trkpt lat="45.071853" lon="7.8052217"><ele>503.0</ele><time>2026-05-02T10:25:49.615Z</time></trkpt><trkpt lat="45.0717824" lon="7.8053872"><ele>502.5</ele><time>2026-05-02T10:25:50.614Z</time></trkpt><trkpt lat="45.0717245" lon="7.8055699"><ele>502.0</ele><time>2026-05-02T10:25:51.614Z</time></trkpt><trkpt lat="45.0716904" lon="7.8057714"><ele>502.0</ele><time>2026-05-02T10:25:52.615Z</time></trkpt><trkpt lat="45.0716765" lon="7.8059766"><ele>502.0</ele><time>2026-05-02T10:25:53.615Z</time></trkpt><trkpt lat="45.071667" lon="7.8061832"><ele>502.0</ele><time>2026-05-02T10:25:54.615Z</time></trkpt><trkpt lat="45.071655" lon="7.8063769"><ele>502.0</ele><time>2026-05-02T10:25:55.614Z</time></trkpt><trkpt lat="45.0716383" lon="7.8065493"><ele>501.6666666666667</ele><time>2026-05-02T10:25:56.615Z</time></trkpt><trkpt lat="45.071612" lon="7.8066864"><ele>501.33333333333337</ele><time>2026-05-02T10:25:57.614Z</time></trkpt><trkpt lat="45.0715899" lon="7.8067904"><ele>501.0</ele><time>2026-05-02T10:25:58.614Z</time></trkpt><trkpt lat="45.0715559" lon="7.8068963"><ele>500.66666666666663</ele><time>2026-05-02T10:25:59.614Z</time></trkpt><trkpt lat="45.0715122" lon="7.8070125"><ele>500.3333333333333</ele><time>2026-05-02T10:26:00.615Z</time></trkpt><trkpt lat="45.0714667" lon="7.8071143"><ele>500.0</ele><time>2026-05-02T10:26:01.615Z</time></trkpt><trkpt lat="45.0714208" lon="7.8072154"><ele>498.8333333333333</ele><time>2026-05-02T10:26:02.614Z</time></trkpt><trkpt lat="45.0713792" lon="7.8073065"><ele>497.66666666666663</ele><time>2026-05-02T10:26:03.615Z</time></trkpt><trkpt lat="45.0713345" lon="7.807399"><ele>496.5</ele><time>2026-05-02T10:26:04.614Z</time></trkpt><trkpt lat="45.0712884" lon="7.8074949"><ele>495.33333333333337</ele><time>2026-05-02T10:26:05.615Z</time></trkpt><trkpt lat="45.071241" lon="7.8075812"><ele>494.1666666666667</ele><time>2026-05-02T10:26:06.614Z</time></trkpt><trkpt lat="45.0712022" lon="7.8076557"><ele>493.0</ele><time>2026-05-02T10:26:07.615Z</time></trkpt><trkpt lat="45.0711672" lon="7.8077452"><ele>493.00000000000006</ele><time>2026-05-02T10:26:09.615Z</time></trkpt><trkpt lat="45.0712131" lon="7.8078088"><ele>493.0</ele><time>2026-05-02T10:26:13.614Z</time></trkpt><trkpt lat="45.0713094" lon="7.8077845"><ele>493.0</ele><time>2026-05-02T10:26:16.615Z</time></trkpt><trkpt lat="45.0713886" lon="7.8077238"><ele>493.0</ele><time>2026-05-02T10:26:18.615Z</time></trkpt><trkpt lat="45.0714766" lon="7.807663"><ele>493.00000000000006</ele><time>2026-05-02T10:26:20.615Z</time></trkpt><trkpt lat="45.0715549" lon="7.8076034"><ele>493.0</ele><time>2026-05-02T10:26:22.615Z</time></trkpt><trkpt lat="45.0716204" lon="7.8075371"><ele>493.83333333333337</ele><time>2026-05-02T10:26:24.615Z</time></trkpt><trkpt lat="45.0716586" lon="7.8074367"><ele>494.6666666666667</ele><time>2026-05-02T10:26:26.615Z</time></trkpt><trkpt lat="45.071705" lon="7.8073488"><ele>495.5</ele><time>2026-05-02T10:26:28.614Z</time></trkpt><trkpt lat="45.0717715" lon="7.8072709"><ele>496.33333333333337</ele><time>2026-05-02T10:26:30.615Z</time></trkpt><trkpt lat="45.0718571" lon="7.8071977"><ele>497.1666666666667</ele><time>2026-05-02T10:26:32.614Z</time></trkpt><trkpt lat="45.0719399" lon="7.8071459"><ele>498.0</ele><time>2026-05-02T10:26:34.614Z</time></trkpt><trkpt lat="45.0720127" lon="7.8070628"><ele>498.0</ele><time>2026-05-02T10:26:37.615Z</time></trkpt><trkpt lat="45.0720534" lon="7.8069404"><ele>497.99999999999994</ele><time>2026-05-02T10:26:39.615Z</time></trkpt><trkpt lat="45.0720604" lon="7.8068211"><ele>497.99999999999994</ele><time>2026-05-02T10:26:42.615Z</time></trkpt><trkpt lat="45.0720492" lon="7.8066945"><ele>498.0</ele><time>2026-05-02T10:27:06.616Z</time></trkpt><trkpt lat="45.0720646" lon="7.8065387"><ele>498.0</ele><time>2026-05-02T10:27:08.615Z</time></trkpt><trkpt lat="45.0720816" lon="7.8064293"><ele>498.4</ele><time>2026-05-02T10:27:10.615Z</time></trkpt><trkpt lat="45.072117" lon="7.8063122"><ele>498.79999999999995</ele><time>2026-05-02T10:27:12.616Z</time></trkpt><trkpt lat="45.0721371" lon="7.8061923"><ele>499.2</ele><time>2026-05-02T10:27:14.616Z</time></trkpt><trkpt lat="45.0721592" lon="7.8060746"><ele>499.6</ele><time>2026-05-02T10:31:11.617Z</time></trkpt><trkpt lat="45.0721674" lon="7.8059478"><ele>500.0</ele><time>2026-05-02T10:31:13.618Z</time></trkpt><trkpt lat="45.0721759" lon="7.8057945"><ele>500.4</ele><time>2026-05-02T10:31:15.617Z</time></trkpt><trkpt lat="45.0721924" lon="7.8056372"><ele>500.8</ele><time>2026-05-02T10:31:17.618Z</time></trkpt><trkpt lat="45.0722249" lon="7.8054953"><ele>501.20000000000005</ele><time>2026-05-02T10:31:19.618Z</time></trkpt><trkpt lat="45.0722834" lon="7.8054203"><ele>501.6</ele><time>2026-05-02T10:31:21.617Z</time></trkpt><trkpt lat="45.0723715" lon="7.8053923"><ele>502.0</ele><time>2026-05-02T10:31:23.618Z</time></trkpt><trkpt lat="45.0724328" lon="7.8053717"><ele>501.6666666666667</ele><time>2026-05-02T10:31:24.618Z</time></trkpt><trkpt lat="45.0724935" lon="7.8053467"><ele>501.33333333333337</ele><time>2026-05-02T10:31:25.618Z</time></trkpt><trkpt lat="45.0725533" lon="7.8053134"><ele>501.0</ele><time>2026-05-02T10:31:26.618Z</time></trkpt><trkpt lat="45.0726598" lon="7.8052217"><ele>500.66666666666663</ele><time>2026-05-02T10:31:28.618Z</time></trkpt><trkpt lat="45.0727415" lon="7.8051289"><ele>500.3333333333333</ele><time>2026-05-02T10:31:30.618Z</time></trkpt><trkpt lat="45.0727969" lon="7.8050313"><ele>500.0</ele><time>2026-05-02T10:31:32.618Z</time></trkpt><trkpt lat="45.0728286" lon="7.8049207"><ele>499.99999999999994</ele><time>2026-05-02T10:31:34.618Z</time></trkpt><trkpt lat="45.0728563" lon="7.8048123"><ele>500.0</ele><time>2026-05-02T10:31:36.618Z</time></trkpt><trkpt lat="45.0728874" lon="7.8047303"><ele>500.0</ele><time>2026-05-02T10:31:38.618Z</time></trkpt><trkpt lat="45.0729396" lon="7.8046502"><ele>500.0</ele><time>2026-05-02T10:31:40.618Z</time></trkpt><trkpt lat="45.0730097" lon="7.8045743"><ele>499.99999999999994</ele><time>2026-05-02T10:31:42.618Z</time></trkpt><trkpt lat="45.0730805" lon="7.8045153"><ele>500.0</ele><time>2026-05-02T10:31:44.618Z</time></trkpt><trkpt lat="45.0731317" lon="7.8044634"><ele>499.99999999999994</ele><time>2026-05-02T10:31:46.618Z</time></trkpt><trkpt lat="45.0731943" lon="7.8044352"><ele>500.0</ele><time>2026-05-02T10:31:49.617Z</time></trkpt><trkpt lat="45.0732698" lon="7.8045069"><ele>500.0</ele><time>2026-05-02T10:31:52.618Z</time></trkpt><trkpt lat="45.0733389" lon="7.8045608"><ele>500.0</ele><time>2026-05-02T10:31:54.618Z</time></trkpt><trkpt lat="45.0734326" lon="7.8046508"><ele>499.99999999999994</ele><time>2026-05-02T10:31:56.618Z</time></trkpt><trkpt lat="45.0734867" lon="7.8047034"><ele>500.0</ele><time>2026-05-02T10:31:57.618Z</time></trkpt><trkpt lat="45.0735393" lon="7.8047562"><ele>496.66666666666663</ele><time>2026-05-02T10:31:58.617Z</time></trkpt><trkpt lat="45.0736384" lon="7.8048283"><ele>493.3333333333333</ele><time>2026-05-02T10:32:00.618Z</time></trkpt><trkpt lat="45.0737129" lon="7.8048619"><ele>490.0</ele><time>2026-05-02T10:32:02.618Z</time></trkpt><trkpt lat="45.0737904" lon="7.8048236"><ele>486.66666666666663</ele><time>2026-05-02T10:32:05.618Z</time></trkpt><trkpt lat="45.0738391" lon="7.804718"><ele>483.3333333333333</ele><time>2026-05-02T10:32:07.618Z</time></trkpt><trkpt lat="45.073878" lon="7.8046169"><ele>480.0</ele><time>2026-05-02T10:32:09.617Z</time></trkpt><trkpt lat="45.0739204" lon="7.8044996"><ele>480.0</ele><time>2026-05-02T10:32:11.618Z</time></trkpt><trkpt lat="45.0739631" lon="7.8044294"><ele>480.0</ele><time>2026-05-02T10:32:12.618Z</time></trkpt><trkpt lat="45.0740596" lon="7.804305"><ele>480.0</ele><time>2026-05-02T10:32:14.617Z</time></trkpt><trkpt lat="45.0741274" lon="7.8042308"><ele>480.0</ele><time>2026-05-02T10:32:16.618Z</time></trkpt><trkpt lat="45.0742119" lon="7.8042674"><ele>480.0</ele><time>2026-05-02T10:32:20.618Z</time></trkpt><trkpt lat="45.0742708" lon="7.8043434"><ele>478.1666666666667</ele><time>2026-05-02T10:32:22.618Z</time></trkpt><trkpt lat="45.0743318" lon="7.8044436"><ele>476.33333333333337</ele><time>2026-05-02T10:32:24.617Z</time></trkpt><trkpt lat="45.0743754" lon="7.8045584"><ele>474.5</ele><time>2026-05-02T10:32:26.618Z</time></trkpt><trkpt lat="45.0743534" lon="7.8046679"><ele>472.6666666666667</ele><time>2026-05-02T10:32:28.617Z</time></trkpt><trkpt lat="45.0743049" lon="7.8047634"><ele>470.83333333333337</ele><time>2026-05-02T10:32:30.618Z</time></trkpt><trkpt lat="45.0742724" lon="7.8048709"><ele>469.0</ele><time>2026-05-02T10:32:32.618Z</time></trkpt><trkpt lat="45.0742516" lon="7.8050013"><ele>469.00000000000006</ele><time>2026-05-02T10:32:34.618Z</time></trkpt><trkpt lat="45.0742382" lon="7.8051378"><ele>469.0</ele><time>2026-05-02T10:32:36.617Z</time></trkpt><trkpt lat="45.0742119" lon="7.8052602"><ele>469.0</ele><time>2026-05-02T10:32:38.617Z</time></trkpt><trkpt lat="45.0741831" lon="7.8053727"><ele>469.0</ele><time>2026-05-02T10:32:40.618Z</time></trkpt><trkpt lat="45.0741565" lon="7.8054876"><ele>469.00000000000006</ele><time>2026-05-02T10:32:42.618Z</time></trkpt><trkpt lat="45.074117" lon="7.8055834"><ele>469.0</ele><time>2026-05-02T10:32:44.618Z</time></trkpt><trkpt lat="45.0740776" lon="7.8056844"><ele>467.79999999999995</ele><time>2026-05-02T10:32:46.618Z</time></trkpt><trkpt lat="45.0740451" lon="7.8058289"><ele>466.59999999999997</ele><time>2026-05-02T10:32:48.618Z</time></trkpt><trkpt lat="45.0739984" lon="7.8059664"><ele>465.4</ele><time>2026-05-02T10:32:50.618Z</time></trkpt><trkpt lat="45.0739434" lon="7.8060703"><ele>464.2</ele><time>2026-05-02T10:32:52.618Z</time></trkpt><trkpt lat="45.0738904" lon="7.8061598"><ele>463.0</ele><time>2026-05-02T10:32:54.619Z</time></trkpt><trkpt lat="45.0738303" lon="7.8062597"><ele>461.0</ele><time>2026-05-02T10:32:56.618Z</time></trkpt><trkpt lat="45.0737739" lon="7.8063797"><ele>458.99999999999994</ele><time>2026-05-02T10:32:58.619Z</time></trkpt><trkpt lat="45.0737275" lon="7.8064834"><ele>456.99999999999994</ele><time>2026-05-02T10:33:00.618Z</time></trkpt><trkpt lat="45.0736731" lon="7.8065641"><ele>455.0</ele><time>2026-05-02T10:33:02.619Z</time></trkpt><trkpt lat="45.0735997" lon="7.8065962"><ele>453.0</ele><time>2026-05-02T10:33:04.618Z</time></trkpt><trkpt lat="45.0734845" lon="7.8065783"><ele>453.0</ele><time>2026-05-02T10:33:06.619Z</time></trkpt><trkpt lat="45.07337" lon="7.8065523"><ele>453.0</ele><time>2026-05-02T10:33:08.618Z</time></trkpt><trkpt lat="45.0732773" lon="7.8065181"><ele>453.0</ele><time>2026-05-02T10:33:10.618Z</time></trkpt><trkpt lat="45.0731908" lon="7.8064954"><ele>453.0</ele><time>2026-05-02T10:33:12.619Z</time></trkpt><trkpt lat="45.0731269" lon="7.8065051"><ele>453.0</ele><time>2026-05-02T10:33:14.618Z</time></trkpt><trkpt lat="45.0730523" lon="7.8065413"><ele>453.0</ele><time>2026-05-02T10:33:16.619Z</time></trkpt><trkpt lat="45.0729785" lon="7.8065852"><ele>456.8333333333333</ele><time>2026-05-02T10:33:18.619Z</time></trkpt><trkpt lat="45.0729467" lon="7.8066636"><ele>460.66666666666663</ele><time>2026-05-02T10:33:20.619Z</time></trkpt><trkpt lat="45.0729348" lon="7.8067884"><ele>464.5</ele><time>2026-05-02T10:33:22.619Z</time></trkpt><trkpt lat="45.07294" lon="7.8069555"><ele>468.3333333333333</ele><time>2026-05-02T10:33:24.619Z</time></trkpt><trkpt lat="45.0729368" lon="7.8070512"><ele>472.16666666666663</ele><time>2026-05-02T10:33:25.619Z</time></trkpt><trkpt lat="45.0729213" lon="7.807139"><ele>476.0</ele><time>2026-05-02T10:33:26.619Z</time></trkpt><trkpt lat="45.0729025" lon="7.8072299"><ele>476.0</ele><time>2026-05-02T10:33:27.619Z</time></trkpt><trkpt lat="45.0728793" lon="7.8073141"><ele>476.0</ele><time>2026-05-02T10:33:28.619Z</time></trkpt><trkpt lat="45.0728257" lon="7.8074598"><ele>476.0</ele><time>2026-05-02T10:33:30.619Z</time></trkpt><trkpt lat="45.0727753" lon="7.8076207"><ele>476.0</ele><time>2026-05-02T10:33:32.619Z</time></trkpt><trkpt lat="45.0727284" lon="7.8077725"><ele>476.0</ele><time>2026-05-02T10:33:34.618Z</time></trkpt><trkpt lat="45.0726662" lon="7.8078892"><ele>478.49999999999994</ele><time>2026-05-02T10:33:36.619Z</time></trkpt><trkpt lat="45.0726012" lon="7.8079968"><ele>481.0</ele><time>2026-05-02T10:33:38.618Z</time></trkpt><trkpt lat="45.0725358" lon="7.8081112"><ele>483.5</ele><time>2026-05-02T10:33:40.619Z</time></trkpt><trkpt lat="45.0724921" lon="7.8081986"><ele>486.0</ele><time>2026-05-02T10:33:42.619Z</time></trkpt><trkpt lat="45.0724359" lon="7.8082871"><ele>488.49999999999994</ele><time>2026-05-02T10:33:44.619Z</time></trkpt><trkpt lat="45.0723848" lon="7.8083726"><ele>491.0</ele><time>2026-05-02T10:33:46.618Z</time></trkpt><trkpt lat="45.0723495" lon="7.8084821"><ele>490.20000000000005</ele><time>2026-05-02T10:33:48.619Z</time></trkpt><trkpt lat="45.0723622" lon="7.8086259"><ele>489.40000000000003</ele><time>2026-05-02T10:33:50.619Z</time></trkpt><trkpt lat="45.0723644" lon="7.8088131"><ele>488.6</ele><time>2026-05-02T10:33:52.618Z</time></trkpt><trkpt lat="45.0723557" lon="7.8089088"><ele>487.8</ele><time>2026-05-02T10:33:53.619Z</time></trkpt><trkpt lat="45.0723329" lon="7.8090684"><ele>487.0</ele><time>2026-05-02T10:33:55.618Z</time></trkpt><trkpt lat="45.0723169" lon="7.8092341"><ele>485.33333333333337</ele><time>2026-05-02T10:33:57.618Z</time></trkpt><trkpt lat="45.0722947" lon="7.8094026"><ele>483.6666666666667</ele><time>2026-05-02T10:33:59.618Z</time></trkpt><trkpt lat="45.0722813" lon="7.809497"><ele>482.0</ele><time>2026-05-02T10:34:00.619Z</time></trkpt><trkpt lat="45.072267" lon="7.8095849"><ele>480.33333333333337</ele><time>2026-05-02T10:34:01.619Z</time></trkpt><trkpt lat="45.0722364" lon="7.8097332"><ele>478.6666666666667</ele><time>2026-05-02T10:34:03.619Z</time></trkpt><trkpt lat="45.0721958" lon="7.8098192"><ele>477.0</ele><time>2026-05-02T10:34:05.619Z</time></trkpt><trkpt lat="45.0721427" lon="7.8098919"><ele>477.0</ele><time>2026-05-02T10:34:07.618Z</time></trkpt><trkpt lat="45.0720882" lon="7.8099923"><ele>477.0</ele><time>2026-05-02T10:34:09.619Z</time></trkpt><trkpt lat="45.0720547" lon="7.8100736"><ele>477.0</ele><time>2026-05-02T10:34:10.618Z</time></trkpt><trkpt lat="45.0720299" lon="7.8101647"><ele>477.0</ele><time>2026-05-02T10:34:11.618Z</time></trkpt><trkpt lat="45.0720191" lon="7.8102601"><ele>477.0</ele><time>2026-05-02T10:34:12.619Z</time></trkpt><trkpt lat="45.0720224" lon="7.8104061"><ele>477.0</ele><time>2026-05-02T10:34:14.619Z</time></trkpt><trkpt lat="45.0720452" lon="7.8104999"><ele>475.5</ele><time>2026-05-02T10:34:17.619Z</time></trkpt><trkpt lat="45.0720595" lon="7.8106118"><ele>474.0</ele><time>2026-05-02T10:34:21.618Z</time></trkpt><trkpt lat="45.072062" lon="7.8107236"><ele>472.5</ele><time>2026-05-02T10:34:23.619Z</time></trkpt><trkpt lat="45.0720587" lon="7.8108402"><ele>471.0</ele><time>2026-05-02T10:34:25.618Z</time></trkpt><trkpt lat="45.0720529" lon="7.8109737"><ele>469.5</ele><time>2026-05-02T10:34:27.618Z</time></trkpt><trkpt lat="45.0720424" lon="7.811112"><ele>468.0</ele><time>2026-05-02T10:34:29.619Z</time></trkpt><trkpt lat="45.0720234" lon="7.8112702"><ele>466.2</ele><time>2026-05-02T10:34:31.618Z</time></trkpt><trkpt lat="45.0720101" lon="7.8113707"><ele>464.4</ele><time>2026-05-02T10:34:32.619Z</time></trkpt><trkpt lat="45.0720041" lon="7.8114735"><ele>462.59999999999997</ele><time>2026-05-02T10:34:33.619Z</time></trkpt><trkpt lat="45.0719958" lon="7.8115642"><ele>460.79999999999995</ele><time>2026-05-02T10:34:34.619Z</time></trkpt><trkpt lat="45.0719668" lon="7.8117239"><ele>459.0</ele><time>2026-05-02T10:34:36.619Z</time></trkpt><trkpt lat="45.0719584" lon="7.8118988"><ele>459.0</ele><time>2026-05-02T10:34:38.619Z</time></trkpt><trkpt lat="45.0719616" lon="7.8119879"><ele>459.0</ele><time>2026-05-02T10:34:39.619Z</time></trkpt><trkpt lat="45.0719657" lon="7.8120867"><ele>459.0</ele><time>2026-05-02T10:34:40.619Z</time></trkpt><trkpt lat="45.0719713" lon="7.8121953"><ele>459.0</ele><time>2026-05-02T10:34:41.62Z</time></trkpt><trkpt lat="45.0719688" lon="7.8122946"><ele>459.0</ele><time>2026-05-02T10:34:42.619Z</time></trkpt><trkpt lat="45.0719542" lon="7.8123921"><ele>459.0</ele><time>2026-05-02T10:34:43.62Z</time></trkpt><trkpt lat="45.0719285" lon="7.8124863"><ele>459.0</ele><time>2026-05-02T10:34:44.62Z</time></trkpt><trkpt lat="45.071897" lon="7.8125783"><ele>457.2</ele><time>2026-05-02T10:34:45.62Z</time></trkpt><trkpt lat="45.0718638" lon="7.8126587"><ele>455.4</ele><time>2026-05-02T10:34:46.619Z</time></trkpt><trkpt lat="45.0718129" lon="7.8128069"><ele>453.6</ele><time>2026-05-02T10:34:48.62Z</time></trkpt><trkpt lat="45.071792" lon="7.8129691"><ele>451.8</ele><time>2026-05-02T10:34:50.62Z</time></trkpt><trkpt lat="45.0717788" lon="7.8131147"><ele>450.0</ele><time>2026-05-02T10:34:52.619Z</time></trkpt><trkpt lat="45.0717599" lon="7.8132879"><ele>450.0</ele><time>2026-05-02T10:34:54.62Z</time></trkpt><trkpt lat="45.0717545" lon="7.8134012"><ele>450.0</ele><time>2026-05-02T10:34:55.62Z</time></trkpt><trkpt lat="45.071758" lon="7.8134951"><ele>450.0</ele><time>2026-05-02T10:34:56.62Z</time></trkpt><trkpt lat="45.071763" lon="7.8136465"><ele>450.0</ele><time>2026-05-02T10:34:58.62Z</time></trkpt><trkpt lat="45.0717493" lon="7.8137783"><ele>450.0</ele><time>2026-05-02T10:35:00.62Z</time></trkpt><trkpt lat="45.0716991" lon="7.8139313"><ele>449.4285714285715</ele><time>2026-05-02T10:35:02.62Z</time></trkpt><trkpt lat="45.0716637" lon="7.8140147"><ele>448.8571428571429</ele><time>2026-05-02T10:35:03.62Z</time></trkpt><trkpt lat="45.0716259" lon="7.8141032"><ele>448.28571428571433</ele><time>2026-05-02T10:35:04.62Z</time></trkpt><trkpt lat="45.0715878" lon="7.814182"><ele>447.7142857142858</ele><time>2026-05-02T10:35:05.619Z</time></trkpt><trkpt lat="45.071553" lon="7.8142602"><ele>447.1428571428571</ele><time>2026-05-02T10:35:06.62Z</time></trkpt><trkpt lat="45.071507" lon="7.8143377"><ele>446.57142857142856</ele><time>2026-05-02T10:35:07.619Z</time></trkpt><trkpt lat="45.0714593" lon="7.8144158"><ele>446.0</ele><time>2026-05-02T10:35:08.619Z</time></trkpt><trkpt lat="45.0714096" lon="7.8144913"><ele>444.3333333333333</ele><time>2026-05-02T10:35:09.619Z</time></trkpt><trkpt lat="45.07136" lon="7.8145611"><ele>442.66666666666663</ele><time>2026-05-02T10:35:10.62Z</time></trkpt><trkpt lat="45.0713007" lon="7.8146355"><ele>441.0</ele><time>2026-05-02T10:35:11.62Z</time></trkpt><trkpt lat="45.0712362" lon="7.814704"><ele>439.33333333333337</ele><time>2026-05-02T10:35:12.62Z</time></trkpt><trkpt lat="45.0711739" lon="7.814755"><ele>437.6666666666667</ele><time>2026-05-02T10:35:13.62Z</time></trkpt><trkpt lat="45.0710682" lon="7.8148172"><ele>436.0</ele><time>2026-05-02T10:35:15.62Z</time></trkpt><trkpt lat="45.0709547" lon="7.8147986"><ele>436.0</ele><time>2026-05-02T10:35:17.62Z</time></trkpt><trkpt lat="45.0708962" lon="7.8147303"><ele>436.0</ele><time>2026-05-02T10:35:18.62Z</time></trkpt><trkpt lat="45.0708516" lon="7.8146291"><ele>436.0</ele><time>2026-05-02T10:35:19.62Z</time></trkpt><trkpt lat="45.0708159" lon="7.8145259"><ele>436.0</ele><time>2026-05-02T10:35:20.619Z</time></trkpt><trkpt lat="45.070796" lon="7.814404"><ele>436.0</ele><time>2026-05-02T10:35:21.62Z</time></trkpt><trkpt lat="45.0707593" lon="7.8142147"><ele>436.00000000000006</ele><time>2026-05-02T10:35:23.62Z</time></trkpt><trkpt lat="45.0707357" lon="7.8141236"><ele>436.0</ele><time>2026-05-02T10:35:24.619Z</time></trkpt><trkpt lat="45.0707055" lon="7.814033"><ele>436.0</ele><time>2026-05-02T10:35:25.619Z</time></trkpt><trkpt lat="45.070672" lon="7.8139505"><ele>436.0</ele><time>2026-05-02T10:35:26.62Z</time></trkpt><trkpt lat="45.0706312" lon="7.813873"><ele>436.00000000000006</ele><time>2026-05-02T10:35:27.619Z</time></trkpt><trkpt lat="45.070535" lon="7.8137608"><ele>436.0</ele><time>2026-05-02T10:35:29.62Z</time></trkpt><trkpt lat="45.0704688" lon="7.813718"><ele>436.0</ele><time>2026-05-02T10:35:30.62Z</time></trkpt><trkpt lat="45.0704013" lon="7.8136867"><ele>436.0</ele><time>2026-05-02T10:35:31.62Z</time></trkpt><trkpt lat="45.070334" lon="7.8136678"><ele>436.0</ele><time>2026-05-02T10:35:32.62Z</time></trkpt><trkpt lat="45.0702641" lon="7.8136608"><ele>436.0</ele><time>2026-05-02T10:35:33.62Z</time></trkpt><trkpt lat="45.0701921" lon="7.8136625"><ele>436.0</ele><time>2026-05-02T10:35:34.62Z</time></trkpt><trkpt lat="45.070115" lon="7.8136738"><ele>436.0</ele><time>2026-05-02T10:35:35.619Z</time></trkpt><trkpt lat="45.0700365" lon="7.81369"><ele>436.0</ele><time>2026-05-02T10:35:36.619Z</time></trkpt><trkpt lat="45.0699626" lon="7.813709"><ele>435.33333333333337</ele><time>2026-05-02T10:35:37.62Z</time></trkpt><trkpt lat="45.0698998" lon="7.8137315"><ele>434.6666666666667</ele><time>2026-05-02T10:35:38.62Z</time></trkpt><trkpt lat="45.0698369" lon="7.8137536"><ele>434.0</ele><time>2026-05-02T10:35:39.62Z</time></trkpt><trkpt lat="45.069737" lon="7.8137949"><ele>433.33333333333337</ele><time>2026-05-02T10:35:41.619Z</time></trkpt><trkpt lat="45.0696571" lon="7.8138299"><ele>432.6666666666667</ele><time>2026-05-02T10:35:44.619Z</time></trkpt><trkpt lat="45.0696012" lon="7.8139087"><ele>432.0</ele><time>2026-05-02T10:36:53.62Z</time></trkpt><trkpt lat="45.0695795" lon="7.8139986"><ele>432.0</ele><time>2026-05-02T10:36:54.621Z</time></trkpt><trkpt lat="45.0695638" lon="7.8141238"><ele>432.00000000000006</ele><time>2026-05-02T10:36:55.621Z</time></trkpt><trkpt lat="45.069559" lon="7.8142614"><ele>432.00000000000006</ele><time>2026-05-02T10:36:56.621Z</time></trkpt><trkpt lat="45.0695504" lon="7.814427"><ele>432.0</ele><time>2026-05-02T10:36:57.621Z</time></trkpt><trkpt lat="45.0695346" lon="7.8145739"><ele>432.0</ele><time>2026-05-02T10:36:58.621Z</time></trkpt><trkpt lat="45.06952" lon="7.8147123"><ele>431.0</ele><time>2026-05-02T10:36:59.621Z</time></trkpt><trkpt lat="45.0695081" lon="7.8148453"><ele>430.0</ele><time>2026-05-02T10:37:00.62Z</time></trkpt><trkpt lat="45.0694972" lon="7.8149734"><ele>429.0</ele><time>2026-05-02T10:37:01.621Z</time></trkpt><trkpt lat="45.0694851" lon="7.8150932"><ele>428.0</ele><time>2026-05-02T10:37:02.621Z</time></trkpt><trkpt lat="45.0694721" lon="7.8152049"><ele>427.0</ele><time>2026-05-02T10:37:03.621Z</time></trkpt><trkpt lat="45.0694617" lon="7.8152959"><ele>426.0</ele><time>2026-05-02T10:37:04.621Z</time></trkpt><trkpt lat="45.0694399" lon="7.8154044"><ele>426.0</ele><time>2026-05-02T10:37:06.621Z</time></trkpt><trkpt lat="45.0693968" lon="7.8154695"><ele>426.0</ele><time>2026-05-02T10:37:09.621Z</time></trkpt><trkpt lat="45.0694562" lon="7.8153867"><ele>426.0</ele><time>2026-05-02T10:37:18.621Z</time></trkpt><trkpt lat="45.0694887" lon="7.8151963"><ele>426.0</ele><time>2026-05-02T10:37:20.621Z</time></trkpt><trkpt lat="45.0695002" lon="7.815066"><ele>426.0</ele><time>2026-05-02T10:37:21.62Z</time></trkpt><trkpt lat="45.0695125" lon="7.8149273"><ele>426.0</ele><time>2026-05-02T10:37:22.62Z</time></trkpt><trkpt lat="45.0695257" lon="7.8147926"><ele>426.0</ele><time>2026-05-02T10:37:23.621Z</time></trkpt><trkpt lat="45.0695379" lon="7.8146706"><ele>426.0</ele><time>2026-05-02T10:37:24.621Z</time></trkpt><trkpt lat="45.0695531" lon="7.8145455"><ele>426.0</ele><time>2026-05-02T10:37:25.62Z</time></trkpt><trkpt lat="45.0695717" lon="7.8143999"><ele>426.0</ele><time>2026-05-02T10:37:26.621Z</time></trkpt><trkpt lat="45.0695922" lon="7.8142409"><ele>427.5</ele><time>2026-05-02T10:37:27.621Z</time></trkpt><trkpt lat="45.0696069" lon="7.814078"><ele>429.0</ele><time>2026-05-02T10:37:28.621Z</time></trkpt><trkpt lat="45.0696199" lon="7.8139031"><ele>430.5</ele><time>2026-05-02T10:37:29.621Z</time></trkpt><trkpt lat="45.069622" lon="7.8137211"><ele>432.0</ele><time>2026-05-02T10:37:30.621Z</time></trkpt><trkpt lat="45.069615" lon="7.8135323"><ele>434.5</ele><time>2026-05-02T10:37:31.621Z</time></trkpt><trkpt lat="45.0696035" lon="7.8133293"><ele>437.0</ele><time>2026-05-02T10:37:32.62Z</time></trkpt><trkpt lat="45.0695874" lon="7.8131349"><ele>439.5</ele><time>2026-05-02T10:37:33.621Z</time></trkpt><trkpt lat="45.0695531" lon="7.8129567"><ele>442.0</ele><time>2026-05-02T10:37:34.62Z</time></trkpt><trkpt lat="45.069485" lon="7.8127983"><ele>446.5</ele><time>2026-05-02T10:37:35.621Z</time></trkpt><trkpt lat="45.0693848" lon="7.8126489"><ele>451.0</ele><time>2026-05-02T10:37:36.621Z</time></trkpt><trkpt lat="45.0692707" lon="7.8125717"><ele>455.5</ele><time>2026-05-02T10:37:37.621Z</time></trkpt><trkpt lat="45.069153" lon="7.812552"><ele>460.0</ele><time>2026-05-02T10:37:38.621Z</time></trkpt><trkpt lat="45.0690468" lon="7.8125568"><ele>461.0</ele><time>2026-05-02T10:37:39.62Z</time></trkpt><trkpt lat="45.0689309" lon="7.8126182"><ele>462.0</ele><time>2026-05-02T10:37:40.621Z</time></trkpt><trkpt lat="45.0688239" lon="7.8127235"><ele>463.0</ele><time>2026-05-02T10:37:41.621Z</time></trkpt><trkpt lat="45.0687318" lon="7.8128203"><ele>464.0</ele><time>2026-05-02T10:37:42.621Z</time></trkpt><trkpt lat="45.0686378" lon="7.8129561"><ele>462.5</ele><time>2026-05-02T10:37:43.62Z</time></trkpt><trkpt lat="45.0685331" lon="7.8130721"><ele>461.0</ele><time>2026-05-02T10:37:44.62Z</time></trkpt><trkpt lat="45.0684392" lon="7.8131415"><ele>459.5</ele><time>2026-05-02T10:37:45.621Z</time></trkpt><trkpt lat="45.068331" lon="7.813168"><ele>458.0</ele><time>2026-05-02T10:37:46.621Z</time></trkpt><trkpt lat="45.0682172" lon="7.8131485"><ele>457.99999999999994</ele><time>2026-05-02T10:37:47.621Z</time></trkpt><trkpt lat="45.0681136" lon="7.8130973"><ele>458.0</ele><time>2026-05-02T10:37:48.621Z</time></trkpt><trkpt lat="45.0680524" lon="7.8130232"><ele>458.0</ele><time>2026-05-02T10:37:49.621Z</time></trkpt><trkpt lat="45.068008" lon="7.8129523"><ele>458.0</ele><time>2026-05-02T10:37:50.621Z</time></trkpt><trkpt lat="45.0679817" lon="7.8128267"><ele>457.99999999999994</ele><time>2026-05-02T10:37:52.621Z</time></trkpt><trkpt lat="45.0679173" lon="7.8127635"><ele>458.0</ele><time>2026-05-02T10:37:54.62Z</time></trkpt><trkpt lat="45.0678421" lon="7.8127696"><ele>458.0</ele><time>2026-05-02T10:37:55.621Z</time></trkpt><trkpt lat="45.067742" lon="7.8128107"><ele>458.0</ele><time>2026-05-02T10:37:56.621Z</time></trkpt><trkpt lat="45.0676126" lon="7.8128857"><ele>458.0</ele><time>2026-05-02T10:37:57.621Z</time></trkpt><trkpt lat="45.0674867" lon="7.8129639"><ele>458.0</ele><time>2026-05-02T10:37:58.621Z</time></trkpt><trkpt lat="45.0673537" lon="7.813044"><ele>458.5</ele><time>2026-05-02T10:37:59.621Z</time></trkpt><trkpt lat="45.0672168" lon="7.8130993"><ele>459.0</ele><time>2026-05-02T10:38:00.621Z</time></trkpt><trkpt lat="45.0670729" lon="7.8131354"><ele>459.5</ele><time>2026-05-02T10:38:01.621Z</time></trkpt><trkpt lat="45.0669276" lon="7.8131616"><ele>460.0</ele><time>2026-05-02T10:38:02.621Z</time></trkpt><trkpt lat="45.0667817" lon="7.8131727"><ele>460.0</ele><time>2026-05-02T10:38:03.62Z</time></trkpt><trkpt lat="45.0666384" lon="7.8131689"><ele>460.0</ele><time>2026-05-02T10:38:04.621Z</time></trkpt><trkpt lat="45.0664954" lon="7.8131498"><ele>460.0</ele><time>2026-05-02T10:38:05.62Z</time></trkpt><trkpt lat="45.0663543" lon="7.8131086"><ele>460.0</ele><time>2026-05-02T10:38:06.621Z</time></trkpt><trkpt lat="45.0662156" lon="7.8130517"><ele>460.6666666666667</ele><time>2026-05-02T10:38:07.621Z</time></trkpt><trkpt lat="45.066073" lon="7.813008"><ele>461.33333333333337</ele><time>2026-05-02T10:38:08.621Z</time></trkpt><trkpt lat="45.0659262" lon="7.8129835"><ele>462.0</ele><time>2026-05-02T10:38:09.621Z</time></trkpt><trkpt lat="45.0657691" lon="7.8129814"><ele>458.25</ele><time>2026-05-02T10:38:10.621Z</time></trkpt><trkpt lat="45.0656143" lon="7.8129806"><ele>454.5</ele><time>2026-05-02T10:38:11.62Z</time></trkpt><trkpt lat="45.0654673" lon="7.8129726"><ele>450.75</ele><time>2026-05-02T10:38:12.622Z</time></trkpt><trkpt lat="45.0653368" lon="7.8129656"><ele>447.0</ele><time>2026-05-02T10:38:13.62Z</time></trkpt><trkpt lat="45.0652281" lon="7.8129644"><ele>447.0</ele><time>2026-05-02T10:38:14.62Z</time></trkpt><trkpt lat="45.0651477" lon="7.8129626"><ele>447.0</ele><time>2026-05-02T10:38:15.621Z</time></trkpt><trkpt lat="45.0650776" lon="7.8129487"><ele>447.0</ele><time>2026-05-02T10:38:17.622Z</time></trkpt><trkpt lat="45.0651546" lon="7.812978"><ele>447.0</ele><time>2026-05-02T10:38:28.622Z</time></trkpt><trkpt lat="45.0652255" lon="7.8129746"><ele>447.0</ele><time>2026-05-02T10:38:29.622Z</time></trkpt><trkpt lat="45.0653055" lon="7.8129686"><ele>447.0</ele><time>2026-05-02T10:38:30.622Z</time></trkpt><trkpt lat="45.0654003" lon="7.8129658"><ele>447.0</ele><time>2026-05-02T10:38:31.622Z</time></trkpt><trkpt lat="45.0654985" lon="7.8129696"><ele>447.00000000000006</ele><time>2026-05-02T10:38:32.622Z</time></trkpt><trkpt lat="45.0656026" lon="7.8129783"><ele>447.00000000000006</ele><time>2026-05-02T10:38:33.622Z</time></trkpt><trkpt lat="45.0657131" lon="7.812989"><ele>447.0</ele><time>2026-05-02T10:38:34.622Z</time></trkpt><trkpt lat="45.0658373" lon="7.8130001"><ele>447.0</ele><time>2026-05-02T10:38:35.622Z</time></trkpt><trkpt lat="45.0659642" lon="7.8130072"><ele>450.0</ele><time>2026-05-02T10:38:36.621Z</time></trkpt><trkpt lat="45.0660866" lon="7.8130172"><ele>453.00000000000006</ele><time>2026-05-02T10:38:37.621Z</time></trkpt><trkpt lat="45.0661984" lon="7.8130238"><ele>456.00000000000006</ele><time>2026-05-02T10:38:38.622Z</time></trkpt><trkpt lat="45.0662963" lon="7.8130406"><ele>459.0</ele><time>2026-05-02T10:38:39.622Z</time></trkpt><trkpt lat="45.066363" lon="7.8130574"><ele>462.0</ele><time>2026-05-02T10:38:40.622Z</time></trkpt><trkpt lat="45.0664445" lon="7.8131058"><ele>462.0</ele><time>2026-05-02T10:38:42.622Z</time></trkpt><trkpt lat="45.0665621" lon="7.8131423"><ele>462.0</ele><time>2026-05-02T10:38:44.622Z</time></trkpt><trkpt lat="45.0666261" lon="7.8131507"><ele>462.0</ele><time>2026-05-02T10:38:46.622Z</time></trkpt><trkpt lat="45.0666889" lon="7.8131782"><ele>462.0</ele><time>2026-05-02T10:38:51.622Z</time></trkpt><trkpt lat="45.0667653" lon="7.8131812"><ele>462.0</ele><time>2026-05-02T10:38:54.621Z</time></trkpt><trkpt lat="45.0668518" lon="7.8131909"><ele>462.0</ele><time>2026-05-02T10:38:58.621Z</time></trkpt><trkpt lat="45.0669411" lon="7.8131821"><ele>461.6</ele><time>2026-05-02T10:39:00.622Z</time></trkpt><trkpt lat="45.0670378" lon="7.8131795"><ele>461.20000000000005</ele><time>2026-05-02T10:39:02.621Z</time></trkpt><trkpt lat="45.0671421" lon="7.8132433"><ele>460.8</ele><time>2026-05-02T10:39:11.622Z</time></trkpt><trkpt lat="45.0670667" lon="7.8131784"><ele>460.4</ele><time>2026-05-02T10:39:30.622Z</time></trkpt><trkpt lat="45.0669524" lon="7.8131336"><ele>460.0</ele><time>2026-05-02T10:39:32.622Z</time></trkpt><trkpt lat="45.0668884" lon="7.813134"><ele>460.0</ele><time>2026-05-02T10:39:33.622Z</time></trkpt><trkpt lat="45.0668226" lon="7.8131416"><ele>460.0</ele><time>2026-05-02T10:39:34.622Z</time></trkpt><trkpt lat="45.0666965" lon="7.813139"><ele>460.0</ele><time>2026-05-02T10:39:36.621Z</time></trkpt><trkpt lat="45.0666051" lon="7.8131232"><ele>460.0</ele><time>2026-05-02T10:39:38.621Z</time></trkpt><trkpt lat="45.0665772" lon="7.8132225"><ele>460.0</ele><time>2026-05-02T10:39:41.622Z</time></trkpt><trkpt lat="45.066566" lon="7.8134216"><ele>460.00000000000006</ele><time>2026-05-02T10:39:43.622Z</time></trkpt><trkpt lat="45.06656" lon="7.8135235"><ele>460.0</ele><time>2026-05-02T10:39:44.622Z</time></trkpt><trkpt lat="45.0665508" lon="7.8136167"><ele>460.0</ele><time>2026-05-02T10:39:45.621Z</time></trkpt><trkpt lat="45.0665434" lon="7.813708"><ele>460.0</ele><time>2026-05-02T10:39:46.622Z</time></trkpt><trkpt lat="45.0664813" lon="7.8138795"><ele>460.00000000000006</ele><time>2026-05-02T10:39:48.622Z</time></trkpt><trkpt lat="45.0664186" lon="7.8139754"><ele>460.0</ele><time>2026-05-02T10:39:49.621Z</time></trkpt><trkpt lat="45.0663383" lon="7.8140864"><ele>460.0</ele><time>2026-05-02T10:39:50.622Z</time></trkpt><trkpt lat="45.0662447" lon="7.8142047"><ele>460.0</ele><time>2026-05-02T10:39:51.622Z</time></trkpt><trkpt lat="45.0661233" lon="7.8143258"><ele>460.0</ele><time>2026-05-02T10:39:52.622Z</time></trkpt><trkpt lat="45.0660269" lon="7.8144535"><ele>460.0</ele><time>2026-05-02T10:39:53.622Z</time></trkpt><trkpt lat="45.0659475" lon="7.8145718"><ele>458.6666666666667</ele><time>2026-05-02T10:39:54.622Z</time></trkpt><trkpt lat="45.0658944" lon="7.8146748"><ele>457.33333333333337</ele><time>2026-05-02T10:39:55.622Z</time></trkpt><trkpt lat="45.0658589" lon="7.8147709"><ele>456.0</ele><time>2026-05-02T10:39:56.622Z</time></trkpt><trkpt lat="45.0658288" lon="7.8148536"><ele>454.66666666666663</ele><time>2026-05-02T10:39:57.621Z</time></trkpt><trkpt lat="45.0657925" lon="7.8149761"><ele>453.3333333333333</ele><time>2026-05-02T10:39:58.621Z</time></trkpt><trkpt lat="45.065754" lon="7.8151408"><ele>452.0</ele><time>2026-05-02T10:39:59.621Z</time></trkpt><trkpt lat="45.0657206" lon="7.8153298"><ele>447.75</ele><time>2026-05-02T10:40:00.622Z</time></trkpt><trkpt lat="45.065685" lon="7.8155228"><ele>443.5</ele><time>2026-05-02T10:40:01.621Z</time></trkpt><trkpt lat="45.0656465" lon="7.815699"><ele>439.25</ele><time>2026-05-02T10:40:02.622Z</time></trkpt><trkpt lat="45.0655929" lon="7.8158688"><ele>435.0</ele><time>2026-05-02T10:40:03.621Z</time></trkpt><trkpt lat="45.0655312" lon="7.816038"><ele>435.0</ele><time>2026-05-02T10:40:04.621Z</time></trkpt><trkpt lat="45.0654705" lon="7.8162009"><ele>435.0</ele><time>2026-05-02T10:40:05.622Z</time></trkpt><trkpt lat="45.0654082" lon="7.8163597"><ele>435.0</ele><time>2026-05-02T10:40:06.622Z</time></trkpt><trkpt lat="45.0653483" lon="7.8165043"><ele>435.0</ele><time>2026-05-02T10:40:07.622Z</time></trkpt><trkpt lat="45.065302" lon="7.8166412"><ele>435.0</ele><time>2026-05-02T10:40:08.622Z</time></trkpt><trkpt lat="45.0652693" lon="7.8167742"><ele>435.0</ele><time>2026-05-02T10:40:09.621Z</time></trkpt><trkpt lat="45.0652492" lon="7.816913"><ele>435.0</ele><time>2026-05-02T10:40:10.622Z</time></trkpt><trkpt lat="45.0652373" lon="7.8170403"><ele>435.0</ele><time>2026-05-02T10:40:11.621Z</time></trkpt><trkpt lat="45.0652327" lon="7.8171626"><ele>435.0</ele><time>2026-05-02T10:40:12.622Z</time></trkpt><trkpt lat="45.0652276" lon="7.8172966"><ele>435.4</ele><time>2026-05-02T10:40:13.622Z</time></trkpt><trkpt lat="45.065219" lon="7.8174424"><ele>435.8</ele><time>2026-05-02T10:40:14.622Z</time></trkpt><trkpt lat="45.0652084" lon="7.8176032"><ele>436.20000000000005</ele><time>2026-05-02T10:40:15.622Z</time></trkpt><trkpt lat="45.0652039" lon="7.8177567"><ele>436.6</ele><time>2026-05-02T10:40:16.622Z</time></trkpt><trkpt lat="45.0651992" lon="7.8179019"><ele>437.0</ele><time>2026-05-02T10:40:17.621Z</time></trkpt><trkpt lat="45.0651943" lon="7.8180278"><ele>435.0</ele><time>2026-05-02T10:40:18.623Z</time></trkpt><trkpt lat="45.0651745" lon="7.8181452"><ele>433.0</ele><time>2026-05-02T10:40:19.623Z</time></trkpt><trkpt lat="45.0651247" lon="7.8182764"><ele>431.0</ele><time>2026-05-02T10:40:20.622Z</time></trkpt><trkpt lat="45.0650443" lon="7.8184302"><ele>429.0</ele><time>2026-05-02T10:40:21.623Z</time></trkpt><trkpt lat="45.0649637" lon="7.8185802"><ele>427.5</ele><time>2026-05-02T10:40:22.623Z</time></trkpt><trkpt lat="45.0648792" lon="7.8187159"><ele>426.0</ele><time>2026-05-02T10:40:23.623Z</time></trkpt><trkpt lat="45.0647737" lon="7.8188559"><ele>424.5</ele><time>2026-05-02T10:40:24.623Z</time></trkpt><trkpt lat="45.0646738" lon="7.8190067"><ele>423.0</ele><time>2026-05-02T10:40:25.623Z</time></trkpt><trkpt lat="45.0645791" lon="7.8191669"><ele>420.5</ele><time>2026-05-02T10:40:26.623Z</time></trkpt><trkpt lat="45.0644755" lon="7.8193386"><ele>418.0</ele><time>2026-05-02T10:40:27.622Z</time></trkpt><trkpt lat="45.0643807" lon="7.8194957"><ele>415.5</ele><time>2026-05-02T10:40:28.623Z</time></trkpt><trkpt lat="45.0643033" lon="7.8196253"><ele>413.0</ele><time>2026-05-02T10:40:29.622Z</time></trkpt><trkpt lat="45.0642346" lon="7.8197196"><ele>413.0</ele><time>2026-05-02T10:40:30.622Z</time></trkpt><trkpt lat="45.0641589" lon="7.8197922"><ele>413.0</ele><time>2026-05-02T10:40:31.622Z</time></trkpt><trkpt lat="45.0640571" lon="7.8198595"><ele>413.0</ele><time>2026-05-02T10:40:32.622Z</time></trkpt><trkpt lat="45.0639446" lon="7.8199326"><ele>413.0</ele><time>2026-05-02T10:40:33.623Z</time></trkpt><trkpt lat="45.0638385" lon="7.8200259"><ele>413.25</ele><time>2026-05-02T10:40:34.623Z</time></trkpt><trkpt lat="45.0637329" lon="7.8201306"><ele>413.5</ele><time>2026-05-02T10:40:35.623Z</time></trkpt><trkpt lat="45.0636363" lon="7.8202274"><ele>413.75</ele><time>2026-05-02T10:40:36.623Z</time></trkpt><trkpt lat="45.0635458" lon="7.8203261"><ele>414.0</ele><time>2026-05-02T10:40:37.623Z</time></trkpt><trkpt lat="45.0634537" lon="7.8204307"><ele>412.6</ele><time>2026-05-02T10:40:38.623Z</time></trkpt><trkpt lat="45.0633731" lon="7.8205367"><ele>411.2</ele><time>2026-05-02T10:40:39.622Z</time></trkpt><trkpt lat="45.0633033" lon="7.8206343"><ele>409.8</ele><time>2026-05-02T10:40:40.623Z</time></trkpt><trkpt lat="45.063241" lon="7.8207213"><ele>408.40000000000003</ele><time>2026-05-02T10:40:41.623Z</time></trkpt><trkpt lat="45.063186" lon="7.8207831"><ele>407.0</ele><time>2026-05-02T10:40:42.622Z</time></trkpt><trkpt lat="45.0630735" lon="7.8207764"><ele>406.8</ele><time>2026-05-02T10:40:44.623Z</time></trkpt><trkpt lat="45.0629793" lon="7.8206547"><ele>406.6</ele><time>2026-05-02T10:40:46.622Z</time></trkpt><trkpt lat="45.0629445" lon="7.8205761"><ele>406.40000000000003</ele><time>2026-05-02T10:40:47.623Z</time></trkpt><trkpt lat="45.0628776" lon="7.8204641"><ele>406.20000000000005</ele><time>2026-05-02T10:40:49.623Z</time></trkpt><trkpt lat="45.0628067" lon="7.8203816"><ele>406.0</ele><time>2026-05-02T10:40:51.622Z</time></trkpt><trkpt lat="45.0627274" lon="7.8202982"><ele>406.00000000000006</ele><time>2026-05-02T10:40:53.623Z</time></trkpt><trkpt lat="45.0626504" lon="7.8202418"><ele>406.0</ele><time>2026-05-02T10:40:55.622Z</time></trkpt><trkpt lat="45.0625807" lon="7.8202276"><ele>406.0</ele><time>2026-05-02T10:40:57.623Z</time></trkpt><trkpt lat="45.0625181" lon="7.8203276"><ele>406.0</ele><time>2026-05-02T10:41:00.622Z</time></trkpt><trkpt lat="45.0624911" lon="7.820462"><ele>406.00000000000006</ele><time>2026-05-02T10:41:02.623Z</time></trkpt><trkpt lat="45.0624702" lon="7.8205685"><ele>406.0</ele><time>2026-05-02T10:41:04.623Z</time></trkpt><trkpt lat="45.0624194" lon="7.8206732"><ele>402.00000000000006</ele><time>2026-05-02T10:41:07.623Z</time></trkpt><trkpt lat="45.0623391" lon="7.8206378"><ele>398.0</ele><time>2026-05-02T10:41:09.623Z</time></trkpt><trkpt lat="45.0622839" lon="7.8205875"><ele>394.0</ele><time>2026-05-02T10:41:10.623Z</time></trkpt><trkpt lat="45.0622282" lon="7.8205254"><ele>390.0</ele><time>2026-05-02T10:41:11.622Z</time></trkpt><trkpt lat="45.0621507" lon="7.8204646"><ele>386.0</ele><time>2026-05-02T10:41:13.623Z</time></trkpt><trkpt lat="45.0620503" lon="7.8204421"><ele>382.0</ele><time>2026-05-02T10:41:16.623Z</time></trkpt><trkpt lat="45.0619687" lon="7.8204303"><ele>382.0</ele><time>2026-05-02T10:41:18.622Z</time></trkpt><trkpt lat="45.0618751" lon="7.8204764"><ele>382.0</ele><time>2026-05-02T10:41:20.622Z</time></trkpt><trkpt lat="45.0618052" lon="7.8205383"><ele>382.0</ele><time>2026-05-02T10:41:22.623Z</time></trkpt><trkpt lat="45.0617339" lon="7.8205964"><ele>382.0</ele><time>2026-05-02T10:41:24.622Z</time></trkpt><trkpt lat="45.0616399" lon="7.8206657"><ele>382.0</ele><time>2026-05-02T10:41:26.622Z</time></trkpt><trkpt lat="45.0615443" lon="7.8207353"><ele>377.8</ele><time>2026-05-02T10:41:28.623Z</time></trkpt><trkpt lat="45.0614598" lon="7.820792"><ele>373.6</ele><time>2026-05-02T10:41:30.623Z</time></trkpt><trkpt lat="45.061391" lon="7.8208586"><ele>369.40000000000003</ele><time>2026-05-02T10:41:32.623Z</time></trkpt><trkpt lat="45.0613155" lon="7.820904"><ele>365.20000000000005</ele><time>2026-05-02T10:41:34.622Z</time></trkpt><trkpt lat="45.0612396" lon="7.8209171"><ele>361.0</ele><time>2026-05-02T10:41:36.622Z</time></trkpt><trkpt lat="45.0610894" lon="7.8208056"><ele>361.0</ele><time>2026-05-02T10:43:05.623Z</time></trkpt><trkpt lat="45.0610057" lon="7.8207861"><ele>361.0</ele><time>2026-05-02T10:43:07.624Z</time></trkpt><trkpt lat="45.0609173" lon="7.8207748"><ele>361.0</ele><time>2026-05-02T10:43:09.624Z</time></trkpt><trkpt lat="45.0608361" lon="7.8207542"><ele>361.0</ele><time>2026-05-02T10:43:11.624Z</time></trkpt><trkpt lat="45.0607558" lon="7.8207283"><ele>361.0</ele><time>2026-05-02T10:43:13.624Z</time></trkpt><trkpt lat="45.0606804" lon="7.8207029"><ele>361.0</ele><time>2026-05-02T10:43:15.623Z</time></trkpt><trkpt lat="45.0606114" lon="7.8206728"><ele>360.8</ele><time>2026-05-02T10:43:18.624Z</time></trkpt><trkpt lat="45.0606226" lon="7.8205612"><ele>360.6</ele><time>2026-05-02T10:43:21.624Z</time></trkpt><trkpt lat="45.0606502" lon="7.8204665"><ele>360.4</ele><time>2026-05-02T10:43:23.623Z</time></trkpt><trkpt lat="45.0606977" lon="7.8203396"><ele>360.2</ele><time>2026-05-02T10:43:25.624Z</time></trkpt><trkpt lat="45.0607397" lon="7.8201968"><ele>360.0</ele><time>2026-05-02T10:43:27.623Z</time></trkpt><trkpt lat="45.0607442" lon="7.8200686"><ele>361.3333333333333</ele><time>2026-05-02T10:43:29.623Z</time></trkpt><trkpt lat="45.0606725" lon="7.8200419"><ele>362.6666666666667</ele><time>2026-05-02T10:43:32.624Z</time></trkpt><trkpt lat="45.0605732" lon="7.8200372"><ele>364.0</ele><time>2026-05-02T10:43:34.624Z</time></trkpt><trkpt lat="45.0604965" lon="7.8200089"><ele>365.33333333333337</ele><time>2026-05-02T10:43:36.624Z</time></trkpt><trkpt lat="45.0604647" lon="7.8199303"><ele>366.6666666666667</ele><time>2026-05-02T10:43:51.623Z</time></trkpt><trkpt lat="45.0603658" lon="7.8199129"><ele>368.0</ele><time>2026-05-02T10:44:13.624Z</time></trkpt><trkpt lat="45.0603027" lon="7.8199073"><ele>368.0</ele><time>2026-05-02T10:44:14.625Z</time></trkpt><trkpt lat="45.0602338" lon="7.8199027"><ele>368.0</ele><time>2026-05-02T10:44:15.624Z</time></trkpt><trkpt lat="45.0601218" lon="7.8199018"><ele>368.0</ele><time>2026-05-02T10:44:17.625Z</time></trkpt><trkpt lat="45.0600577" lon="7.8199319"><ele>368.0</ele><time>2026-05-02T10:44:18.624Z</time></trkpt><trkpt lat="45.0599903" lon="7.8199761"><ele>368.0</ele><time>2026-05-02T10:44:19.624Z</time></trkpt><trkpt lat="45.0599304" lon="7.8200243"><ele>368.0</ele><time>2026-05-02T10:44:20.625Z</time></trkpt><trkpt lat="45.0598589" lon="7.8200932"><ele>366.79999999999995</ele><time>2026-05-02T10:44:21.625Z</time></trkpt><trkpt lat="45.0598029" lon="7.8201597"><ele>365.6</ele><time>2026-05-02T10:44:22.625Z</time></trkpt><trkpt lat="45.0597296" lon="7.8202327"><ele>364.4</ele><time>2026-05-02T10:44:24.625Z</time></trkpt><trkpt lat="45.0596813" lon="7.8203228"><ele>363.20000000000005</ele><time>2026-05-02T10:44:28.624Z</time></trkpt><trkpt lat="45.0596299" lon="7.8204407"><ele>362.0</ele><time>2026-05-02T10:44:31.625Z</time></trkpt><trkpt lat="45.0595826" lon="7.8206076"><ele>362.0</ele><time>2026-05-02T10:44:33.625Z</time></trkpt><trkpt lat="45.0595552" lon="7.8207175"><ele>362.0</ele><time>2026-05-02T10:44:34.625Z</time></trkpt><trkpt lat="45.0595354" lon="7.8208366"><ele>362.0</ele><time>2026-05-02T10:44:35.625Z</time></trkpt><trkpt lat="45.0595196" lon="7.8209458"><ele>362.0</ele><time>2026-05-02T10:44:36.625Z</time></trkpt><trkpt lat="45.059498" lon="7.821044"><ele>362.0</ele><time>2026-05-02T10:44:37.625Z</time></trkpt><trkpt lat="45.0594728" lon="7.8211408"><ele>362.0</ele><time>2026-05-02T10:44:38.624Z</time></trkpt><trkpt lat="45.0594529" lon="7.8212462"><ele>361.0</ele><time>2026-05-02T10:44:39.625Z</time></trkpt><trkpt lat="45.059434" lon="7.8213546"><ele>360.0</ele><time>2026-05-02T10:44:40.624Z</time></trkpt><trkpt lat="45.0594183" lon="7.8214647"><ele>359.0</ele><time>2026-05-02T10:44:41.625Z</time></trkpt><trkpt lat="45.0594061" lon="7.8215742"><ele>358.0</ele><time>2026-05-02T10:44:42.625Z</time></trkpt><trkpt lat="45.0593978" lon="7.8216868"><ele>357.0</ele><time>2026-05-02T10:44:43.625Z</time></trkpt><trkpt lat="45.0593858" lon="7.8218092"><ele>356.0</ele><time>2026-05-02T10:44:44.625Z</time></trkpt><trkpt lat="45.0593754" lon="7.8219282"><ele>354.4285714285714</ele><time>2026-05-02T10:44:45.624Z</time></trkpt><trkpt lat="45.0593701" lon="7.8220466"><ele>352.85714285714283</ele><time>2026-05-02T10:44:46.624Z</time></trkpt><trkpt lat="45.0593579" lon="7.8221581"><ele>351.2857142857143</ele><time>2026-05-02T10:44:47.625Z</time></trkpt><trkpt lat="45.0593363" lon="7.8222537"><ele>349.71428571428567</ele><time>2026-05-02T10:44:48.624Z</time></trkpt><trkpt lat="45.0593003" lon="7.8223377"><ele>348.1428571428571</ele><time>2026-05-02T10:44:49.625Z</time></trkpt><trkpt lat="45.0592575" lon="7.8224127"><ele>346.57142857142856</ele><time>2026-05-02T10:44:50.625Z</time></trkpt><trkpt lat="45.0592122" lon="7.8224937"><ele>345.0</ele><time>2026-05-02T10:44:51.624Z</time></trkpt><trkpt lat="45.0591645" lon="7.8225713"><ele>344.5</ele><time>2026-05-02T10:44:52.624Z</time></trkpt><trkpt lat="45.0591109" lon="7.8226533"><ele>344.0</ele><time>2026-05-02T10:44:53.625Z</time></trkpt><trkpt lat="45.0590504" lon="7.8227437"><ele>343.5</ele><time>2026-05-02T10:44:54.624Z</time></trkpt><trkpt lat="45.0590199" lon="7.8228239"><ele>343.0</ele><time>2026-05-02T10:44:55.625Z</time></trkpt><trkpt lat="45.0590505" lon="7.8229942"><ele>342.5</ele><time>2026-05-02T10:44:57.625Z</time></trkpt><trkpt lat="45.0591104" lon="7.8230758"><ele>342.0</ele><time>2026-05-02T10:44:58.625Z</time></trkpt><trkpt lat="45.0591735" lon="7.8231562"><ele>342.0</ele><time>2026-05-02T10:44:59.624Z</time></trkpt><trkpt lat="45.0592368" lon="7.8232364"><ele>342.0</ele><time>2026-05-02T10:45:00.625Z</time></trkpt><trkpt lat="45.0592885" lon="7.8233018"><ele>342.0</ele><time>2026-05-02T10:45:01.625Z</time></trkpt><trkpt lat="45.0593273" lon="7.8233748"><ele>342.0</ele><time>2026-05-02T10:45:02.624Z</time></trkpt><trkpt lat="45.0593624" lon="7.8234811"><ele>342.0</ele><time>2026-05-02T10:45:04.624Z</time></trkpt><trkpt lat="45.059374" lon="7.8235929"><ele>342.0</ele><time>2026-05-02T10:45:06.625Z</time></trkpt><trkpt lat="45.0594048" lon="7.8237949"><ele>342.0</ele><time>2026-05-02T10:45:08.625Z</time></trkpt><trkpt lat="45.0594267" lon="7.8239394"><ele>342.0</ele><time>2026-05-02T10:45:09.625Z</time></trkpt><trkpt lat="45.0594448" lon="7.8240888"><ele>342.0</ele><time>2026-05-02T10:45:10.625Z</time></trkpt><trkpt lat="45.0594686" lon="7.8242414"><ele>342.0</ele><time>2026-05-02T10:45:11.625Z</time></trkpt><trkpt lat="45.0594899" lon="7.8243812"><ele>342.0</ele><time>2026-05-02T10:45:12.625Z</time></trkpt><trkpt lat="45.0595104" lon="7.8244908"><ele>342.8333333333333</ele><time>2026-05-02T10:45:13.625Z</time></trkpt><trkpt lat="45.0595256" lon="7.8245971"><ele>343.6666666666667</ele><time>2026-05-02T10:45:15.625Z</time></trkpt><trkpt lat="45.0595933" lon="7.8246165"><ele>344.5</ele><time>2026-05-02T10:45:18.625Z</time></trkpt><trkpt lat="45.0596641" lon="7.8246193"><ele>345.33333333333337</ele><time>2026-05-02T10:45:19.625Z</time></trkpt><trkpt lat="45.0597572" lon="7.8246117"><ele>346.1666666666667</ele><time>2026-05-02T10:45:20.624Z</time></trkpt><trkpt lat="45.0598778" lon="7.8245914"><ele>347.0</ele><time>2026-05-02T10:45:21.625Z</time></trkpt><trkpt lat="45.0600116" lon="7.8245787"><ele>348.0</ele><time>2026-05-02T10:45:22.625Z</time></trkpt><trkpt lat="45.060144" lon="7.8245779"><ele>349.0</ele><time>2026-05-02T10:45:23.625Z</time></trkpt><trkpt lat="45.0602834" lon="7.8245842"><ele>350.0</ele><time>2026-05-02T10:45:24.625Z</time></trkpt><trkpt lat="45.0604186" lon="7.8246009"><ele>351.0</ele><time>2026-05-02T10:45:25.624Z</time></trkpt><trkpt lat="45.0605573" lon="7.8246207"><ele>351.0</ele><time>2026-05-02T10:45:26.625Z</time></trkpt><trkpt lat="45.0607019" lon="7.8246473"><ele>351.0</ele><time>2026-05-02T10:45:27.625Z</time></trkpt><trkpt lat="45.0608478" lon="7.8246836"><ele>351.0</ele><time>2026-05-02T10:45:28.624Z</time></trkpt><trkpt lat="45.0609892" lon="7.8247301"><ele>351.0</ele><time>2026-05-02T10:45:29.624Z</time></trkpt><trkpt lat="45.0611213" lon="7.824784"><ele>351.0</ele><time>2026-05-02T10:45:30.625Z</time></trkpt><trkpt lat="45.0612388" lon="7.8248298"><ele>351.0</ele><time>2026-05-02T10:45:31.625Z</time></trkpt><trkpt lat="45.0613491" lon="7.824866"><ele>351.0</ele><time>2026-05-02T10:45:32.625Z</time></trkpt><trkpt lat="45.0614582" lon="7.8248954"><ele>351.0</ele><time>2026-05-02T10:45:33.624Z</time></trkpt><trkpt lat="45.0615682" lon="7.8249178"><ele>351.5</ele><time>2026-05-02T10:45:34.624Z</time></trkpt><trkpt lat="45.0616873" lon="7.824942"><ele>352.0</ele><time>2026-05-02T10:45:35.626Z</time></trkpt><trkpt lat="45.0618154" lon="7.8249654"><ele>352.5</ele><time>2026-05-02T10:45:36.625Z</time></trkpt><trkpt lat="45.061944" lon="7.8249978"><ele>353.0</ele><time>2026-05-02T10:45:37.624Z</time></trkpt><trkpt lat="45.0620667" lon="7.8250353"><ele>353.0</ele><time>2026-05-02T10:45:38.624Z</time></trkpt><trkpt lat="45.0621874" lon="7.8251044"><ele>353.0</ele><time>2026-05-02T10:45:39.624Z</time></trkpt><trkpt lat="45.0623102" lon="7.8252085"><ele>353.0</ele><time>2026-05-02T10:45:40.624Z</time></trkpt><trkpt lat="45.0624231" lon="7.8253532"><ele>353.0</ele><time>2026-05-02T10:45:41.624Z</time></trkpt><trkpt lat="45.0625416" lon="7.8255004"><ele>355.25</ele><time>2026-05-02T10:45:42.624Z</time></trkpt><trkpt lat="45.0626514" lon="7.825637"><ele>357.5</ele><time>2026-05-02T10:45:43.625Z</time></trkpt><trkpt lat="45.0627529" lon="7.8257581"><ele>359.75</ele><time>2026-05-02T10:45:44.624Z</time></trkpt><trkpt lat="45.062852" lon="7.8258701"><ele>362.0</ele><time>2026-05-02T10:45:45.624Z</time></trkpt><trkpt lat="45.0629469" lon="7.8259573"><ele>364.5</ele><time>2026-05-02T10:45:46.625Z</time></trkpt><trkpt lat="45.0630503" lon="7.8260257"><ele>367.0</ele><time>2026-05-02T10:45:47.625Z</time></trkpt><trkpt lat="45.0631621" lon="7.8260859"><ele>369.5</ele><time>2026-05-02T10:45:48.625Z</time></trkpt><trkpt lat="45.0633008" lon="7.8261278"><ele>372.0</ele><time>2026-05-02T10:45:49.625Z</time></trkpt><trkpt lat="45.0634352" lon="7.8261458"><ele>372.8</ele><time>2026-05-02T10:45:50.625Z</time></trkpt><trkpt lat="45.0635477" lon="7.8261668"><ele>373.6</ele><time>2026-05-02T10:45:51.624Z</time></trkpt><trkpt lat="45.0636298" lon="7.8261719"><ele>374.40000000000003</ele><time>2026-05-02T10:45:52.625Z</time></trkpt><trkpt lat="45.0636" lon="7.8262796"><ele>375.20000000000005</ele><time>2026-05-02T10:45:58.624Z</time></trkpt><trkpt lat="45.0634943" lon="7.8263966"><ele>376.0</ele><time>2026-05-02T10:46:00.626Z</time></trkpt><trkpt lat="45.0634296" lon="7.8264735"><ele>376.0</ele><time>2026-05-02T10:46:01.626Z</time></trkpt><trkpt lat="45.0633654" lon="7.8265552"><ele>376.0</ele><time>2026-05-02T10:46:02.625Z</time></trkpt><trkpt lat="45.0633139" lon="7.8266305"><ele>376.0</ele><time>2026-05-02T10:46:03.625Z</time></trkpt><trkpt lat="45.0632661" lon="7.826723"><ele>376.0</ele><time>2026-05-02T10:46:05.625Z</time></trkpt><trkpt lat="45.0633217" lon="7.8266716"><ele>376.0</ele><time>2026-05-02T10:46:17.626Z</time></trkpt><trkpt lat="45.0633759" lon="7.8266006"><ele>376.0</ele><time>2026-05-02T10:46:18.625Z</time></trkpt><trkpt lat="45.0634355" lon="7.826513"><ele>376.0</ele><time>2026-05-02T10:46:19.625Z</time></trkpt><trkpt lat="45.0634956" lon="7.8264221"><ele>376.0</ele><time>2026-05-02T10:46:20.626Z</time></trkpt><trkpt lat="45.0635559" lon="7.8263307"><ele>376.0</ele><time>2026-05-02T10:46:21.626Z</time></trkpt><trkpt lat="45.0636076" lon="7.826259"><ele>376.0</ele><time>2026-05-02T10:46:22.625Z</time></trkpt><trkpt lat="45.063679" lon="7.826175"><ele>376.0</ele><time>2026-05-02T10:46:24.626Z</time></trkpt><trkpt lat="45.0637177" lon="7.8261018"><ele>376.0</ele><time>2026-05-02T10:46:26.626Z</time></trkpt><trkpt lat="45.0637746" lon="7.8260355"><ele>376.0</ele><time>2026-05-02T10:46:28.626Z</time></trkpt><trkpt lat="45.063838" lon="7.8259996"><ele>376.0</ele><time>2026-05-02T10:46:29.626Z</time></trkpt><trkpt lat="45.0639078" lon="7.8259717"><ele>376.0</ele><time>2026-05-02T10:46:30.625Z</time></trkpt><trkpt lat="45.0639771" lon="7.8259398"><ele>376.0</ele><time>2026-05-02T10:46:31.625Z</time></trkpt><trkpt lat="45.064038" lon="7.8259144"><ele>376.0</ele><time>2026-05-02T10:46:32.626Z</time></trkpt><trkpt lat="45.0641012" lon="7.8259177"><ele>376.0</ele><time>2026-05-02T10:46:33.625Z</time></trkpt><trkpt lat="45.064172" lon="7.8259542"><ele>376.0</ele><time>2026-05-02T10:46:35.625Z</time></trkpt><trkpt lat="45.0641788" lon="7.8260802"><ele>376.20000000000005</ele><time>2026-05-02T10:46:42.626Z</time></trkpt><trkpt lat="45.0642182" lon="7.8261718"><ele>376.40000000000003</ele><time>2026-05-02T10:46:43.626Z</time></trkpt><trkpt lat="45.0642849" lon="7.8262888"><ele>376.6</ele><time>2026-05-02T10:46:44.626Z</time></trkpt><trkpt lat="45.0643663" lon="7.8263985"><ele>376.8</ele><time>2026-05-02T10:46:45.626Z</time></trkpt><trkpt lat="45.0644535" lon="7.8264975"><ele>377.0</ele><time>2026-05-02T10:46:46.625Z</time></trkpt><trkpt lat="45.0645448" lon="7.8265743"><ele>377.0</ele><time>2026-05-02T10:46:47.626Z</time></trkpt><trkpt lat="45.0646559" lon="7.8266333"><ele>377.0</ele><time>2026-05-02T10:46:48.626Z</time></trkpt><trkpt lat="45.0647763" lon="7.8266704"><ele>377.0</ele><time>2026-05-02T10:46:49.626Z</time></trkpt><trkpt lat="45.0649069" lon="7.8267001"><ele>377.0</ele><time>2026-05-02T10:46:50.625Z</time></trkpt><trkpt lat="45.0650373" lon="7.8267276"><ele>372.75</ele><time>2026-05-02T10:46:51.626Z</time></trkpt><trkpt lat="45.0651659" lon="7.8267463"><ele>368.5</ele><time>2026-05-02T10:46:52.625Z</time></trkpt><trkpt lat="45.0652943" lon="7.8267482"><ele>364.25</ele><time>2026-05-02T10:46:53.626Z</time></trkpt><trkpt lat="45.0654054" lon="7.8267259"><ele>360.0</ele><time>2026-05-02T10:46:54.625Z</time></trkpt><trkpt lat="45.0655199" lon="7.8266764"><ele>360.0</ele><time>2026-05-02T10:46:55.625Z</time></trkpt><trkpt lat="45.0656272" lon="7.8266275"><ele>360.0</ele><time>2026-05-02T10:46:56.626Z</time></trkpt><trkpt lat="45.0657257" lon="7.8266102"><ele>360.0</ele><time>2026-05-02T10:46:57.625Z</time></trkpt><trkpt lat="45.0658313" lon="7.8266443"><ele>360.0</ele><time>2026-05-02T10:46:58.626Z</time></trkpt><trkpt lat="45.0658949" lon="7.8267073"><ele>360.0</ele><time>2026-05-02T10:46:59.626Z</time></trkpt><trkpt lat="45.0659446" lon="7.826787"><ele>360.3333333333333</ele><time>2026-05-02T10:47:00.626Z</time></trkpt><trkpt lat="45.0659468" lon="7.8268799"><ele>360.6666666666667</ele><time>2026-05-02T10:47:01.626Z</time></trkpt><trkpt lat="45.065935" lon="7.8269678"><ele>361.0</ele><time>2026-05-02T10:47:02.626Z</time></trkpt><trkpt lat="45.0659128" lon="7.8270535"><ele>361.33333333333337</ele><time>2026-05-02T10:47:03.626Z</time></trkpt><trkpt lat="45.0658504" lon="7.8270906"><ele>361.6666666666667</ele><time>2026-05-02T10:47:04.625Z</time></trkpt><trkpt lat="45.0657842" lon="7.8271868"><ele>362.0</ele><time>2026-05-02T10:47:05.626Z</time></trkpt><trkpt lat="45.0657194" lon="7.8273221"><ele>362.0</ele><time>2026-05-02T10:47:06.625Z</time></trkpt><trkpt lat="45.0656751" lon="7.8274767"><ele>362.0</ele><time>2026-05-02T10:47:07.626Z</time></trkpt><trkpt lat="45.065676" lon="7.8276773"><ele>362.0</ele><time>2026-05-02T10:47:08.625Z</time></trkpt><trkpt lat="45.0657122" lon="7.8278807"><ele>362.0</ele><time>2026-05-02T10:47:09.626Z</time></trkpt><trkpt lat="45.0657616" lon="7.8280671"><ele>354.5</ele><time>2026-05-02T10:47:10.626Z</time></trkpt><trkpt lat="45.06578" lon="7.8282975"><ele>347.0</ele><time>2026-05-02T10:47:11.625Z</time></trkpt><trkpt lat="45.0657929" lon="7.8285165"><ele>339.5</ele><time>2026-05-02T10:47:12.626Z</time></trkpt><trkpt lat="45.0658359" lon="7.8286824"><ele>332.0</ele><time>2026-05-02T10:47:13.626Z</time></trkpt><trkpt lat="45.065883" lon="7.8288239"><ele>332.0</ele><time>2026-05-02T10:47:14.626Z</time></trkpt><trkpt lat="45.065927" lon="7.828957"><ele>332.0</ele><time>2026-05-02T10:47:15.626Z</time></trkpt><trkpt lat="45.0659738" lon="7.8290747"><ele>332.0</ele><time>2026-05-02T10:47:16.626Z</time></trkpt><trkpt lat="45.0660314" lon="7.8291987"><ele>332.0</ele><time>2026-05-02T10:47:17.626Z</time></trkpt><trkpt lat="45.0660942" lon="7.8293214"><ele>332.0</ele><time>2026-05-02T10:47:18.625Z</time></trkpt><trkpt lat="45.0661589" lon="7.8294447"><ele>331.75</ele><time>2026-05-02T10:47:19.625Z</time></trkpt><trkpt lat="45.0662328" lon="7.8295715"><ele>331.5</ele><time>2026-05-02T10:47:20.625Z</time></trkpt><trkpt lat="45.0663157" lon="7.8297136"><ele>331.25</ele><time>2026-05-02T10:47:21.626Z</time></trkpt><trkpt lat="45.0663906" lon="7.829881"><ele>331.0</ele><time>2026-05-02T10:47:22.626Z</time></trkpt><trkpt lat="45.0664373" lon="7.8300869"><ele>327.0</ele><time>2026-05-02T10:47:23.626Z</time></trkpt><trkpt lat="45.0664526" lon="7.8303103"><ele>323.0</ele><time>2026-05-02T10:47:24.626Z</time></trkpt><trkpt lat="45.0664425" lon="7.8305459"><ele>319.0</ele><time>2026-05-02T10:47:25.625Z</time></trkpt><trkpt lat="45.0664467" lon="7.8307536"><ele>319.0</ele><time>2026-05-02T10:47:26.626Z</time></trkpt><trkpt lat="45.066474" lon="7.8309108"><ele>319.0</ele><time>2026-05-02T10:47:27.626Z</time></trkpt><trkpt lat="45.0665382" lon="7.8310258"><ele>319.0</ele><time>2026-05-02T10:47:28.626Z</time></trkpt><trkpt lat="45.0666326" lon="7.8310964"><ele>319.0</ele><time>2026-05-02T10:47:29.625Z</time></trkpt><trkpt lat="45.0667562" lon="7.8311257"><ele>315.5</ele><time>2026-05-02T10:47:30.626Z</time></trkpt><trkpt lat="45.0668824" lon="7.8311328"><ele>312.0</ele><time>2026-05-02T10:47:31.626Z</time></trkpt><trkpt lat="45.066993" lon="7.8311461"><ele>308.5</ele><time>2026-05-02T10:47:32.625Z</time></trkpt><trkpt lat="45.0671063" lon="7.8311851"><ele>305.0</ele><time>2026-05-02T10:47:33.626Z</time></trkpt><trkpt lat="45.0672125" lon="7.8312621"><ele>305.0</ele><time>2026-05-02T10:47:34.626Z</time></trkpt><trkpt lat="45.0672993" lon="7.8313772"><ele>305.0</ele><time>2026-05-02T10:47:35.626Z</time></trkpt><trkpt lat="45.067371" lon="7.8315248"><ele>305.0</ele><time>2026-05-02T10:47:36.626Z</time></trkpt><trkpt lat="45.0674341" lon="7.8316928"><ele>305.0</ele><time>2026-05-02T10:47:37.625Z</time></trkpt><trkpt lat="45.0674712" lon="7.8318804"><ele>308.0</ele><time>2026-05-02T10:47:38.626Z</time></trkpt><trkpt lat="45.0674801" lon="7.8320754"><ele>311.0</ele><time>2026-05-02T10:47:39.626Z</time></trkpt><trkpt lat="45.0674716" lon="7.8322551"><ele>314.0</ele><time>2026-05-02T10:47:40.626Z</time></trkpt><trkpt lat="45.0674712" lon="7.8324114"><ele>317.0</ele><time>2026-05-02T10:47:41.625Z</time></trkpt><trkpt lat="45.067463" lon="7.8325713"><ele>315.0</ele><time>2026-05-02T10:47:42.625Z</time></trkpt><trkpt lat="45.0674254" lon="7.8327413"><ele>313.0</ele><time>2026-05-02T10:47:43.625Z</time></trkpt><trkpt lat="45.067358" lon="7.8329217"><ele>311.0</ele><time>2026-05-02T10:47:44.626Z</time></trkpt><trkpt lat="45.0673015" lon="7.8331311"><ele>309.0</ele><time>2026-05-02T10:47:45.626Z</time></trkpt><trkpt lat="45.0672388" lon="7.8333311"><ele>309.6666666666667</ele><time>2026-05-02T10:47:46.625Z</time></trkpt><trkpt lat="45.0672014" lon="7.8335243"><ele>310.33333333333337</ele><time>2026-05-02T10:47:47.626Z</time></trkpt><trkpt lat="45.0671883" lon="7.8337418"><ele>311.0</ele><time>2026-05-02T10:47:48.626Z</time></trkpt><trkpt lat="45.0671853" lon="7.8339775"><ele>311.0</ele><time>2026-05-02T10:47:49.625Z</time></trkpt><trkpt lat="45.0671838" lon="7.8342285"><ele>311.0</ele><time>2026-05-02T10:47:50.625Z</time></trkpt><trkpt lat="45.0671893" lon="7.8345035"><ele>311.0</ele><time>2026-05-02T10:47:51.625Z</time></trkpt><trkpt lat="45.0671916" lon="7.8347777"><ele>312.33333333333337</ele><time>2026-05-02T10:47:52.626Z</time></trkpt><trkpt lat="45.0671828" lon="7.8350181"><ele>313.6666666666667</ele><time>2026-05-02T10:47:53.626Z</time></trkpt><trkpt lat="45.0671722" lon="7.8352323"><ele>315.0</ele><time>2026-05-02T10:47:54.626Z</time></trkpt><trkpt lat="45.0671674" lon="7.8354168"><ele>317.4</ele><time>2026-05-02T10:47:55.626Z</time></trkpt><trkpt lat="45.0671733" lon="7.8355751"><ele>319.8</ele><time>2026-05-02T10:47:56.626Z</time></trkpt><trkpt lat="45.0671766" lon="7.8356986"><ele>322.20000000000005</ele><time>2026-05-02T10:47:57.627Z</time></trkpt><trkpt lat="45.0671856" lon="7.8358084"><ele>324.6</ele><time>2026-05-02T10:47:59.627Z</time></trkpt><trkpt lat="45.067263" lon="7.8358207"><ele>327.0</ele><time>2026-05-02T10:48:02.626Z</time></trkpt><trkpt lat="45.0674024" lon="7.8358078"><ele>329.8</ele><time>2026-05-02T10:48:04.627Z</time></trkpt><trkpt lat="45.0674882" lon="7.8357569"><ele>332.6</ele><time>2026-05-02T10:48:05.627Z</time></trkpt><trkpt lat="45.0675848" lon="7.8357009"><ele>335.40000000000003</ele><time>2026-05-02T10:48:06.627Z</time></trkpt><trkpt lat="45.0676801" lon="7.8356289"><ele>338.20000000000005</ele><time>2026-05-02T10:48:07.626Z</time></trkpt><trkpt lat="45.0677845" lon="7.8355348"><ele>341.0</ele><time>2026-05-02T10:48:08.627Z</time></trkpt><trkpt lat="45.0678801" lon="7.8354312"><ele>341.0</ele><time>2026-05-02T10:48:09.627Z</time></trkpt><trkpt lat="45.0679584" lon="7.8353451"><ele>341.0</ele><time>2026-05-02T10:48:10.626Z</time></trkpt><trkpt lat="45.0680198" lon="7.8352299"><ele>341.0</ele><time>2026-05-02T10:48:11.627Z</time></trkpt><trkpt lat="45.0680635" lon="7.8351096"><ele>341.0</ele><time>2026-05-02T10:48:12.627Z</time></trkpt><trkpt lat="45.0681051" lon="7.8349688"><ele>341.0</ele><time>2026-05-02T10:48:13.627Z</time></trkpt><trkpt lat="45.0681392" lon="7.8348302"><ele>341.0</ele><time>2026-05-02T10:48:14.627Z</time></trkpt><trkpt lat="45.068197" lon="7.8347033"><ele>341.0</ele><time>2026-05-02T10:48:15.627Z</time></trkpt><trkpt lat="45.0682542" lon="7.8345808"><ele>341.0</ele><time>2026-05-02T10:48:16.627Z</time></trkpt><trkpt lat="45.0683128" lon="7.8344465"><ele>341.0</ele><time>2026-05-02T10:48:17.627Z</time></trkpt><trkpt lat="45.0683657" lon="7.8343019"><ele>341.0</ele><time>2026-05-02T10:48:18.626Z</time></trkpt><trkpt lat="45.0684197" lon="7.8341639"><ele>343.83333333333337</ele><time>2026-05-02T10:48:19.627Z</time></trkpt><trkpt lat="45.0684818" lon="7.8340358"><ele>346.6666666666667</ele><time>2026-05-02T10:48:20.627Z</time></trkpt><trkpt lat="45.0685291" lon="7.8339371"><ele>349.5</ele><time>2026-05-02T10:48:21.627Z</time></trkpt><trkpt lat="45.0685641" lon="7.8338593"><ele>352.3333333333333</ele><time>2026-05-02T10:48:22.627Z</time></trkpt><trkpt lat="45.0686331" lon="7.8338054"><ele>355.16666666666663</ele><time>2026-05-02T10:48:24.626Z</time></trkpt><trkpt lat="45.0687077" lon="7.833843"><ele>358.0</ele><time>2026-05-02T10:48:26.627Z</time></trkpt><trkpt lat="45.0687338" lon="7.8339257"><ele>358.0</ele><time>2026-05-02T10:48:27.626Z</time></trkpt><trkpt lat="45.0686875" lon="7.8340893"><ele>358.0</ele><time>2026-05-02T10:48:29.626Z</time></trkpt><trkpt lat="45.0686457" lon="7.8341912"><ele>358.0</ele><time>2026-05-02T10:48:30.627Z</time></trkpt><trkpt lat="45.0685831" lon="7.8343002"><ele>358.0</ele><time>2026-05-02T10:48:31.627Z</time></trkpt><trkpt lat="45.0685042" lon="7.8344345"><ele>358.0</ele><time>2026-05-02T10:48:32.627Z</time></trkpt><trkpt lat="45.0684398" lon="7.8345517"><ele>358.5</ele><time>2026-05-02T10:48:33.627Z</time></trkpt><trkpt lat="45.0684013" lon="7.8346545"><ele>359.0</ele><time>2026-05-02T10:48:34.627Z</time></trkpt><trkpt lat="45.0683918" lon="7.8347462"><ele>359.5</ele><time>2026-05-02T10:48:35.626Z</time></trkpt><trkpt lat="45.0684036" lon="7.8348753"><ele>360.0</ele><time>2026-05-02T10:48:36.626Z</time></trkpt><trkpt lat="45.0684275" lon="7.8350138"><ele>360.5</ele><time>2026-05-02T10:48:37.627Z</time></trkpt><trkpt lat="45.0684553" lon="7.8351514"><ele>361.0</ele><time>2026-05-02T10:48:38.627Z</time></trkpt><trkpt lat="45.0684788" lon="7.8352865"><ele>361.0</ele><time>2026-05-02T10:48:39.626Z</time></trkpt><trkpt lat="45.0684974" lon="7.8354152"><ele>361.0</ele><time>2026-05-02T10:48:40.627Z</time></trkpt><trkpt lat="45.0685093" lon="7.8355327"><ele>361.0</ele><time>2026-05-02T10:48:41.627Z</time></trkpt><trkpt lat="45.0685273" lon="7.8356409"><ele>361.0</ele><time>2026-05-02T10:48:42.627Z</time></trkpt><trkpt lat="45.0685656" lon="7.8357372"><ele>361.0</ele><time>2026-05-02T10:48:43.627Z</time></trkpt><trkpt lat="45.0686175" lon="7.8358324"><ele>361.0</ele><time>2026-05-02T10:48:44.626Z</time></trkpt><trkpt lat="45.0686771" lon="7.8359137"><ele>359.0</ele><time>2026-05-02T10:48:45.627Z</time></trkpt><trkpt lat="45.0687396" lon="7.83599"><ele>357.0</ele><time>2026-05-02T10:48:46.627Z</time></trkpt><trkpt lat="45.0687976" lon="7.8360559"><ele>355.0</ele><time>2026-05-02T10:48:47.627Z</time></trkpt><trkpt lat="45.0688408" lon="7.8361229"><ele>353.0</ele><time>2026-05-02T10:48:48.626Z</time></trkpt><trkpt lat="45.0688539" lon="7.8362835"><ele>351.0</ele><time>2026-05-02T10:48:50.627Z</time></trkpt><trkpt lat="45.0688181" lon="7.8363829"><ele>349.0</ele><time>2026-05-02T10:48:51.626Z</time></trkpt><trkpt lat="45.0687245" lon="7.8364962"><ele>349.0</ele><time>2026-05-02T10:48:52.627Z</time></trkpt><trkpt lat="45.0685991" lon="7.8366188"><ele>349.0</ele><time>2026-05-02T10:48:53.627Z</time></trkpt><trkpt lat="45.0684749" lon="7.8367758"><ele>349.0</ele><time>2026-05-02T10:48:54.626Z</time></trkpt><trkpt lat="45.0683503" lon="7.8369475"><ele>345.5</ele><time>2026-05-02T10:48:55.626Z</time></trkpt><trkpt lat="45.0682438" lon="7.8371066"><ele>342.0</ele><time>2026-05-02T10:48:56.626Z</time></trkpt><trkpt lat="45.0681427" lon="7.8372525"><ele>338.5</ele><time>2026-05-02T10:48:57.627Z</time></trkpt><trkpt lat="45.0680449" lon="7.8373848"><ele>335.0</ele><time>2026-05-02T10:48:58.626Z</time></trkpt><trkpt lat="45.067957" lon="7.8375087"><ele>335.0</ele><time>2026-05-02T10:48:59.627Z</time></trkpt><trkpt lat="45.0678688" lon="7.8376194"><ele>335.0</ele><time>2026-05-02T10:49:00.626Z</time></trkpt><trkpt lat="45.0677626" lon="7.8376996"><ele>335.0</ele><time>2026-05-02T10:49:01.627Z</time></trkpt><trkpt lat="45.0676548" lon="7.8377252"><ele>335.0</ele><time>2026-05-02T10:49:02.627Z</time></trkpt><trkpt lat="45.0675477" lon="7.8377511"><ele>333.5</ele><time>2026-05-02T10:49:03.627Z</time></trkpt><trkpt lat="45.0674392" lon="7.8377796"><ele>332.0</ele><time>2026-05-02T10:49:04.627Z</time></trkpt><trkpt lat="45.0673277" lon="7.8378249"><ele>330.5</ele><time>2026-05-02T10:49:05.627Z</time></trkpt><trkpt lat="45.0672184" lon="7.8378694"><ele>329.0</ele><time>2026-05-02T10:49:06.627Z</time></trkpt><trkpt lat="45.0671052" lon="7.8379438"><ele>329.0</ele><time>2026-05-02T10:49:07.627Z</time></trkpt><trkpt lat="45.0669914" lon="7.8380241"><ele>329.0</ele><time>2026-05-02T10:49:08.627Z</time></trkpt><trkpt lat="45.0668764" lon="7.8381142"><ele>329.0</ele><time>2026-05-02T10:49:09.627Z</time></trkpt><trkpt lat="45.0667518" lon="7.8382231"><ele>329.0</ele><time>2026-05-02T10:49:10.626Z</time></trkpt><trkpt lat="45.0666455" lon="7.8383288"><ele>324.6666666666667</ele><time>2026-05-02T10:49:11.627Z</time></trkpt><trkpt lat="45.0665347" lon="7.8384597"><ele>320.3333333333333</ele><time>2026-05-02T10:49:12.627Z</time></trkpt><trkpt lat="45.0664194" lon="7.8386262"><ele>316.0</ele><time>2026-05-02T10:49:13.627Z</time></trkpt><trkpt lat="45.0663022" lon="7.8387964"><ele>316.0</ele><time>2026-05-02T10:49:14.627Z</time></trkpt><trkpt lat="45.0661908" lon="7.8389667"><ele>316.0</ele><time>2026-05-02T10:49:15.626Z</time></trkpt><trkpt lat="45.0660918" lon="7.8391131"><ele>316.0</ele><time>2026-05-02T10:49:16.626Z</time></trkpt><trkpt lat="45.0659984" lon="7.8392364"><ele>316.0</ele><time>2026-05-02T10:49:17.627Z</time></trkpt><trkpt lat="45.0659213" lon="7.8393153"><ele>315.3333333333333</ele><time>2026-05-02T10:49:18.627Z</time></trkpt><trkpt lat="45.0658546" lon="7.8393699"><ele>314.66666666666663</ele><time>2026-05-02T10:49:19.627Z</time></trkpt><trkpt lat="45.0657836" lon="7.8394355"><ele>314.0</ele><time>2026-05-02T10:49:21.626Z</time></trkpt><trkpt lat="45.065722" lon="7.8395162"><ele>313.3333333333333</ele><time>2026-05-02T10:49:23.627Z</time></trkpt><trkpt lat="45.0656669" lon="7.8395745"><ele>312.6666666666667</ele><time>2026-05-02T10:49:24.627Z</time></trkpt><trkpt lat="45.0655856" lon="7.8396447"><ele>312.0</ele><time>2026-05-02T10:49:25.627Z</time></trkpt><trkpt lat="45.0654936" lon="7.8397246"><ele>310.6</ele><time>2026-05-02T10:49:26.627Z</time></trkpt><trkpt lat="45.0653981" lon="7.8398186"><ele>309.2</ele><time>2026-05-02T10:49:27.627Z</time></trkpt><trkpt lat="45.0653099" lon="7.8399178"><ele>307.8</ele><time>2026-05-02T10:49:28.627Z</time></trkpt><trkpt lat="45.0652331" lon="7.8400273"><ele>306.4</ele><time>2026-05-02T10:49:29.627Z</time></trkpt><trkpt lat="45.0651843" lon="7.8401306"><ele>305.0</ele><time>2026-05-02T10:49:30.627Z</time></trkpt><trkpt lat="45.0651458" lon="7.8402588"><ele>303.75</ele><time>2026-05-02T10:49:31.627Z</time></trkpt><trkpt lat="45.0651292" lon="7.8403987"><ele>302.5</ele><time>2026-05-02T10:49:32.626Z</time></trkpt><trkpt lat="45.0651523" lon="7.8406004"><ele>301.25</ele><time>2026-05-02T10:49:33.627Z</time></trkpt><trkpt lat="45.065189" lon="7.8408265"><ele>300.0</ele><time>2026-05-02T10:49:34.627Z</time></trkpt><trkpt lat="45.065224" lon="7.841055"><ele>298.75</ele><time>2026-05-02T10:49:35.627Z</time></trkpt><trkpt lat="45.0652684" lon="7.8412752"><ele>297.5</ele><time>2026-05-02T10:49:36.627Z</time></trkpt><trkpt lat="45.065319" lon="7.8414416"><ele>296.25</ele><time>2026-05-02T10:49:37.627Z</time></trkpt><trkpt lat="45.0653734" lon="7.8415741"><ele>295.0</ele><time>2026-05-02T10:49:38.626Z</time></trkpt><trkpt lat="45.0654055" lon="7.8416542"><ele>295.0</ele><time>2026-05-02T10:49:39.626Z</time></trkpt><trkpt lat="45.0654508" lon="7.8417893"><ele>295.0</ele><time>2026-05-02T10:49:41.627Z</time></trkpt><trkpt lat="45.0654619" lon="7.8419555"><ele>295.0</ele><time>2026-05-02T10:49:43.626Z</time></trkpt><trkpt lat="45.0654859" lon="7.8420603"><ele>295.0</ele><time>2026-05-02T10:49:44.626Z</time></trkpt><trkpt lat="45.0655702" lon="7.8421504"><ele>295.0</ele><time>2026-05-02T10:49:46.626Z</time></trkpt><trkpt lat="45.0656595" lon="7.8420742"><ele>294.66666666666663</ele><time>2026-05-02T10:49:47.628Z</time></trkpt><trkpt lat="45.0657952" lon="7.8420033"><ele>294.3333333333333</ele><time>2026-05-02T10:49:48.627Z</time></trkpt><trkpt lat="45.0659485" lon="7.8419467"><ele>294.0</ele><time>2026-05-02T10:49:49.627Z</time></trkpt><trkpt lat="45.0661134" lon="7.8419113"><ele>294.0</ele><time>2026-05-02T10:49:50.627Z</time></trkpt><trkpt lat="45.0662809" lon="7.8418753"><ele>294.0</ele><time>2026-05-02T10:49:51.628Z</time></trkpt><trkpt lat="45.0664318" lon="7.8418528"><ele>294.0</ele><time>2026-05-02T10:49:52.628Z</time></trkpt><trkpt lat="45.0665743" lon="7.8418401"><ele>294.4</ele><time>2026-05-02T10:49:53.627Z</time></trkpt><trkpt lat="45.066699" lon="7.8418274"><ele>294.79999999999995</ele><time>2026-05-02T10:49:54.628Z</time></trkpt><trkpt lat="45.0668086" lon="7.8418131"><ele>295.20000000000005</ele><time>2026-05-02T10:49:55.628Z</time></trkpt><trkpt lat="45.0669057" lon="7.8418023"><ele>295.6</ele><time>2026-05-02T10:49:56.628Z</time></trkpt><trkpt lat="45.066996" lon="7.8418164"><ele>296.0</ele><time>2026-05-02T10:49:57.627Z</time></trkpt><trkpt lat="45.0670624" lon="7.8418756"><ele>296.0</ele><time>2026-05-02T10:49:58.627Z</time></trkpt><trkpt lat="45.0670986" lon="7.8419652"><ele>296.0</ele><time>2026-05-02T10:49:59.628Z</time></trkpt><trkpt lat="45.0670789" lon="7.8421233"><ele>296.0</ele><time>2026-05-02T10:50:00.628Z</time></trkpt><trkpt lat="45.0670681" lon="7.8422916"><ele>296.0</ele><time>2026-05-02T10:50:01.628Z</time></trkpt><trkpt lat="45.0670605" lon="7.8424825"><ele>296.0</ele><time>2026-05-02T10:50:02.628Z</time></trkpt><trkpt lat="45.0670576" lon="7.8426787"><ele>296.5</ele><time>2026-05-02T10:50:03.628Z</time></trkpt><trkpt lat="45.0670564" lon="7.8428807"><ele>297.0</ele><time>2026-05-02T10:50:04.628Z</time></trkpt><trkpt lat="45.0670564" lon="7.8430754"><ele>297.5</ele><time>2026-05-02T10:50:05.628Z</time></trkpt><trkpt lat="45.0670609" lon="7.8432536"><ele>298.0</ele><time>2026-05-02T10:50:06.628Z</time></trkpt><trkpt lat="45.0670662" lon="7.8434211"><ele>298.25</ele><time>2026-05-02T10:50:07.628Z</time></trkpt><trkpt lat="45.0670724" lon="7.8435938"><ele>298.5</ele><time>2026-05-02T10:50:08.628Z</time></trkpt><trkpt lat="45.0670812" lon="7.843765"><ele>298.75</ele><time>2026-05-02T10:50:09.628Z</time></trkpt><trkpt lat="45.067093" lon="7.8439476"><ele>299.0</ele><time>2026-05-02T10:50:10.628Z</time></trkpt><trkpt lat="45.0671102" lon="7.844145"><ele>301.5</ele><time>2026-05-02T10:50:11.628Z</time></trkpt><trkpt lat="45.067125" lon="7.8443389"><ele>304.0</ele><time>2026-05-02T10:50:12.628Z</time></trkpt><trkpt lat="45.0671402" lon="7.8445314"><ele>306.5</ele><time>2026-05-02T10:50:13.628Z</time></trkpt><trkpt lat="45.0671595" lon="7.8447153"><ele>309.0</ele><time>2026-05-02T10:50:14.627Z</time></trkpt><trkpt lat="45.0671714" lon="7.8448618"><ele>309.0</ele><time>2026-05-02T10:50:15.628Z</time></trkpt><trkpt lat="45.06717" lon="7.8449983"><ele>309.0</ele><time>2026-05-02T10:50:16.628Z</time></trkpt><trkpt lat="45.0671515" lon="7.8451317"><ele>309.0</ele><time>2026-05-02T10:50:17.628Z</time></trkpt><trkpt lat="45.0671051" lon="7.8452428"><ele>309.0</ele><time>2026-05-02T10:50:18.628Z</time></trkpt><trkpt lat="45.0670182" lon="7.8453314"><ele>309.0</ele><time>2026-05-02T10:50:19.627Z</time></trkpt><trkpt lat="45.0669034" lon="7.845392"><ele>311.75</ele><time>2026-05-02T10:50:20.628Z</time></trkpt><trkpt lat="45.0667878" lon="7.8454687"><ele>314.5</ele><time>2026-05-02T10:50:21.628Z</time></trkpt><trkpt lat="45.0666786" lon="7.8455334"><ele>317.25</ele><time>2026-05-02T10:50:22.628Z</time></trkpt><trkpt lat="45.066568" lon="7.8455669"><ele>320.0</ele><time>2026-05-02T10:50:23.628Z</time></trkpt><trkpt lat="45.0664562" lon="7.8456205"><ele>320.0</ele><time>2026-05-02T10:50:24.628Z</time></trkpt><trkpt lat="45.0663526" lon="7.8456931"><ele>320.0</ele><time>2026-05-02T10:50:25.628Z</time></trkpt><trkpt lat="45.0662539" lon="7.8457722"><ele>320.0</ele><time>2026-05-02T10:50:26.628Z</time></trkpt><trkpt lat="45.0661547" lon="7.8458559"><ele>320.0</ele><time>2026-05-02T10:50:27.628Z</time></trkpt><trkpt lat="45.0660486" lon="7.8459423"><ele>321.75</ele><time>2026-05-02T10:50:28.628Z</time></trkpt><trkpt lat="45.0659347" lon="7.8460372"><ele>323.5</ele><time>2026-05-02T10:50:29.627Z</time></trkpt><trkpt lat="45.0658249" lon="7.8461306"><ele>325.25</ele><time>2026-05-02T10:50:30.628Z</time></trkpt><trkpt lat="45.0657182" lon="7.8462242"><ele>327.0</ele><time>2026-05-02T10:50:31.628Z</time></trkpt><trkpt lat="45.0656189" lon="7.846311"><ele>327.0</ele><time>2026-05-02T10:50:32.628Z</time></trkpt><trkpt lat="45.0655301" lon="7.8463861"><ele>327.0</ele><time>2026-05-02T10:50:33.628Z</time></trkpt><trkpt lat="45.0654359" lon="7.8464708"><ele>327.0</ele><time>2026-05-02T10:50:34.628Z</time></trkpt><trkpt lat="45.0653398" lon="7.8465664"><ele>327.0</ele><time>2026-05-02T10:50:35.627Z</time></trkpt><trkpt lat="45.0652436" lon="7.8466681"><ele>327.0</ele><time>2026-05-02T10:50:36.627Z</time></trkpt><trkpt lat="45.0651413" lon="7.8467638"><ele>327.0</ele><time>2026-05-02T10:50:37.628Z</time></trkpt><trkpt lat="45.0650422" lon="7.8468545"><ele>327.0</ele><time>2026-05-02T10:50:38.628Z</time></trkpt><trkpt lat="45.0649561" lon="7.8469323"><ele>327.0</ele><time>2026-05-02T10:50:39.628Z</time></trkpt><trkpt lat="45.0648828" lon="7.8469997"><ele>327.0</ele><time>2026-05-02T10:50:40.627Z</time></trkpt><trkpt lat="45.0648271" lon="7.8470654"><ele>326.40000000000003</ele><time>2026-05-02T10:50:41.628Z</time></trkpt><trkpt lat="45.0647797" lon="7.8471459"><ele>325.8</ele><time>2026-05-02T10:50:42.627Z</time></trkpt><trkpt lat="45.0647437" lon="7.847252"><ele>325.2</ele><time>2026-05-02T10:50:43.628Z</time></trkpt><trkpt lat="45.0647213" lon="7.8473884"><ele>324.6</ele><time>2026-05-02T10:50:44.628Z</time></trkpt><trkpt lat="45.0646994" lon="7.8475353"><ele>324.0</ele><time>2026-05-02T10:50:45.628Z</time></trkpt><trkpt lat="45.0646819" lon="7.84768"><ele>326.79999999999995</ele><time>2026-05-02T10:50:46.627Z</time></trkpt><trkpt lat="45.0646646" lon="7.8478152"><ele>329.59999999999997</ele><time>2026-05-02T10:50:47.628Z</time></trkpt><trkpt lat="45.0646354" lon="7.847952"><ele>332.4</ele><time>2026-05-02T10:50:48.628Z</time></trkpt><trkpt lat="45.0645857" lon="7.8480948"><ele>335.2</ele><time>2026-05-02T10:50:49.628Z</time></trkpt><trkpt lat="45.0645209" lon="7.8482389"><ele>338.0</ele><time>2026-05-02T10:50:50.628Z</time></trkpt><trkpt lat="45.064454" lon="7.8483879"><ele>340.59999999999997</ele><time>2026-05-02T10:50:51.628Z</time></trkpt><trkpt lat="45.0643907" lon="7.8485262"><ele>343.2</ele><time>2026-05-02T10:50:52.628Z</time></trkpt><trkpt lat="45.0643322" lon="7.8486591"><ele>345.8</ele><time>2026-05-02T10:50:53.627Z</time></trkpt><trkpt lat="45.0642759" lon="7.8487926"><ele>348.4</ele><time>2026-05-02T10:50:54.628Z</time></trkpt><trkpt lat="45.0642352" lon="7.8489259"><ele>351.0</ele><time>2026-05-02T10:50:55.627Z</time></trkpt><trkpt lat="45.0642129" lon="7.8490607"><ele>351.0</ele><time>2026-05-02T10:50:56.627Z</time></trkpt><trkpt lat="45.0642019" lon="7.849186"><ele>351.0</ele><time>2026-05-02T10:50:57.627Z</time></trkpt><trkpt lat="45.0642032" lon="7.8492914"><ele>351.0</ele><time>2026-05-02T10:50:58.628Z</time></trkpt><trkpt lat="45.0642055" lon="7.849391"><ele>351.0</ele><time>2026-05-02T10:50:59.628Z</time></trkpt><trkpt lat="45.0642126" lon="7.8494962"><ele>351.0</ele><time>2026-05-02T10:51:00.628Z</time></trkpt><trkpt lat="45.0642254" lon="7.8496043"><ele>351.0</ele><time>2026-05-02T10:51:01.627Z</time></trkpt><trkpt lat="45.0642502" lon="7.8497076"><ele>351.6666666666667</ele><time>2026-05-02T10:51:02.628Z</time></trkpt><trkpt lat="45.064308" lon="7.8498349"><ele>352.3333333333333</ele><time>2026-05-02T10:51:04.628Z</time></trkpt><trkpt lat="45.0643848" lon="7.8498902"><ele>353.0</ele><time>2026-05-02T10:51:06.628Z</time></trkpt><trkpt lat="45.0643144" lon="7.8499425"><ele>353.66666666666663</ele><time>2026-05-02T10:51:11.628Z</time></trkpt><trkpt lat="45.0642592" lon="7.8498684"><ele>354.3333333333333</ele><time>2026-05-02T10:51:13.628Z</time></trkpt><trkpt lat="45.0642092" lon="7.8498063"><ele>355.0</ele><time>2026-05-02T10:51:15.628Z</time></trkpt><trkpt lat="45.0641261" lon="7.8497479"><ele>356.6</ele><time>2026-05-02T10:51:17.627Z</time></trkpt><trkpt lat="45.0640144" lon="7.8496759"><ele>358.2</ele><time>2026-05-02T10:51:19.628Z</time></trkpt><trkpt lat="45.0638939" lon="7.8496005"><ele>359.79999999999995</ele><time>2026-05-02T10:51:21.628Z</time></trkpt><trkpt lat="45.06382" lon="7.8495487"><ele>361.4</ele><time>2026-05-02T10:51:22.628Z</time></trkpt><trkpt lat="45.0637404" lon="7.8494859"><ele>363.0</ele><time>2026-05-02T10:51:23.627Z</time></trkpt><trkpt lat="45.0636583" lon="7.8494144"><ele>363.0</ele><time>2026-05-02T10:51:24.628Z</time></trkpt><trkpt lat="45.0635789" lon="7.8493413"><ele>363.0</ele><time>2026-05-02T10:51:25.628Z</time></trkpt><trkpt lat="45.063498" lon="7.8492657"><ele>363.0</ele><time>2026-05-02T10:51:26.628Z</time></trkpt><trkpt lat="45.0634203" lon="7.8491951"><ele>363.0</ele><time>2026-05-02T10:51:27.627Z</time></trkpt><trkpt lat="45.0633402" lon="7.8491205"><ele>363.0</ele><time>2026-05-02T10:51:28.628Z</time></trkpt><trkpt lat="45.0632623" lon="7.8490428"><ele>362.0</ele><time>2026-05-02T10:51:29.628Z</time></trkpt><trkpt lat="45.0631758" lon="7.8489712"><ele>361.0</ele><time>2026-05-02T10:51:30.627Z</time></trkpt><trkpt lat="45.0630863" lon="7.8489"><ele>360.0</ele><time>2026-05-02T10:51:31.628Z</time></trkpt><trkpt lat="45.0629924" lon="7.84882"><ele>359.0</ele><time>2026-05-02T10:51:32.628Z</time></trkpt><trkpt lat="45.0629094" lon="7.8487112"><ele>358.0</ele><time>2026-05-02T10:51:33.627Z</time></trkpt><trkpt lat="45.0628403" lon="7.8485965"><ele>358.0</ele><time>2026-05-02T10:51:34.629Z</time></trkpt><trkpt lat="45.0627791" lon="7.8484619"><ele>358.0</ele><time>2026-05-02T10:51:35.627Z</time></trkpt><trkpt lat="45.0627389" lon="7.8483366"><ele>358.0</ele><time>2026-05-02T10:51:36.628Z</time></trkpt><trkpt lat="45.0626936" lon="7.8482073"><ele>358.0</ele><time>2026-05-02T10:51:37.629Z</time></trkpt><trkpt lat="45.062629" lon="7.8481061"><ele>358.0</ele><time>2026-05-02T10:51:38.629Z</time></trkpt><trkpt lat="45.0625542" lon="7.8480114"><ele>354.59999999999997</ele><time>2026-05-02T10:51:39.629Z</time></trkpt><trkpt lat="45.0624749" lon="7.8479299"><ele>351.2</ele><time>2026-05-02T10:51:40.629Z</time></trkpt><trkpt lat="45.0623915" lon="7.8478604"><ele>347.8</ele><time>2026-05-02T10:51:41.629Z</time></trkpt><trkpt lat="45.0623031" lon="7.8478057"><ele>344.4</ele><time>2026-05-02T10:51:42.629Z</time></trkpt><trkpt lat="45.0622116" lon="7.8477619"><ele>341.0</ele><time>2026-05-02T10:51:43.628Z</time></trkpt><trkpt lat="45.0621247" lon="7.8477429"><ele>339.0</ele><time>2026-05-02T10:51:44.629Z</time></trkpt><trkpt lat="45.0620347" lon="7.8477395"><ele>337.0</ele><time>2026-05-02T10:51:45.628Z</time></trkpt><trkpt lat="45.0619398" lon="7.847783"><ele>335.0</ele><time>2026-05-02T10:51:46.629Z</time></trkpt><trkpt lat="45.061854" lon="7.8478404"><ele>333.0</ele><time>2026-05-02T10:51:47.628Z</time></trkpt><trkpt lat="45.0617625" lon="7.8478876"><ele>331.0</ele><time>2026-05-02T10:51:48.629Z</time></trkpt><trkpt lat="45.0616682" lon="7.8479268"><ele>328.5</ele><time>2026-05-02T10:51:49.629Z</time></trkpt><trkpt lat="45.0615638" lon="7.8479471"><ele>326.0</ele><time>2026-05-02T10:51:50.629Z</time></trkpt><trkpt lat="45.061458" lon="7.8479234"><ele>323.5</ele><time>2026-05-02T10:51:51.629Z</time></trkpt><trkpt lat="45.0613511" lon="7.8478571"><ele>321.0</ele><time>2026-05-02T10:51:52.629Z</time></trkpt><trkpt lat="45.0612351" lon="7.8477743"><ele>321.0</ele><time>2026-05-02T10:51:53.629Z</time></trkpt><trkpt lat="45.0611098" lon="7.8476788"><ele>321.0</ele><time>2026-05-02T10:51:54.629Z</time></trkpt><trkpt lat="45.0609794" lon="7.8475774"><ele>321.0</ele><time>2026-05-02T10:51:55.629Z</time></trkpt><trkpt lat="45.060845" lon="7.8474613"><ele>321.0</ele><time>2026-05-02T10:51:56.629Z</time></trkpt><trkpt lat="45.060708" lon="7.8473627"><ele>315.0</ele><time>2026-05-02T10:51:57.628Z</time></trkpt><trkpt lat="45.0605647" lon="7.847274"><ele>309.0</ele><time>2026-05-02T10:51:58.629Z</time></trkpt><trkpt lat="45.0604227" lon="7.8471927"><ele>303.0</ele><time>2026-05-02T10:51:59.628Z</time></trkpt><trkpt lat="45.060278" lon="7.8470951"><ele>303.0</ele><time>2026-05-02T10:52:00.628Z</time></trkpt><trkpt lat="45.0601311" lon="7.8469915"><ele>303.0</ele><time>2026-05-02T10:52:01.629Z</time></trkpt><trkpt lat="45.0599978" lon="7.8468813"><ele>303.0</ele><time>2026-05-02T10:52:02.629Z</time></trkpt><trkpt lat="45.0598783" lon="7.8467669"><ele>299.75</ele><time>2026-05-02T10:52:03.628Z</time></trkpt><trkpt lat="45.0597621" lon="7.8466561"><ele>296.5</ele><time>2026-05-02T10:52:04.628Z</time></trkpt><trkpt lat="45.059648" lon="7.8465423"><ele>293.25</ele><time>2026-05-02T10:52:05.629Z</time></trkpt><trkpt lat="45.0595456" lon="7.8464338"><ele>290.0</ele><time>2026-05-02T10:52:06.629Z</time></trkpt><trkpt lat="45.0594516" lon="7.8463492"><ele>290.0</ele><time>2026-05-02T10:52:07.628Z</time></trkpt><trkpt lat="45.0593684" lon="7.8462901"><ele>290.0</ele><time>2026-05-02T10:52:08.628Z</time></trkpt><trkpt lat="45.059302" lon="7.8462745"><ele>290.0</ele><time>2026-05-02T10:52:09.629Z</time></trkpt><trkpt lat="45.0592363" lon="7.8462986"><ele>290.0</ele><time>2026-05-02T10:52:10.629Z</time></trkpt><trkpt lat="45.0591708" lon="7.8463802"><ele>290.0</ele><time>2026-05-02T10:52:11.629Z</time></trkpt><trkpt lat="45.0591016" lon="7.8465495"><ele>289.75</ele><time>2026-05-02T10:52:12.628Z</time></trkpt><trkpt lat="45.0590552" lon="7.8467752"><ele>289.5</ele><time>2026-05-02T10:52:13.628Z</time></trkpt><trkpt lat="45.0589985" lon="7.8469351"><ele>289.25</ele><time>2026-05-02T10:52:14.629Z</time></trkpt><trkpt lat="45.0589289" lon="7.8470543"><ele>289.0</ele><time>2026-05-02T10:52:15.629Z</time></trkpt><trkpt lat="45.058833" lon="7.8471283"><ele>288.8</ele><time>2026-05-02T10:52:16.628Z</time></trkpt><trkpt lat="45.0587409" lon="7.8471653"><ele>288.59999999999997</ele><time>2026-05-02T10:52:17.629Z</time></trkpt><trkpt lat="45.0586847" lon="7.8470994"><ele>288.4</ele><time>2026-05-02T10:52:18.628Z</time></trkpt><trkpt lat="45.0585693" lon="7.8471232"><ele>288.2</ele><time>2026-05-02T10:52:25.628Z</time></trkpt><trkpt lat="45.0585283" lon="7.8472077"><ele>288.0</ele><time>2026-05-02T10:52:26.629Z</time></trkpt><trkpt lat="45.0584528" lon="7.8473159"><ele>288.0</ele><time>2026-05-02T10:52:27.629Z</time></trkpt><trkpt lat="45.0583732" lon="7.8474146"><ele>288.0</ele><time>2026-05-02T10:52:28.629Z</time></trkpt><trkpt lat="45.0582935" lon="7.8475221"><ele>288.0</ele><time>2026-05-02T10:52:29.629Z</time></trkpt><trkpt lat="45.058228" lon="7.8476473"><ele>288.0</ele><time>2026-05-02T10:52:30.629Z</time></trkpt><trkpt lat="45.0581657" lon="7.847779"><ele>288.0</ele><time>2026-05-02T10:52:31.629Z</time></trkpt><trkpt lat="45.0581023" lon="7.8479086"><ele>288.0</ele><time>2026-05-02T10:52:32.629Z</time></trkpt><trkpt lat="45.0580338" lon="7.8480416"><ele>288.0</ele><time>2026-05-02T10:52:33.629Z</time></trkpt><trkpt lat="45.0579644" lon="7.8481678"><ele>288.0</ele><time>2026-05-02T10:52:34.629Z</time></trkpt><trkpt lat="45.0579044" lon="7.8482793"><ele>288.0</ele><time>2026-05-02T10:52:35.629Z</time></trkpt><trkpt lat="45.0578506" lon="7.8483749"><ele>288.0</ele><time>2026-05-02T10:52:36.628Z</time></trkpt><trkpt lat="45.0577981" lon="7.8484727"><ele>287.8</ele><time>2026-05-02T10:52:37.628Z</time></trkpt><trkpt lat="45.0577495" lon="7.8485764"><ele>287.6</ele><time>2026-05-02T10:52:38.628Z</time></trkpt><trkpt lat="45.0577022" lon="7.8486924"><ele>287.4</ele><time>2026-05-02T10:52:39.629Z</time></trkpt><trkpt lat="45.0576487" lon="7.848827"><ele>287.2</ele><time>2026-05-02T10:52:40.629Z</time></trkpt><trkpt lat="45.0576068" lon="7.8489649"><ele>287.0</ele><time>2026-05-02T10:52:41.628Z</time></trkpt><trkpt lat="45.0575865" lon="7.8491179"><ele>287.0</ele><time>2026-05-02T10:52:42.628Z</time></trkpt><trkpt lat="45.0575819" lon="7.8492774"><ele>287.0</ele><time>2026-05-02T10:52:43.629Z</time></trkpt><trkpt lat="45.057571" lon="7.8494525"><ele>287.0</ele><time>2026-05-02T10:52:44.628Z</time></trkpt><trkpt lat="45.0575565" lon="7.8496306"><ele>287.0</ele><time>2026-05-02T10:52:45.629Z</time></trkpt><trkpt lat="45.05753" lon="7.8498124"><ele>287.25</ele><time>2026-05-02T10:52:46.628Z</time></trkpt><trkpt lat="45.0574888" lon="7.849989"><ele>287.5</ele><time>2026-05-02T10:52:47.629Z</time></trkpt><trkpt lat="45.0574347" lon="7.8501494"><ele>287.75</ele><time>2026-05-02T10:52:48.629Z</time></trkpt><trkpt lat="45.0573669" lon="7.8502885"><ele>288.0</ele><time>2026-05-02T10:52:49.629Z</time></trkpt><trkpt lat="45.0573024" lon="7.8504026"><ele>288.0</ele><time>2026-05-02T10:52:50.629Z</time></trkpt><trkpt lat="45.0572504" lon="7.8504913"><ele>288.0</ele><time>2026-05-02T10:52:51.629Z</time></trkpt><trkpt lat="45.0571895" lon="7.8505589"><ele>288.0</ele><time>2026-05-02T10:52:53.629Z</time></trkpt><trkpt lat="45.0571379" lon="7.8507118"><ele>288.0</ele><time>2026-05-02T10:52:59.629Z</time></trkpt><trkpt lat="45.0571095" lon="7.8508274"><ele>288.0</ele><time>2026-05-02T10:53:00.629Z</time></trkpt><trkpt lat="45.0570763" lon="7.850951"><ele>288.6666666666667</ele><time>2026-05-02T10:53:01.629Z</time></trkpt><trkpt lat="45.0570428" lon="7.8510724"><ele>289.3333333333333</ele><time>2026-05-02T10:53:02.629Z</time></trkpt><trkpt lat="45.0570056" lon="7.8511963"><ele>290.0</ele><time>2026-05-02T10:53:03.629Z</time></trkpt><trkpt lat="45.0569683" lon="7.8513066"><ele>290.66666666666663</ele><time>2026-05-02T10:53:04.629Z</time></trkpt><trkpt lat="45.0569274" lon="7.8514144"><ele>291.3333333333333</ele><time>2026-05-02T10:53:05.628Z</time></trkpt><trkpt lat="45.0568857" lon="7.851514"><ele>292.0</ele><time>2026-05-02T10:53:06.629Z</time></trkpt><trkpt lat="45.0568443" lon="7.8516072"><ele>292.0</ele><time>2026-05-02T10:53:07.629Z</time></trkpt><trkpt lat="45.0567992" lon="7.8516827"><ele>292.0</ele><time>2026-05-02T10:53:08.629Z</time></trkpt><trkpt lat="45.0567477" lon="7.8517613"><ele>292.0</ele><time>2026-05-02T10:53:09.629Z</time></trkpt><trkpt lat="45.0566997" lon="7.8518305"><ele>292.0</ele><time>2026-05-02T10:53:10.629Z</time></trkpt><trkpt lat="45.0566493" lon="7.8519561"><ele>292.0</ele><time>2026-05-02T10:53:12.628Z</time></trkpt><trkpt lat="45.0566527" lon="7.8521166"><ele>292.0</ele><time>2026-05-02T10:53:14.629Z</time></trkpt><trkpt lat="45.0566828" lon="7.8522274"><ele>293.0</ele><time>2026-05-02T10:53:15.628Z</time></trkpt><trkpt lat="45.0567174" lon="7.8523295"><ele>294.0</ele><time>2026-05-02T10:53:16.629Z</time></trkpt><trkpt lat="45.0567521" lon="7.8524466"><ele>295.0</ele><time>2026-05-02T10:53:17.628Z</time></trkpt><trkpt lat="45.0567745" lon="7.8525639"><ele>296.0</ele><time>2026-05-02T10:53:18.629Z</time></trkpt><trkpt lat="45.056792" lon="7.852679"><ele>297.0</ele><time>2026-05-02T10:53:19.628Z</time></trkpt><trkpt lat="45.0568104" lon="7.8527996"><ele>298.0</ele><time>2026-05-02T10:53:20.629Z</time></trkpt><trkpt lat="45.0568239" lon="7.8529243"><ele>298.3333333333333</ele><time>2026-05-02T10:53:21.629Z</time></trkpt><trkpt lat="45.0568298" lon="7.8530478"><ele>298.66666666666663</ele><time>2026-05-02T10:53:22.629Z</time></trkpt><trkpt lat="45.05683" lon="7.8531752"><ele>299.0</ele><time>2026-05-02T10:53:23.629Z</time></trkpt><trkpt lat="45.0568244" lon="7.8532826"><ele>299.3333333333333</ele><time>2026-05-02T10:53:24.63Z</time></trkpt><trkpt lat="45.0568148" lon="7.8533869"><ele>299.6666666666667</ele><time>2026-05-02T10:53:25.629Z</time></trkpt><trkpt lat="45.0567974" lon="7.8535001"><ele>300.0</ele><time>2026-05-02T10:53:26.629Z</time></trkpt><trkpt lat="45.0567714" lon="7.8536071"><ele>300.8333333333333</ele><time>2026-05-02T10:53:27.63Z</time></trkpt><trkpt lat="45.0567439" lon="7.8537217"><ele>301.6666666666667</ele><time>2026-05-02T10:53:28.63Z</time></trkpt><trkpt lat="45.0567229" lon="7.8538318"><ele>302.5</ele><time>2026-05-02T10:53:29.63Z</time></trkpt><trkpt lat="45.0567083" lon="7.8539479"><ele>303.33333333333337</ele><time>2026-05-02T10:53:30.629Z</time></trkpt><trkpt lat="45.0567054" lon="7.8540668"><ele>304.1666666666667</ele><time>2026-05-02T10:53:31.63Z</time></trkpt><trkpt lat="45.056717" lon="7.8541824"><ele>305.0</ele><time>2026-05-02T10:53:32.63Z</time></trkpt><trkpt lat="45.0567449" lon="7.8542824"><ele>306.0</ele><time>2026-05-02T10:53:33.63Z</time></trkpt><trkpt lat="45.0567879" lon="7.8543882"><ele>307.0</ele><time>2026-05-02T10:53:34.63Z</time></trkpt><trkpt lat="45.0568364" lon="7.8544919"><ele>308.0</ele><time>2026-05-02T10:53:35.629Z</time></trkpt><trkpt lat="45.0568789" lon="7.8545917"><ele>309.0</ele><time>2026-05-02T10:53:36.629Z</time></trkpt><trkpt lat="45.0569171" lon="7.854677"><ele>310.0</ele><time>2026-05-02T10:53:37.63Z</time></trkpt><trkpt lat="45.0569866" lon="7.8548124"><ele>311.0</ele><time>2026-05-02T10:53:39.63Z</time></trkpt><trkpt lat="45.0570706" lon="7.8549565"><ele>311.0</ele><time>2026-05-02T10:53:41.63Z</time></trkpt><trkpt lat="45.0571195" lon="7.8550264"><ele>311.0</ele><time>2026-05-02T10:53:42.63Z</time></trkpt><trkpt lat="45.0571618" lon="7.8551004"><ele>311.0</ele><time>2026-05-02T10:53:43.63Z</time></trkpt><trkpt lat="45.0571954" lon="7.8551823"><ele>311.0</ele><time>2026-05-02T10:53:44.63Z</time></trkpt><trkpt lat="45.0572247" lon="7.8552637"><ele>311.0</ele><time>2026-05-02T10:53:45.629Z</time></trkpt><trkpt lat="45.0572512" lon="7.8553565"><ele>311.0</ele><time>2026-05-02T10:53:46.63Z</time></trkpt><trkpt lat="45.0572742" lon="7.8555266"><ele>312.2857142857143</ele><time>2026-05-02T10:53:48.63Z</time></trkpt><trkpt lat="45.0572777" lon="7.8556156"><ele>313.5714285714286</ele><time>2026-05-02T10:53:49.63Z</time></trkpt><trkpt lat="45.057281" lon="7.8557215"><ele>314.8571428571429</ele><time>2026-05-02T10:53:50.63Z</time></trkpt><trkpt lat="45.0572858" lon="7.8558352"><ele>316.1428571428571</ele><time>2026-05-02T10:53:51.63Z</time></trkpt><trkpt lat="45.0572872" lon="7.8559439"><ele>317.42857142857144</ele><time>2026-05-02T10:53:52.63Z</time></trkpt><trkpt lat="45.0572854" lon="7.8560486"><ele>318.7142857142857</ele><time>2026-05-02T10:53:53.63Z</time></trkpt><trkpt lat="45.0572874" lon="7.8561466"><ele>320.0</ele><time>2026-05-02T10:53:54.63Z</time></trkpt><trkpt lat="45.0573035" lon="7.8563214"><ele>322.1666666666667</ele><time>2026-05-02T10:53:56.629Z</time></trkpt><trkpt lat="45.0573305" lon="7.8564535"><ele>324.33333333333337</ele><time>2026-05-02T10:53:58.63Z</time></trkpt><trkpt lat="45.057297" lon="7.8565291"><ele>326.5</ele><time>2026-05-02T10:54:02.63Z</time></trkpt><trkpt lat="45.0572158" lon="7.8565662"><ele>328.6666666666667</ele><time>2026-05-02T10:54:04.63Z</time></trkpt><trkpt lat="45.0571327" lon="7.8566063"><ele>330.8333333333333</ele><time>2026-05-02T10:54:05.63Z</time></trkpt><trkpt lat="45.0570371" lon="7.8566497"><ele>333.0</ele><time>2026-05-02T10:54:06.63Z</time></trkpt><trkpt lat="45.0569414" lon="7.8566987"><ele>333.0</ele><time>2026-05-02T10:54:07.629Z</time></trkpt><trkpt lat="45.0568476" lon="7.8567474"><ele>333.0</ele><time>2026-05-02T10:54:08.629Z</time></trkpt><trkpt lat="45.0567578" lon="7.856796"><ele>333.0</ele><time>2026-05-02T10:54:09.63Z</time></trkpt><trkpt lat="45.0566646" lon="7.8568516"><ele>333.0</ele><time>2026-05-02T10:54:10.63Z</time></trkpt><trkpt lat="45.0565716" lon="7.8569096"><ele>333.0</ele><time>2026-05-02T10:54:11.63Z</time></trkpt><trkpt lat="45.0564758" lon="7.8569831"><ele>333.0</ele><time>2026-05-02T10:54:12.63Z</time></trkpt><trkpt lat="45.0563808" lon="7.8570742"><ele>333.0</ele><time>2026-05-02T10:54:13.629Z</time></trkpt><trkpt lat="45.0562917" lon="7.8571792"><ele>333.0</ele><time>2026-05-02T10:54:14.63Z</time></trkpt><trkpt lat="45.0562103" lon="7.85729"><ele>333.0</ele><time>2026-05-02T10:54:15.63Z</time></trkpt><trkpt lat="45.056129" lon="7.8574087"><ele>333.0</ele><time>2026-05-02T10:54:16.63Z</time></trkpt><trkpt lat="45.0560387" lon="7.8575154"><ele>333.0</ele><time>2026-05-02T10:54:17.63Z</time></trkpt><trkpt lat="45.0559405" lon="7.8576039"><ele>333.0</ele><time>2026-05-02T10:54:18.629Z</time></trkpt><trkpt lat="45.055834" lon="7.8576778"><ele>333.0</ele><time>2026-05-02T10:54:19.629Z</time></trkpt><trkpt lat="45.0557263" lon="7.8577373"><ele>334.4</ele><time>2026-05-02T10:54:20.63Z</time></trkpt><trkpt lat="45.0556215" lon="7.8577939"><ele>335.79999999999995</ele><time>2026-05-02T10:54:21.63Z</time></trkpt><trkpt lat="45.0555256" lon="7.857852"><ele>337.2</ele><time>2026-05-02T10:54:22.63Z</time></trkpt><trkpt lat="45.0554276" lon="7.8579218"><ele>338.6</ele><time>2026-05-02T10:54:23.629Z</time></trkpt><trkpt lat="45.0553259" lon="7.8579959"><ele>340.0</ele><time>2026-05-02T10:54:24.63Z</time></trkpt><trkpt lat="45.0552338" lon="7.858061"><ele>340.0</ele><time>2026-05-02T10:54:25.63Z</time></trkpt><trkpt lat="45.0551591" lon="7.8581035"><ele>340.0</ele><time>2026-05-02T10:54:26.63Z</time></trkpt><trkpt lat="45.0550887" lon="7.8581185"><ele>340.0</ele><time>2026-05-02T10:54:27.63Z</time></trkpt><trkpt lat="45.0550226" lon="7.8581063"><ele>340.0</ele><time>2026-05-02T10:54:28.629Z</time></trkpt><trkpt lat="45.0549332" lon="7.8580422"><ele>340.0</ele><time>2026-05-02T10:54:30.63Z</time></trkpt><trkpt lat="45.0548402" lon="7.8580042"><ele>340.0</ele><time>2026-05-02T10:54:33.63Z</time></trkpt><trkpt lat="45.0547754" lon="7.8579967"><ele>341.6</ele><time>2026-05-02T10:54:34.63Z</time></trkpt><trkpt lat="45.0547042" lon="7.8579965"><ele>343.2</ele><time>2026-05-02T10:54:35.629Z</time></trkpt><trkpt lat="45.0546046" lon="7.8580303"><ele>344.79999999999995</ele><time>2026-05-02T10:54:37.629Z</time></trkpt><trkpt lat="45.0545318" lon="7.8581615"><ele>346.4</ele><time>2026-05-02T10:54:39.629Z</time></trkpt><trkpt lat="45.0545214" lon="7.858278"><ele>348.0</ele><time>2026-05-02T10:54:40.63Z</time></trkpt><trkpt lat="45.0545252" lon="7.8584094"><ele>347.5</ele><time>2026-05-02T10:54:41.63Z</time></trkpt><trkpt lat="45.0545179" lon="7.8585609"><ele>347.0</ele><time>2026-05-02T10:54:42.629Z</time></trkpt><trkpt lat="45.0544936" lon="7.8586861"><ele>346.5</ele><time>2026-05-02T10:54:43.63Z</time></trkpt><trkpt lat="45.054458" lon="7.8587756"><ele>346.0</ele><time>2026-05-02T10:54:44.63Z</time></trkpt><trkpt lat="45.0544111" lon="7.8588454"><ele>345.5</ele><time>2026-05-02T10:54:45.629Z</time></trkpt><trkpt lat="45.0543525" lon="7.8588918"><ele>345.0</ele><time>2026-05-02T10:54:46.63Z</time></trkpt><trkpt lat="45.0542721" lon="7.8589395"><ele>345.0</ele><time>2026-05-02T10:54:47.63Z</time></trkpt><trkpt lat="45.0541727" lon="7.8589809"><ele>345.0</ele><time>2026-05-02T10:54:48.629Z</time></trkpt><trkpt lat="45.0540501" lon="7.8590134"><ele>345.0</ele><time>2026-05-02T10:54:49.629Z</time></trkpt><trkpt lat="45.053943" lon="7.8590464"><ele>345.0</ele><time>2026-05-02T10:54:50.63Z</time></trkpt><trkpt lat="45.0538391" lon="7.859083"><ele>345.0</ele><time>2026-05-02T10:54:51.63Z</time></trkpt><trkpt lat="45.0537473" lon="7.8591303"><ele>344.2</ele><time>2026-05-02T10:54:52.63Z</time></trkpt><trkpt lat="45.053655" lon="7.8591848"><ele>343.4</ele><time>2026-05-02T10:54:53.63Z</time></trkpt><trkpt lat="45.0535643" lon="7.8592499"><ele>342.6</ele><time>2026-05-02T10:54:54.63Z</time></trkpt><trkpt lat="45.0534769" lon="7.8593154"><ele>341.8</ele><time>2026-05-02T10:54:55.629Z</time></trkpt><trkpt lat="45.0533883" lon="7.8593884"><ele>341.0</ele><time>2026-05-02T10:54:56.629Z</time></trkpt><trkpt lat="45.053308" lon="7.8594669"><ele>343.4</ele><time>2026-05-02T10:54:57.629Z</time></trkpt><trkpt lat="45.0532385" lon="7.8595526"><ele>345.8</ele><time>2026-05-02T10:54:58.629Z</time></trkpt><trkpt lat="45.0531838" lon="7.8596325"><ele>348.2</ele><time>2026-05-02T10:54:59.63Z</time></trkpt><trkpt lat="45.0531279" lon="7.8597039"><ele>350.59999999999997</ele><time>2026-05-02T10:55:00.63Z</time></trkpt><trkpt lat="45.0530324" lon="7.8597918"><ele>353.0</ele><time>2026-05-02T10:55:02.63Z</time></trkpt><trkpt lat="45.052914" lon="7.8597335"><ele>353.0</ele><time>2026-05-02T10:55:04.63Z</time></trkpt><trkpt lat="45.0528313" lon="7.8596801"><ele>353.0</ele><time>2026-05-02T10:55:05.63Z</time></trkpt><trkpt lat="45.0527608" lon="7.8596395"><ele>353.0</ele><time>2026-05-02T10:55:06.63Z</time></trkpt><trkpt lat="45.0526931" lon="7.8596176"><ele>353.0</ele><time>2026-05-02T10:55:07.63Z</time></trkpt><trkpt lat="45.0526262" lon="7.8596112"><ele>353.0</ele><time>2026-05-02T10:55:08.63Z</time></trkpt><trkpt lat="45.0525639" lon="7.8596297"><ele>353.0</ele><time>2026-05-02T10:55:09.629Z</time></trkpt><trkpt lat="45.0525109" lon="7.8596808"><ele>353.0</ele><time>2026-05-02T10:55:10.629Z</time></trkpt><trkpt lat="45.05246" lon="7.8597691"><ele>353.83333333333337</ele><time>2026-05-02T10:55:11.63Z</time></trkpt><trkpt lat="45.0524115" lon="7.8598881"><ele>354.6666666666667</ele><time>2026-05-02T10:55:12.631Z</time></trkpt><trkpt lat="45.0523744" lon="7.8599983"><ele>355.5</ele><time>2026-05-02T10:55:13.631Z</time></trkpt><trkpt lat="45.0523347" lon="7.8601176"><ele>356.3333333333333</ele><time>2026-05-02T10:55:14.631Z</time></trkpt><trkpt lat="45.0523012" lon="7.8602203"><ele>357.16666666666663</ele><time>2026-05-02T10:55:15.631Z</time></trkpt><trkpt lat="45.0522688" lon="7.8603213"><ele>358.0</ele><time>2026-05-02T10:55:16.63Z</time></trkpt><trkpt lat="45.0522384" lon="7.8604369"><ele>358.0</ele><time>2026-05-02T10:55:17.631Z</time></trkpt><trkpt lat="45.0522091" lon="7.8605473"><ele>358.0</ele><time>2026-05-02T10:55:18.631Z</time></trkpt><trkpt lat="45.0521856" lon="7.8606528"><ele>358.0</ele><time>2026-05-02T10:55:19.631Z</time></trkpt><trkpt lat="45.0521686" lon="7.8607541"><ele>358.0</ele><time>2026-05-02T10:55:20.63Z</time></trkpt><trkpt lat="45.0521651" lon="7.8608507"><ele>358.0</ele><time>2026-05-02T10:55:21.631Z</time></trkpt><trkpt lat="45.0521687" lon="7.8609531"><ele>358.0</ele><time>2026-05-02T10:55:22.63Z</time></trkpt><trkpt lat="45.052162" lon="7.86106"><ele>357.4</ele><time>2026-05-02T10:55:23.631Z</time></trkpt><trkpt lat="45.0521357" lon="7.8611769"><ele>356.79999999999995</ele><time>2026-05-02T10:55:24.631Z</time></trkpt><trkpt lat="45.0520855" lon="7.8612898"><ele>356.2</ele><time>2026-05-02T10:55:25.631Z</time></trkpt><trkpt lat="45.0520188" lon="7.8614091"><ele>355.6</ele><time>2026-05-02T10:55:26.631Z</time></trkpt><trkpt lat="45.0519571" lon="7.8615186"><ele>355.0</ele><time>2026-05-02T10:55:27.631Z</time></trkpt><trkpt lat="45.0519028" lon="7.8616088"><ele>355.0</ele><time>2026-05-02T10:55:28.631Z</time></trkpt><trkpt lat="45.0518564" lon="7.861695"><ele>355.0</ele><time>2026-05-02T10:55:29.63Z</time></trkpt><trkpt lat="45.0517535" lon="7.8617936"><ele>355.0</ele><time>2026-05-02T10:55:31.631Z</time></trkpt><trkpt lat="45.0516284" lon="7.8617761"><ele>355.0</ele><time>2026-05-02T10:55:33.631Z</time></trkpt><trkpt lat="45.0515031" lon="7.8617538"><ele>353.6</ele><time>2026-05-02T10:55:35.631Z</time></trkpt><trkpt lat="45.0514251" lon="7.8617476"><ele>352.2</ele><time>2026-05-02T10:55:36.63Z</time></trkpt><trkpt lat="45.0513324" lon="7.861744"><ele>350.79999999999995</ele><time>2026-05-02T10:55:37.63Z</time></trkpt><trkpt lat="45.051238" lon="7.8617296"><ele>349.4</ele><time>2026-05-02T10:55:38.631Z</time></trkpt><trkpt lat="45.05114" lon="7.8616985"><ele>348.0</ele><time>2026-05-02T10:55:39.63Z</time></trkpt><trkpt lat="45.0510502" lon="7.8616632"><ele>348.0</ele><time>2026-05-02T10:55:40.63Z</time></trkpt><trkpt lat="45.0509644" lon="7.8616284"><ele>348.0</ele><time>2026-05-02T10:55:41.63Z</time></trkpt><trkpt lat="45.0508798" lon="7.861591"><ele>348.0</ele><time>2026-05-02T10:55:42.631Z</time></trkpt><trkpt lat="45.050793" lon="7.8615543"><ele>348.0</ele><time>2026-05-02T10:55:43.63Z</time></trkpt><trkpt lat="45.0507049" lon="7.8615137"><ele>348.0</ele><time>2026-05-02T10:55:44.63Z</time></trkpt><trkpt lat="45.0506121" lon="7.8614643"><ele>347.0</ele><time>2026-05-02T10:55:45.63Z</time></trkpt><trkpt lat="45.0505248" lon="7.8614131"><ele>346.0</ele><time>2026-05-02T10:55:46.631Z</time></trkpt><trkpt lat="45.0504448" lon="7.8613568"><ele>345.0</ele><time>2026-05-02T10:55:47.631Z</time></trkpt><trkpt lat="45.0503684" lon="7.8612925"><ele>344.0</ele><time>2026-05-02T10:55:48.631Z</time></trkpt><trkpt lat="45.0502951" lon="7.8612364"><ele>343.0</ele><time>2026-05-02T10:55:49.631Z</time></trkpt><trkpt lat="45.0502242" lon="7.8611941"><ele>342.0</ele><time>2026-05-02T10:55:50.63Z</time></trkpt><trkpt lat="45.0501601" lon="7.8611772"><ele>342.0</ele><time>2026-05-02T10:55:51.631Z</time></trkpt><trkpt lat="45.0500307" lon="7.8612157"><ele>342.0</ele><time>2026-05-02T10:55:53.631Z</time></trkpt><trkpt lat="45.0499483" lon="7.8612756"><ele>342.0</ele><time>2026-05-02T10:55:54.631Z</time></trkpt><trkpt lat="45.0498733" lon="7.8613669"><ele>342.0</ele><time>2026-05-02T10:55:55.631Z</time></trkpt><trkpt lat="45.0497988" lon="7.8614795"><ele>342.0</ele><time>2026-05-02T10:55:56.631Z</time></trkpt><trkpt lat="45.0497031" lon="7.8615869"><ele>342.25</ele><time>2026-05-02T10:55:57.63Z</time></trkpt><trkpt lat="45.0495955" lon="7.8616838"><ele>342.5</ele><time>2026-05-02T10:55:58.63Z</time></trkpt><trkpt lat="45.0494835" lon="7.8617748"><ele>342.75</ele><time>2026-05-02T10:55:59.631Z</time></trkpt><trkpt lat="45.0493719" lon="7.8618625"><ele>343.0</ele><time>2026-05-02T10:56:00.631Z</time></trkpt><trkpt lat="45.0492681" lon="7.8619402"><ele>342.2</ele><time>2026-05-02T10:56:01.631Z</time></trkpt><trkpt lat="45.0491795" lon="7.8620087"><ele>341.4</ele><time>2026-05-02T10:56:02.63Z</time></trkpt><trkpt lat="45.0491046" lon="7.8620764"><ele>340.59999999999997</ele><time>2026-05-02T10:56:03.63Z</time></trkpt><trkpt lat="45.0490346" lon="7.8621478"><ele>339.79999999999995</ele><time>2026-05-02T10:56:04.63Z</time></trkpt><trkpt lat="45.0489652" lon="7.8622222"><ele>339.0</ele><time>2026-05-02T10:56:05.631Z</time></trkpt><trkpt lat="45.0489003" lon="7.8623047"><ele>339.0</ele><time>2026-05-02T10:56:06.631Z</time></trkpt><trkpt lat="45.0488318" lon="7.8623881"><ele>339.0</ele><time>2026-05-02T10:56:07.631Z</time></trkpt><trkpt lat="45.0487525" lon="7.862466"><ele>339.0</ele><time>2026-05-02T10:56:08.631Z</time></trkpt><trkpt lat="45.048667" lon="7.8625306"><ele>339.0</ele><time>2026-05-02T10:56:09.631Z</time></trkpt><trkpt lat="45.048561" lon="7.8625857"><ele>339.0</ele><time>2026-05-02T10:56:10.631Z</time></trkpt><trkpt lat="45.0484493" lon="7.8626298"><ele>338.0</ele><time>2026-05-02T10:56:11.631Z</time></trkpt><trkpt lat="45.0483326" lon="7.8626738"><ele>337.0</ele><time>2026-05-02T10:56:12.631Z</time></trkpt><trkpt lat="45.0482285" lon="7.8627191"><ele>336.0</ele><time>2026-05-02T10:56:13.63Z</time></trkpt><trkpt lat="45.0481363" lon="7.8627679"><ele>335.0</ele><time>2026-05-02T10:56:14.63Z</time></trkpt><trkpt lat="45.0480549" lon="7.8628134"><ele>334.0</ele><time>2026-05-02T10:56:15.63Z</time></trkpt><trkpt lat="45.0479816" lon="7.862863"><ele>334.0</ele><time>2026-05-02T10:56:16.631Z</time></trkpt><trkpt lat="45.0479123" lon="7.8629056"><ele>334.0</ele><time>2026-05-02T10:56:17.63Z</time></trkpt><trkpt lat="45.0478527" lon="7.8629375"><ele>334.0</ele><time>2026-05-02T10:56:18.63Z</time></trkpt><trkpt lat="45.0477923" lon="7.8629752"><ele>334.0</ele><time>2026-05-02T10:56:19.631Z</time></trkpt><trkpt lat="45.0477217" lon="7.8630164"><ele>334.0</ele><time>2026-05-02T10:56:20.631Z</time></trkpt><trkpt lat="45.0476585" lon="7.863055"><ele>334.0</ele><time>2026-05-02T10:56:21.63Z</time></trkpt><trkpt lat="45.0475768" lon="7.8631039"><ele>334.0</ele><time>2026-05-02T10:56:23.631Z</time></trkpt><trkpt lat="45.0476769" lon="7.8630824"><ele>334.0</ele><time>2026-05-02T10:56:29.63Z</time></trkpt><trkpt lat="45.0477432" lon="7.8630398"><ele>334.0</ele><time>2026-05-02T10:56:31.631Z</time></trkpt><trkpt lat="45.0478345" lon="7.8630308"><ele>334.0</ele><time>2026-05-02T10:56:43.63Z</time></trkpt><trkpt lat="45.0479612" lon="7.8630547"><ele>334.0</ele><time>2026-05-02T10:56:45.63Z</time></trkpt><trkpt lat="45.0480226" lon="7.8630862"><ele>334.0</ele><time>2026-05-02T10:56:46.63Z</time></trkpt><trkpt lat="45.0481083" lon="7.8631913"><ele>334.0</ele><time>2026-05-02T10:56:48.631Z</time></trkpt><trkpt lat="45.0481518" lon="7.8632604"><ele>334.0</ele><time>2026-05-02T10:56:49.631Z</time></trkpt><trkpt lat="45.0482345" lon="7.8633749"><ele>334.0</ele><time>2026-05-02T10:56:51.631Z</time></trkpt><trkpt lat="45.0483303" lon="7.8634592"><ele>334.0</ele><time>2026-05-02T10:56:53.63Z</time></trkpt><trkpt lat="45.0484372" lon="7.8635469"><ele>334.0</ele><time>2026-05-02T10:56:55.631Z</time></trkpt><trkpt lat="45.048503" lon="7.8635901"><ele>331.0</ele><time>2026-05-02T10:56:56.631Z</time></trkpt><trkpt lat="45.0485655" lon="7.8636318"><ele>328.0</ele><time>2026-05-02T10:56:57.631Z</time></trkpt><trkpt lat="45.0486294" lon="7.8636765"><ele>325.0</ele><time>2026-05-02T10:56:58.632Z</time></trkpt><trkpt lat="45.0486821" lon="7.8637265"><ele>322.0</ele><time>2026-05-02T10:56:59.631Z</time></trkpt><trkpt lat="45.0487881" lon="7.8638198"><ele>319.0</ele><time>2026-05-02T10:57:01.632Z</time></trkpt><trkpt lat="45.0488972" lon="7.863906"><ele>319.0</ele><time>2026-05-02T10:57:03.632Z</time></trkpt><trkpt lat="45.0489882" lon="7.8639676"><ele>319.0</ele><time>2026-05-02T10:57:05.632Z</time></trkpt><trkpt lat="45.0490186" lon="7.8640702"><ele>319.0</ele><time>2026-05-02T10:57:15.632Z</time></trkpt><trkpt lat="45.0490265" lon="7.8642072"><ele>319.0</ele><time>2026-05-02T10:57:17.631Z</time></trkpt><trkpt lat="45.0490151" lon="7.8643502"><ele>319.0</ele><time>2026-05-02T10:57:19.631Z</time></trkpt><trkpt lat="45.0489799" lon="7.8644976"><ele>317.8333333333333</ele><time>2026-05-02T10:57:21.632Z</time></trkpt><trkpt lat="45.0489756" lon="7.8645952"><ele>316.66666666666663</ele><time>2026-05-02T10:57:22.631Z</time></trkpt><trkpt lat="45.0489836" lon="7.8647036"><ele>315.5</ele><time>2026-05-02T10:57:23.632Z</time></trkpt><trkpt lat="45.0489982" lon="7.8648117"><ele>314.3333333333333</ele><time>2026-05-02T10:57:24.632Z</time></trkpt><trkpt lat="45.0490295" lon="7.8649182"><ele>313.1666666666667</ele><time>2026-05-02T10:57:25.632Z</time></trkpt><trkpt lat="45.0490612" lon="7.8650299"><ele>312.0</ele><time>2026-05-02T10:57:26.632Z</time></trkpt><trkpt lat="45.0490929" lon="7.8651446"><ele>311.2857142857143</ele><time>2026-05-02T10:57:27.632Z</time></trkpt><trkpt lat="45.0491244" lon="7.8652474"><ele>310.57142857142856</ele><time>2026-05-02T10:57:28.631Z</time></trkpt><trkpt lat="45.0491439" lon="7.8653368"><ele>309.85714285714283</ele><time>2026-05-02T10:57:29.631Z</time></trkpt><trkpt lat="45.0491556" lon="7.8654297"><ele>309.1428571428571</ele><time>2026-05-02T10:57:30.632Z</time></trkpt><trkpt lat="45.0491691" lon="7.8655293"><ele>308.42857142857144</ele><time>2026-05-02T10:57:31.632Z</time></trkpt><trkpt lat="45.0491747" lon="7.8656402"><ele>307.71428571428567</ele><time>2026-05-02T10:57:32.631Z</time></trkpt><trkpt lat="45.0491763" lon="7.8657462"><ele>307.0</ele><time>2026-05-02T10:57:33.631Z</time></trkpt><trkpt lat="45.0491677" lon="7.8658497"><ele>306.6</ele><time>2026-05-02T10:57:34.632Z</time></trkpt><trkpt lat="45.0491467" lon="7.8659998"><ele>306.2</ele><time>2026-05-02T10:57:36.632Z</time></trkpt><trkpt lat="45.0491101" lon="7.8661326"><ele>305.8</ele><time>2026-05-02T10:57:38.632Z</time></trkpt><trkpt lat="45.0490664" lon="7.8662904"><ele>305.4</ele><time>2026-05-02T10:57:40.631Z</time></trkpt><trkpt lat="45.0490413" lon="7.8663856"><ele>305.0</ele><time>2026-05-02T10:57:41.632Z</time></trkpt><trkpt lat="45.048987" lon="7.8665329"><ele>305.0</ele><time>2026-05-02T10:57:43.632Z</time></trkpt><trkpt lat="45.0489452" lon="7.8666171"><ele>305.0</ele><time>2026-05-02T10:57:44.632Z</time></trkpt><trkpt lat="45.0488846" lon="7.8666978"><ele>305.0</ele><time>2026-05-02T10:57:45.632Z</time></trkpt><trkpt lat="45.0488147" lon="7.8667875"><ele>305.0</ele><time>2026-05-02T10:57:46.632Z</time></trkpt><trkpt lat="45.0487488" lon="7.8668772"><ele>305.0</ele><time>2026-05-02T10:57:47.632Z</time></trkpt><trkpt lat="45.0486844" lon="7.8669651"><ele>305.0</ele><time>2026-05-02T10:57:48.632Z</time></trkpt><trkpt lat="45.0486147" lon="7.8670532"><ele>304.6666666666667</ele><time>2026-05-02T10:57:49.631Z</time></trkpt><trkpt lat="45.0485502" lon="7.8671341"><ele>304.33333333333337</ele><time>2026-05-02T10:57:50.631Z</time></trkpt><trkpt lat="45.048493" lon="7.8672068"><ele>304.0</ele><time>2026-05-02T10:57:51.632Z</time></trkpt><trkpt lat="45.0484037" lon="7.8673144"><ele>303.6666666666667</ele><time>2026-05-02T10:57:53.632Z</time></trkpt><trkpt lat="45.0483542" lon="7.8673861"><ele>303.3333333333333</ele><time>2026-05-02T10:57:54.632Z</time></trkpt><trkpt lat="45.0483029" lon="7.8674638"><ele>303.0</ele><time>2026-05-02T10:57:55.631Z</time></trkpt><trkpt lat="45.0482517" lon="7.8675398"><ele>302.0</ele><time>2026-05-02T10:57:56.631Z</time></trkpt><trkpt lat="45.0482032" lon="7.8676241"><ele>301.0</ele><time>2026-05-02T10:57:57.632Z</time></trkpt><trkpt lat="45.0481573" lon="7.8677158"><ele>300.0</ele><time>2026-05-02T10:57:58.631Z</time></trkpt><trkpt lat="45.0481137" lon="7.8678046"><ele>299.0</ele><time>2026-05-02T10:57:59.632Z</time></trkpt><trkpt lat="45.048069" lon="7.8678965"><ele>298.0</ele><time>2026-05-02T10:58:00.632Z</time></trkpt><trkpt lat="45.0480178" lon="7.8679811"><ele>297.0</ele><time>2026-05-02T10:58:01.632Z</time></trkpt><trkpt lat="45.0479614" lon="7.8680584"><ele>297.0</ele><time>2026-05-02T10:58:02.632Z</time></trkpt><trkpt lat="45.0479016" lon="7.8681293"><ele>297.0</ele><time>2026-05-02T10:58:03.632Z</time></trkpt><trkpt lat="45.0478414" lon="7.8681789"><ele>297.0</ele><time>2026-05-02T10:58:04.632Z</time></trkpt><trkpt lat="45.0477485" lon="7.8682241"><ele>297.0</ele><time>2026-05-02T10:58:06.632Z</time></trkpt><trkpt lat="45.0476733" lon="7.8682574"><ele>297.0</ele><time>2026-05-02T10:58:11.632Z</time></trkpt><trkpt lat="45.047732" lon="7.8683037"><ele>297.0</ele><time>2026-05-02T10:58:24.632Z</time></trkpt><trkpt lat="45.0478058" lon="7.8683449"><ele>297.0</ele><time>2026-05-02T10:58:26.632Z</time></trkpt><trkpt lat="45.047928" lon="7.8683941"><ele>297.0</ele><time>2026-05-02T10:58:28.632Z</time></trkpt><trkpt lat="45.048038" lon="7.8684103"><ele>297.0</ele><time>2026-05-02T10:58:30.631Z</time></trkpt><trkpt lat="45.0481205" lon="7.8683886"><ele>297.0</ele><time>2026-05-02T10:58:32.632Z</time></trkpt><trkpt lat="45.0482344" lon="7.8682979"><ele>295.8</ele><time>2026-05-02T10:58:34.632Z</time></trkpt><trkpt lat="45.0483327" lon="7.8682388"><ele>294.6</ele><time>2026-05-02T10:58:36.632Z</time></trkpt><trkpt lat="45.0484162" lon="7.8682403"><ele>293.40000000000003</ele><time>2026-05-02T10:58:38.632Z</time></trkpt><trkpt lat="45.0485211" lon="7.8682713"><ele>292.2</ele><time>2026-05-02T10:58:40.632Z</time></trkpt><trkpt lat="45.0486161" lon="7.8683348"><ele>291.0</ele><time>2026-05-02T10:58:42.631Z</time></trkpt><trkpt lat="45.0487015" lon="7.8683911"><ele>291.0</ele><time>2026-05-02T10:58:44.632Z</time></trkpt><trkpt lat="45.0487686" lon="7.8683965"><ele>291.0</ele><time>2026-05-02T10:58:46.632Z</time></trkpt><trkpt lat="45.0488551" lon="7.8683616"><ele>291.0</ele><time>2026-05-02T10:58:48.633Z</time></trkpt><trkpt lat="45.0489553" lon="7.86831"><ele>291.0</ele><time>2026-05-02T10:58:50.633Z</time></trkpt><trkpt lat="45.0490497" lon="7.8682636"><ele>291.0</ele><time>2026-05-02T10:58:52.633Z</time></trkpt><trkpt lat="45.0491572" lon="7.8682392"><ele>291.6</ele><time>2026-05-02T10:58:54.632Z</time></trkpt><trkpt lat="45.0492757" lon="7.8682025"><ele>292.20000000000005</ele><time>2026-05-02T10:58:56.633Z</time></trkpt><trkpt lat="45.0493958" lon="7.8681793"><ele>292.79999999999995</ele><time>2026-05-02T10:58:58.632Z</time></trkpt><trkpt lat="45.0495237" lon="7.8681943"><ele>293.4</ele><time>2026-05-02T10:59:00.633Z</time></trkpt><trkpt lat="45.0495961" lon="7.8682139"><ele>294.0</ele><time>2026-05-02T10:59:01.633Z</time></trkpt><trkpt lat="45.0496634" lon="7.8682473"><ele>294.0</ele><time>2026-05-02T10:59:02.632Z</time></trkpt><trkpt lat="45.0497211" lon="7.8682926"><ele>294.0</ele><time>2026-05-02T10:59:03.633Z</time></trkpt><trkpt lat="45.0497763" lon="7.8683406"><ele>294.0</ele><time>2026-05-02T10:59:04.633Z</time></trkpt><trkpt lat="45.0498336" lon="7.86839"><ele>294.0</ele><time>2026-05-02T10:59:05.633Z</time></trkpt><trkpt lat="45.0498931" lon="7.8684312"><ele>294.0</ele><time>2026-05-02T10:59:06.633Z</time></trkpt><trkpt lat="45.0499547" lon="7.8684626"><ele>294.0</ele><time>2026-05-02T10:59:07.632Z</time></trkpt><trkpt lat="45.0500165" lon="7.8684871"><ele>294.0</ele><time>2026-05-02T10:59:08.632Z</time></trkpt><trkpt lat="45.050082" lon="7.8685125"><ele>295.0</ele><time>2026-05-02T10:59:09.632Z</time></trkpt><trkpt lat="45.0501517" lon="7.8685364"><ele>296.0</ele><time>2026-05-02T10:59:10.633Z</time></trkpt><trkpt lat="45.050222" lon="7.86856"><ele>297.0</ele><time>2026-05-02T10:59:11.633Z</time></trkpt><trkpt lat="45.0502958" lon="7.8685839"><ele>298.0</ele><time>2026-05-02T10:59:12.633Z</time></trkpt><trkpt lat="45.0503714" lon="7.8686005"><ele>299.0</ele><time>2026-05-02T10:59:13.633Z</time></trkpt><trkpt lat="45.0504507" lon="7.8686129"><ele>300.0</ele><time>2026-05-02T10:59:14.633Z</time></trkpt><trkpt lat="45.0505255" lon="7.8686058"><ele>300.0</ele><time>2026-05-02T10:59:15.632Z</time></trkpt><trkpt lat="45.0505959" lon="7.8685943"><ele>300.0</ele><time>2026-05-02T10:59:16.633Z</time></trkpt><trkpt lat="45.0506716" lon="7.8685755"><ele>300.0</ele><time>2026-05-02T10:59:17.633Z</time></trkpt><trkpt lat="45.0507526" lon="7.8685422"><ele>300.0</ele><time>2026-05-02T10:59:18.633Z</time></trkpt><trkpt lat="45.050838" lon="7.868492"><ele>300.0</ele><time>2026-05-02T10:59:19.633Z</time></trkpt><trkpt lat="45.0509246" lon="7.8684346"><ele>300.0</ele><time>2026-05-02T10:59:20.633Z</time></trkpt><trkpt lat="45.0510021" lon="7.8684049"><ele>300.2</ele><time>2026-05-02T10:59:21.633Z</time></trkpt><trkpt lat="45.0510882" lon="7.8683874"><ele>300.4</ele><time>2026-05-02T10:59:22.633Z</time></trkpt><trkpt lat="45.0511856" lon="7.8683867"><ele>300.6</ele><time>2026-05-02T10:59:23.633Z</time></trkpt><trkpt lat="45.0512849" lon="7.8683916"><ele>300.8</ele><time>2026-05-02T10:59:24.633Z</time></trkpt><trkpt lat="45.0513744" lon="7.8683969"><ele>301.0</ele><time>2026-05-02T10:59:25.633Z</time></trkpt><trkpt lat="45.0514541" lon="7.8683942"><ele>301.0</ele><time>2026-05-02T10:59:26.633Z</time></trkpt><trkpt lat="45.0515714" lon="7.8683719"><ele>301.0</ele><time>2026-05-02T10:59:28.633Z</time></trkpt><trkpt lat="45.0516508" lon="7.8683704"><ele>301.0</ele><time>2026-05-02T10:59:30.633Z</time></trkpt><trkpt lat="45.051687" lon="7.8684634"><ele>301.0</ele><time>2026-05-02T10:59:32.633Z</time></trkpt><trkpt lat="45.0516782" lon="7.8686497"><ele>301.0</ele><time>2026-05-02T10:59:34.633Z</time></trkpt><trkpt lat="45.0516833" lon="7.8687462"><ele>300.16666666666663</ele><time>2026-05-02T10:59:35.633Z</time></trkpt><trkpt lat="45.0516953" lon="7.8688389"><ele>299.3333333333333</ele><time>2026-05-02T10:59:37.633Z</time></trkpt><trkpt lat="45.0517652" lon="7.8688871"><ele>298.5</ele><time>2026-05-02T11:07:30.636Z</time></trkpt><trkpt lat="45.0518691" lon="7.8688644"><ele>297.6666666666667</ele><time>2026-05-02T11:07:32.637Z</time></trkpt><trkpt lat="45.0519339" lon="7.8688188"><ele>296.83333333333337</ele><time>2026-05-02T11:07:33.636Z</time></trkpt><trkpt lat="45.0519995" lon="7.8687624"><ele>296.0</ele><time>2026-05-02T11:07:34.637Z</time></trkpt><trkpt lat="45.0520606" lon="7.8687065"><ele>296.0</ele><time>2026-05-02T11:07:35.637Z</time></trkpt><trkpt lat="45.05212" lon="7.868651"><ele>296.0</ele><time>2026-05-02T11:07:36.637Z</time></trkpt><trkpt lat="45.0521802" lon="7.8686081"><ele>296.0</ele><time>2026-05-02T11:07:37.636Z</time></trkpt><trkpt lat="45.0522428" lon="7.8685671"><ele>296.0</ele><time>2026-05-02T11:07:38.637Z</time></trkpt><trkpt lat="45.0523078" lon="7.8685291"><ele>296.0</ele><time>2026-05-02T11:07:39.637Z</time></trkpt><trkpt lat="45.0523769" lon="7.8684841"><ele>296.0</ele><time>2026-05-02T11:07:40.637Z</time></trkpt><trkpt lat="45.05245" lon="7.8684337"><ele>296.0</ele><time>2026-05-02T11:07:41.637Z</time></trkpt><trkpt lat="45.0525196" lon="7.8683804"><ele>296.33333333333337</ele><time>2026-05-02T11:07:42.636Z</time></trkpt><trkpt lat="45.0525862" lon="7.8683304"><ele>296.6666666666667</ele><time>2026-05-02T11:07:43.637Z</time></trkpt><trkpt lat="45.0526517" lon="7.8682823"><ele>297.0</ele><time>2026-05-02T11:07:44.637Z</time></trkpt><trkpt lat="45.0527146" lon="7.8682396"><ele>297.3333333333333</ele><time>2026-05-02T11:07:45.636Z</time></trkpt><trkpt lat="45.0528245" lon="7.8681666"><ele>297.66666666666663</ele><time>2026-05-02T11:07:47.637Z</time></trkpt><trkpt lat="45.0529188" lon="7.8681351"><ele>298.0</ele><time>2026-05-02T11:07:49.637Z</time></trkpt><trkpt lat="45.0530443" lon="7.8682118"><ele>298.0</ele><time>2026-05-02T11:07:51.637Z</time></trkpt><trkpt lat="45.053117" lon="7.8682794"><ele>298.0</ele><time>2026-05-02T11:07:52.637Z</time></trkpt><trkpt lat="45.053194" lon="7.8683575"><ele>298.0</ele><time>2026-05-02T11:07:53.636Z</time></trkpt><trkpt lat="45.0532743" lon="7.8684344"><ele>298.0</ele><time>2026-05-02T11:07:54.637Z</time></trkpt><trkpt lat="45.0533585" lon="7.8685078"><ele>298.0</ele><time>2026-05-02T11:07:55.636Z</time></trkpt><trkpt lat="45.0534449" lon="7.8685834"><ele>298.4</ele><time>2026-05-02T11:07:56.637Z</time></trkpt><trkpt lat="45.0535286" lon="7.8686629"><ele>298.8</ele><time>2026-05-02T11:07:57.637Z</time></trkpt><trkpt lat="45.0536092" lon="7.8687467"><ele>299.2</ele><time>2026-05-02T11:07:58.636Z</time></trkpt><trkpt lat="45.0536879" lon="7.868837"><ele>299.6</ele><time>2026-05-02T11:07:59.637Z</time></trkpt><trkpt lat="45.0537596" lon="7.8689328"><ele>300.0</ele><time>2026-05-02T11:08:00.637Z</time></trkpt><trkpt lat="45.0538266" lon="7.8690232"><ele>300.0</ele><time>2026-05-02T11:08:01.637Z</time></trkpt><trkpt lat="45.0538901" lon="7.8691105"><ele>300.0</ele><time>2026-05-02T11:08:02.637Z</time></trkpt><trkpt lat="45.053953" lon="7.8691933"><ele>300.0</ele><time>2026-05-02T11:08:03.637Z</time></trkpt><trkpt lat="45.0540162" lon="7.869267"><ele>300.0</ele><time>2026-05-02T11:08:04.637Z</time></trkpt><trkpt lat="45.0540796" lon="7.8693284"><ele>300.0</ele><time>2026-05-02T11:08:05.637Z</time></trkpt><trkpt lat="45.0541534" lon="7.8693807"><ele>300.0</ele><time>2026-05-02T11:08:06.636Z</time></trkpt><trkpt lat="45.0542307" lon="7.8694311"><ele>301.1666666666667</ele><time>2026-05-02T11:08:07.637Z</time></trkpt><trkpt lat="45.0543135" lon="7.8694822"><ele>302.3333333333333</ele><time>2026-05-02T11:08:08.637Z</time></trkpt><trkpt lat="45.0543884" lon="7.8695325"><ele>303.5</ele><time>2026-05-02T11:08:09.636Z</time></trkpt><trkpt lat="45.054456" lon="7.8695865"><ele>304.66666666666663</ele><time>2026-05-02T11:08:10.636Z</time></trkpt><trkpt lat="45.0545229" lon="7.8696444"><ele>305.8333333333333</ele><time>2026-05-02T11:08:11.636Z</time></trkpt><trkpt lat="45.0545935" lon="7.869704"><ele>307.0</ele><time>2026-05-02T11:08:12.636Z</time></trkpt><trkpt lat="45.0546601" lon="7.8697651"><ele>307.0</ele><time>2026-05-02T11:08:13.636Z</time></trkpt><trkpt lat="45.0547385" lon="7.8698253"><ele>307.0</ele><time>2026-05-02T11:08:14.637Z</time></trkpt><trkpt lat="45.0548164" lon="7.8698716"><ele>307.0</ele><time>2026-05-02T11:08:15.638Z</time></trkpt><trkpt lat="45.0548918" lon="7.8699106"><ele>307.0</ele><time>2026-05-02T11:08:16.636Z</time></trkpt><trkpt lat="45.0549681" lon="7.8699512"><ele>307.0</ele><time>2026-05-02T11:08:17.637Z</time></trkpt><trkpt lat="45.0550483" lon="7.8699956"><ele>307.0</ele><time>2026-05-02T11:08:18.638Z</time></trkpt><trkpt lat="45.055131" lon="7.8700495"><ele>308.0</ele><time>2026-05-02T11:08:19.638Z</time></trkpt><trkpt lat="45.0552182" lon="7.8700982"><ele>309.0</ele><time>2026-05-02T11:08:20.638Z</time></trkpt><trkpt lat="45.0553097" lon="7.8701512"><ele>310.0</ele><time>2026-05-02T11:08:21.638Z</time></trkpt><trkpt lat="45.0554091" lon="7.8702131"><ele>311.0</ele><time>2026-05-02T11:08:22.638Z</time></trkpt><trkpt lat="45.0555143" lon="7.8702801"><ele>312.0</ele><time>2026-05-02T11:08:23.637Z</time></trkpt><trkpt lat="45.055617" lon="7.8703493"><ele>312.0</ele><time>2026-05-02T11:08:24.638Z</time></trkpt><trkpt lat="45.0557139" lon="7.8704093"><ele>312.0</ele><time>2026-05-02T11:08:25.638Z</time></trkpt><trkpt lat="45.0558078" lon="7.8704665"><ele>312.0</ele><time>2026-05-02T11:08:26.638Z</time></trkpt><trkpt lat="45.0558934" lon="7.8705167"><ele>312.0</ele><time>2026-05-02T11:08:27.638Z</time></trkpt><trkpt lat="45.055973" lon="7.8705833"><ele>312.0</ele><time>2026-05-02T11:08:28.638Z</time></trkpt><trkpt lat="45.0560438" lon="7.8706664"><ele>314.0</ele><time>2026-05-02T11:08:29.638Z</time></trkpt><trkpt lat="45.056117" lon="7.8707597"><ele>316.0</ele><time>2026-05-02T11:08:30.638Z</time></trkpt><trkpt lat="45.056186" lon="7.8708539"><ele>318.0</ele><time>2026-05-02T11:08:31.638Z</time></trkpt><trkpt lat="45.0562587" lon="7.8709673"><ele>320.0</ele><time>2026-05-02T11:08:32.638Z</time></trkpt><trkpt lat="45.0563286" lon="7.8710928"><ele>322.0</ele><time>2026-05-02T11:08:33.638Z</time></trkpt><trkpt lat="45.0563948" lon="7.8712148"><ele>322.40000000000003</ele><time>2026-05-02T11:08:34.638Z</time></trkpt><trkpt lat="45.0564539" lon="7.8713053"><ele>322.8</ele><time>2026-05-02T11:08:35.637Z</time></trkpt><trkpt lat="45.0565218" lon="7.8714157"><ele>323.2</ele><time>2026-05-02T11:08:37.637Z</time></trkpt><trkpt lat="45.0565955" lon="7.8715481"><ele>323.6</ele><time>2026-05-02T11:08:39.637Z</time></trkpt><trkpt lat="45.056654" lon="7.8716303"><ele>324.0</ele><time>2026-05-02T11:08:40.638Z</time></trkpt><trkpt lat="45.0567173" lon="7.8717203"><ele>327.8333333333333</ele><time>2026-05-02T11:08:41.637Z</time></trkpt><trkpt lat="45.056775" lon="7.8717957"><ele>331.6666666666667</ele><time>2026-05-02T11:08:42.638Z</time></trkpt><trkpt lat="45.0568362" lon="7.8718742"><ele>335.5</ele><time>2026-05-02T11:08:43.638Z</time></trkpt><trkpt lat="45.0568916" lon="7.8719426"><ele>339.33333333333337</ele><time>2026-05-02T11:08:44.638Z</time></trkpt><trkpt lat="45.0569598" lon="7.8720366"><ele>343.1666666666667</ele><time>2026-05-02T11:08:46.638Z</time></trkpt><trkpt lat="45.0569577" lon="7.8721812"><ele>347.0</ele><time>2026-05-02T11:08:49.638Z</time></trkpt><trkpt lat="45.0569407" lon="7.8722839"><ele>347.0</ele><time>2026-05-02T11:08:50.638Z</time></trkpt><trkpt lat="45.056934" lon="7.8724007"><ele>347.0</ele><time>2026-05-02T11:08:51.638Z</time></trkpt><trkpt lat="45.0569405" lon="7.8725037"><ele>347.0</ele><time>2026-05-02T11:08:52.638Z</time></trkpt><trkpt lat="45.056967" lon="7.8726208"><ele>347.0</ele><time>2026-05-02T11:08:53.637Z</time></trkpt><trkpt lat="45.0570047" lon="7.87275"><ele>347.0</ele><time>2026-05-02T11:08:54.638Z</time></trkpt><trkpt lat="45.0570412" lon="7.87287"><ele>347.0</ele><time>2026-05-02T11:08:55.638Z</time></trkpt><trkpt lat="45.0570666" lon="7.8729885"><ele>347.5</ele><time>2026-05-02T11:08:56.637Z</time></trkpt><trkpt lat="45.0570856" lon="7.8731125"><ele>348.0</ele><time>2026-05-02T11:08:57.638Z</time></trkpt><trkpt lat="45.0571018" lon="7.8732325"><ele>348.5</ele><time>2026-05-02T11:08:58.638Z</time></trkpt><trkpt lat="45.0571192" lon="7.8733415"><ele>349.0</ele><time>2026-05-02T11:08:59.638Z</time></trkpt><trkpt lat="45.0571318" lon="7.8734355"><ele>349.5</ele><time>2026-05-02T11:09:00.638Z</time></trkpt><trkpt lat="45.0571435" lon="7.8735833"><ele>350.0</ele><time>2026-05-02T11:09:02.638Z</time></trkpt><trkpt lat="45.057209" lon="7.8736206"><ele>350.0</ele><time>2026-05-02T11:09:04.638Z</time></trkpt><trkpt lat="45.0572694" lon="7.8735565"><ele>350.0</ele><time>2026-05-02T11:09:05.638Z</time></trkpt><trkpt lat="45.057338" lon="7.8734585"><ele>350.0</ele><time>2026-05-02T11:09:06.638Z</time></trkpt><trkpt lat="45.0574044" lon="7.8733225"><ele>350.0</ele><time>2026-05-02T11:09:07.637Z</time></trkpt><trkpt lat="45.0574617" lon="7.8731771"><ele>350.0</ele><time>2026-05-02T11:09:08.638Z</time></trkpt><trkpt lat="45.0575126" lon="7.8730497"><ele>350.0</ele><time>2026-05-02T11:09:09.638Z</time></trkpt><trkpt lat="45.0575481" lon="7.8729697"><ele>350.0</ele><time>2026-05-02T11:09:10.638Z</time></trkpt><trkpt lat="45.0576221" lon="7.8729914"><ele>350.0</ele><time>2026-05-02T11:09:13.638Z</time></trkpt><trkpt lat="45.0575864" lon="7.8731184"><ele>350.0</ele><time>2026-05-02T11:09:15.638Z</time></trkpt><trkpt lat="45.0575366" lon="7.8731974"><ele>350.0</ele><time>2026-05-02T11:09:16.638Z</time></trkpt><trkpt lat="45.057474" lon="7.8732841"><ele>350.0</ele><time>2026-05-02T11:09:17.637Z</time></trkpt><trkpt lat="45.0574122" lon="7.8733898"><ele>352.4</ele><time>2026-05-02T11:09:18.638Z</time></trkpt><trkpt lat="45.0573641" lon="7.8735094"><ele>354.8</ele><time>2026-05-02T11:09:19.638Z</time></trkpt><trkpt lat="45.0573187" lon="7.8736353"><ele>357.20000000000005</ele><time>2026-05-02T11:09:20.637Z</time></trkpt><trkpt lat="45.0572694" lon="7.8737566"><ele>359.6</ele><time>2026-05-02T11:09:21.637Z</time></trkpt><trkpt lat="45.0572103" lon="7.8738824"><ele>362.0</ele><time>2026-05-02T11:09:22.638Z</time></trkpt><trkpt lat="45.057147" lon="7.8740073"><ele>362.0</ele><time>2026-05-02T11:09:23.638Z</time></trkpt><trkpt lat="45.0570979" lon="7.8741315"><ele>362.0</ele><time>2026-05-02T11:09:24.637Z</time></trkpt><trkpt lat="45.0570567" lon="7.8742468"><ele>362.0</ele><time>2026-05-02T11:09:25.638Z</time></trkpt><trkpt lat="45.0570065" lon="7.8743607"><ele>362.0</ele><time>2026-05-02T11:09:26.638Z</time></trkpt><trkpt lat="45.056941" lon="7.8744718"><ele>362.0</ele><time>2026-05-02T11:09:27.638Z</time></trkpt><trkpt lat="45.0568788" lon="7.8745801"><ele>361.40000000000003</ele><time>2026-05-02T11:09:28.638Z</time></trkpt><trkpt lat="45.0568205" lon="7.8746986"><ele>360.8</ele><time>2026-05-02T11:09:29.638Z</time></trkpt><trkpt lat="45.0567704" lon="7.8747897"><ele>360.2</ele><time>2026-05-02T11:09:30.638Z</time></trkpt><trkpt lat="45.0566975" lon="7.8748663"><ele>359.6</ele><time>2026-05-02T11:09:31.638Z</time></trkpt><trkpt lat="45.0565868" lon="7.8749321"><ele>359.0</ele><time>2026-05-02T11:09:32.637Z</time></trkpt><trkpt lat="45.056456" lon="7.8750061"><ele>359.0</ele><time>2026-05-02T11:09:33.637Z</time></trkpt><trkpt lat="45.0563272" lon="7.8750866"><ele>359.0</ele><time>2026-05-02T11:09:34.637Z</time></trkpt><trkpt lat="45.0561925" lon="7.8751727"><ele>359.0</ele><time>2026-05-02T11:09:35.638Z</time></trkpt><trkpt lat="45.0560505" lon="7.8752678"><ele>359.0</ele><time>2026-05-02T11:09:36.638Z</time></trkpt><trkpt lat="45.0559119" lon="7.8753562"><ele>359.25</ele><time>2026-05-02T11:09:37.638Z</time></trkpt><trkpt lat="45.05578" lon="7.8754487"><ele>359.5</ele><time>2026-05-02T11:09:38.637Z</time></trkpt><trkpt lat="45.0556612" lon="7.875552"><ele>359.75</ele><time>2026-05-02T11:09:39.638Z</time></trkpt><trkpt lat="45.0555642" lon="7.8756681"><ele>360.0</ele><time>2026-05-02T11:09:40.637Z</time></trkpt><trkpt lat="45.0554588" lon="7.8757834"><ele>360.0</ele><time>2026-05-02T11:09:41.638Z</time></trkpt><trkpt lat="45.0553478" lon="7.8758975"><ele>360.0</ele><time>2026-05-02T11:09:42.638Z</time></trkpt><trkpt lat="45.0552386" lon="7.876007"><ele>360.0</ele><time>2026-05-02T11:09:43.637Z</time></trkpt><trkpt lat="45.0551275" lon="7.8761185"><ele>360.0</ele><time>2026-05-02T11:09:44.637Z</time></trkpt><trkpt lat="45.0550212" lon="7.8762262"><ele>360.2</ele><time>2026-05-02T11:09:45.638Z</time></trkpt><trkpt lat="45.0549255" lon="7.8763308"><ele>360.4</ele><time>2026-05-02T11:09:46.638Z</time></trkpt><trkpt lat="45.0548494" lon="7.8764065"><ele>360.6</ele><time>2026-05-02T11:09:47.637Z</time></trkpt><trkpt lat="45.0547656" lon="7.8764785"><ele>360.8</ele><time>2026-05-02T11:09:49.638Z</time></trkpt><trkpt lat="45.0547565" lon="7.8765808"><ele>361.0</ele><time>2026-05-02T11:09:52.638Z</time></trkpt><trkpt lat="45.054705" lon="7.8767028"><ele>360.0</ele><time>2026-05-02T11:09:54.638Z</time></trkpt><trkpt lat="45.0546548" lon="7.876778"><ele>359.0</ele><time>2026-05-02T11:09:55.638Z</time></trkpt><trkpt lat="45.05461" lon="7.8768766"><ele>358.0</ele><time>2026-05-02T11:09:56.638Z</time></trkpt><trkpt lat="45.0545862" lon="7.8769826"><ele>357.0</ele><time>2026-05-02T11:09:57.637Z</time></trkpt><trkpt lat="45.0545589" lon="7.8771197"><ele>356.0</ele><time>2026-05-02T11:09:58.637Z</time></trkpt><trkpt lat="45.0545452" lon="7.8772736"><ele>355.0</ele><time>2026-05-02T11:09:59.638Z</time></trkpt><trkpt lat="45.0545303" lon="7.877427"><ele>351.5</ele><time>2026-05-02T11:10:00.637Z</time></trkpt><trkpt lat="45.0545105" lon="7.8776045"><ele>348.0</ele><time>2026-05-02T11:10:01.638Z</time></trkpt><trkpt lat="45.054501" lon="7.8777763"><ele>344.5</ele><time>2026-05-02T11:10:02.638Z</time></trkpt><trkpt lat="45.054491" lon="7.8779435"><ele>341.0</ele><time>2026-05-02T11:10:03.638Z</time></trkpt><trkpt lat="45.0544764" lon="7.8780901"><ele>341.0</ele><time>2026-05-02T11:10:04.638Z</time></trkpt><trkpt lat="45.0544593" lon="7.8781998"><ele>341.0</ele><time>2026-05-02T11:10:05.637Z</time></trkpt><trkpt lat="45.0544434" lon="7.8782943"><ele>341.0</ele><time>2026-05-02T11:10:06.637Z</time></trkpt><trkpt lat="45.0544173" lon="7.878458"><ele>341.0</ele><time>2026-05-02T11:10:08.638Z</time></trkpt><trkpt lat="45.0544017" lon="7.8785462"><ele>341.0</ele><time>2026-05-02T11:10:09.637Z</time></trkpt><trkpt lat="45.0543808" lon="7.8786486"><ele>341.0</ele><time>2026-05-02T11:10:10.638Z</time></trkpt><trkpt lat="45.0543555" lon="7.8787565"><ele>338.0</ele><time>2026-05-02T11:10:11.638Z</time></trkpt><trkpt lat="45.0543333" lon="7.878876"><ele>335.0</ele><time>2026-05-02T11:10:12.638Z</time></trkpt><trkpt lat="45.0543083" lon="7.8790054"><ele>332.0</ele><time>2026-05-02T11:10:13.637Z</time></trkpt><trkpt lat="45.054282" lon="7.8791442"><ele>329.0</ele><time>2026-05-02T11:10:14.638Z</time></trkpt><trkpt lat="45.0542452" lon="7.8792908"><ele>326.0</ele><time>2026-05-02T11:10:15.637Z</time></trkpt><trkpt lat="45.0542073" lon="7.8794244"><ele>325.8571428571429</ele><time>2026-05-02T11:10:16.637Z</time></trkpt><trkpt lat="45.0541664" lon="7.8795402"><ele>325.71428571428567</ele><time>2026-05-02T11:10:17.638Z</time></trkpt><trkpt lat="45.054125" lon="7.8796391"><ele>325.57142857142856</ele><time>2026-05-02T11:10:18.638Z</time></trkpt><trkpt lat="45.0540938" lon="7.8797216"><ele>325.42857142857144</ele><time>2026-05-02T11:10:19.638Z</time></trkpt><trkpt lat="45.0540635" lon="7.879801"><ele>325.28571428571433</ele><time>2026-05-02T11:10:20.638Z</time></trkpt><trkpt lat="45.0540315" lon="7.8798862"><ele>325.1428571428571</ele><time>2026-05-02T11:10:21.638Z</time></trkpt><trkpt lat="45.0539908" lon="7.8799692"><ele>325.0</ele><time>2026-05-02T11:10:22.638Z</time></trkpt><trkpt lat="45.0539282" lon="7.8800597"><ele>323.3333333333333</ele><time>2026-05-02T11:10:23.639Z</time></trkpt><trkpt lat="45.0538563" lon="7.8801328"><ele>321.66666666666663</ele><time>2026-05-02T11:10:24.638Z</time></trkpt><trkpt lat="45.0537843" lon="7.8801989"><ele>320.0</ele><time>2026-05-02T11:10:25.639Z</time></trkpt><trkpt lat="45.0537227" lon="7.8802748"><ele>318.3333333333333</ele><time>2026-05-02T11:10:26.639Z</time></trkpt><trkpt lat="45.0536714" lon="7.8803641"><ele>316.6666666666667</ele><time>2026-05-02T11:10:27.638Z</time></trkpt><trkpt lat="45.0536377" lon="7.8804689"><ele>315.0</ele><time>2026-05-02T11:10:28.639Z</time></trkpt><trkpt lat="45.0536221" lon="7.8806057"><ele>315.0</ele><time>2026-05-02T11:10:30.639Z</time></trkpt><trkpt lat="45.0535927" lon="7.8807798"><ele>315.0</ele><time>2026-05-02T11:10:32.638Z</time></trkpt><trkpt lat="45.0535616" lon="7.880915"><ele>315.0</ele><time>2026-05-02T11:10:33.638Z</time></trkpt><trkpt lat="45.0535197" lon="7.881072"><ele>315.0</ele><time>2026-05-02T11:10:34.639Z</time></trkpt><trkpt lat="45.0534702" lon="7.8812382"><ele>313.6</ele><time>2026-05-02T11:10:35.639Z</time></trkpt><trkpt lat="45.0534315" lon="7.881391"><ele>312.2</ele><time>2026-05-02T11:10:36.639Z</time></trkpt><trkpt lat="45.0534005" lon="7.8815151"><ele>310.8</ele><time>2026-05-02T11:10:37.639Z</time></trkpt><trkpt lat="45.0533657" lon="7.8816341"><ele>309.4</ele><time>2026-05-02T11:10:38.639Z</time></trkpt><trkpt lat="45.0533225" lon="7.8817527"><ele>308.0</ele><time>2026-05-02T11:10:39.638Z</time></trkpt><trkpt lat="45.0532844" lon="7.8818713"><ele>311.6</ele><time>2026-05-02T11:10:40.639Z</time></trkpt><trkpt lat="45.0532513" lon="7.8820052"><ele>315.20000000000005</ele><time>2026-05-02T11:10:41.639Z</time></trkpt><trkpt lat="45.0532292" lon="7.8821531"><ele>318.8</ele><time>2026-05-02T11:10:42.639Z</time></trkpt><trkpt lat="45.0532141" lon="7.8822976"><ele>322.40000000000003</ele><time>2026-05-02T11:10:43.639Z</time></trkpt><trkpt lat="45.0532029" lon="7.8824333"><ele>326.0</ele><time>2026-05-02T11:10:44.639Z</time></trkpt><trkpt lat="45.0531914" lon="7.8825666"><ele>324.2</ele><time>2026-05-02T11:10:45.639Z</time></trkpt><trkpt lat="45.0531782" lon="7.8827145"><ele>322.40000000000003</ele><time>2026-05-02T11:10:46.639Z</time></trkpt><trkpt lat="45.0531589" lon="7.8828769"><ele>320.6</ele><time>2026-05-02T11:10:47.639Z</time></trkpt><trkpt lat="45.053134" lon="7.8830311"><ele>318.8</ele><time>2026-05-02T11:10:48.639Z</time></trkpt><trkpt lat="45.0531066" lon="7.8831836"><ele>317.0</ele><time>2026-05-02T11:10:49.638Z</time></trkpt><trkpt lat="45.0530814" lon="7.8833266"><ele>314.4</ele><time>2026-05-02T11:10:50.639Z</time></trkpt><trkpt lat="45.0530578" lon="7.8834646"><ele>311.79999999999995</ele><time>2026-05-02T11:10:51.638Z</time></trkpt><trkpt lat="45.0530345" lon="7.8835992"><ele>309.2</ele><time>2026-05-02T11:10:52.638Z</time></trkpt><trkpt lat="45.0530163" lon="7.8837369"><ele>306.59999999999997</ele><time>2026-05-02T11:10:53.638Z</time></trkpt><trkpt lat="45.0529954" lon="7.8838778"><ele>304.0</ele><time>2026-05-02T11:10:54.638Z</time></trkpt><trkpt lat="45.05298" lon="7.8840076"><ele>304.0</ele><time>2026-05-02T11:10:55.639Z</time></trkpt><trkpt lat="45.0529621" lon="7.8841343"><ele>304.0</ele><time>2026-05-02T11:10:56.639Z</time></trkpt><trkpt lat="45.0529456" lon="7.8842545"><ele>304.0</ele><time>2026-05-02T11:10:57.638Z</time></trkpt><trkpt lat="45.0529303" lon="7.8843805"><ele>304.0</ele><time>2026-05-02T11:10:58.639Z</time></trkpt><trkpt lat="45.0529189" lon="7.8845099"><ele>304.0</ele><time>2026-05-02T11:10:59.639Z</time></trkpt><trkpt lat="45.0529109" lon="7.8846445"><ele>303.0</ele><time>2026-05-02T11:11:00.638Z</time></trkpt><trkpt lat="45.0529039" lon="7.8847861"><ele>302.0</ele><time>2026-05-02T11:11:01.638Z</time></trkpt><trkpt lat="45.0528878" lon="7.8849294"><ele>301.0</ele><time>2026-05-02T11:11:02.639Z</time></trkpt><trkpt lat="45.0528616" lon="7.8850807"><ele>300.0</ele><time>2026-05-02T11:11:03.638Z</time></trkpt><trkpt lat="45.0528354" lon="7.8852242"><ele>299.0</ele><time>2026-05-02T11:11:04.639Z</time></trkpt><trkpt lat="45.0528145" lon="7.8853639"><ele>297.59999999999997</ele><time>2026-05-02T11:11:05.639Z</time></trkpt><trkpt lat="45.0527949" lon="7.8855052"><ele>296.2</ele><time>2026-05-02T11:11:06.638Z</time></trkpt><trkpt lat="45.0527826" lon="7.8856466"><ele>294.79999999999995</ele><time>2026-05-02T11:11:07.639Z</time></trkpt><trkpt lat="45.0527757" lon="7.8857718"><ele>293.4</ele><time>2026-05-02T11:11:08.639Z</time></trkpt><trkpt lat="45.0527701" lon="7.8858874"><ele>292.0</ele><time>2026-05-02T11:11:09.639Z</time></trkpt><trkpt lat="45.0527626" lon="7.886009"><ele>291.6</ele><time>2026-05-02T11:11:10.639Z</time></trkpt><trkpt lat="45.0527468" lon="7.8861277"><ele>291.2</ele><time>2026-05-02T11:11:11.638Z</time></trkpt><trkpt lat="45.0527291" lon="7.8862367"><ele>290.8</ele><time>2026-05-02T11:11:12.639Z</time></trkpt><trkpt lat="45.0527121" lon="7.8863943"><ele>290.4</ele><time>2026-05-02T11:11:14.638Z</time></trkpt><trkpt lat="45.0527197" lon="7.8865079"><ele>290.0</ele><time>2026-05-02T11:11:16.639Z</time></trkpt><trkpt lat="45.0527984" lon="7.886633"><ele>290.0</ele><time>2026-05-02T11:11:18.639Z</time></trkpt><trkpt lat="45.0528762" lon="7.8867102"><ele>290.0</ele><time>2026-05-02T11:11:19.639Z</time></trkpt><trkpt lat="45.05297" lon="7.8868052"><ele>290.0</ele><time>2026-05-02T11:11:20.639Z</time></trkpt><trkpt lat="45.0530853" lon="7.8869143"><ele>290.0</ele><time>2026-05-02T11:11:21.638Z</time></trkpt><trkpt lat="45.0532126" lon="7.8870253"><ele>290.6666666666667</ele><time>2026-05-02T11:11:22.639Z</time></trkpt><trkpt lat="45.0533462" lon="7.8871368"><ele>291.3333333333333</ele><time>2026-05-02T11:11:23.638Z</time></trkpt><trkpt lat="45.0534842" lon="7.8872613"><ele>292.0</ele><time>2026-05-02T11:11:24.638Z</time></trkpt><trkpt lat="45.0536208" lon="7.8873944"><ele>292.0</ele><time>2026-05-02T11:11:25.639Z</time></trkpt><trkpt lat="45.0537396" lon="7.887509"><ele>292.0</ele><time>2026-05-02T11:11:26.639Z</time></trkpt><trkpt lat="45.0538389" lon="7.8876031"><ele>292.0</ele><time>2026-05-02T11:11:27.639Z</time></trkpt><trkpt lat="45.0539138" lon="7.8876752"><ele>292.0</ele><time>2026-05-02T11:11:28.639Z</time></trkpt><trkpt lat="45.0539487" lon="7.8877616"><ele>292.0</ele><time>2026-05-02T11:11:30.639Z</time></trkpt><trkpt lat="45.053907" lon="7.887875"><ele>292.0</ele><time>2026-05-02T11:11:32.638Z</time></trkpt><trkpt lat="45.0538595" lon="7.8879615"><ele>292.0</ele><time>2026-05-02T11:11:33.638Z</time></trkpt><trkpt lat="45.053806" lon="7.8880529"><ele>292.0</ele><time>2026-05-02T11:11:34.638Z</time></trkpt><trkpt lat="45.0537393" lon="7.8881706"><ele>292.0</ele><time>2026-05-02T11:11:35.638Z</time></trkpt><trkpt lat="45.0536706" lon="7.888306"><ele>292.0</ele><time>2026-05-02T11:11:36.638Z</time></trkpt><trkpt lat="45.0535975" lon="7.8884684"><ele>292.0</ele><time>2026-05-02T11:11:37.639Z</time></trkpt><trkpt lat="45.0535309" lon="7.8886206"><ele>292.0</ele><time>2026-05-02T11:11:38.639Z</time></trkpt><trkpt lat="45.0534635" lon="7.8887751"><ele>292.0</ele><time>2026-05-02T11:11:39.639Z</time></trkpt><trkpt lat="45.0534144" lon="7.8889034"><ele>292.0</ele><time>2026-05-02T11:11:40.639Z</time></trkpt><trkpt lat="45.053373" lon="7.8890214"><ele>292.0</ele><time>2026-05-02T11:11:41.639Z</time></trkpt><trkpt lat="45.0533298" lon="7.8891322"><ele>292.0</ele><time>2026-05-02T11:11:42.639Z</time></trkpt><trkpt lat="45.0532881" lon="7.8892313"><ele>292.0</ele><time>2026-05-02T11:11:43.639Z</time></trkpt><trkpt lat="45.0532467" lon="7.8893306"><ele>292.0</ele><time>2026-05-02T11:11:44.639Z</time></trkpt><trkpt lat="45.0532096" lon="7.8894124"><ele>292.0</ele><time>2026-05-02T11:11:45.639Z</time></trkpt><trkpt lat="45.0531499" lon="7.8895178"><ele>292.0</ele><time>2026-05-02T11:11:47.639Z</time></trkpt><trkpt lat="45.0531731" lon="7.8896617"><ele>291.8</ele><time>2026-05-02T11:11:51.639Z</time></trkpt><trkpt lat="45.0532579" lon="7.8897424"><ele>291.6</ele><time>2026-05-02T11:11:52.639Z</time></trkpt><trkpt lat="45.0533446" lon="7.8898319"><ele>291.40000000000003</ele><time>2026-05-02T11:11:53.639Z</time></trkpt><trkpt lat="45.053429" lon="7.8899307"><ele>291.2</ele><time>2026-05-02T11:11:54.639Z</time></trkpt><trkpt lat="45.0535177" lon="7.8900411"><ele>291.0</ele><time>2026-05-02T11:11:55.639Z</time></trkpt><trkpt lat="45.0536015" lon="7.8901467"><ele>293.40000000000003</ele><time>2026-05-02T11:11:56.638Z</time></trkpt><trkpt lat="45.0536864" lon="7.8902564"><ele>295.8</ele><time>2026-05-02T11:11:57.639Z</time></trkpt><trkpt lat="45.0537719" lon="7.8903572"><ele>298.20000000000005</ele><time>2026-05-02T11:11:58.639Z</time></trkpt><trkpt lat="45.0538556" lon="7.8904335"><ele>300.6</ele><time>2026-05-02T11:11:59.638Z</time></trkpt><trkpt lat="45.0539391" lon="7.890498"><ele>303.0</ele><time>2026-05-02T11:12:00.638Z</time></trkpt><trkpt lat="45.0540192" lon="7.8905605"><ele>303.0</ele><time>2026-05-02T11:12:01.639Z</time></trkpt><trkpt lat="45.0540995" lon="7.8906271"><ele>303.0</ele><time>2026-05-02T11:12:02.639Z</time></trkpt><trkpt lat="45.0541804" lon="7.8907025"><ele>303.0</ele><time>2026-05-02T11:12:03.639Z</time></trkpt><trkpt lat="45.0542504" lon="7.890801"><ele>303.0</ele><time>2026-05-02T11:12:04.639Z</time></trkpt><trkpt lat="45.0543221" lon="7.8909065"><ele>303.0</ele><time>2026-05-02T11:12:05.639Z</time></trkpt><trkpt lat="45.0543923" lon="7.8910234"><ele>305.2</ele><time>2026-05-02T11:12:06.639Z</time></trkpt><trkpt lat="45.0544553" lon="7.8911419"><ele>307.4</ele><time>2026-05-02T11:12:07.639Z</time></trkpt><trkpt lat="45.0545142" lon="7.8912646"><ele>309.59999999999997</ele><time>2026-05-02T11:12:08.638Z</time></trkpt><trkpt lat="45.0545717" lon="7.8913928"><ele>311.8</ele><time>2026-05-02T11:12:09.639Z</time></trkpt><trkpt lat="45.0546202" lon="7.891521"><ele>314.0</ele><time>2026-05-02T11:12:10.639Z</time></trkpt><trkpt lat="45.0546663" lon="7.8916447"><ele>314.0</ele><time>2026-05-02T11:12:11.639Z</time></trkpt><trkpt lat="45.0547108" lon="7.8917556"><ele>314.0</ele><time>2026-05-02T11:12:12.639Z</time></trkpt><trkpt lat="45.0547478" lon="7.8918522"><ele>314.0</ele><time>2026-05-02T11:12:13.639Z</time></trkpt><trkpt lat="45.054772" lon="7.891956"><ele>314.0</ele><time>2026-05-02T11:12:14.639Z</time></trkpt><trkpt lat="45.0547825" lon="7.8920698"><ele>314.0</ele><time>2026-05-02T11:12:15.639Z</time></trkpt><trkpt lat="45.0547852" lon="7.8921852"><ele>314.0</ele><time>2026-05-02T11:12:16.639Z</time></trkpt><trkpt lat="45.0547644" lon="7.8923156"><ele>315.33333333333337</ele><time>2026-05-02T11:12:17.639Z</time></trkpt><trkpt lat="45.0547187" lon="7.8924481"><ele>316.6666666666667</ele><time>2026-05-02T11:12:18.638Z</time></trkpt><trkpt lat="45.0546864" lon="7.8925713"><ele>318.0</ele><time>2026-05-02T11:12:19.639Z</time></trkpt><trkpt lat="45.0546573" lon="7.8926851"><ele>319.3333333333333</ele><time>2026-05-02T11:12:20.638Z</time></trkpt><trkpt lat="45.0546358" lon="7.8927941"><ele>320.66666666666663</ele><time>2026-05-02T11:12:21.639Z</time></trkpt><trkpt lat="45.0546291" lon="7.8929104"><ele>322.0</ele><time>2026-05-02T11:12:22.64Z</time></trkpt><trkpt lat="45.0546264" lon="7.893022"><ele>323.16666666666663</ele><time>2026-05-02T11:12:23.64Z</time></trkpt><trkpt lat="45.0546306" lon="7.893137"><ele>324.3333333333333</ele><time>2026-05-02T11:12:24.639Z</time></trkpt><trkpt lat="45.0546417" lon="7.8932481"><ele>325.5</ele><time>2026-05-02T11:12:25.64Z</time></trkpt><trkpt lat="45.0546611" lon="7.8933495"><ele>326.6666666666667</ele><time>2026-05-02T11:12:26.64Z</time></trkpt><trkpt lat="45.0546901" lon="7.893435"><ele>327.83333333333337</ele><time>2026-05-02T11:12:27.639Z</time></trkpt><trkpt lat="45.0547445" lon="7.8935447"><ele>329.0</ele><time>2026-05-02T11:12:29.64Z</time></trkpt><trkpt lat="45.0548115" lon="7.8936216"><ele>330.1666666666667</ele><time>2026-05-02T11:12:31.64Z</time></trkpt><trkpt lat="45.0548874" lon="7.8937129"><ele>331.33333333333337</ele><time>2026-05-02T11:12:33.64Z</time></trkpt><trkpt lat="45.0549544" lon="7.8938136"><ele>332.5</ele><time>2026-05-02T11:12:35.639Z</time></trkpt><trkpt lat="45.055007" lon="7.8938982"><ele>333.6666666666667</ele><time>2026-05-02T11:12:36.64Z</time></trkpt><trkpt lat="45.0550606" lon="7.8939726"><ele>334.8333333333333</ele><time>2026-05-02T11:12:37.64Z</time></trkpt><trkpt lat="45.0551149" lon="7.8940346"><ele>336.0</ele><time>2026-05-02T11:12:38.64Z</time></trkpt><trkpt lat="45.0551731" lon="7.8940922"><ele>336.0</ele><time>2026-05-02T11:12:39.64Z</time></trkpt><trkpt lat="45.0552316" lon="7.8941442"><ele>336.0</ele><time>2026-05-02T11:12:40.64Z</time></trkpt><trkpt lat="45.0552922" lon="7.8942029"><ele>336.0</ele><time>2026-05-02T11:12:41.639Z</time></trkpt><trkpt lat="45.0553504" lon="7.8942723"><ele>336.0</ele><time>2026-05-02T11:12:42.639Z</time></trkpt><trkpt lat="45.0553932" lon="7.8943581"><ele>336.0</ele><time>2026-05-02T11:12:43.64Z</time></trkpt><trkpt lat="45.0554188" lon="7.8944505"><ele>336.0</ele><time>2026-05-02T11:12:44.64Z</time></trkpt><trkpt lat="45.0554585" lon="7.8946256"><ele>336.5</ele><time>2026-05-02T11:12:46.639Z</time></trkpt><trkpt lat="45.0554866" lon="7.894711"><ele>337.0</ele><time>2026-05-02T11:12:47.64Z</time></trkpt><trkpt lat="45.0555284" lon="7.8948104"><ele>337.5</ele><time>2026-05-02T11:12:48.64Z</time></trkpt><trkpt lat="45.0555844" lon="7.8949148"><ele>338.0</ele><time>2026-05-02T11:12:49.64Z</time></trkpt><trkpt lat="45.0556361" lon="7.8950072"><ele>338.5</ele><time>2026-05-02T11:12:50.639Z</time></trkpt><trkpt lat="45.0556904" lon="7.8950813"><ele>339.0</ele><time>2026-05-02T11:12:51.64Z</time></trkpt><trkpt lat="45.055737" lon="7.8951458"><ele>339.5</ele><time>2026-05-02T11:12:52.64Z</time></trkpt><trkpt lat="45.0558062" lon="7.8952515"><ele>340.0</ele><time>2026-05-02T11:12:54.64Z</time></trkpt><trkpt lat="45.055894" lon="7.8953532"><ele>340.5</ele><time>2026-05-02T11:12:56.64Z</time></trkpt><trkpt lat="45.0559595" lon="7.8954167"><ele>341.0</ele><time>2026-05-02T11:12:57.639Z</time></trkpt><trkpt lat="45.0560133" lon="7.8954697"><ele>341.5</ele><time>2026-05-02T11:12:58.64Z</time></trkpt><trkpt lat="45.0560664" lon="7.8955177"><ele>342.0</ele><time>2026-05-02T11:12:59.64Z</time></trkpt><trkpt lat="45.056123" lon="7.8955695"><ele>342.0</ele><time>2026-05-02T11:13:00.64Z</time></trkpt><trkpt lat="45.0561788" lon="7.895628"><ele>342.0</ele><time>2026-05-02T11:13:01.64Z</time></trkpt><trkpt lat="45.0562326" lon="7.8956906"><ele>342.0</ele><time>2026-05-02T11:13:02.64Z</time></trkpt><trkpt lat="45.0562896" lon="7.8957668"><ele>342.0</ele><time>2026-05-02T11:13:03.64Z</time></trkpt><trkpt lat="45.0563345" lon="7.8958351"><ele>342.0</ele><time>2026-05-02T11:13:04.639Z</time></trkpt><trkpt lat="45.0564124" lon="7.8959687"><ele>342.0</ele><time>2026-05-02T11:13:06.639Z</time></trkpt><trkpt lat="45.0564683" lon="7.896075"><ele>341.6</ele><time>2026-05-02T11:13:08.639Z</time></trkpt><trkpt lat="45.0565211" lon="7.8962267"><ele>341.20000000000005</ele><time>2026-05-02T11:13:11.64Z</time></trkpt><trkpt lat="45.0565512" lon="7.8963262"><ele>340.8</ele><time>2026-05-02T11:13:12.64Z</time></trkpt><trkpt lat="45.0566048" lon="7.8964386"><ele>340.4</ele><time>2026-05-02T11:13:13.64Z</time></trkpt><trkpt lat="45.0566798" lon="7.8965428"><ele>340.0</ele><time>2026-05-02T11:13:14.64Z</time></trkpt><trkpt lat="45.05676" lon="7.8966381"><ele>340.0</ele><time>2026-05-02T11:13:15.639Z</time></trkpt><trkpt lat="45.0568305" lon="7.8967319"><ele>340.0</ele><time>2026-05-02T11:13:16.64Z</time></trkpt><trkpt lat="45.0568839" lon="7.8968169"><ele>340.0</ele><time>2026-05-02T11:13:17.639Z</time></trkpt><trkpt lat="45.0569174" lon="7.8969027"><ele>340.0</ele><time>2026-05-02T11:13:18.64Z</time></trkpt><trkpt lat="45.0569301" lon="7.8969975"><ele>340.0</ele><time>2026-05-02T11:13:19.64Z</time></trkpt><trkpt lat="45.0569282" lon="7.8971063"><ele>340.0</ele><time>2026-05-02T11:13:20.64Z</time></trkpt><trkpt lat="45.0569055" lon="7.8972208"><ele>340.6</ele><time>2026-05-02T11:13:21.639Z</time></trkpt><trkpt lat="45.0568777" lon="7.8973328"><ele>341.2</ele><time>2026-05-02T11:13:22.639Z</time></trkpt><trkpt lat="45.0568578" lon="7.8974585"><ele>341.79999999999995</ele><time>2026-05-02T11:13:23.64Z</time></trkpt><trkpt lat="45.0568537" lon="7.8975942"><ele>342.4</ele><time>2026-05-02T11:13:24.639Z</time></trkpt><trkpt lat="45.0568612" lon="7.8977229"><ele>343.0</ele><time>2026-05-02T11:13:25.64Z</time></trkpt><trkpt lat="45.0568759" lon="7.8978524"><ele>343.66666666666663</ele><time>2026-05-02T11:13:26.64Z</time></trkpt><trkpt lat="45.0569029" lon="7.8979729"><ele>344.3333333333333</ele><time>2026-05-02T11:13:27.64Z</time></trkpt><trkpt lat="45.0569406" lon="7.898083"><ele>345.0</ele><time>2026-05-02T11:13:28.64Z</time></trkpt><trkpt lat="45.0569835" lon="7.8981845"><ele>345.6666666666667</ele><time>2026-05-02T11:13:29.64Z</time></trkpt><trkpt lat="45.0570303" lon="7.8982976"><ele>346.33333333333337</ele><time>2026-05-02T11:13:30.639Z</time></trkpt><trkpt lat="45.0570862" lon="7.8984053"><ele>347.0</ele><time>2026-05-02T11:13:31.639Z</time></trkpt><trkpt lat="45.0571464" lon="7.8985087"><ele>347.5</ele><time>2026-05-02T11:13:32.64Z</time></trkpt><trkpt lat="45.0572102" lon="7.8986084"><ele>348.0</ele><time>2026-05-02T11:13:33.639Z</time></trkpt><trkpt lat="45.0572618" lon="7.8987074"><ele>348.5</ele><time>2026-05-02T11:13:34.64Z</time></trkpt><trkpt lat="45.0572929" lon="7.8988057"><ele>349.0</ele><time>2026-05-02T11:13:35.64Z</time></trkpt><trkpt lat="45.0572986" lon="7.8989036"><ele>349.5</ele><time>2026-05-02T11:13:36.64Z</time></trkpt><trkpt lat="45.0572956" lon="7.8990037"><ele>350.0</ele><time>2026-05-02T11:13:37.64Z</time></trkpt><trkpt lat="45.0572904" lon="7.8991568"><ele>348.8</ele><time>2026-05-02T11:13:39.64Z</time></trkpt><trkpt lat="45.057286" lon="7.899301"><ele>347.6</ele><time>2026-05-02T11:13:41.64Z</time></trkpt><trkpt lat="45.0572833" lon="7.8994245"><ele>346.4</ele><time>2026-05-02T11:13:42.639Z</time></trkpt><trkpt lat="45.0572736" lon="7.8995711"><ele>345.2</ele><time>2026-05-02T11:13:43.64Z</time></trkpt><trkpt lat="45.0572555" lon="7.8997316"><ele>344.0</ele><time>2026-05-02T11:13:44.64Z</time></trkpt><trkpt lat="45.0572379" lon="7.8998786"><ele>344.0</ele><time>2026-05-02T11:13:45.64Z</time></trkpt><trkpt lat="45.0572233" lon="7.9000023"><ele>344.0</ele><time>2026-05-02T11:13:46.64Z</time></trkpt><trkpt lat="45.0572119" lon="7.9000938"><ele>344.0</ele><time>2026-05-02T11:13:47.64Z</time></trkpt><trkpt lat="45.0572589" lon="7.9001845"><ele>344.0</ele><time>2026-05-02T11:13:52.64Z</time></trkpt><trkpt lat="45.0573776" lon="7.9002041"><ele>344.0</ele><time>2026-05-02T11:13:54.64Z</time></trkpt><trkpt lat="45.0574761" lon="7.9001949"><ele>342.79999999999995</ele><time>2026-05-02T11:13:56.64Z</time></trkpt><trkpt lat="45.0574149" lon="7.9002406"><ele>341.59999999999997</ele><time>2026-05-02T11:13:59.64Z</time></trkpt><trkpt lat="45.057326" lon="7.900292"><ele>340.4</ele><time>2026-05-02T11:14:01.64Z</time></trkpt><trkpt lat="45.0572461" lon="7.9004042"><ele>339.2</ele><time>2026-05-02T11:14:03.64Z</time></trkpt><trkpt lat="45.0572284" lon="7.9005904"><ele>338.0</ele><time>2026-05-02T11:14:05.639Z</time></trkpt><trkpt lat="45.0572452" lon="7.9007172"><ele>338.0</ele><time>2026-05-02T11:14:06.64Z</time></trkpt><trkpt lat="45.0572779" lon="7.9008557"><ele>338.0</ele><time>2026-05-02T11:14:07.639Z</time></trkpt><trkpt lat="45.0573127" lon="7.9010013"><ele>338.0</ele><time>2026-05-02T11:14:08.639Z</time></trkpt><trkpt lat="45.0573613" lon="7.9011471"><ele>338.0</ele><time>2026-05-02T11:14:09.64Z</time></trkpt><trkpt lat="45.0574064" lon="7.9012943"><ele>338.0</ele><time>2026-05-02T11:14:10.64Z</time></trkpt><trkpt lat="45.0574383" lon="7.901446"><ele>336.79999999999995</ele><time>2026-05-02T11:14:11.639Z</time></trkpt><trkpt lat="45.0574522" lon="7.9015937"><ele>335.6</ele><time>2026-05-02T11:14:12.64Z</time></trkpt><trkpt lat="45.0574569" lon="7.9017487"><ele>334.4</ele><time>2026-05-02T11:14:13.639Z</time></trkpt><trkpt lat="45.0574665" lon="7.9019061"><ele>333.20000000000005</ele><time>2026-05-02T11:14:14.64Z</time></trkpt><trkpt lat="45.0574886" lon="7.902048"><ele>332.0</ele><time>2026-05-02T11:14:15.64Z</time></trkpt><trkpt lat="45.0575207" lon="7.9022237"><ele>331.5</ele><time>2026-05-02T11:14:16.64Z</time></trkpt><trkpt lat="45.0575635" lon="7.902415"><ele>331.0</ele><time>2026-05-02T11:14:17.639Z</time></trkpt><trkpt lat="45.0576049" lon="7.9026042"><ele>330.5</ele><time>2026-05-02T11:14:18.64Z</time></trkpt><trkpt lat="45.0576412" lon="7.9027807"><ele>330.0</ele><time>2026-05-02T11:14:19.639Z</time></trkpt><trkpt lat="45.0576727" lon="7.90295"><ele>329.0</ele><time>2026-05-02T11:14:20.64Z</time></trkpt><trkpt lat="45.057701" lon="7.9031089"><ele>328.0</ele><time>2026-05-02T11:14:21.641Z</time></trkpt><trkpt lat="45.057726" lon="7.9032529"><ele>327.0</ele><time>2026-05-02T11:14:22.641Z</time></trkpt><trkpt lat="45.0577545" lon="7.9033971"><ele>326.0</ele><time>2026-05-02T11:14:23.641Z</time></trkpt><trkpt lat="45.0577863" lon="7.9035465"><ele>325.0</ele><time>2026-05-02T11:14:24.64Z</time></trkpt><trkpt lat="45.0578232" lon="7.9037089"><ele>323.8</ele><time>2026-05-02T11:14:25.641Z</time></trkpt><trkpt lat="45.0578666" lon="7.9038529"><ele>322.6</ele><time>2026-05-02T11:14:26.641Z</time></trkpt><trkpt lat="45.0579093" lon="7.9039834"><ele>321.4</ele><time>2026-05-02T11:14:27.641Z</time></trkpt><trkpt lat="45.0579422" lon="7.9040821"><ele>320.2</ele><time>2026-05-02T11:14:28.641Z</time></trkpt><trkpt lat="45.0579793" lon="7.9042156"><ele>319.0</ele><time>2026-05-02T11:14:30.64Z</time></trkpt><trkpt lat="45.0580054" lon="7.90432"><ele>318.16666666666663</ele><time>2026-05-02T11:14:32.64Z</time></trkpt><trkpt lat="45.0580502" lon="7.9043934"><ele>317.3333333333333</ele><time>2026-05-02T11:14:34.641Z</time></trkpt><trkpt lat="45.0581158" lon="7.9044267"><ele>316.5</ele><time>2026-05-02T11:14:38.641Z</time></trkpt><trkpt lat="45.0581783" lon="7.9045157"><ele>315.6666666666667</ele><time>2026-05-02T11:14:40.641Z</time></trkpt><trkpt lat="45.0581945" lon="7.9046705"><ele>314.83333333333337</ele><time>2026-05-02T11:14:42.641Z</time></trkpt><trkpt lat="45.0582107" lon="7.9047927"><ele>314.0</ele><time>2026-05-02T11:14:44.641Z</time></trkpt><trkpt lat="45.058279" lon="7.9049422"><ele>313.83333333333337</ele><time>2026-05-02T11:14:46.641Z</time></trkpt><trkpt lat="45.0583293" lon="7.9050471"><ele>313.6666666666667</ele><time>2026-05-02T11:14:47.641Z</time></trkpt><trkpt lat="45.0583782" lon="7.9051499"><ele>313.5</ele><time>2026-05-02T11:14:48.641Z</time></trkpt><trkpt lat="45.0584287" lon="7.9052371"><ele>313.3333333333333</ele><time>2026-05-02T11:14:49.641Z</time></trkpt><trkpt lat="45.0584864" lon="7.9053161"><ele>313.16666666666663</ele><time>2026-05-02T11:14:50.641Z</time></trkpt><trkpt lat="45.0585312" lon="7.9053878"><ele>313.0</ele><time>2026-05-02T11:14:51.64Z</time></trkpt><trkpt lat="45.058564" lon="7.9054688"><ele>313.0</ele><time>2026-05-02T11:14:52.641Z</time></trkpt><trkpt lat="45.058587" lon="7.9055659"><ele>313.0</ele><time>2026-05-02T11:14:53.641Z</time></trkpt><trkpt lat="45.0585975" lon="7.9056632"><ele>313.0</ele><time>2026-05-02T11:14:54.641Z</time></trkpt><trkpt lat="45.0586089" lon="7.9057644"><ele>313.0</ele><time>2026-05-02T11:14:55.64Z</time></trkpt><trkpt lat="45.0586198" lon="7.9058696"><ele>313.0</ele><time>2026-05-02T11:14:56.64Z</time></trkpt><trkpt lat="45.0586338" lon="7.9059866"><ele>313.0</ele><time>2026-05-02T11:14:57.641Z</time></trkpt><trkpt lat="45.0586577" lon="7.9060928"><ele>313.3333333333333</ele><time>2026-05-02T11:14:58.641Z</time></trkpt><trkpt lat="45.0586887" lon="7.9061977"><ele>313.66666666666663</ele><time>2026-05-02T11:14:59.641Z</time></trkpt><trkpt lat="45.0587245" lon="7.9063026"><ele>314.0</ele><time>2026-05-02T11:15:00.641Z</time></trkpt><trkpt lat="45.0587622" lon="7.9063938"><ele>314.3333333333333</ele><time>2026-05-02T11:15:01.64Z</time></trkpt><trkpt lat="45.0588011" lon="7.9064756"><ele>314.6666666666667</ele><time>2026-05-02T11:15:02.64Z</time></trkpt><trkpt lat="45.0588506" lon="7.9065677"><ele>315.0</ele><time>2026-05-02T11:15:03.64Z</time></trkpt><trkpt lat="45.0588881" lon="7.9066705"><ele>315.5</ele><time>2026-05-02T11:15:04.641Z</time></trkpt><trkpt lat="45.0589079" lon="7.9067875"><ele>316.0</ele><time>2026-05-02T11:15:05.641Z</time></trkpt><trkpt lat="45.0589212" lon="7.9069047"><ele>316.5</ele><time>2026-05-02T11:15:06.641Z</time></trkpt><trkpt lat="45.0589308" lon="7.9070185"><ele>317.0</ele><time>2026-05-02T11:15:07.64Z</time></trkpt><trkpt lat="45.0589352" lon="7.9071233"><ele>317.5</ele><time>2026-05-02T11:15:08.641Z</time></trkpt><trkpt lat="45.0589399" lon="7.9072211"><ele>318.0</ele><time>2026-05-02T11:15:09.641Z</time></trkpt><trkpt lat="45.0589496" lon="7.9073116"><ele>318.0</ele><time>2026-05-02T11:15:10.641Z</time></trkpt><trkpt lat="45.0589717" lon="7.9073992"><ele>318.0</ele><time>2026-05-02T11:15:11.641Z</time></trkpt><trkpt lat="45.0590108" lon="7.9074892"><ele>318.0</ele><time>2026-05-02T11:15:12.641Z</time></trkpt><trkpt lat="45.0590719" lon="7.9075829"><ele>318.0</ele><time>2026-05-02T11:15:13.641Z</time></trkpt><trkpt lat="45.0591418" lon="7.9076687"><ele>318.0</ele><time>2026-05-02T11:15:14.641Z</time></trkpt><trkpt lat="45.0592154" lon="7.9077481"><ele>318.0</ele><time>2026-05-02T11:15:15.641Z</time></trkpt><trkpt lat="45.059286" lon="7.9078391"><ele>320.4</ele><time>2026-05-02T11:15:16.64Z</time></trkpt><trkpt lat="45.0593555" lon="7.9079362"><ele>322.8</ele><time>2026-05-02T11:15:17.641Z</time></trkpt><trkpt lat="45.059415" lon="7.90804"><ele>325.2</ele><time>2026-05-02T11:15:18.64Z</time></trkpt><trkpt lat="45.059468" lon="7.9081491"><ele>327.6</ele><time>2026-05-02T11:15:19.64Z</time></trkpt><trkpt lat="45.0595212" lon="7.9082639"><ele>330.0</ele><time>2026-05-02T11:15:20.641Z</time></trkpt><trkpt lat="45.0595713" lon="7.9083756"><ele>330.8333333333333</ele><time>2026-05-02T11:15:21.641Z</time></trkpt><trkpt lat="45.0596174" lon="7.9084826"><ele>331.6666666666667</ele><time>2026-05-02T11:15:22.641Z</time></trkpt><trkpt lat="45.0596577" lon="7.9085773"><ele>332.5</ele><time>2026-05-02T11:15:23.641Z</time></trkpt><trkpt lat="45.0596941" lon="7.9086664"><ele>333.33333333333337</ele><time>2026-05-02T11:15:24.64Z</time></trkpt><trkpt lat="45.0597314" lon="7.9087644"><ele>334.1666666666667</ele><time>2026-05-02T11:15:25.64Z</time></trkpt><trkpt lat="45.0597755" lon="7.908878"><ele>335.0</ele><time>2026-05-02T11:15:26.641Z</time></trkpt><trkpt lat="45.0598179" lon="7.9089847"><ele>335.0</ele><time>2026-05-02T11:15:27.64Z</time></trkpt><trkpt lat="45.0598642" lon="7.9090903"><ele>335.0</ele><time>2026-05-02T11:15:28.641Z</time></trkpt><trkpt lat="45.0599077" lon="7.9091843"><ele>335.0</ele><time>2026-05-02T11:15:29.64Z</time></trkpt><trkpt lat="45.0599489" lon="7.9092773"><ele>335.0</ele><time>2026-05-02T11:15:30.641Z</time></trkpt><trkpt lat="45.059985" lon="7.9093783"><ele>335.0</ele><time>2026-05-02T11:15:31.641Z</time></trkpt><trkpt lat="45.0600129" lon="7.9094834"><ele>335.0</ele><time>2026-05-02T11:15:32.641Z</time></trkpt><trkpt lat="45.0600298" lon="7.9095853"><ele>338.8</ele><time>2026-05-02T11:15:33.641Z</time></trkpt><trkpt lat="45.0600333" lon="7.9096752"><ele>342.6</ele><time>2026-05-02T11:15:34.64Z</time></trkpt><trkpt lat="45.0600436" lon="7.9098456"><ele>346.4</ele><time>2026-05-02T11:15:36.64Z</time></trkpt><trkpt lat="45.0600521" lon="7.9100035"><ele>350.2</ele><time>2026-05-02T11:15:38.641Z</time></trkpt><trkpt lat="45.0600957" lon="7.9101585"><ele>354.0</ele><time>2026-05-02T11:15:40.641Z</time></trkpt><trkpt lat="45.0601496" lon="7.9103068"><ele>355.1666666666667</ele><time>2026-05-02T11:15:42.64Z</time></trkpt><trkpt lat="45.0602109" lon="7.9104467"><ele>356.3333333333333</ele><time>2026-05-02T11:15:44.641Z</time></trkpt><trkpt lat="45.0602527" lon="7.910533"><ele>357.5</ele><time>2026-05-02T11:15:46.641Z</time></trkpt><trkpt lat="45.0603051" lon="7.9106319"><ele>358.66666666666663</ele><time>2026-05-02T11:15:49.641Z</time></trkpt><trkpt lat="45.0603552" lon="7.9106948"><ele>359.8333333333333</ele><time>2026-05-02T11:15:51.641Z</time></trkpt><trkpt lat="45.0604271" lon="7.9106869"><ele>361.0</ele><time>2026-05-02T11:15:53.641Z</time></trkpt><trkpt lat="45.0605387" lon="7.9106164"><ele>361.0</ele><time>2026-05-02T11:15:55.641Z</time></trkpt><trkpt lat="45.0606225" lon="7.9105777"><ele>361.0</ele><time>2026-05-02T11:15:56.641Z</time></trkpt><trkpt lat="45.0607109" lon="7.9105571"><ele>361.0</ele><time>2026-05-02T11:15:57.641Z</time></trkpt><trkpt lat="45.0608034" lon="7.9105475"><ele>361.0</ele><time>2026-05-02T11:15:58.64Z</time></trkpt><trkpt lat="45.0608874" lon="7.9105271"><ele>361.0</ele><time>2026-05-02T11:15:59.641Z</time></trkpt><trkpt lat="45.060967" lon="7.910496"><ele>361.0</ele><time>2026-05-02T11:16:00.641Z</time></trkpt><trkpt lat="45.0610544" lon="7.9104595"><ele>362.4</ele><time>2026-05-02T11:16:01.64Z</time></trkpt><trkpt lat="45.0611449" lon="7.9104188"><ele>363.8</ele><time>2026-05-02T11:16:02.641Z</time></trkpt><trkpt lat="45.0612377" lon="7.9103812"><ele>365.2</ele><time>2026-05-02T11:16:03.64Z</time></trkpt><trkpt lat="45.0613301" lon="7.9103594"><ele>366.59999999999997</ele><time>2026-05-02T11:16:04.64Z</time></trkpt><trkpt lat="45.0614309" lon="7.9103567"><ele>368.0</ele><time>2026-05-02T11:16:05.641Z</time></trkpt><trkpt lat="45.061531" lon="7.9103698"><ele>368.83333333333337</ele><time>2026-05-02T11:16:06.641Z</time></trkpt><trkpt lat="45.0616252" lon="7.9103834"><ele>369.6666666666667</ele><time>2026-05-02T11:16:07.641Z</time></trkpt><trkpt lat="45.0617008" lon="7.9103783"><ele>370.5</ele><time>2026-05-02T11:16:08.64Z</time></trkpt><trkpt lat="45.0618042" lon="7.9103372"><ele>371.3333333333333</ele><time>2026-05-02T11:16:10.64Z</time></trkpt><trkpt lat="45.0618684" lon="7.9103232"><ele>372.16666666666663</ele><time>2026-05-02T11:16:11.64Z</time></trkpt><trkpt lat="45.0619429" lon="7.9103398"><ele>373.0</ele><time>2026-05-02T11:16:12.641Z</time></trkpt><trkpt lat="45.0620049" lon="7.9103879"><ele>373.0</ele><time>2026-05-02T11:16:13.64Z</time></trkpt><trkpt lat="45.0620725" lon="7.9104795"><ele>373.0</ele><time>2026-05-02T11:16:14.64Z</time></trkpt><trkpt lat="45.0621465" lon="7.9106048"><ele>373.0</ele><time>2026-05-02T11:16:15.642Z</time></trkpt><trkpt lat="45.0622324" lon="7.9107158"><ele>373.0</ele><time>2026-05-02T11:16:16.642Z</time></trkpt><trkpt lat="45.0623205" lon="7.9107975"><ele>373.0</ele><time>2026-05-02T11:16:17.642Z</time></trkpt><trkpt lat="45.0624023" lon="7.9108777"><ele>372.5</ele><time>2026-05-02T11:16:18.642Z</time></trkpt><trkpt lat="45.0624781" lon="7.9109819"><ele>372.0</ele><time>2026-05-02T11:16:19.642Z</time></trkpt><trkpt lat="45.062556" lon="7.9111121"><ele>371.5</ele><time>2026-05-02T11:16:20.641Z</time></trkpt><trkpt lat="45.0626388" lon="7.9112633"><ele>371.0</ele><time>2026-05-02T11:16:21.641Z</time></trkpt><trkpt lat="45.0627285" lon="7.9114289"><ele>371.0</ele><time>2026-05-02T11:16:22.641Z</time></trkpt><trkpt lat="45.0628133" lon="7.9115928"><ele>371.0</ele><time>2026-05-02T11:16:23.642Z</time></trkpt><trkpt lat="45.0628869" lon="7.9117534"><ele>371.0</ele><time>2026-05-02T11:16:24.642Z</time></trkpt><trkpt lat="45.0629414" lon="7.9119208"><ele>371.0</ele><time>2026-05-02T11:16:25.641Z</time></trkpt><trkpt lat="45.0629671" lon="7.9120868"><ele>370.25</ele><time>2026-05-02T11:16:26.642Z</time></trkpt><trkpt lat="45.0629599" lon="7.9122599"><ele>369.5</ele><time>2026-05-02T11:16:27.641Z</time></trkpt><trkpt lat="45.0629161" lon="7.9124403"><ele>368.75</ele><time>2026-05-02T11:16:28.642Z</time></trkpt><trkpt lat="45.062863" lon="7.912618"><ele>368.0</ele><time>2026-05-02T11:16:29.642Z</time></trkpt><trkpt lat="45.0628019" lon="7.912796"><ele>368.0</ele><time>2026-05-02T11:16:30.642Z</time></trkpt><trkpt lat="45.0627288" lon="7.9129503"><ele>368.0</ele><time>2026-05-02T11:16:31.641Z</time></trkpt><trkpt lat="45.0626651" lon="7.9131031"><ele>368.0</ele><time>2026-05-02T11:16:32.642Z</time></trkpt><trkpt lat="45.0626112" lon="7.9132674"><ele>368.0</ele><time>2026-05-02T11:16:33.642Z</time></trkpt><trkpt lat="45.062553" lon="7.913441"><ele>368.6666666666667</ele><time>2026-05-02T11:16:34.642Z</time></trkpt><trkpt lat="45.0624802" lon="7.913616"><ele>369.3333333333333</ele><time>2026-05-02T11:16:35.641Z</time></trkpt><trkpt lat="45.0623991" lon="7.9138001"><ele>370.0</ele><time>2026-05-02T11:16:36.641Z</time></trkpt><trkpt lat="45.0623117" lon="7.9139859"><ele>368.66666666666663</ele><time>2026-05-02T11:16:37.642Z</time></trkpt><trkpt lat="45.0622281" lon="7.9141684"><ele>367.3333333333333</ele><time>2026-05-02T11:16:38.642Z</time></trkpt><trkpt lat="45.0621402" lon="7.914364"><ele>366.0</ele><time>2026-05-02T11:16:39.642Z</time></trkpt><trkpt lat="45.0620469" lon="7.9145735"><ele>366.0</ele><time>2026-05-02T11:16:40.642Z</time></trkpt><trkpt lat="45.0619347" lon="7.9147915"><ele>366.0</ele><time>2026-05-02T11:16:41.642Z</time></trkpt><trkpt lat="45.0618276" lon="7.9150046"><ele>366.0</ele><time>2026-05-02T11:16:42.642Z</time></trkpt><trkpt lat="45.0617268" lon="7.9152054"><ele>367.3333333333333</ele><time>2026-05-02T11:16:43.642Z</time></trkpt><trkpt lat="45.0616381" lon="7.9153961"><ele>368.66666666666663</ele><time>2026-05-02T11:16:44.642Z</time></trkpt><trkpt lat="45.0615613" lon="7.9155843"><ele>370.0</ele><time>2026-05-02T11:16:45.641Z</time></trkpt><trkpt lat="45.0614997" lon="7.9157929"><ele>367.0</ele><time>2026-05-02T11:16:46.641Z</time></trkpt><trkpt lat="45.0614398" lon="7.9160257"><ele>364.0</ele><time>2026-05-02T11:16:47.641Z</time></trkpt><trkpt lat="45.0613744" lon="7.9162797"><ele>361.0</ele><time>2026-05-02T11:16:48.642Z</time></trkpt><trkpt lat="45.0613014" lon="7.9165521"><ele>361.3333333333333</ele><time>2026-05-02T11:16:49.642Z</time></trkpt><trkpt lat="45.0612255" lon="7.9168123"><ele>361.6666666666667</ele><time>2026-05-02T11:16:50.642Z</time></trkpt><trkpt lat="45.0611532" lon="7.9170664"><ele>362.0</ele><time>2026-05-02T11:16:51.642Z</time></trkpt><trkpt lat="45.0610865" lon="7.917323"><ele>363.0</ele><time>2026-05-02T11:16:52.642Z</time></trkpt><trkpt lat="45.0610229" lon="7.917575"><ele>364.0</ele><time>2026-05-02T11:16:53.642Z</time></trkpt><trkpt lat="45.0609633" lon="7.9178139"><ele>365.0</ele><time>2026-05-02T11:16:54.642Z</time></trkpt><trkpt lat="45.0609062" lon="7.9180396"><ele>365.0</ele><time>2026-05-02T11:16:55.642Z</time></trkpt><trkpt lat="45.0608621" lon="7.9182657"><ele>365.0</ele><time>2026-05-02T11:16:56.642Z</time></trkpt><trkpt lat="45.060836" lon="7.9185113"><ele>365.0</ele><time>2026-05-02T11:16:57.642Z</time></trkpt><trkpt lat="45.0608253" lon="7.9187458"><ele>366.75</ele><time>2026-05-02T11:16:58.642Z</time></trkpt><trkpt lat="45.0608195" lon="7.9189585"><ele>368.5</ele><time>2026-05-02T11:16:59.641Z</time></trkpt><trkpt lat="45.0608038" lon="7.9191528"><ele>370.25</ele><time>2026-05-02T11:17:00.641Z</time></trkpt><trkpt lat="45.0607662" lon="7.9193165"><ele>372.0</ele><time>2026-05-02T11:17:01.641Z</time></trkpt><trkpt lat="45.0606904" lon="7.9194853"><ele>368.25</ele><time>2026-05-02T11:17:02.642Z</time></trkpt><trkpt lat="45.0605959" lon="7.9196441"><ele>364.5</ele><time>2026-05-02T11:17:03.642Z</time></trkpt><trkpt lat="45.0604939" lon="7.9197912"><ele>360.75</ele><time>2026-05-02T11:17:04.642Z</time></trkpt><trkpt lat="45.0603858" lon="7.9199035"><ele>357.0</ele><time>2026-05-02T11:17:05.642Z</time></trkpt><trkpt lat="45.0602468" lon="7.919983"><ele>357.0</ele><time>2026-05-02T11:17:06.641Z</time></trkpt><trkpt lat="45.0601135" lon="7.920039"><ele>357.0</ele><time>2026-05-02T11:17:07.642Z</time></trkpt><trkpt lat="45.0600015" lon="7.92011"><ele>357.0</ele><time>2026-05-02T11:17:08.642Z</time></trkpt><trkpt lat="45.0598995" lon="7.9202192"><ele>357.0</ele><time>2026-05-02T11:17:09.642Z</time></trkpt><trkpt lat="45.0598121" lon="7.9203652"><ele>354.5</ele><time>2026-05-02T11:17:10.641Z</time></trkpt><trkpt lat="45.0597392" lon="7.9205319"><ele>352.0</ele><time>2026-05-02T11:17:11.642Z</time></trkpt><trkpt lat="45.0596862" lon="7.9206991"><ele>349.5</ele><time>2026-05-02T11:17:12.642Z</time></trkpt><trkpt lat="45.0596576" lon="7.9208406"><ele>347.0</ele><time>2026-05-02T11:17:13.642Z</time></trkpt><trkpt lat="45.0596532" lon="7.9209839"><ele>345.75</ele><time>2026-05-02T11:17:14.642Z</time></trkpt><trkpt lat="45.0596837" lon="7.9211428"><ele>344.5</ele><time>2026-05-02T11:17:15.641Z</time></trkpt><trkpt lat="45.0597699" lon="7.9212933"><ele>343.25</ele><time>2026-05-02T11:17:16.642Z</time></trkpt><trkpt lat="45.0598874" lon="7.9214585"><ele>342.0</ele><time>2026-05-02T11:17:17.641Z</time></trkpt><trkpt lat="45.0600184" lon="7.9216552"><ele>339.6666666666667</ele><time>2026-05-02T11:17:18.641Z</time></trkpt><trkpt lat="45.0601547" lon="7.9218915"><ele>337.33333333333337</ele><time>2026-05-02T11:17:19.642Z</time></trkpt><trkpt lat="45.0602576" lon="7.9221311"><ele>335.0</ele><time>2026-05-02T11:17:20.642Z</time></trkpt><trkpt lat="45.0603264" lon="7.9223728"><ele>332.0</ele><time>2026-05-02T11:17:21.642Z</time></trkpt><trkpt lat="45.0603878" lon="7.9226098"><ele>329.0</ele><time>2026-05-02T11:17:22.642Z</time></trkpt><trkpt lat="45.060462" lon="7.9228484"><ele>326.0</ele><time>2026-05-02T11:17:23.642Z</time></trkpt><trkpt lat="45.0605444" lon="7.9230801"><ele>326.0</ele><time>2026-05-02T11:17:24.641Z</time></trkpt><trkpt lat="45.0606266" lon="7.9232826"><ele>326.0</ele><time>2026-05-02T11:17:25.642Z</time></trkpt><trkpt lat="45.0606974" lon="7.9234541"><ele>326.0</ele><time>2026-05-02T11:17:26.642Z</time></trkpt><trkpt lat="45.0607656" lon="7.9236"><ele>326.0</ele><time>2026-05-02T11:17:27.642Z</time></trkpt><trkpt lat="45.0608662" lon="7.9236962"><ele>324.0</ele><time>2026-05-02T11:17:28.642Z</time></trkpt><trkpt lat="45.0609939" lon="7.9237839"><ele>322.0</ele><time>2026-05-02T11:17:29.641Z</time></trkpt><trkpt lat="45.0611708" lon="7.9238641"><ele>320.0</ele><time>2026-05-02T11:17:30.642Z</time></trkpt><trkpt lat="45.0613644" lon="7.9239571"><ele>320.0</ele><time>2026-05-02T11:17:31.642Z</time></trkpt><trkpt lat="45.0615657" lon="7.9240648"><ele>320.0</ele><time>2026-05-02T11:17:32.642Z</time></trkpt><trkpt lat="45.0617676" lon="7.9242044"><ele>320.0</ele><time>2026-05-02T11:17:33.641Z</time></trkpt><trkpt lat="45.0619517" lon="7.9243685"><ele>319.33333333333337</ele><time>2026-05-02T11:17:34.642Z</time></trkpt><trkpt lat="45.062114" lon="7.9245363"><ele>318.6666666666667</ele><time>2026-05-02T11:17:35.641Z</time></trkpt><trkpt lat="45.0622625" lon="7.9247028"><ele>318.0</ele><time>2026-05-02T11:17:36.642Z</time></trkpt><trkpt lat="45.0623631" lon="7.9248751"><ele>318.0</ele><time>2026-05-02T11:17:37.642Z</time></trkpt><trkpt lat="45.0624485" lon="7.9250291"><ele>318.0</ele><time>2026-05-02T11:17:38.642Z</time></trkpt><trkpt lat="45.0625159" lon="7.925126"><ele>318.0</ele><time>2026-05-02T11:17:39.642Z</time></trkpt><trkpt lat="45.0625897" lon="7.9251912"><ele>318.0</ele><time>2026-05-02T11:17:40.641Z</time></trkpt><trkpt lat="45.0627401" lon="7.9251807"><ele>318.0</ele><time>2026-05-02T11:17:41.641Z</time></trkpt><trkpt lat="45.0629375" lon="7.9251389"><ele>318.0</ele><time>2026-05-02T11:17:42.641Z</time></trkpt><trkpt lat="45.0631253" lon="7.925117"><ele>318.0</ele><time>2026-05-02T11:17:43.642Z</time></trkpt><trkpt lat="45.0633062" lon="7.9251187"><ele>319.0</ele><time>2026-05-02T11:17:44.641Z</time></trkpt><trkpt lat="45.0634663" lon="7.9251866"><ele>320.0</ele><time>2026-05-02T11:17:45.641Z</time></trkpt><trkpt lat="45.0636039" lon="7.9253048"><ele>321.0</ele><time>2026-05-02T11:17:46.642Z</time></trkpt><trkpt lat="45.0637501" lon="7.9254553"><ele>321.0</ele><time>2026-05-02T11:17:47.642Z</time></trkpt><trkpt lat="45.0638863" lon="7.9256283"><ele>321.0</ele><time>2026-05-02T11:17:48.641Z</time></trkpt><trkpt lat="45.0640263" lon="7.925796"><ele>321.0</ele><time>2026-05-02T11:17:49.642Z</time></trkpt><trkpt lat="45.0641715" lon="7.9259668"><ele>323.3333333333333</ele><time>2026-05-02T11:17:50.642Z</time></trkpt><trkpt lat="45.0643167" lon="7.926123"><ele>325.66666666666663</ele><time>2026-05-02T11:17:51.642Z</time></trkpt><trkpt lat="45.0644546" lon="7.9262749"><ele>328.0</ele><time>2026-05-02T11:17:52.642Z</time></trkpt><trkpt lat="45.0645886" lon="7.9264081"><ele>328.0</ele><time>2026-05-02T11:17:53.642Z</time></trkpt><trkpt lat="45.0646884" lon="7.926531"><ele>328.0</ele><time>2026-05-02T11:17:54.642Z</time></trkpt><trkpt lat="45.0647592" lon="7.9266621"><ele>328.0</ele><time>2026-05-02T11:17:55.642Z</time></trkpt><trkpt lat="45.0647999" lon="7.9268333"><ele>328.0</ele><time>2026-05-02T11:17:56.641Z</time></trkpt><trkpt lat="45.064777" lon="7.927064"><ele>333.0</ele><time>2026-05-02T11:17:57.642Z</time></trkpt><trkpt lat="45.0647388" lon="7.9272843"><ele>338.0</ele><time>2026-05-02T11:17:58.642Z</time></trkpt><trkpt lat="45.0646849" lon="7.9275078"><ele>343.0</ele><time>2026-05-02T11:17:59.642Z</time></trkpt><trkpt lat="45.0646273" lon="7.9277375"><ele>346.5</ele><time>2026-05-02T11:18:00.641Z</time></trkpt><trkpt lat="45.0645659" lon="7.9279442"><ele>350.0</ele><time>2026-05-02T11:18:01.642Z</time></trkpt><trkpt lat="45.0645126" lon="7.9281398"><ele>353.5</ele><time>2026-05-02T11:18:02.642Z</time></trkpt><trkpt lat="45.0644996" lon="7.9283243"><ele>357.0</ele><time>2026-05-02T11:18:03.641Z</time></trkpt><trkpt lat="45.0645449" lon="7.928511"><ele>361.6666666666667</ele><time>2026-05-02T11:18:04.642Z</time></trkpt><trkpt lat="45.0646084" lon="7.9287194"><ele>366.33333333333337</ele><time>2026-05-02T11:18:05.643Z</time></trkpt><trkpt lat="45.064675" lon="7.9289284"><ele>371.0</ele><time>2026-05-02T11:18:06.643Z</time></trkpt><trkpt lat="45.0647368" lon="7.929152"><ele>374.0</ele><time>2026-05-02T11:18:07.643Z</time></trkpt><trkpt lat="45.0647869" lon="7.9293925"><ele>377.0</ele><time>2026-05-02T11:18:08.643Z</time></trkpt><trkpt lat="45.0648385" lon="7.9296178"><ele>380.0</ele><time>2026-05-02T11:18:09.643Z</time></trkpt><trkpt lat="45.0648904" lon="7.9298389"><ele>381.0</ele><time>2026-05-02T11:18:10.642Z</time></trkpt><trkpt lat="45.0649373" lon="7.9300584"><ele>382.0</ele><time>2026-05-02T11:18:11.643Z</time></trkpt><trkpt lat="45.0649774" lon="7.9302884"><ele>383.0</ele><time>2026-05-02T11:18:12.643Z</time></trkpt><trkpt lat="45.0650053" lon="7.9305389"><ele>376.6666666666667</ele><time>2026-05-02T11:18:13.643Z</time></trkpt><trkpt lat="45.0650208" lon="7.9308018"><ele>370.3333333333333</ele><time>2026-05-02T11:18:14.642Z</time></trkpt><trkpt lat="45.0650025" lon="7.9310642"><ele>364.0</ele><time>2026-05-02T11:18:15.643Z</time></trkpt><trkpt lat="45.0649755" lon="7.9313227"><ele>364.0</ele><time>2026-05-02T11:18:16.643Z</time></trkpt><trkpt lat="45.0649491" lon="7.9315951"><ele>364.0</ele><time>2026-05-02T11:18:17.643Z</time></trkpt><trkpt lat="45.0649231" lon="7.9318412"><ele>364.0</ele><time>2026-05-02T11:18:18.643Z</time></trkpt><trkpt lat="45.0648945" lon="7.9320829"><ele>366.5</ele><time>2026-05-02T11:18:19.642Z</time></trkpt><trkpt lat="45.0648609" lon="7.9322808"><ele>369.0</ele><time>2026-05-02T11:18:20.643Z</time></trkpt><trkpt lat="45.0648313" lon="7.9324448"><ele>371.5</ele><time>2026-05-02T11:18:21.643Z</time></trkpt><trkpt lat="45.064818" lon="7.9325843"><ele>374.0</ele><time>2026-05-02T11:18:22.643Z</time></trkpt><trkpt lat="45.064832" lon="7.9327153"><ele>374.0</ele><time>2026-05-02T11:18:23.643Z</time></trkpt><trkpt lat="45.0648702" lon="7.9328225"><ele>374.0</ele><time>2026-05-02T11:18:24.643Z</time></trkpt><trkpt lat="45.0649262" lon="7.9329293"><ele>374.0</ele><time>2026-05-02T11:18:25.643Z</time></trkpt><trkpt lat="45.0649812" lon="7.9330278"><ele>374.0</ele><time>2026-05-02T11:18:26.643Z</time></trkpt><trkpt lat="45.0650318" lon="7.9331251"><ele>374.0</ele><time>2026-05-02T11:18:28.643Z</time></trkpt><trkpt lat="45.0649757" lon="7.9331967"><ele>374.0</ele><time>2026-05-02T11:18:31.643Z</time></trkpt><trkpt lat="45.0649584" lon="7.9332941"><ele>373.0</ele><time>2026-05-02T11:18:33.643Z</time></trkpt><trkpt lat="45.0649808" lon="7.9334225"><ele>372.0</ele><time>2026-05-02T11:18:34.643Z</time></trkpt><trkpt lat="45.0650104" lon="7.933559"><ele>371.0</ele><time>2026-05-02T11:18:35.643Z</time></trkpt><trkpt lat="45.0650468" lon="7.9337133"><ele>370.0</ele><time>2026-05-02T11:18:36.643Z</time></trkpt><trkpt lat="45.0650795" lon="7.9339065"><ele>369.0</ele><time>2026-05-02T11:18:37.643Z</time></trkpt><trkpt lat="45.065104" lon="7.9341062"><ele>365.25</ele><time>2026-05-02T11:18:38.642Z</time></trkpt><trkpt lat="45.0651187" lon="7.9342953"><ele>361.5</ele><time>2026-05-02T11:18:39.643Z</time></trkpt><trkpt lat="45.0651286" lon="7.9344858"><ele>357.75</ele><time>2026-05-02T11:18:40.643Z</time></trkpt><trkpt lat="45.0651338" lon="7.9346617"><ele>354.0</ele><time>2026-05-02T11:18:41.642Z</time></trkpt><trkpt lat="45.0651525" lon="7.9348301"><ele>354.0</ele><time>2026-05-02T11:18:42.642Z</time></trkpt><trkpt lat="45.0651794" lon="7.9349948"><ele>354.0</ele><time>2026-05-02T11:18:43.643Z</time></trkpt><trkpt lat="45.0652041" lon="7.9351598"><ele>354.0</ele><time>2026-05-02T11:18:44.643Z</time></trkpt><trkpt lat="45.0652223" lon="7.9353253"><ele>354.0</ele><time>2026-05-02T11:18:45.642Z</time></trkpt><trkpt lat="45.0652431" lon="7.9354812"><ele>351.6</ele><time>2026-05-02T11:18:46.643Z</time></trkpt><trkpt lat="45.0652742" lon="7.9356102"><ele>349.2</ele><time>2026-05-02T11:18:47.643Z</time></trkpt><trkpt lat="45.0653186" lon="7.9357077"><ele>346.8</ele><time>2026-05-02T11:18:48.643Z</time></trkpt><trkpt lat="45.0653852" lon="7.9357653"><ele>344.40000000000003</ele><time>2026-05-02T11:18:49.643Z</time></trkpt><trkpt lat="45.0654758" lon="7.9357903"><ele>342.0</ele><time>2026-05-02T11:18:50.642Z</time></trkpt><trkpt lat="45.0655945" lon="7.9357997"><ele>342.0</ele><time>2026-05-02T11:18:51.643Z</time></trkpt><trkpt lat="45.0657253" lon="7.9358021"><ele>342.0</ele><time>2026-05-02T11:18:52.643Z</time></trkpt><trkpt lat="45.065867" lon="7.9357915"><ele>342.0</ele><time>2026-05-02T11:18:53.643Z</time></trkpt><trkpt lat="45.0659844" lon="7.9358308"><ele>342.0</ele><time>2026-05-02T11:18:54.642Z</time></trkpt><trkpt lat="45.0660951" lon="7.9359093"><ele>340.25</ele><time>2026-05-02T11:18:55.643Z</time></trkpt><trkpt lat="45.0662148" lon="7.9359921"><ele>338.5</ele><time>2026-05-02T11:18:56.642Z</time></trkpt><trkpt lat="45.0663152" lon="7.9360927"><ele>336.75</ele><time>2026-05-02T11:18:57.643Z</time></trkpt><trkpt lat="45.0663932" lon="7.9362281"><ele>335.0</ele><time>2026-05-02T11:18:58.642Z</time></trkpt><trkpt lat="45.0664584" lon="7.9363656"><ele>335.0</ele><time>2026-05-02T11:18:59.643Z</time></trkpt><trkpt lat="45.0665225" lon="7.9365277"><ele>335.0</ele><time>2026-05-02T11:19:00.643Z</time></trkpt><trkpt lat="45.066551" lon="7.936699"><ele>335.0</ele><time>2026-05-02T11:19:01.643Z</time></trkpt><trkpt lat="45.0665438" lon="7.9368586"><ele>335.0</ele><time>2026-05-02T11:19:02.643Z</time></trkpt><trkpt lat="45.0665408" lon="7.9370629"><ele>335.5</ele><time>2026-05-02T11:19:03.643Z</time></trkpt><trkpt lat="45.066553" lon="7.937259"><ele>336.0</ele><time>2026-05-02T11:19:04.643Z</time></trkpt><trkpt lat="45.0665682" lon="7.9374268"><ele>336.5</ele><time>2026-05-02T11:19:05.643Z</time></trkpt><trkpt lat="45.066592" lon="7.9375679"><ele>337.0</ele><time>2026-05-02T11:19:06.643Z</time></trkpt><trkpt lat="45.0666302" lon="7.9377152"><ele>337.0</ele><time>2026-05-02T11:19:07.643Z</time></trkpt><trkpt lat="45.0667078" lon="7.9378805"><ele>337.0</ele><time>2026-05-02T11:19:08.643Z</time></trkpt><trkpt lat="45.0667824" lon="7.9380377"><ele>337.0</ele><time>2026-05-02T11:19:09.643Z</time></trkpt><trkpt lat="45.066845" lon="7.9381665"><ele>337.0</ele><time>2026-05-02T11:19:10.642Z</time></trkpt><trkpt lat="45.0669051" lon="7.9382731"><ele>337.0</ele><time>2026-05-02T11:19:11.642Z</time></trkpt><trkpt lat="45.0669695" lon="7.9383498"><ele>337.0</ele><time>2026-05-02T11:19:12.643Z</time></trkpt><trkpt lat="45.0670474" lon="7.9383596"><ele>337.0</ele><time>2026-05-02T11:19:13.643Z</time></trkpt><trkpt lat="45.0671294" lon="7.9383418"><ele>337.0</ele><time>2026-05-02T11:19:14.643Z</time></trkpt><trkpt lat="45.0672175" lon="7.9382857"><ele>337.0</ele><time>2026-05-02T11:19:15.643Z</time></trkpt><trkpt lat="45.0673309" lon="7.9381976"><ele>336.0</ele><time>2026-05-02T11:19:16.643Z</time></trkpt><trkpt lat="45.0674644" lon="7.9380857"><ele>335.0</ele><time>2026-05-02T11:19:17.642Z</time></trkpt><trkpt lat="45.0675992" lon="7.9379715"><ele>334.0</ele><time>2026-05-02T11:19:18.643Z</time></trkpt><trkpt lat="45.0677324" lon="7.9378645"><ele>334.0</ele><time>2026-05-02T11:19:19.642Z</time></trkpt><trkpt lat="45.0678425" lon="7.9377905"><ele>334.0</ele><time>2026-05-02T11:19:20.643Z</time></trkpt><trkpt lat="45.0679347" lon="7.9377333"><ele>334.0</ele><time>2026-05-02T11:19:21.642Z</time></trkpt><trkpt lat="45.068008" lon="7.9376843"><ele>334.0</ele><time>2026-05-02T11:19:22.642Z</time></trkpt><trkpt lat="45.0680648" lon="7.9376304"><ele>334.0</ele><time>2026-05-02T11:19:23.642Z</time></trkpt><trkpt lat="45.0681198" lon="7.9375539"><ele>334.0</ele><time>2026-05-02T11:19:24.643Z</time></trkpt><trkpt lat="45.0681788" lon="7.9374585"><ele>334.0</ele><time>2026-05-02T11:19:25.643Z</time></trkpt><trkpt lat="45.0682442" lon="7.9373513"><ele>334.0</ele><time>2026-05-02T11:19:26.642Z</time></trkpt><trkpt lat="45.0683155" lon="7.9371843"><ele>334.0</ele><time>2026-05-02T11:19:27.643Z</time></trkpt><trkpt lat="45.0683808" lon="7.9370136"><ele>334.0</ele><time>2026-05-02T11:19:28.643Z</time></trkpt><trkpt lat="45.0684362" lon="7.9368571"><ele>334.25</ele><time>2026-05-02T11:19:29.642Z</time></trkpt><trkpt lat="45.0684892" lon="7.9367118"><ele>334.5</ele><time>2026-05-02T11:19:30.642Z</time></trkpt><trkpt lat="45.0685463" lon="7.9365737"><ele>334.75</ele><time>2026-05-02T11:19:31.643Z</time></trkpt><trkpt lat="45.0686062" lon="7.9364309"><ele>335.0</ele><time>2026-05-02T11:19:32.642Z</time></trkpt><trkpt lat="45.0686737" lon="7.9362803"><ele>335.0</ele><time>2026-05-02T11:19:33.643Z</time></trkpt><trkpt lat="45.0687263" lon="7.9361518"><ele>335.0</ele><time>2026-05-02T11:19:34.643Z</time></trkpt><trkpt lat="45.0687682" lon="7.936048"><ele>335.0</ele><time>2026-05-02T11:19:35.643Z</time></trkpt><trkpt lat="45.0688149" lon="7.9359769"><ele>335.0</ele><time>2026-05-02T11:19:36.643Z</time></trkpt><trkpt lat="45.0688942" lon="7.9359705"><ele>335.0</ele><time>2026-05-02T11:19:38.643Z</time></trkpt><trkpt lat="45.0689733" lon="7.936065"><ele>335.0</ele><time>2026-05-02T11:19:41.643Z</time></trkpt><trkpt lat="45.0691322" lon="7.9362087"><ele>326.0</ele><time>2026-05-02T11:19:42.643Z</time></trkpt><trkpt lat="45.069382" lon="7.9364061"><ele>317.0</ele><time>2026-05-02T11:19:43.642Z</time></trkpt><trkpt lat="45.0696131" lon="7.9365839"><ele>317.6666666666667</ele><time>2026-05-02T11:19:44.643Z</time></trkpt><trkpt lat="45.0698072" lon="7.9367334"><ele>318.3333333333333</ele><time>2026-05-02T11:19:45.643Z</time></trkpt><trkpt lat="45.0699606" lon="7.9368591"><ele>319.0</ele><time>2026-05-02T11:19:46.643Z</time></trkpt><trkpt lat="45.0700938" lon="7.9369683"><ele>316.0</ele><time>2026-05-02T11:19:47.643Z</time></trkpt><trkpt lat="45.0702065" lon="7.9370588"><ele>313.0</ele><time>2026-05-02T11:19:48.643Z</time></trkpt><trkpt lat="45.0703076" lon="7.9371425"><ele>310.0</ele><time>2026-05-02T11:19:49.643Z</time></trkpt><trkpt lat="45.0703937" lon="7.937225"><ele>307.0</ele><time>2026-05-02T11:19:50.642Z</time></trkpt><trkpt lat="45.0704662" lon="7.9373178"><ele>304.0</ele><time>2026-05-02T11:19:51.642Z</time></trkpt><trkpt lat="45.0704833" lon="7.9374507"><ele>303.5</ele><time>2026-05-02T11:19:52.643Z</time></trkpt><trkpt lat="45.0704475" lon="7.937609"><ele>303.0</ele><time>2026-05-02T11:19:53.644Z</time></trkpt><trkpt lat="45.0703747" lon="7.9377624"><ele>302.5</ele><time>2026-05-02T11:19:54.644Z</time></trkpt><trkpt lat="45.0703229" lon="7.9379266"><ele>302.0</ele><time>2026-05-02T11:19:55.644Z</time></trkpt><trkpt lat="45.070285" lon="7.9380791"><ele>302.0</ele><time>2026-05-02T11:19:56.644Z</time></trkpt><trkpt lat="45.0702676" lon="7.9382192"><ele>302.0</ele><time>2026-05-02T11:19:57.644Z</time></trkpt><trkpt lat="45.0702824" lon="7.9383405"><ele>302.0</ele><time>2026-05-02T11:19:58.644Z</time></trkpt><trkpt lat="45.070328" lon="7.9384656"><ele>302.0</ele><time>2026-05-02T11:19:59.644Z</time></trkpt><trkpt lat="45.0703931" lon="7.9386014"><ele>302.0</ele><time>2026-05-02T11:20:00.643Z</time></trkpt><trkpt lat="45.0704201" lon="7.9387713"><ele>301.0</ele><time>2026-05-02T11:20:01.644Z</time></trkpt><trkpt lat="45.0703983" lon="7.9389653"><ele>300.0</ele><time>2026-05-02T11:20:02.643Z</time></trkpt><trkpt lat="45.0703436" lon="7.9391506"><ele>299.0</ele><time>2026-05-02T11:20:03.644Z</time></trkpt><trkpt lat="45.070278" lon="7.9393495"><ele>298.0</ele><time>2026-05-02T11:20:04.644Z</time></trkpt><trkpt lat="45.070214" lon="7.939556"><ele>298.0</ele><time>2026-05-02T11:20:05.644Z</time></trkpt><trkpt lat="45.0701358" lon="7.9397719"><ele>298.0</ele><time>2026-05-02T11:20:06.644Z</time></trkpt><trkpt lat="45.0700657" lon="7.9399873"><ele>298.0</ele><time>2026-05-02T11:20:07.643Z</time></trkpt><trkpt lat="45.0700032" lon="7.9401754"><ele>296.75</ele><time>2026-05-02T11:20:08.644Z</time></trkpt><trkpt lat="45.0699567" lon="7.9403417"><ele>295.5</ele><time>2026-05-02T11:20:09.644Z</time></trkpt><trkpt lat="45.0699246" lon="7.9404974"><ele>294.25</ele><time>2026-05-02T11:20:10.644Z</time></trkpt><trkpt lat="45.06991" lon="7.9406587"><ele>293.0</ele><time>2026-05-02T11:20:11.644Z</time></trkpt><trkpt lat="45.0699058" lon="7.9408329"><ele>292.33333333333337</ele><time>2026-05-02T11:20:12.644Z</time></trkpt><trkpt lat="45.0699093" lon="7.9410038"><ele>291.6666666666667</ele><time>2026-05-02T11:20:13.644Z</time></trkpt><trkpt lat="45.0699168" lon="7.9411423"><ele>291.0</ele><time>2026-05-02T11:20:14.644Z</time></trkpt><trkpt lat="45.0699232" lon="7.9412387"><ele>290.3333333333333</ele><time>2026-05-02T11:20:15.644Z</time></trkpt><trkpt lat="45.0699206" lon="7.9413287"><ele>289.66666666666663</ele><time>2026-05-02T11:20:17.643Z</time></trkpt><trkpt lat="45.0699611" lon="7.9414022"><ele>289.0</ele><time>2026-05-02T11:20:20.643Z</time></trkpt><trkpt lat="45.0700221" lon="7.9414566"><ele>289.0</ele><time>2026-05-02T11:20:21.644Z</time></trkpt><trkpt lat="45.0701222" lon="7.9415167"><ele>289.0</ele><time>2026-05-02T11:20:22.643Z</time></trkpt><trkpt lat="45.0702372" lon="7.9415587"><ele>289.0</ele><time>2026-05-02T11:20:23.644Z</time></trkpt><trkpt lat="45.0703606" lon="7.9416119"><ele>289.0</ele><time>2026-05-02T11:20:24.644Z</time></trkpt><trkpt lat="45.0704881" lon="7.9416629"><ele>289.0</ele><time>2026-05-02T11:20:25.644Z</time></trkpt><trkpt lat="45.0706322" lon="7.9417018"><ele>289.0</ele><time>2026-05-02T11:20:26.644Z</time></trkpt><trkpt lat="45.070772" lon="7.9417346"><ele>289.0</ele><time>2026-05-02T11:20:27.643Z</time></trkpt><trkpt lat="45.0709087" lon="7.9417603"><ele>289.0</ele><time>2026-05-02T11:20:28.644Z</time></trkpt><trkpt lat="45.0710481" lon="7.9417664"><ele>289.0</ele><time>2026-05-02T11:20:29.643Z</time></trkpt><trkpt lat="45.0712016" lon="7.9417441"><ele>289.0</ele><time>2026-05-02T11:20:30.643Z</time></trkpt><trkpt lat="45.0713737" lon="7.9416958"><ele>289.0</ele><time>2026-05-02T11:20:31.643Z</time></trkpt><trkpt lat="45.0715542" lon="7.9416511"><ele>291.0</ele><time>2026-05-02T11:20:32.644Z</time></trkpt><trkpt lat="45.0717451" lon="7.9416159"><ele>293.0</ele><time>2026-05-02T11:20:33.644Z</time></trkpt><trkpt lat="45.0719289" lon="7.9415844"><ele>295.0</ele><time>2026-05-02T11:20:34.644Z</time></trkpt><trkpt lat="45.0721113" lon="7.9415375"><ele>295.0</ele><time>2026-05-02T11:20:35.644Z</time></trkpt><trkpt lat="45.072295" lon="7.9414686"><ele>295.0</ele><time>2026-05-02T11:20:36.644Z</time></trkpt><trkpt lat="45.0724726" lon="7.941393"><ele>295.0</ele><time>2026-05-02T11:20:37.644Z</time></trkpt><trkpt lat="45.0726267" lon="7.9413318"><ele>294.6</ele><time>2026-05-02T11:20:38.644Z</time></trkpt><trkpt lat="45.0727232" lon="7.9412859"><ele>294.2</ele><time>2026-05-02T11:20:39.644Z</time></trkpt><trkpt lat="45.0727955" lon="7.9412374"><ele>293.8</ele><time>2026-05-02T11:20:40.644Z</time></trkpt><trkpt lat="45.072877" lon="7.941166"><ele>293.4</ele><time>2026-05-02T11:20:41.644Z</time></trkpt><trkpt lat="45.0729731" lon="7.9410681"><ele>293.0</ele><time>2026-05-02T11:20:42.644Z</time></trkpt><trkpt lat="45.0730833" lon="7.9409658"><ele>297.6666666666667</ele><time>2026-05-02T11:20:43.644Z</time></trkpt><trkpt lat="45.0732028" lon="7.940877"><ele>302.3333333333333</ele><time>2026-05-02T11:20:44.643Z</time></trkpt><trkpt lat="45.073356" lon="7.9408394"><ele>307.0</ele><time>2026-05-02T11:20:45.644Z</time></trkpt><trkpt lat="45.0735319" lon="7.940864"><ele>302.66666666666663</ele><time>2026-05-02T11:20:46.644Z</time></trkpt><trkpt lat="45.0737098" lon="7.9409015"><ele>298.3333333333333</ele><time>2026-05-02T11:20:47.644Z</time></trkpt><trkpt lat="45.0738808" lon="7.9409306"><ele>294.0</ele><time>2026-05-02T11:20:48.643Z</time></trkpt><trkpt lat="45.0740621" lon="7.9409479"><ele>297.0</ele><time>2026-05-02T11:20:49.644Z</time></trkpt><trkpt lat="45.0742522" lon="7.9409584"><ele>300.0</ele><time>2026-05-02T11:20:50.644Z</time></trkpt><trkpt lat="45.0744391" lon="7.9409681"><ele>303.0</ele><time>2026-05-02T11:20:51.643Z</time></trkpt><trkpt lat="45.0746213" lon="7.9409779"><ele>303.0</ele><time>2026-05-02T11:20:52.644Z</time></trkpt><trkpt lat="45.0747913" lon="7.9409917"><ele>303.0</ele><time>2026-05-02T11:20:53.644Z</time></trkpt><trkpt lat="45.0749461" lon="7.9410286"><ele>303.0</ele><time>2026-05-02T11:20:54.644Z</time></trkpt><trkpt lat="45.0750902" lon="7.9411064"><ele>302.75</ele><time>2026-05-02T11:20:55.644Z</time></trkpt><trkpt lat="45.0752208" lon="7.9412036"><ele>302.5</ele><time>2026-05-02T11:20:56.644Z</time></trkpt><trkpt lat="45.075328" lon="7.9412448"><ele>302.25</ele><time>2026-05-02T11:20:57.644Z</time></trkpt><trkpt lat="45.0754353" lon="7.9412604"><ele>302.0</ele><time>2026-05-02T11:20:58.644Z</time></trkpt><trkpt lat="45.0755562" lon="7.9412461"><ele>302.0</ele><time>2026-05-02T11:20:59.644Z</time></trkpt><trkpt lat="45.075691" lon="7.9412188"><ele>302.0</ele><time>2026-05-02T11:21:00.644Z</time></trkpt><trkpt lat="45.0758501" lon="7.9411798"><ele>302.0</ele><time>2026-05-02T11:21:01.644Z</time></trkpt><trkpt lat="45.0760276" lon="7.9411399"><ele>302.0</ele><time>2026-05-02T11:21:02.644Z</time></trkpt><trkpt lat="45.0762142" lon="7.9410976"><ele>302.0</ele><time>2026-05-02T11:21:03.643Z</time></trkpt><trkpt lat="45.076409" lon="7.9410576"><ele>302.0</ele><time>2026-05-02T11:21:04.643Z</time></trkpt><trkpt lat="45.076612" lon="7.9410132"><ele>301.33333333333337</ele><time>2026-05-02T11:21:05.643Z</time></trkpt><trkpt lat="45.0768167" lon="7.9409768"><ele>300.6666666666667</ele><time>2026-05-02T11:21:06.644Z</time></trkpt><trkpt lat="45.0770148" lon="7.9409401"><ele>300.0</ele><time>2026-05-02T11:21:07.643Z</time></trkpt><trkpt lat="45.0772158" lon="7.9408981"><ele>301.0</ele><time>2026-05-02T11:21:08.644Z</time></trkpt><trkpt lat="45.0774172" lon="7.9408562"><ele>302.0</ele><time>2026-05-02T11:21:09.644Z</time></trkpt><trkpt lat="45.0776142" lon="7.9408138"><ele>303.0</ele><time>2026-05-02T11:21:10.643Z</time></trkpt><trkpt lat="45.0777988" lon="7.9407762"><ele>303.0</ele><time>2026-05-02T11:21:11.643Z</time></trkpt><trkpt lat="45.0779802" lon="7.9407443"><ele>303.0</ele><time>2026-05-02T11:21:12.644Z</time></trkpt><trkpt lat="45.0781579" lon="7.9407137"><ele>303.0</ele><time>2026-05-02T11:21:13.644Z</time></trkpt><trkpt lat="45.0783241" lon="7.9406819"><ele>303.0</ele><time>2026-05-02T11:21:14.643Z</time></trkpt><trkpt lat="45.0784768" lon="7.9406629"><ele>303.0</ele><time>2026-05-02T11:21:15.644Z</time></trkpt><trkpt lat="45.0786125" lon="7.9406767"><ele>303.0</ele><time>2026-05-02T11:21:16.643Z</time></trkpt><trkpt lat="45.0787492" lon="7.9407619"><ele>303.0</ele><time>2026-05-02T11:21:17.644Z</time></trkpt><trkpt lat="45.0788688" lon="7.9408946"><ele>303.5</ele><time>2026-05-02T11:21:18.644Z</time></trkpt><trkpt lat="45.0789772" lon="7.9410185"><ele>304.0</ele><time>2026-05-02T11:21:19.644Z</time></trkpt><trkpt lat="45.0790899" lon="7.9411197"><ele>304.5</ele><time>2026-05-02T11:21:20.643Z</time></trkpt><trkpt lat="45.0792281" lon="7.9412142"><ele>305.0</ele><time>2026-05-02T11:21:21.643Z</time></trkpt><trkpt lat="45.0793777" lon="7.9413178"><ele>305.0</ele><time>2026-05-02T11:21:22.644Z</time></trkpt><trkpt lat="45.0795205" lon="7.9414237"><ele>305.0</ele><time>2026-05-02T11:21:23.644Z</time></trkpt><trkpt lat="45.079669" lon="7.9415194"><ele>305.0</ele><time>2026-05-02T11:21:24.644Z</time></trkpt><trkpt lat="45.0798145" lon="7.9416084"><ele>307.0</ele><time>2026-05-02T11:21:25.644Z</time></trkpt><trkpt lat="45.0799689" lon="7.941701"><ele>309.0</ele><time>2026-05-02T11:21:26.644Z</time></trkpt><trkpt lat="45.0801204" lon="7.9417978"><ele>311.0</ele><time>2026-05-02T11:21:27.643Z</time></trkpt><trkpt lat="45.080261" lon="7.9418897"><ele>311.0</ele><time>2026-05-02T11:21:28.644Z</time></trkpt><trkpt lat="45.0804034" lon="7.9419781"><ele>311.0</ele><time>2026-05-02T11:21:29.644Z</time></trkpt><trkpt lat="45.0805558" lon="7.9420689"><ele>311.0</ele><time>2026-05-02T11:21:30.644Z</time></trkpt><trkpt lat="45.0806898" lon="7.9421525"><ele>312.6</ele><time>2026-05-02T11:21:31.644Z</time></trkpt><trkpt lat="45.0808069" lon="7.9422236"><ele>314.20000000000005</ele><time>2026-05-02T11:21:32.644Z</time></trkpt><trkpt lat="45.0809098" lon="7.9422866"><ele>315.79999999999995</ele><time>2026-05-02T11:21:33.644Z</time></trkpt><trkpt lat="45.0809988" lon="7.9423429"><ele>317.4</ele><time>2026-05-02T11:21:34.645Z</time></trkpt><trkpt lat="45.0810776" lon="7.9423859"><ele>319.0</ele><time>2026-05-02T11:21:35.644Z</time></trkpt><trkpt lat="45.0811545" lon="7.9424201"><ele>319.0</ele><time>2026-05-02T11:21:36.645Z</time></trkpt><trkpt lat="45.0812487" lon="7.9424651"><ele>319.0</ele><time>2026-05-02T11:21:38.645Z</time></trkpt><trkpt lat="45.081323" lon="7.942488"><ele>319.0</ele><time>2026-05-02T11:21:39.645Z</time></trkpt><trkpt lat="45.0813993" lon="7.9425025"><ele>319.0</ele><time>2026-05-02T11:21:40.644Z</time></trkpt><trkpt lat="45.0815101" lon="7.942534"><ele>319.0</ele><time>2026-05-02T11:21:41.645Z</time></trkpt><trkpt lat="45.0816417" lon="7.9425671"><ele>320.0</ele><time>2026-05-02T11:21:42.645Z</time></trkpt><trkpt lat="45.0817664" lon="7.9425851"><ele>321.0</ele><time>2026-05-02T11:21:43.644Z</time></trkpt><trkpt lat="45.081897" lon="7.9426064"><ele>322.0</ele><time>2026-05-02T11:21:44.644Z</time></trkpt><trkpt lat="45.0820333" lon="7.9426462"><ele>323.0</ele><time>2026-05-02T11:21:45.645Z</time></trkpt><trkpt lat="45.082165" lon="7.9427133"><ele>323.0</ele><time>2026-05-02T11:21:46.644Z</time></trkpt><trkpt lat="45.0822986" lon="7.9427818"><ele>323.0</ele><time>2026-05-02T11:21:47.645Z</time></trkpt><trkpt lat="45.0824332" lon="7.9428217"><ele>323.0</ele><time>2026-05-02T11:21:48.645Z</time></trkpt><trkpt lat="45.0825487" lon="7.9428054"><ele>323.0</ele><time>2026-05-02T11:21:49.645Z</time></trkpt><trkpt lat="45.0826873" lon="7.942725"><ele>324.0</ele><time>2026-05-02T11:21:50.644Z</time></trkpt><trkpt lat="45.0827813" lon="7.9426466"><ele>325.0</ele><time>2026-05-02T11:21:51.644Z</time></trkpt><trkpt lat="45.0828616" lon="7.9425944"><ele>326.0</ele><time>2026-05-02T11:21:52.645Z</time></trkpt><trkpt lat="45.0829275" lon="7.9425948"><ele>327.0</ele><time>2026-05-02T11:21:53.645Z</time></trkpt><trkpt lat="45.0829942" lon="7.9426559"><ele>328.0</ele><time>2026-05-02T11:21:55.644Z</time></trkpt><trkpt lat="45.0830437" lon="7.9428426"><ele>328.0</ele><time>2026-05-02T11:21:57.645Z</time></trkpt><trkpt lat="45.083087" lon="7.9429718"><ele>328.0</ele><time>2026-05-02T11:21:58.645Z</time></trkpt><trkpt lat="45.0831338" lon="7.943091"><ele>328.0</ele><time>2026-05-02T11:21:59.645Z</time></trkpt><trkpt lat="45.0831889" lon="7.9432107"><ele>328.0</ele><time>2026-05-02T11:22:00.645Z</time></trkpt><trkpt lat="45.0832649" lon="7.9433329"><ele>328.0</ele><time>2026-05-02T11:22:01.645Z</time></trkpt><trkpt lat="45.0833687" lon="7.9434497"><ele>330.5</ele><time>2026-05-02T11:22:02.644Z</time></trkpt><trkpt lat="45.0834839" lon="7.9435486"><ele>333.0</ele><time>2026-05-02T11:22:03.645Z</time></trkpt><trkpt lat="45.0836121" lon="7.9436272"><ele>335.5</ele><time>2026-05-02T11:22:04.645Z</time></trkpt><trkpt lat="45.0837513" lon="7.9436933"><ele>338.0</ele><time>2026-05-02T11:22:05.645Z</time></trkpt><trkpt lat="45.0839055" lon="7.943731"><ele>338.0</ele><time>2026-05-02T11:22:06.645Z</time></trkpt><trkpt lat="45.0840759" lon="7.9437331"><ele>338.0</ele><time>2026-05-02T11:22:07.645Z</time></trkpt><trkpt lat="45.0842412" lon="7.9437122"><ele>338.0</ele><time>2026-05-02T11:22:08.645Z</time></trkpt><trkpt lat="45.0844075" lon="7.9437077"><ele>337.33333333333337</ele><time>2026-05-02T11:22:09.645Z</time></trkpt><trkpt lat="45.0845695" lon="7.9437213"><ele>336.6666666666667</ele><time>2026-05-02T11:22:10.644Z</time></trkpt><trkpt lat="45.0847304" lon="7.9437625"><ele>336.0</ele><time>2026-05-02T11:22:11.644Z</time></trkpt><trkpt lat="45.0848957" lon="7.9438157"><ele>337.6666666666667</ele><time>2026-05-02T11:22:12.644Z</time></trkpt><trkpt lat="45.0850555" lon="7.9438585"><ele>339.33333333333337</ele><time>2026-05-02T11:22:13.644Z</time></trkpt><trkpt lat="45.0852077" lon="7.9439403"><ele>341.0</ele><time>2026-05-02T11:22:14.645Z</time></trkpt><trkpt lat="45.0853692" lon="7.9440662"><ele>340.6666666666667</ele><time>2026-05-02T11:22:15.645Z</time></trkpt><trkpt lat="45.0855285" lon="7.9442267"><ele>340.3333333333333</ele><time>2026-05-02T11:22:16.645Z</time></trkpt><trkpt lat="45.0856899" lon="7.9444437"><ele>340.0</ele><time>2026-05-02T11:22:17.645Z</time></trkpt><trkpt lat="45.0858511" lon="7.9446833"><ele>341.3333333333333</ele><time>2026-05-02T11:22:18.645Z</time></trkpt><trkpt lat="45.0859653" lon="7.9449284"><ele>342.6666666666667</ele><time>2026-05-02T11:22:19.645Z</time></trkpt><trkpt lat="45.086087" lon="7.9451867"><ele>344.0</ele><time>2026-05-02T11:22:20.645Z</time></trkpt><trkpt lat="45.0862078" lon="7.9454261"><ele>344.0</ele><time>2026-05-02T11:22:21.645Z</time></trkpt><trkpt lat="45.0863313" lon="7.9456818"><ele>344.0</ele><time>2026-05-02T11:22:22.645Z</time></trkpt><trkpt lat="45.0864226" lon="7.9459477"><ele>344.0</ele><time>2026-05-02T11:22:23.644Z</time></trkpt><trkpt lat="45.0865131" lon="7.9462127"><ele>346.6666666666667</ele><time>2026-05-02T11:22:24.644Z</time></trkpt><trkpt lat="45.0866003" lon="7.9464741"><ele>349.3333333333333</ele><time>2026-05-02T11:22:25.645Z</time></trkpt><trkpt lat="45.0867" lon="7.9467206"><ele>352.0</ele><time>2026-05-02T11:22:26.645Z</time></trkpt><trkpt lat="45.086805" lon="7.9469557"><ele>352.0</ele><time>2026-05-02T11:22:27.645Z</time></trkpt><trkpt lat="45.086899" lon="7.947176"><ele>352.0</ele><time>2026-05-02T11:22:28.644Z</time></trkpt><trkpt lat="45.0869798" lon="7.9473689"><ele>352.0</ele><time>2026-05-02T11:22:29.644Z</time></trkpt><trkpt lat="45.087056" lon="7.9475217"><ele>353.0</ele><time>2026-05-02T11:22:30.645Z</time></trkpt><trkpt lat="45.0871498" lon="7.9476155"><ele>354.0</ele><time>2026-05-02T11:22:31.644Z</time></trkpt><trkpt lat="45.0872879" lon="7.9476984"><ele>355.0</ele><time>2026-05-02T11:22:32.645Z</time></trkpt><trkpt lat="45.0874572" lon="7.9477505"><ele>356.0</ele><time>2026-05-02T11:22:33.644Z</time></trkpt><trkpt lat="45.0876429" lon="7.9478128"><ele>356.0</ele><time>2026-05-02T11:22:34.645Z</time></trkpt><trkpt lat="45.0878212" lon="7.9479228"><ele>356.0</ele><time>2026-05-02T11:22:35.645Z</time></trkpt><trkpt lat="45.0879657" lon="7.9480873"><ele>356.0</ele><time>2026-05-02T11:22:36.644Z</time></trkpt><trkpt lat="45.0881124" lon="7.9482721"><ele>354.33333333333337</ele><time>2026-05-02T11:22:37.644Z</time></trkpt><trkpt lat="45.0882357" lon="7.9484396"><ele>352.6666666666667</ele><time>2026-05-02T11:22:38.644Z</time></trkpt><trkpt lat="45.0883421" lon="7.9486326"><ele>351.0</ele><time>2026-05-02T11:22:39.645Z</time></trkpt><trkpt lat="45.0884434" lon="7.9488475"><ele>352.75</ele><time>2026-05-02T11:22:40.645Z</time></trkpt><trkpt lat="45.0885242" lon="7.949044"><ele>354.5</ele><time>2026-05-02T11:22:41.644Z</time></trkpt><trkpt lat="45.0885897" lon="7.9492045"><ele>356.25</ele><time>2026-05-02T11:22:42.645Z</time></trkpt><trkpt lat="45.0886928" lon="7.9493375"><ele>358.0</ele><time>2026-05-02T11:22:43.645Z</time></trkpt><trkpt lat="45.0888337" lon="7.9494524"><ele>358.0</ele><time>2026-05-02T11:22:44.645Z</time></trkpt><trkpt lat="45.0889945" lon="7.9495663"><ele>358.0</ele><time>2026-05-02T11:22:45.644Z</time></trkpt><trkpt lat="45.0891539" lon="7.9496952"><ele>358.0</ele><time>2026-05-02T11:22:46.645Z</time></trkpt><trkpt lat="45.0893034" lon="7.9498405"><ele>360.66666666666663</ele><time>2026-05-02T11:22:47.644Z</time></trkpt><trkpt lat="45.08944" lon="7.9500236"><ele>363.3333333333333</ele><time>2026-05-02T11:22:48.644Z</time></trkpt><trkpt lat="45.0895353" lon="7.9502377"><ele>366.0</ele><time>2026-05-02T11:22:49.645Z</time></trkpt><trkpt lat="45.0896135" lon="7.9504421"><ele>366.0</ele><time>2026-05-02T11:22:50.645Z</time></trkpt><trkpt lat="45.089676" lon="7.9506223"><ele>366.0</ele><time>2026-05-02T11:22:51.645Z</time></trkpt><trkpt lat="45.0897375" lon="7.9507605"><ele>366.0</ele><time>2026-05-02T11:22:52.645Z</time></trkpt><trkpt lat="45.089808" lon="7.9508366"><ele>366.0</ele><time>2026-05-02T11:22:53.645Z</time></trkpt><trkpt lat="45.0898984" lon="7.950894"><ele>366.0</ele><time>2026-05-02T11:22:54.645Z</time></trkpt><trkpt lat="45.0900097" lon="7.9509746"><ele>366.3333333333333</ele><time>2026-05-02T11:22:55.645Z</time></trkpt><trkpt lat="45.0901488" lon="7.9510389"><ele>366.66666666666663</ele><time>2026-05-02T11:22:56.644Z</time></trkpt><trkpt lat="45.0903125" lon="7.9510981"><ele>367.0</ele><time>2026-05-02T11:22:57.645Z</time></trkpt><trkpt lat="45.0904774" lon="7.9511317"><ele>367.0</ele><time>2026-05-02T11:22:58.645Z</time></trkpt><trkpt lat="45.0906339" lon="7.9511651"><ele>367.0</ele><time>2026-05-02T11:22:59.645Z</time></trkpt><trkpt lat="45.0907806" lon="7.9512057"><ele>367.0</ele><time>2026-05-02T11:23:00.645Z</time></trkpt><trkpt lat="45.0909192" lon="7.9512496"><ele>371.0</ele><time>2026-05-02T11:23:01.645Z</time></trkpt><trkpt lat="45.0910586" lon="7.951286"><ele>375.0</ele><time>2026-05-02T11:23:02.645Z</time></trkpt><trkpt lat="45.0912054" lon="7.9513381"><ele>379.0</ele><time>2026-05-02T11:23:03.645Z</time></trkpt><trkpt lat="45.0913568" lon="7.9513916"><ele>383.0</ele><time>2026-05-02T11:23:04.645Z</time></trkpt><trkpt lat="45.091506" lon="7.951454"><ele>385.5</ele><time>2026-05-02T11:23:05.644Z</time></trkpt><trkpt lat="45.0916478" lon="7.9515157"><ele>388.0</ele><time>2026-05-02T11:23:06.645Z</time></trkpt><trkpt lat="45.0917785" lon="7.9515923"><ele>390.5</ele><time>2026-05-02T11:23:07.644Z</time></trkpt><trkpt lat="45.0919062" lon="7.9516978"><ele>393.0</ele><time>2026-05-02T11:23:08.644Z</time></trkpt><trkpt lat="45.0920232" lon="7.951839"><ele>396.33333333333337</ele><time>2026-05-02T11:23:09.645Z</time></trkpt><trkpt lat="45.0921532" lon="7.9520011"><ele>399.6666666666667</ele><time>2026-05-02T11:23:10.645Z</time></trkpt><trkpt lat="45.092278" lon="7.952166"><ele>403.0</ele><time>2026-05-02T11:23:11.644Z</time></trkpt><trkpt lat="45.0923987" lon="7.9523213"><ele>404.0</ele><time>2026-05-02T11:23:12.645Z</time></trkpt><trkpt lat="45.0925158" lon="7.9524646"><ele>405.0</ele><time>2026-05-02T11:23:13.645Z</time></trkpt><trkpt lat="45.0926278" lon="7.9525826"><ele>406.0</ele><time>2026-05-02T11:23:14.645Z</time></trkpt><trkpt lat="45.092735" lon="7.9526681"><ele>407.0</ele><time>2026-05-02T11:23:15.644Z</time></trkpt><trkpt lat="45.0928321" lon="7.9527221"><ele>406.99999999999994</ele><time>2026-05-02T11:23:16.644Z</time></trkpt><trkpt lat="45.0929366" lon="7.9527469"><ele>407.0</ele><time>2026-05-02T11:23:17.645Z</time></trkpt><trkpt lat="45.0930261" lon="7.9527627"><ele>407.0</ele><time>2026-05-02T11:23:18.645Z</time></trkpt><trkpt lat="45.0931141" lon="7.9527818"><ele>407.0</ele><time>2026-05-02T11:23:19.644Z</time></trkpt><trkpt lat="45.0931846" lon="7.9527875"><ele>406.99999999999994</ele><time>2026-05-02T11:23:20.644Z</time></trkpt><trkpt lat="45.093267" lon="7.9527892"><ele>407.0</ele><time>2026-05-02T11:23:21.645Z</time></trkpt><trkpt lat="45.0933423" lon="7.9527885"><ele>407.40000000000003</ele><time>2026-05-02T11:23:22.646Z</time></trkpt><trkpt lat="45.0934357" lon="7.9527831"><ele>407.8</ele><time>2026-05-02T11:23:23.646Z</time></trkpt><trkpt lat="45.0935443" lon="7.9527901"><ele>408.2</ele><time>2026-05-02T11:23:24.646Z</time></trkpt><trkpt lat="45.0936675" lon="7.952815"><ele>408.6</ele><time>2026-05-02T11:23:25.646Z</time></trkpt><trkpt lat="45.0937832" lon="7.9528382"><ele>409.0</ele><time>2026-05-02T11:23:26.645Z</time></trkpt><trkpt lat="45.0938989" lon="7.9528597"><ele>409.00000000000006</ele><time>2026-05-02T11:23:27.646Z</time></trkpt><trkpt lat="45.0940006" lon="7.9528714"><ele>409.0</ele><time>2026-05-02T11:23:28.645Z</time></trkpt><trkpt lat="45.094085" lon="7.9528894"><ele>409.0</ele><time>2026-05-02T11:23:29.646Z</time></trkpt><trkpt lat="45.0941602" lon="7.9528955"><ele>409.0</ele><time>2026-05-02T11:23:30.646Z</time></trkpt><trkpt lat="45.0942321" lon="7.952907"><ele>409.00000000000006</ele><time>2026-05-02T11:23:31.646Z</time></trkpt><trkpt lat="45.0942989" lon="7.9529115"><ele>409.0</ele><time>2026-05-02T11:23:32.646Z</time></trkpt><trkpt lat="45.094372" lon="7.9529165"><ele>407.57142857142856</ele><time>2026-05-02T11:23:33.646Z</time></trkpt><trkpt lat="45.0944544" lon="7.9529241"><ele>406.14285714285717</ele><time>2026-05-02T11:23:34.645Z</time></trkpt><trkpt lat="45.0945389" lon="7.9529363"><ele>404.7142857142857</ele><time>2026-05-02T11:23:35.645Z</time></trkpt><trkpt lat="45.0946081" lon="7.9529581"><ele>403.2857142857143</ele><time>2026-05-02T11:23:36.646Z</time></trkpt><trkpt lat="45.0946668" lon="7.9529947"><ele>401.8571428571429</ele><time>2026-05-02T11:23:37.645Z</time></trkpt><trkpt lat="45.0947294" lon="7.9530248"><ele>400.42857142857144</ele><time>2026-05-02T11:23:40.646Z</time></trkpt><trkpt lat="45.0948036" lon="7.9530374"><ele>399.0</ele><time>2026-05-02T11:23:43.646Z</time></trkpt><trkpt lat="45.0947569" lon="7.9529709"><ele>399.0</ele><time>2026-05-02T11:23:47.646Z</time></trkpt><trkpt lat="45.094681" lon="7.9529745"><ele>399.0</ele><time>2026-05-02T11:23:49.646Z</time></trkpt><trkpt lat="45.0946216" lon="7.9530605"><ele>399.0</ele><time>2026-05-02T11:23:51.646Z</time></trkpt><trkpt lat="45.0946892" lon="7.9531144"><ele>399.0</ele><time>2026-05-02T11:24:07.646Z</time></trkpt><trkpt lat="45.0947618" lon="7.9532485"><ele>399.0</ele><time>2026-05-02T11:27:10.648Z</time></trkpt><trkpt lat="45.0946995" lon="7.9532101"><ele>399.0</ele><time>2026-05-02T11:27:23.741Z</time></trkpt><trkpt lat="45.0946335" lon="7.9530656"><ele>399.0</ele><time>2026-05-02T11:27:45.017Z</time></trkpt><trkpt lat="45.0947028" lon="7.9530888"><ele>399.0</ele><time>2026-05-02T11:34:37.651Z</time></trkpt><trkpt lat="45.0948163" lon="7.9530098"><ele>399.0</ele><time>2026-05-02T11:34:39.652Z</time></trkpt><trkpt lat="45.0948905" lon="7.9529715"><ele>399.0</ele><time>2026-05-02T11:34:40.652Z</time></trkpt><trkpt lat="45.0949663" lon="7.9529506"><ele>399.0</ele><time>2026-05-02T11:34:41.652Z</time></trkpt><trkpt lat="45.0950324" lon="7.9529553"><ele>399.0</ele><time>2026-05-02T11:34:42.652Z</time></trkpt><trkpt lat="45.0951412" lon="7.9529927"><ele>398.0</ele><time>2026-05-02T11:34:44.652Z</time></trkpt><trkpt lat="45.0952441" lon="7.9530177"><ele>397.0</ele><time>2026-05-02T11:34:46.652Z</time></trkpt><trkpt lat="45.0953292" lon="7.9530011"><ele>396.0</ele><time>2026-05-02T11:34:48.651Z</time></trkpt><trkpt lat="45.0954392" lon="7.9529493"><ele>395.0</ele><time>2026-05-02T11:34:50.652Z</time></trkpt><trkpt lat="45.0955102" lon="7.9529118"><ele>394.0</ele><time>2026-05-02T11:34:51.651Z</time></trkpt><trkpt lat="45.0955954" lon="7.952873"><ele>394.00000000000006</ele><time>2026-05-02T11:34:52.651Z</time></trkpt><trkpt lat="45.095685" lon="7.9528456"><ele>394.0</ele><time>2026-05-02T11:34:53.652Z</time></trkpt><trkpt lat="45.0957782" lon="7.9528292"><ele>394.0</ele><time>2026-05-02T11:34:54.651Z</time></trkpt><trkpt lat="45.0958643" lon="7.9528294"><ele>394.0</ele><time>2026-05-02T11:34:55.652Z</time></trkpt><trkpt lat="45.0959312" lon="7.9528343"><ele>394.00000000000006</ele><time>2026-05-02T11:34:56.652Z</time></trkpt><trkpt lat="45.096025" lon="7.9528965"><ele>394.0</ele><time>2026-05-02T11:35:14.652Z</time></trkpt><trkpt lat="45.0961603" lon="7.952925"><ele>395.00000000000006</ele><time>2026-05-02T11:35:16.652Z</time></trkpt><trkpt lat="45.0962382" lon="7.9529674"><ele>396.0</ele><time>2026-05-02T11:35:17.652Z</time></trkpt><trkpt lat="45.0962991" lon="7.9530218"><ele>397.0</ele><time>2026-05-02T11:35:18.651Z</time></trkpt><trkpt lat="45.0963591" lon="7.9531335"><ele>398.0</ele><time>2026-05-02T11:35:20.652Z</time></trkpt><trkpt lat="45.0963662" lon="7.9532271"><ele>399.00000000000006</ele><time>2026-05-02T11:35:22.652Z</time></trkpt><trkpt lat="45.0963148" lon="7.9532805"><ele>400.0</ele><time>2026-05-02T11:35:28.651Z</time></trkpt><trkpt lat="45.096312" lon="7.9531368"><ele>400.00000000000006</ele><time>2026-05-02T11:35:42.651Z</time></trkpt><trkpt lat="45.0962384" lon="7.9530074"><ele>400.0</ele><time>2026-05-02T11:35:44.652Z</time></trkpt><trkpt lat="45.0961775" lon="7.952972"><ele>400.0</ele><time>2026-05-02T11:35:45.652Z</time></trkpt><trkpt lat="45.096108" lon="7.9529622"><ele>400.0</ele><time>2026-05-02T11:35:46.651Z</time></trkpt><trkpt lat="45.0960366" lon="7.9529587"><ele>400.00000000000006</ele><time>2026-05-02T11:35:47.651Z</time></trkpt><trkpt lat="45.0959697" lon="7.9529528"><ele>400.0</ele><time>2026-05-02T11:35:48.652Z</time></trkpt><trkpt lat="45.0958926" lon="7.9529226"><ele>400.0</ele><time>2026-05-02T11:35:50.652Z</time></trkpt><trkpt lat="45.095913" lon="7.9528375"><ele>400.0</ele><time>2026-05-02T11:35:53.652Z</time></trkpt><trkpt lat="45.0959997" lon="7.9528352"><ele>400.0</ele><time>2026-05-02T11:35:55.651Z</time></trkpt><trkpt lat="45.0961189" lon="7.9528628"><ele>400.0</ele><time>2026-05-02T11:35:57.652Z</time></trkpt><trkpt lat="45.0962532" lon="7.9528652"><ele>400.0</ele><time>2026-05-02T11:35:59.653Z</time></trkpt><trkpt lat="45.0963359" lon="7.9528647"><ele>400.00000000000006</ele><time>2026-05-02T11:36:00.652Z</time></trkpt><trkpt lat="45.0964303" lon="7.9528691"><ele>400.0</ele><time>2026-05-02T11:36:01.652Z</time></trkpt><trkpt lat="45.0965163" lon="7.9528729"><ele>400.0</ele><time>2026-05-02T11:36:02.653Z</time></trkpt><trkpt lat="45.096595" lon="7.9528794"><ele>400.0</ele><time>2026-05-02T11:36:03.653Z</time></trkpt><trkpt lat="45.0966632" lon="7.952886"><ele>400.00000000000006</ele><time>2026-05-02T11:36:04.653Z</time></trkpt><trkpt lat="45.0967291" lon="7.952892"><ele>400.0</ele><time>2026-05-02T11:36:05.652Z</time></trkpt><trkpt lat="45.0967991" lon="7.9529017"><ele>401.1666666666667</ele><time>2026-05-02T11:36:06.653Z</time></trkpt><trkpt lat="45.0968701" lon="7.9529201"><ele>402.33333333333337</ele><time>2026-05-02T11:36:07.653Z</time></trkpt><trkpt lat="45.0969401" lon="7.9529455"><ele>403.5</ele><time>2026-05-02T11:36:08.652Z</time></trkpt><trkpt lat="45.0970125" lon="7.9529906"><ele>404.66666666666663</ele><time>2026-05-02T11:36:09.652Z</time></trkpt><trkpt lat="45.0970785" lon="7.9530536"><ele>405.8333333333333</ele><time>2026-05-02T11:36:10.653Z</time></trkpt><trkpt lat="45.0971446" lon="7.9531335"><ele>407.0</ele><time>2026-05-02T11:36:11.652Z</time></trkpt><trkpt lat="45.0972075" lon="7.9532224"><ele>407.0</ele><time>2026-05-02T11:36:12.653Z</time></trkpt><trkpt lat="45.097261" lon="7.9533017"><ele>407.0</ele><time>2026-05-02T11:36:13.653Z</time></trkpt><trkpt lat="45.097305" lon="7.9533762"><ele>407.0</ele><time>2026-05-02T11:36:14.653Z</time></trkpt><trkpt lat="45.0973785" lon="7.9534903"><ele>407.0</ele><time>2026-05-02T11:36:16.652Z</time></trkpt><trkpt lat="45.097465" lon="7.9535838"><ele>407.0</ele><time>2026-05-02T11:36:18.653Z</time></trkpt><trkpt lat="45.0975791" lon="7.9536429"><ele>408.99999999999994</ele><time>2026-05-02T11:36:20.653Z</time></trkpt><trkpt lat="45.0976571" lon="7.9536614"><ele>411.0</ele><time>2026-05-02T11:36:21.653Z</time></trkpt><trkpt lat="45.0977422" lon="7.9536835"><ele>413.0</ele><time>2026-05-02T11:36:22.653Z</time></trkpt><trkpt lat="45.0978199" lon="7.9536885"><ele>415.0</ele><time>2026-05-02T11:36:23.652Z</time></trkpt><trkpt lat="45.0978956" lon="7.9536933"><ele>416.99999999999994</ele><time>2026-05-02T11:36:24.652Z</time></trkpt><trkpt lat="45.0979654" lon="7.9537067"><ele>419.0</ele><time>2026-05-02T11:36:25.652Z</time></trkpt><trkpt lat="45.0980795" lon="7.9537536"><ele>418.99999999999994</ele><time>2026-05-02T11:36:27.653Z</time></trkpt><trkpt lat="45.0981359" lon="7.9538092"><ele>419.0</ele><time>2026-05-02T11:36:28.652Z</time></trkpt><trkpt lat="45.098196" lon="7.9538938"><ele>419.0</ele><time>2026-05-02T11:36:29.653Z</time></trkpt><trkpt lat="45.0982469" lon="7.9539741"><ele>419.0</ele><time>2026-05-02T11:36:30.653Z</time></trkpt><trkpt lat="45.0982943" lon="7.9540582"><ele>418.99999999999994</ele><time>2026-05-02T11:36:31.653Z</time></trkpt><trkpt lat="45.0983405" lon="7.9541465"><ele>419.0</ele><time>2026-05-02T11:36:32.653Z</time></trkpt><trkpt lat="45.0983669" lon="7.9542445"><ele>418.8333333333333</ele><time>2026-05-02T11:36:33.653Z</time></trkpt><trkpt lat="45.0983821" lon="7.954359"><ele>418.66666666666663</ele><time>2026-05-02T11:36:34.652Z</time></trkpt><trkpt lat="45.0983855" lon="7.9544693"><ele>418.5</ele><time>2026-05-02T11:36:35.652Z</time></trkpt><trkpt lat="45.0983862" lon="7.9545994"><ele>418.33333333333337</ele><time>2026-05-02T11:36:36.653Z</time></trkpt><trkpt lat="45.0983845" lon="7.9547351"><ele>418.1666666666667</ele><time>2026-05-02T11:36:37.652Z</time></trkpt><trkpt lat="45.0983814" lon="7.954859"><ele>418.0</ele><time>2026-05-02T11:36:38.653Z</time></trkpt><trkpt lat="45.0983779" lon="7.9549819"><ele>419.00000000000006</ele><time>2026-05-02T11:36:39.653Z</time></trkpt><trkpt lat="45.0983764" lon="7.9550982"><ele>420.0</ele><time>2026-05-02T11:36:40.653Z</time></trkpt><trkpt lat="45.0983721" lon="7.9552233"><ele>421.0</ele><time>2026-05-02T11:36:41.653Z</time></trkpt><trkpt lat="45.0983651" lon="7.9553454"><ele>422.0</ele><time>2026-05-02T11:36:42.653Z</time></trkpt><trkpt lat="45.0983577" lon="7.9554596"><ele>423.00000000000006</ele><time>2026-05-02T11:36:43.653Z</time></trkpt><trkpt lat="45.0983546" lon="7.9555555"><ele>424.0</ele><time>2026-05-02T11:36:44.652Z</time></trkpt><trkpt lat="45.0983751" lon="7.9557381"><ele>424.00000000000006</ele><time>2026-05-02T11:36:46.653Z</time></trkpt><trkpt lat="45.0983907" lon="7.9558423"><ele>424.0</ele><time>2026-05-02T11:36:47.653Z</time></trkpt><trkpt lat="45.0984058" lon="7.9559469"><ele>424.0</ele><time>2026-05-02T11:36:48.652Z</time></trkpt><trkpt lat="45.098419" lon="7.9560628"><ele>424.0</ele><time>2026-05-02T11:36:49.653Z</time></trkpt><trkpt lat="45.0984394" lon="7.9561867"><ele>424.00000000000006</ele><time>2026-05-02T11:36:50.653Z</time></trkpt><trkpt lat="45.0984549" lon="7.9562957"><ele>424.0</ele><time>2026-05-02T11:36:51.652Z</time></trkpt><trkpt lat="45.0984682" lon="7.9563935"><ele>425.0</ele><time>2026-05-02T11:36:52.653Z</time></trkpt><trkpt lat="45.0984758" lon="7.956486"><ele>426.0</ele><time>2026-05-02T11:36:53.653Z</time></trkpt><trkpt lat="45.0984845" lon="7.9566587"><ele>427.0</ele><time>2026-05-02T11:36:55.653Z</time></trkpt><trkpt lat="45.0985065" lon="7.9568158"><ele>428.0</ele><time>2026-05-02T11:36:57.653Z</time></trkpt><trkpt lat="45.098563" lon="7.956953"><ele>429.0</ele><time>2026-05-02T11:36:59.653Z</time></trkpt><trkpt lat="45.0986062" lon="7.957033"><ele>431.3333333333333</ele><time>2026-05-02T11:37:00.653Z</time></trkpt><trkpt lat="45.0986557" lon="7.9571258"><ele>433.66666666666663</ele><time>2026-05-02T11:37:01.653Z</time></trkpt><trkpt lat="45.0987155" lon="7.9572168"><ele>436.0</ele><time>2026-05-02T11:37:02.653Z</time></trkpt><trkpt lat="45.09878" lon="7.9573007"><ele>438.3333333333333</ele><time>2026-05-02T11:37:03.653Z</time></trkpt><trkpt lat="45.0988431" lon="7.9573857"><ele>440.66666666666663</ele><time>2026-05-02T11:37:04.653Z</time></trkpt><trkpt lat="45.0988993" lon="7.9574627"><ele>443.0</ele><time>2026-05-02T11:37:05.653Z</time></trkpt><trkpt lat="45.0989506" lon="7.9575507"><ele>443.79999999999995</ele><time>2026-05-02T11:37:06.652Z</time></trkpt><trkpt lat="45.0989951" lon="7.957652"><ele>444.59999999999997</ele><time>2026-05-02T11:37:07.652Z</time></trkpt><trkpt lat="45.0990255" lon="7.957756"><ele>445.40000000000003</ele><time>2026-05-02T11:37:08.653Z</time></trkpt><trkpt lat="45.0990611" lon="7.9578631"><ele>446.20000000000005</ele><time>2026-05-02T11:37:09.653Z</time></trkpt><trkpt lat="45.099117" lon="7.9579867"><ele>447.0</ele><time>2026-05-02T11:37:11.653Z</time></trkpt><trkpt lat="45.0992047" lon="7.9580725"><ele>444.5</ele><time>2026-05-02T11:37:13.653Z</time></trkpt><trkpt lat="45.0992735" lon="7.9581065"><ele>442.0</ele><time>2026-05-02T11:37:14.653Z</time></trkpt><trkpt lat="45.0993487" lon="7.958138"><ele>439.5</ele><time>2026-05-02T11:37:15.652Z</time></trkpt><trkpt lat="45.0994204" lon="7.9581735"><ele>437.0</ele><time>2026-05-02T11:37:16.653Z</time></trkpt><trkpt lat="45.0994803" lon="7.958204"><ele>434.5</ele><time>2026-05-02T11:37:17.652Z</time></trkpt><trkpt lat="45.0995975" lon="7.9582699"><ele>432.0</ele><time>2026-05-02T11:37:19.653Z</time></trkpt><trkpt lat="45.0996624" lon="7.9583123"><ele>432.0</ele><time>2026-05-02T11:37:20.652Z</time></trkpt><trkpt lat="45.0997265" lon="7.9583518"><ele>432.0</ele><time>2026-05-02T11:37:21.653Z</time></trkpt><trkpt lat="45.0997867" lon="7.9584028"><ele>432.0</ele><time>2026-05-02T11:37:22.653Z</time></trkpt><trkpt lat="45.0998409" lon="7.9584558"><ele>432.0</ele><time>2026-05-02T11:37:23.652Z</time></trkpt><trkpt lat="45.099891" lon="7.9585105"><ele>432.0</ele><time>2026-05-02T11:37:24.653Z</time></trkpt><trkpt lat="45.0999668" lon="7.9586074"><ele>432.0</ele><time>2026-05-02T11:37:26.653Z</time></trkpt><trkpt lat="45.1000267" lon="7.9587452"><ele>430.42857142857144</ele><time>2026-05-02T11:37:28.653Z</time></trkpt><trkpt lat="45.1000605" lon="7.9588271"><ele>428.85714285714283</ele><time>2026-05-02T11:37:29.653Z</time></trkpt><trkpt lat="45.1000876" lon="7.9589092"><ele>427.28571428571433</ele><time>2026-05-02T11:37:30.653Z</time></trkpt><trkpt lat="45.1000946" lon="7.9590262"><ele>425.7142857142857</ele><time>2026-05-02T11:37:32.653Z</time></trkpt><trkpt lat="45.1000852" lon="7.9591177"><ele>424.14285714285717</ele><time>2026-05-02T11:37:34.653Z</time></trkpt><trkpt lat="45.1000502" lon="7.9592054"><ele>422.5714285714286</ele><time>2026-05-02T11:37:36.653Z</time></trkpt><trkpt lat="45.1000011" lon="7.9593069"><ele>421.0</ele><time>2026-05-02T11:37:38.653Z</time></trkpt><trkpt lat="45.0999295" lon="7.9594218"><ele>421.6</ele><time>2026-05-02T11:37:40.652Z</time></trkpt><trkpt lat="45.0998655" lon="7.9595395"><ele>422.20000000000005</ele><time>2026-05-02T11:37:42.652Z</time></trkpt><trkpt lat="45.0998442" lon="7.9596956"><ele>422.79999999999995</ele><time>2026-05-02T11:37:44.653Z</time></trkpt><trkpt lat="45.0998767" lon="7.9598577"><ele>423.4</ele><time>2026-05-02T11:37:46.652Z</time></trkpt><trkpt lat="45.0999284" lon="7.9599995"><ele>424.0</ele><time>2026-05-02T11:37:48.653Z</time></trkpt><trkpt lat="45.0999718" lon="7.9600979"><ele>421.6666666666667</ele><time>2026-05-02T11:37:50.653Z</time></trkpt><trkpt lat="45.1000201" lon="7.960181"><ele>419.33333333333337</ele><time>2026-05-02T11:38:03.653Z</time></trkpt><trkpt lat="45.1000757" lon="7.9602808"><ele>417.0</ele><time>2026-05-02T11:38:05.654Z</time></trkpt><trkpt lat="45.1001404" lon="7.96028"><ele>414.66666666666663</ele><time>2026-05-02T11:38:12.654Z</time></trkpt><trkpt lat="45.1002067" lon="7.9602695"><ele>412.3333333333333</ele><time>2026-05-02T11:38:23.654Z</time></trkpt><trkpt lat="45.1002502" lon="7.9603521"><ele>410.0</ele><time>2026-05-02T11:38:25.654Z</time></trkpt><trkpt lat="45.1003249" lon="7.9604594"><ele>410.0</ele><time>2026-05-02T11:38:27.654Z</time></trkpt><trkpt lat="45.1003695" lon="7.9605238"><ele>410.0</ele><time>2026-05-02T11:38:29.654Z</time></trkpt><trkpt lat="45.1004221" lon="7.9605908"><ele>410.0</ele><time>2026-05-02T11:38:32.654Z</time></trkpt><trkpt lat="45.1004736" lon="7.9606509"><ele>410.0</ele><time>2026-05-02T11:38:34.653Z</time></trkpt><trkpt lat="45.1005325" lon="7.9606863"><ele>410.0</ele><time>2026-05-02T11:38:48.654Z</time></trkpt><trkpt lat="45.100583" lon="7.9607465"><ele>410.0</ele><time>2026-05-02T11:38:50.654Z</time></trkpt><trkpt lat="45.1006534" lon="7.9607875"><ele>410.0</ele><time>2026-05-02T11:38:54.654Z</time></trkpt><trkpt lat="45.1007221" lon="7.9608674"><ele>409.66666666666663</ele><time>2026-05-02T11:38:57.654Z</time></trkpt><trkpt lat="45.1007722" lon="7.9609343"><ele>409.3333333333333</ele><time>2026-05-02T11:38:59.653Z</time></trkpt><trkpt lat="45.1008311" lon="7.9610352"><ele>409.0</ele><time>2026-05-02T11:39:02.654Z</time></trkpt><trkpt lat="45.1008753" lon="7.9611219"><ele>408.66666666666663</ele><time>2026-05-02T11:39:04.654Z</time></trkpt><trkpt lat="45.1009148" lon="7.9612185"><ele>408.3333333333333</ele><time>2026-05-02T11:39:06.654Z</time></trkpt><trkpt lat="45.1009502" lon="7.961329"><ele>408.0</ele><time>2026-05-02T11:39:08.654Z</time></trkpt><trkpt lat="45.1009631" lon="7.9614468"><ele>408.0</ele><time>2026-05-02T11:39:10.654Z</time></trkpt><trkpt lat="45.100986" lon="7.9615683"><ele>408.0</ele><time>2026-05-02T11:39:13.654Z</time></trkpt><trkpt lat="45.1010234" lon="7.9616478"><ele>408.0</ele><time>2026-05-02T11:39:15.654Z</time></trkpt><trkpt lat="45.1010851" lon="7.9617465"><ele>408.0</ele><time>2026-05-02T11:39:17.654Z</time></trkpt><trkpt lat="45.1011537" lon="7.9618593"><ele>408.0</ele><time>2026-05-02T11:39:19.653Z</time></trkpt><trkpt lat="45.101231" lon="7.9620073"><ele>409.0</ele><time>2026-05-02T11:39:21.654Z</time></trkpt><trkpt lat="45.1012683" lon="7.9620842"><ele>410.0</ele><time>2026-05-02T11:39:22.654Z</time></trkpt><trkpt lat="45.1013237" lon="7.9622178"><ele>411.0</ele><time>2026-05-02T11:39:24.653Z</time></trkpt><trkpt lat="45.1013768" lon="7.9622984"><ele>412.0</ele><time>2026-05-02T11:39:26.654Z</time></trkpt><trkpt lat="45.1014379" lon="7.9623543"><ele>413.0</ele><time>2026-05-02T11:39:28.654Z</time></trkpt><trkpt lat="45.1015282" lon="7.9624211"><ele>414.0</ele><time>2026-05-02T11:39:30.653Z</time></trkpt><trkpt lat="45.1016255" lon="7.9624443"><ele>411.2</ele><time>2026-05-02T11:39:32.653Z</time></trkpt><trkpt lat="45.1017283" lon="7.9624401"><ele>408.4</ele><time>2026-05-02T11:39:34.654Z</time></trkpt><trkpt lat="45.1018281" lon="7.9624502"><ele>405.6</ele><time>2026-05-02T11:39:36.654Z</time></trkpt><trkpt lat="45.1019506" lon="7.9624385"><ele>402.8</ele><time>2026-05-02T11:39:38.653Z</time></trkpt><trkpt lat="45.1020438" lon="7.962394"><ele>400.0</ele><time>2026-05-02T11:39:39.654Z</time></trkpt><trkpt lat="45.1021198" lon="7.9623425"><ele>400.0</ele><time>2026-05-02T11:39:40.654Z</time></trkpt><trkpt lat="45.1022071" lon="7.9622839"><ele>400.0</ele><time>2026-05-02T11:39:42.654Z</time></trkpt><trkpt lat="45.1023064" lon="7.9622924"><ele>400.0</ele><time>2026-05-02T11:39:44.654Z</time></trkpt><trkpt lat="45.1024123" lon="7.9623604"><ele>400.0</ele><time>2026-05-02T11:39:46.654Z</time></trkpt><trkpt lat="45.1024778" lon="7.962453"><ele>400.0</ele><time>2026-05-02T11:39:48.654Z</time></trkpt><trkpt lat="45.1025471" lon="7.9624502"><ele>400.00000000000006</ele><time>2026-05-02T11:39:51.654Z</time></trkpt><trkpt lat="45.1025721" lon="7.9623276"><ele>400.0</ele><time>2026-05-02T11:39:54.655Z</time></trkpt><trkpt lat="45.1025543" lon="7.9622367"><ele>400.0</ele><time>2026-05-02T11:39:57.655Z</time></trkpt><trkpt lat="45.1024907" lon="7.9621559"><ele>400.0</ele><time>2026-05-02T11:40:00.654Z</time></trkpt><trkpt lat="45.1024343" lon="7.9621077"><ele>400.00000000000006</ele><time>2026-05-02T11:40:02.655Z</time></trkpt><trkpt lat="45.102366" lon="7.9620405"><ele>400.0</ele><time>2026-05-02T11:40:04.654Z</time></trkpt><trkpt lat="45.1023629" lon="7.9619401"><ele>395.8</ele><time>2026-05-02T11:40:07.654Z</time></trkpt><trkpt lat="45.1024546" lon="7.9619316"><ele>391.6</ele><time>2026-05-02T11:40:10.655Z</time></trkpt><trkpt lat="45.1025465" lon="7.9619581"><ele>387.4</ele><time>2026-05-02T11:40:12.655Z</time></trkpt><trkpt lat="45.1026372" lon="7.9619956"><ele>383.2</ele><time>2026-05-02T11:40:14.655Z</time></trkpt><trkpt lat="45.1027311" lon="7.9620617"><ele>379.0</ele><time>2026-05-02T11:40:16.654Z</time></trkpt><trkpt lat="45.1028092" lon="7.9621406"><ele>379.0</ele><time>2026-05-02T11:40:18.655Z</time></trkpt><trkpt lat="45.1028646" lon="7.9622283"><ele>379.0</ele><time>2026-05-02T11:40:20.655Z</time></trkpt><trkpt lat="45.1028805" lon="7.9623439"><ele>379.0</ele><time>2026-05-02T11:40:22.655Z</time></trkpt><trkpt lat="45.1028942" lon="7.9624832"><ele>379.0</ele><time>2026-05-02T11:40:24.655Z</time></trkpt><trkpt lat="45.102914" lon="7.9626387"><ele>379.0</ele><time>2026-05-02T11:40:26.655Z</time></trkpt><trkpt lat="45.1029236" lon="7.9627729"><ele>376.79999999999995</ele><time>2026-05-02T11:40:28.654Z</time></trkpt><trkpt lat="45.1029631" lon="7.9628835"><ele>374.59999999999997</ele><time>2026-05-02T11:40:30.654Z</time></trkpt><trkpt lat="45.1030209" lon="7.9629339"><ele>372.4</ele><time>2026-05-02T11:40:32.655Z</time></trkpt><trkpt lat="45.1031087" lon="7.9629022"><ele>370.2</ele><time>2026-05-02T11:40:34.655Z</time></trkpt><trkpt lat="45.1032122" lon="7.9628395"><ele>368.0</ele><time>2026-05-02T11:40:36.655Z</time></trkpt><trkpt lat="45.1033214" lon="7.9627784"><ele>363.83333333333337</ele><time>2026-05-02T11:40:38.655Z</time></trkpt><trkpt lat="45.103408" lon="7.9627406"><ele>359.6666666666667</ele><time>2026-05-02T11:40:40.655Z</time></trkpt><trkpt lat="45.1034864" lon="7.9627339"><ele>355.5</ele><time>2026-05-02T11:40:42.655Z</time></trkpt><trkpt lat="45.1035824" lon="7.9627152"><ele>351.3333333333333</ele><time>2026-05-02T11:40:44.655Z</time></trkpt><trkpt lat="45.1036665" lon="7.9626914"><ele>347.16666666666663</ele><time>2026-05-02T11:40:45.654Z</time></trkpt><trkpt lat="45.1037531" lon="7.9626558"><ele>343.0</ele><time>2026-05-02T11:40:46.655Z</time></trkpt><trkpt lat="45.1038427" lon="7.9626195"><ele>343.0</ele><time>2026-05-02T11:40:47.655Z</time></trkpt><trkpt lat="45.1039311" lon="7.9625896"><ele>343.0</ele><time>2026-05-02T11:40:48.655Z</time></trkpt><trkpt lat="45.1040155" lon="7.9625668"><ele>343.0</ele><time>2026-05-02T11:40:49.655Z</time></trkpt><trkpt lat="45.1040906" lon="7.9625457"><ele>343.0</ele><time>2026-05-02T11:40:50.655Z</time></trkpt><trkpt lat="45.1041551" lon="7.9625325"><ele>343.0</ele><time>2026-05-02T11:40:51.655Z</time></trkpt><trkpt lat="45.1042513" lon="7.9625036"><ele>343.0</ele><time>2026-05-02T11:40:53.655Z</time></trkpt><trkpt lat="45.1043399" lon="7.9624244"><ele>343.7142857142857</ele><time>2026-05-02T11:40:55.655Z</time></trkpt><trkpt lat="45.1044251" lon="7.9623335"><ele>344.42857142857144</ele><time>2026-05-02T11:40:57.655Z</time></trkpt><trkpt lat="45.1044748" lon="7.9622733"><ele>345.1428571428571</ele><time>2026-05-02T11:40:58.654Z</time></trkpt><trkpt lat="45.1045204" lon="7.9622117"><ele>345.8571428571429</ele><time>2026-05-02T11:40:59.654Z</time></trkpt><trkpt lat="45.1045712" lon="7.9621411"><ele>346.57142857142856</ele><time>2026-05-02T11:41:00.655Z</time></trkpt><trkpt lat="45.1046229" lon="7.9620754"><ele>347.2857142857143</ele><time>2026-05-02T11:41:01.655Z</time></trkpt><trkpt lat="45.104679" lon="7.9620164"><ele>348.0</ele><time>2026-05-02T11:41:02.655Z</time></trkpt><trkpt lat="45.1047388" lon="7.9619648"><ele>348.0</ele><time>2026-05-02T11:41:03.654Z</time></trkpt><trkpt lat="45.1047976" lon="7.9619155"><ele>348.0</ele><time>2026-05-02T11:41:04.654Z</time></trkpt><trkpt lat="45.1048541" lon="7.9618751"><ele>348.0</ele><time>2026-05-02T11:41:05.655Z</time></trkpt><trkpt lat="45.1049715" lon="7.96182"><ele>348.0</ele><time>2026-05-02T11:41:07.655Z</time></trkpt><trkpt lat="45.1050426" lon="7.9618009"><ele>348.0</ele><time>2026-05-02T11:41:08.655Z</time></trkpt><trkpt lat="45.1051098" lon="7.961782"><ele>348.0</ele><time>2026-05-02T11:41:09.654Z</time></trkpt><trkpt lat="45.1051722" lon="7.9617617"><ele>346.59999999999997</ele><time>2026-05-02T11:41:10.655Z</time></trkpt><trkpt lat="45.1052372" lon="7.9617366"><ele>345.2</ele><time>2026-05-02T11:41:11.655Z</time></trkpt><trkpt lat="45.1053571" lon="7.9616965"><ele>343.8</ele><time>2026-05-02T11:41:13.655Z</time></trkpt><trkpt lat="45.1054202" lon="7.9616824"><ele>342.4</ele><time>2026-05-02T11:41:14.655Z</time></trkpt><trkpt lat="45.1055356" lon="7.961664"><ele>341.0</ele><time>2026-05-02T11:41:16.654Z</time></trkpt><trkpt lat="45.1056595" lon="7.96165"><ele>340.5</ele><time>2026-05-02T11:41:18.655Z</time></trkpt><trkpt lat="45.1057272" lon="7.9616535"><ele>340.0</ele><time>2026-05-02T11:41:19.655Z</time></trkpt><trkpt lat="45.1057926" lon="7.9616608"><ele>339.5</ele><time>2026-05-02T11:41:20.655Z</time></trkpt><trkpt lat="45.1058998" lon="7.9616823"><ele>339.0</ele><time>2026-05-02T11:41:22.655Z</time></trkpt><trkpt lat="45.1059639" lon="7.9616835"><ele>338.5</ele><time>2026-05-02T11:41:24.655Z</time></trkpt><trkpt lat="45.1060466" lon="7.9616752"><ele>338.0</ele><time>2026-05-02T11:41:26.655Z</time></trkpt><trkpt lat="45.1061668" lon="7.9616469"><ele>338.0</ele><time>2026-05-02T11:41:28.655Z</time></trkpt><trkpt lat="45.1062331" lon="7.9616286"><ele>338.0</ele><time>2026-05-02T11:41:29.655Z</time></trkpt><trkpt lat="45.1063034" lon="7.9616157"><ele>338.0</ele><time>2026-05-02T11:41:30.655Z</time></trkpt><trkpt lat="45.1063784" lon="7.9615958"><ele>338.0</ele><time>2026-05-02T11:41:31.655Z</time></trkpt><trkpt lat="45.1064552" lon="7.9615641"><ele>338.0</ele><time>2026-05-02T11:41:32.654Z</time></trkpt><trkpt lat="45.106531" lon="7.9615278"><ele>338.0</ele><time>2026-05-02T11:41:33.655Z</time></trkpt><trkpt lat="45.1066025" lon="7.9614961"><ele>337.7142857142857</ele><time>2026-05-02T11:41:34.655Z</time></trkpt><trkpt lat="45.1066709" lon="7.9614739"><ele>337.42857142857144</ele><time>2026-05-02T11:41:35.654Z</time></trkpt><trkpt lat="45.1067411" lon="7.9614611"><ele>337.1428571428571</ele><time>2026-05-02T11:41:36.654Z</time></trkpt><trkpt lat="45.1068148" lon="7.9614564"><ele>336.8571428571429</ele><time>2026-05-02T11:41:37.655Z</time></trkpt><trkpt lat="45.1068894" lon="7.9614539"><ele>336.57142857142856</ele><time>2026-05-02T11:41:38.654Z</time></trkpt><trkpt lat="45.1069687" lon="7.9614514"><ele>336.2857142857143</ele><time>2026-05-02T11:41:39.655Z</time></trkpt><trkpt lat="45.1070487" lon="7.9614501"><ele>336.0</ele><time>2026-05-02T11:41:40.655Z</time></trkpt><trkpt lat="45.107126" lon="7.9614474"><ele>336.0</ele><time>2026-05-02T11:41:41.655Z</time></trkpt><trkpt lat="45.1071983" lon="7.961445"><ele>336.0</ele><time>2026-05-02T11:41:42.655Z</time></trkpt><trkpt lat="45.1072654" lon="7.9614464"><ele>336.0</ele><time>2026-05-02T11:41:43.655Z</time></trkpt><trkpt lat="45.1073716" lon="7.9614694"><ele>336.0</ele><time>2026-05-02T11:41:45.656Z</time></trkpt><trkpt lat="45.1074705" lon="7.9614796"><ele>336.0</ele><time>2026-05-02T11:41:47.656Z</time></trkpt><trkpt lat="45.107542" lon="7.9614704"><ele>336.0</ele><time>2026-05-02T11:41:49.656Z</time></trkpt><trkpt lat="45.1076041" lon="7.9614205"><ele>335.8333333333333</ele><time>2026-05-02T11:41:52.656Z</time></trkpt><trkpt lat="45.1076508" lon="7.9614827"><ele>335.6666666666667</ele><time>2026-05-02T11:41:55.656Z</time></trkpt><trkpt lat="45.1076448" lon="7.9616387"><ele>335.5</ele><time>2026-05-02T11:41:57.656Z</time></trkpt><trkpt lat="45.1076185" lon="7.9617345"><ele>335.33333333333337</ele><time>2026-05-02T11:41:58.656Z</time></trkpt><trkpt lat="45.1075883" lon="7.9618421"><ele>335.1666666666667</ele><time>2026-05-02T11:41:59.656Z</time></trkpt><trkpt lat="45.1075619" lon="7.9619532"><ele>335.0</ele><time>2026-05-02T11:42:00.656Z</time></trkpt><trkpt lat="45.1075383" lon="7.9620557"><ele>333.33333333333337</ele><time>2026-05-02T11:42:01.655Z</time></trkpt><trkpt lat="45.1075135" lon="7.9621468"><ele>331.6666666666667</ele><time>2026-05-02T11:42:02.655Z</time></trkpt><trkpt lat="45.1074663" lon="7.9622246"><ele>330.0</ele><time>2026-05-02T11:42:03.656Z</time></trkpt><trkpt lat="45.1074107" lon="7.9622812"><ele>328.3333333333333</ele><time>2026-05-02T11:42:04.656Z</time></trkpt><trkpt lat="45.1072769" lon="7.9623114"><ele>326.66666666666663</ele><time>2026-05-02T11:42:06.656Z</time></trkpt><trkpt lat="45.1071883" lon="7.962289"><ele>325.0</ele><time>2026-05-02T11:42:07.655Z</time></trkpt><trkpt lat="45.1070874" lon="7.9622631"><ele>324.6</ele><time>2026-05-02T11:42:08.656Z</time></trkpt><trkpt lat="45.10698" lon="7.9622446"><ele>324.2</ele><time>2026-05-02T11:42:09.656Z</time></trkpt><trkpt lat="45.1068758" lon="7.9622307"><ele>323.79999999999995</ele><time>2026-05-02T11:42:10.655Z</time></trkpt><trkpt lat="45.1067728" lon="7.9622247"><ele>323.4</ele><time>2026-05-02T11:42:11.656Z</time></trkpt><trkpt lat="45.1066584" lon="7.9622082"><ele>323.0</ele><time>2026-05-02T11:42:12.655Z</time></trkpt><trkpt lat="45.1065459" lon="7.9621865"><ele>323.0</ele><time>2026-05-02T11:42:13.656Z</time></trkpt><trkpt lat="45.106439" lon="7.9621387"><ele>323.0</ele><time>2026-05-02T11:42:14.656Z</time></trkpt><trkpt lat="45.1063438" lon="7.9620829"><ele>323.0</ele><time>2026-05-02T11:42:15.656Z</time></trkpt><trkpt lat="45.1062647" lon="7.9620366"><ele>323.0</ele><time>2026-05-02T11:42:16.655Z</time></trkpt><trkpt lat="45.1061863" lon="7.961994"><ele>323.0</ele><time>2026-05-02T11:42:17.655Z</time></trkpt><trkpt lat="45.106114" lon="7.9619791"><ele>323.0</ele><time>2026-05-02T11:42:18.656Z</time></trkpt><trkpt lat="45.1060431" lon="7.9620061"><ele>323.0</ele><time>2026-05-02T11:42:19.656Z</time></trkpt><trkpt lat="45.1059811" lon="7.9620554"><ele>323.0</ele><time>2026-05-02T11:42:20.656Z</time></trkpt><trkpt lat="45.1059327" lon="7.9621219"><ele>323.0</ele><time>2026-05-02T11:42:21.656Z</time></trkpt><trkpt lat="45.1058869" lon="7.9622132"><ele>323.0</ele><time>2026-05-02T11:42:22.656Z</time></trkpt><trkpt lat="45.1058291" lon="7.9623268"><ele>323.0</ele><time>2026-05-02T11:42:23.656Z</time></trkpt><trkpt lat="45.1057618" lon="7.9624468"><ele>323.4</ele><time>2026-05-02T11:42:24.656Z</time></trkpt><trkpt lat="45.1056817" lon="7.9625503"><ele>323.79999999999995</ele><time>2026-05-02T11:42:25.656Z</time></trkpt><trkpt lat="45.1056125" lon="7.9626369"><ele>324.2</ele><time>2026-05-02T11:42:26.656Z</time></trkpt><trkpt lat="45.1055543" lon="7.9627565"><ele>324.6</ele><time>2026-05-02T11:42:27.655Z</time></trkpt><trkpt lat="45.1055209" lon="7.9628963"><ele>325.0</ele><time>2026-05-02T11:42:28.656Z</time></trkpt><trkpt lat="45.1055059" lon="7.9630464"><ele>325.0</ele><time>2026-05-02T11:42:29.655Z</time></trkpt><trkpt lat="45.1055189" lon="7.9631746"><ele>325.0</ele><time>2026-05-02T11:42:30.656Z</time></trkpt><trkpt lat="45.1055576" lon="7.9632999"><ele>325.0</ele><time>2026-05-02T11:42:31.656Z</time></trkpt><trkpt lat="45.1056015" lon="7.9634334"><ele>325.0</ele><time>2026-05-02T11:42:32.656Z</time></trkpt><trkpt lat="45.1056547" lon="7.9635892"><ele>325.0</ele><time>2026-05-02T11:42:33.656Z</time></trkpt><trkpt lat="45.1057067" lon="7.9637396"><ele>322.0</ele><time>2026-05-02T11:42:34.656Z</time></trkpt><trkpt lat="45.1057449" lon="7.9638852"><ele>319.0</ele><time>2026-05-02T11:42:35.656Z</time></trkpt><trkpt lat="45.1057719" lon="7.9640273"><ele>316.0</ele><time>2026-05-02T11:42:36.656Z</time></trkpt><trkpt lat="45.105793" lon="7.9641502"><ele>313.0</ele><time>2026-05-02T11:42:37.656Z</time></trkpt><trkpt lat="45.1058167" lon="7.964251"><ele>310.0</ele><time>2026-05-02T11:42:38.656Z</time></trkpt><trkpt lat="45.1058718" lon="7.9643011"><ele>307.0</ele><time>2026-05-02T11:48:09.659Z</time></trkpt><trkpt lat="45.1058993" lon="7.9641889"><ele>306.16666666666663</ele><time>2026-05-02T11:48:13.659Z</time></trkpt><trkpt lat="45.1059692" lon="7.9641566"><ele>305.3333333333333</ele><time>2026-05-02T11:48:15.659Z</time></trkpt><trkpt lat="45.1060502" lon="7.9641755"><ele>304.5</ele><time>2026-05-02T11:48:17.66Z</time></trkpt><trkpt lat="45.1061401" lon="7.9641967"><ele>303.6666666666667</ele><time>2026-05-02T11:48:19.66Z</time></trkpt><trkpt lat="45.1062317" lon="7.9642324"><ele>302.83333333333337</ele><time>2026-05-02T11:48:21.66Z</time></trkpt><trkpt lat="45.1063039" lon="7.964286"><ele>302.0</ele><time>2026-05-02T11:48:23.66Z</time></trkpt><trkpt lat="45.1063807" lon="7.9643077"><ele>301.4</ele><time>2026-05-02T11:48:26.66Z</time></trkpt><trkpt lat="45.1064734" lon="7.9643288"><ele>300.79999999999995</ele><time>2026-05-02T11:48:29.66Z</time></trkpt><trkpt lat="45.1065499" lon="7.9643443"><ele>300.2</ele><time>2026-05-02T11:48:31.659Z</time></trkpt><trkpt lat="45.1066393" lon="7.9643673"><ele>299.59999999999997</ele><time>2026-05-02T11:48:33.66Z</time></trkpt><trkpt lat="45.1067416" lon="7.9644061"><ele>299.0</ele><time>2026-05-02T11:48:35.659Z</time></trkpt><trkpt lat="45.1068292" lon="7.9644474"><ele>298.83333333333337</ele><time>2026-05-02T11:48:37.66Z</time></trkpt><trkpt lat="45.1069131" lon="7.9644897"><ele>298.6666666666667</ele><time>2026-05-02T11:48:39.66Z</time></trkpt><trkpt lat="45.1070044" lon="7.9645166"><ele>298.5</ele><time>2026-05-02T11:48:41.66Z</time></trkpt><trkpt lat="45.1070891" lon="7.9645339"><ele>298.3333333333333</ele><time>2026-05-02T11:48:43.66Z</time></trkpt><trkpt lat="45.1071784" lon="7.9645669"><ele>298.16666666666663</ele><time>2026-05-02T11:48:45.66Z</time></trkpt><trkpt lat="45.1072539" lon="7.9645979"><ele>298.0</ele><time>2026-05-02T11:48:47.66Z</time></trkpt><trkpt lat="45.1073236" lon="7.9645994"><ele>298.0</ele><time>2026-05-02T11:48:49.66Z</time></trkpt><trkpt lat="45.1074049" lon="7.9645927"><ele>298.0</ele><time>2026-05-02T11:48:51.66Z</time></trkpt><trkpt lat="45.1074897" lon="7.9645923"><ele>298.0</ele><time>2026-05-02T11:48:53.659Z</time></trkpt><trkpt lat="45.1075782" lon="7.964629"><ele>298.0</ele><time>2026-05-02T11:48:55.66Z</time></trkpt><trkpt lat="45.1076557" lon="7.9646885"><ele>298.0</ele><time>2026-05-02T11:48:57.66Z</time></trkpt><trkpt lat="45.1077391" lon="7.9647711"><ele>298.0</ele><time>2026-05-02T11:48:59.659Z</time></trkpt><trkpt lat="45.1078167" lon="7.9648729"><ele>294.4</ele><time>2026-05-02T11:49:01.66Z</time></trkpt><trkpt lat="45.1078746" lon="7.9649704"><ele>290.8</ele><time>2026-05-02T11:49:03.659Z</time></trkpt><trkpt lat="45.1079191" lon="7.9650623"><ele>287.2</ele><time>2026-05-02T11:49:05.66Z</time></trkpt><trkpt lat="45.1079871" lon="7.9651716"><ele>283.6</ele><time>2026-05-02T11:49:07.66Z</time></trkpt><trkpt lat="45.1080541" lon="7.9652822"><ele>280.0</ele><time>2026-05-02T11:49:09.66Z</time></trkpt><trkpt lat="45.1081141" lon="7.9653939"><ele>280.0</ele><time>2026-05-02T11:49:11.659Z</time></trkpt><trkpt lat="45.1081828" lon="7.96555"><ele>280.0</ele><time>2026-05-02T11:49:13.66Z</time></trkpt><trkpt lat="45.1082214" lon="7.965649"><ele>280.0</ele><time>2026-05-02T11:49:14.659Z</time></trkpt><trkpt lat="45.1082532" lon="7.9657534"><ele>280.0</ele><time>2026-05-02T11:49:15.659Z</time></trkpt><trkpt lat="45.1082781" lon="7.9658697"><ele>280.0</ele><time>2026-05-02T11:49:16.66Z</time></trkpt><trkpt lat="45.1083019" lon="7.9659924"><ele>277.4</ele><time>2026-05-02T11:49:17.66Z</time></trkpt><trkpt lat="45.1083214" lon="7.9661207"><ele>274.8</ele><time>2026-05-02T11:49:18.66Z</time></trkpt><trkpt lat="45.1083412" lon="7.9662555"><ele>272.2</ele><time>2026-05-02T11:49:19.659Z</time></trkpt><trkpt lat="45.1083621" lon="7.9663906"><ele>269.6</ele><time>2026-05-02T11:49:20.659Z</time></trkpt><trkpt lat="45.1083852" lon="7.9665151"><ele>267.0</ele><time>2026-05-02T11:49:21.66Z</time></trkpt><trkpt lat="45.1084099" lon="7.9666299"><ele>268.6666666666667</ele><time>2026-05-02T11:49:22.66Z</time></trkpt><trkpt lat="45.1084334" lon="7.9667333"><ele>270.3333333333333</ele><time>2026-05-02T11:49:23.659Z</time></trkpt><trkpt lat="45.108453" lon="7.9668181"><ele>272.0</ele><time>2026-05-02T11:49:24.659Z</time></trkpt><trkpt lat="45.1084724" lon="7.9669246"><ele>273.66666666666663</ele><time>2026-05-02T11:49:26.66Z</time></trkpt><trkpt lat="45.1084528" lon="7.9670297"><ele>275.3333333333333</ele><time>2026-05-02T11:49:29.66Z</time></trkpt><trkpt lat="45.1083482" lon="7.9671269"><ele>277.0</ele><time>2026-05-02T11:49:31.66Z</time></trkpt><trkpt lat="45.108272" lon="7.9671647"><ele>277.0</ele><time>2026-05-02T11:49:32.66Z</time></trkpt><trkpt lat="45.1081868" lon="7.9672079"><ele>277.0</ele><time>2026-05-02T11:49:33.66Z</time></trkpt><trkpt lat="45.1080924" lon="7.9672679"><ele>277.0</ele><time>2026-05-02T11:49:34.66Z</time></trkpt><trkpt lat="45.1079997" lon="7.9673408"><ele>277.0</ele><time>2026-05-02T11:49:35.659Z</time></trkpt><trkpt lat="45.1079063" lon="7.9674238"><ele>277.0</ele><time>2026-05-02T11:49:36.66Z</time></trkpt><trkpt lat="45.1078102" lon="7.9675109"><ele>280.5</ele><time>2026-05-02T11:49:37.659Z</time></trkpt><trkpt lat="45.1077033" lon="7.9676051"><ele>284.0</ele><time>2026-05-02T11:49:38.659Z</time></trkpt><trkpt lat="45.1075941" lon="7.9676996"><ele>287.5</ele><time>2026-05-02T11:49:39.66Z</time></trkpt><trkpt lat="45.1074812" lon="7.9677917"><ele>291.0</ele><time>2026-05-02T11:49:40.66Z</time></trkpt><trkpt lat="45.1073716" lon="7.9678693"><ele>291.75</ele><time>2026-05-02T11:49:41.66Z</time></trkpt><trkpt lat="45.1072586" lon="7.9679315"><ele>292.5</ele><time>2026-05-02T11:49:42.66Z</time></trkpt><trkpt lat="45.1071493" lon="7.9679856"><ele>293.25</ele><time>2026-05-02T11:49:43.66Z</time></trkpt><trkpt lat="45.1070447" lon="7.9680532"><ele>294.0</ele><time>2026-05-02T11:49:44.66Z</time></trkpt><trkpt lat="45.1069523" lon="7.9681619"><ele>294.0</ele><time>2026-05-02T11:49:45.66Z</time></trkpt><trkpt lat="45.1068698" lon="7.9682891"><ele>294.0</ele><time>2026-05-02T11:49:46.66Z</time></trkpt><trkpt lat="45.1067886" lon="7.9684199"><ele>294.0</ele><time>2026-05-02T11:49:47.659Z</time></trkpt><trkpt lat="45.1067082" lon="7.9685599"><ele>294.0</ele><time>2026-05-02T11:49:48.66Z</time></trkpt><trkpt lat="45.1066337" lon="7.9687006"><ele>297.0</ele><time>2026-05-02T11:49:49.659Z</time></trkpt><trkpt lat="45.1065696" lon="7.9688322"><ele>300.0</ele><time>2026-05-02T11:49:50.66Z</time></trkpt><trkpt lat="45.1065198" lon="7.9689741"><ele>303.0</ele><time>2026-05-02T11:49:51.66Z</time></trkpt><trkpt lat="45.1064892" lon="7.969131"><ele>306.0</ele><time>2026-05-02T11:49:52.66Z</time></trkpt><trkpt lat="45.1064635" lon="7.9692828"><ele>307.0</ele><time>2026-05-02T11:49:53.659Z</time></trkpt><trkpt lat="45.1064516" lon="7.9694146"><ele>308.0</ele><time>2026-05-02T11:49:54.66Z</time></trkpt><trkpt lat="45.1064552" lon="7.9695338"><ele>309.0</ele><time>2026-05-02T11:49:55.66Z</time></trkpt><trkpt lat="45.1064786" lon="7.9696617"><ele>310.0</ele><time>2026-05-02T11:49:56.66Z</time></trkpt><trkpt lat="45.1065274" lon="7.9698048"><ele>311.0</ele><time>2026-05-02T11:49:57.659Z</time></trkpt><trkpt lat="45.1065846" lon="7.9699389"><ele>312.5</ele><time>2026-05-02T11:49:58.659Z</time></trkpt><trkpt lat="45.1066567" lon="7.9700588"><ele>314.0</ele><time>2026-05-02T11:49:59.659Z</time></trkpt><trkpt lat="45.1067531" lon="7.9701778"><ele>315.5</ele><time>2026-05-02T11:50:00.66Z</time></trkpt><trkpt lat="45.106865" lon="7.970292"><ele>317.0</ele><time>2026-05-02T11:50:01.659Z</time></trkpt><trkpt lat="45.1069799" lon="7.9704103"><ele>317.0</ele><time>2026-05-02T11:50:02.66Z</time></trkpt><trkpt lat="45.1070938" lon="7.9705284"><ele>317.0</ele><time>2026-05-02T11:50:03.66Z</time></trkpt><trkpt lat="45.1072132" lon="7.9706433"><ele>317.0</ele><time>2026-05-02T11:50:04.66Z</time></trkpt><trkpt lat="45.1073373" lon="7.9707478"><ele>317.0</ele><time>2026-05-02T11:50:05.659Z</time></trkpt><trkpt lat="45.1074557" lon="7.9708327"><ele>319.5</ele><time>2026-05-02T11:50:06.66Z</time></trkpt><trkpt lat="45.1075607" lon="7.9709051"><ele>322.0</ele><time>2026-05-02T11:50:07.66Z</time></trkpt><trkpt lat="45.1076473" lon="7.9709729"><ele>324.5</ele><time>2026-05-02T11:50:08.66Z</time></trkpt><trkpt lat="45.1076982" lon="7.971046"><ele>327.0</ele><time>2026-05-02T11:50:09.66Z</time></trkpt><trkpt lat="45.1077269" lon="7.971135"><ele>329.5</ele><time>2026-05-02T11:50:10.66Z</time></trkpt><trkpt lat="45.1077451" lon="7.9712503"><ele>332.0</ele><time>2026-05-02T11:50:11.661Z</time></trkpt><trkpt lat="45.1077655" lon="7.9713759"><ele>332.0</ele><time>2026-05-02T11:50:12.661Z</time></trkpt><trkpt lat="45.1077819" lon="7.9715182"><ele>332.0</ele><time>2026-05-02T11:50:13.66Z</time></trkpt><trkpt lat="45.1077995" lon="7.9716772"><ele>332.0</ele><time>2026-05-02T11:50:14.661Z</time></trkpt><trkpt lat="45.1078176" lon="7.9718244"><ele>332.0</ele><time>2026-05-02T11:50:15.661Z</time></trkpt><trkpt lat="45.1078228" lon="7.9719377"><ele>332.0</ele><time>2026-05-02T11:50:16.661Z</time></trkpt><trkpt lat="45.1077608" lon="7.9720864"><ele>335.20000000000005</ele><time>2026-05-02T11:50:18.66Z</time></trkpt><trkpt lat="45.1077105" lon="7.972147"><ele>338.4</ele><time>2026-05-02T11:50:19.661Z</time></trkpt><trkpt lat="45.1076433" lon="7.9722208"><ele>341.6</ele><time>2026-05-02T11:50:20.66Z</time></trkpt><trkpt lat="45.1075312" lon="7.9722997"><ele>344.79999999999995</ele><time>2026-05-02T11:50:21.66Z</time></trkpt><trkpt lat="45.1073966" lon="7.972387"><ele>348.0</ele><time>2026-05-02T11:50:22.661Z</time></trkpt><trkpt lat="45.107278" lon="7.9725139"><ele>352.3333333333333</ele><time>2026-05-02T11:50:23.661Z</time></trkpt><trkpt lat="45.1071744" lon="7.9726468"><ele>356.66666666666663</ele><time>2026-05-02T11:50:24.661Z</time></trkpt><trkpt lat="45.1070511" lon="7.972787"><ele>361.0</ele><time>2026-05-02T11:50:25.661Z</time></trkpt><trkpt lat="45.10693" lon="7.9729257"><ele>361.0</ele><time>2026-05-02T11:50:26.661Z</time></trkpt><trkpt lat="45.1068246" lon="7.9730366"><ele>361.0</ele><time>2026-05-02T11:50:27.661Z</time></trkpt><trkpt lat="45.1067207" lon="7.9731375"><ele>361.0</ele><time>2026-05-02T11:50:28.661Z</time></trkpt><trkpt lat="45.1066256" lon="7.9732242"><ele>361.0</ele><time>2026-05-02T11:50:29.66Z</time></trkpt><trkpt lat="45.1065544" lon="7.9732888"><ele>362.16666666666663</ele><time>2026-05-02T11:50:30.66Z</time></trkpt><trkpt lat="45.1065509" lon="7.9734457"><ele>363.3333333333333</ele><time>2026-05-02T11:50:46.661Z</time></trkpt><trkpt lat="45.1065629" lon="7.9735816"><ele>364.5</ele><time>2026-05-02T11:50:48.661Z</time></trkpt><trkpt lat="45.1064979" lon="7.9735656"><ele>365.6666666666667</ele><time>2026-05-02T11:50:52.661Z</time></trkpt><trkpt lat="45.1064361" lon="7.9735214"><ele>366.83333333333337</ele><time>2026-05-02T11:50:53.661Z</time></trkpt><trkpt lat="45.1063692" lon="7.9734953"><ele>368.0</ele><time>2026-05-02T11:50:54.66Z</time></trkpt><trkpt lat="45.1062627" lon="7.9734783"><ele>368.0</ele><time>2026-05-02T11:50:55.661Z</time></trkpt><trkpt lat="45.106166" lon="7.9734744"><ele>368.0</ele><time>2026-05-02T11:50:56.66Z</time></trkpt><trkpt lat="45.1060708" lon="7.973483"><ele>368.0</ele><time>2026-05-02T11:50:57.661Z</time></trkpt><trkpt lat="45.1059756" lon="7.9734909"><ele>368.0</ele><time>2026-05-02T11:50:58.661Z</time></trkpt><trkpt lat="45.1058761" lon="7.9734925"><ele>368.0</ele><time>2026-05-02T11:50:59.661Z</time></trkpt><trkpt lat="45.1057738" lon="7.9734839"><ele>372.2</ele><time>2026-05-02T11:51:00.661Z</time></trkpt><trkpt lat="45.1056645" lon="7.9734748"><ele>376.4</ele><time>2026-05-02T11:51:01.661Z</time></trkpt><trkpt lat="45.1055619" lon="7.9734582"><ele>380.59999999999997</ele><time>2026-05-02T11:51:02.661Z</time></trkpt><trkpt lat="45.1054488" lon="7.9734321"><ele>384.79999999999995</ele><time>2026-05-02T11:51:03.66Z</time></trkpt><trkpt lat="45.1053361" lon="7.9733879"><ele>389.0</ele><time>2026-05-02T11:51:04.661Z</time></trkpt><trkpt lat="45.1052287" lon="7.9733323"><ele>389.0</ele><time>2026-05-02T11:51:05.661Z</time></trkpt><trkpt lat="45.1051203" lon="7.973272"><ele>389.0</ele><time>2026-05-02T11:51:06.661Z</time></trkpt><trkpt lat="45.1050156" lon="7.973218"><ele>389.0</ele><time>2026-05-02T11:51:07.661Z</time></trkpt><trkpt lat="45.1049173" lon="7.9731622"><ele>389.0</ele><time>2026-05-02T11:51:08.661Z</time></trkpt><trkpt lat="45.1048178" lon="7.9730876"><ele>389.0</ele><time>2026-05-02T11:51:09.66Z</time></trkpt><trkpt lat="45.1047228" lon="7.9729946"><ele>389.0</ele><time>2026-05-02T11:51:10.661Z</time></trkpt><trkpt lat="45.1046296" lon="7.9728971"><ele>389.0</ele><time>2026-05-02T11:51:11.661Z</time></trkpt><trkpt lat="45.1045463" lon="7.9728213"><ele>389.0</ele><time>2026-05-02T11:51:12.661Z</time></trkpt><trkpt lat="45.1044733" lon="7.972763"><ele>389.0</ele><time>2026-05-02T11:51:13.661Z</time></trkpt><trkpt lat="45.1043766" lon="7.9727225"><ele>389.0</ele><time>2026-05-02T11:51:15.661Z</time></trkpt><trkpt lat="45.1043215" lon="7.9726697"><ele>389.0</ele><time>2026-05-02T11:51:16.661Z</time></trkpt><trkpt lat="45.1042575" lon="7.9725819"><ele>389.0</ele><time>2026-05-02T11:51:17.661Z</time></trkpt><trkpt lat="45.1041938" lon="7.9724878"><ele>389.0</ele><time>2026-05-02T11:51:18.66Z</time></trkpt><trkpt lat="45.1041192" lon="7.9723649"><ele>389.0</ele><time>2026-05-02T11:51:19.661Z</time></trkpt><trkpt lat="45.1040426" lon="7.9722375"><ele>389.0</ele><time>2026-05-02T11:51:20.661Z</time></trkpt><trkpt lat="45.1039574" lon="7.9720946"><ele>387.0</ele><time>2026-05-02T11:51:21.661Z</time></trkpt><trkpt lat="45.1038605" lon="7.9719602"><ele>385.0</ele><time>2026-05-02T11:51:22.66Z</time></trkpt><trkpt lat="45.1037518" lon="7.9718278"><ele>383.0</ele><time>2026-05-02T11:51:23.66Z</time></trkpt><trkpt lat="45.1036423" lon="7.9717388"><ele>381.0</ele><time>2026-05-02T11:51:24.661Z</time></trkpt><trkpt lat="45.1035373" lon="7.9716931"><ele>383.4</ele><time>2026-05-02T11:51:25.661Z</time></trkpt><trkpt lat="45.1034314" lon="7.9716627"><ele>385.8</ele><time>2026-05-02T11:51:26.661Z</time></trkpt><trkpt lat="45.1033273" lon="7.9716266"><ele>388.2</ele><time>2026-05-02T11:51:27.66Z</time></trkpt><trkpt lat="45.1032225" lon="7.9715785"><ele>390.59999999999997</ele><time>2026-05-02T11:51:28.661Z</time></trkpt><trkpt lat="45.1031185" lon="7.9715153"><ele>393.0</ele><time>2026-05-02T11:51:29.661Z</time></trkpt><trkpt lat="45.1030351" lon="7.9714519"><ele>394.79999999999995</ele><time>2026-05-02T11:51:30.661Z</time></trkpt><trkpt lat="45.1029594" lon="7.9713914"><ele>396.6</ele><time>2026-05-02T11:51:31.66Z</time></trkpt><trkpt lat="45.1028834" lon="7.9713459"><ele>398.4</ele><time>2026-05-02T11:51:32.661Z</time></trkpt><trkpt lat="45.1028015" lon="7.9713298"><ele>400.20000000000005</ele><time>2026-05-02T11:51:33.66Z</time></trkpt><trkpt lat="45.1027009" lon="7.9713263"><ele>402.0</ele><time>2026-05-02T11:51:34.661Z</time></trkpt><trkpt lat="45.1025946" lon="7.9713447"><ele>402.0</ele><time>2026-05-02T11:51:35.661Z</time></trkpt><trkpt lat="45.1024849" lon="7.9713776"><ele>402.0</ele><time>2026-05-02T11:51:36.661Z</time></trkpt><trkpt lat="45.1023776" lon="7.9714489"><ele>402.0</ele><time>2026-05-02T11:51:37.661Z</time></trkpt><trkpt lat="45.1022777" lon="7.9715217"><ele>402.0</ele><time>2026-05-02T11:51:38.66Z</time></trkpt><trkpt lat="45.1021937" lon="7.9715777"><ele>402.0</ele><time>2026-05-02T11:51:39.661Z</time></trkpt><trkpt lat="45.1021323" lon="7.9716114"><ele>402.0</ele><time>2026-05-02T11:51:40.66Z</time></trkpt><trkpt lat="45.1020193" lon="7.9717446"><ele>402.0</ele><time>2026-05-02T11:51:42.66Z</time></trkpt><trkpt lat="45.1019537" lon="7.9718939"><ele>402.0</ele><time>2026-05-02T11:51:43.661Z</time></trkpt><trkpt lat="45.1018729" lon="7.9720654"><ele>402.0</ele><time>2026-05-02T11:51:44.661Z</time></trkpt><trkpt lat="45.1018092" lon="7.9721935"><ele>402.0</ele><time>2026-05-02T11:51:45.66Z</time></trkpt><trkpt lat="45.1017604" lon="7.972262"><ele>402.0</ele><time>2026-05-02T11:51:46.66Z</time></trkpt><trkpt lat="45.1016571" lon="7.9723007"><ele>402.0</ele><time>2026-05-02T11:51:48.661Z</time></trkpt><trkpt lat="45.1015476" lon="7.9722093"><ele>402.0</ele><time>2026-05-02T11:51:50.662Z</time></trkpt><trkpt lat="45.1014882" lon="7.9721294"><ele>402.0</ele><time>2026-05-02T11:51:51.661Z</time></trkpt><trkpt lat="45.1014122" lon="7.9720417"><ele>402.20000000000005</ele><time>2026-05-02T11:51:52.661Z</time></trkpt><trkpt lat="45.1013172" lon="7.971958"><ele>402.4</ele><time>2026-05-02T11:51:53.66Z</time></trkpt><trkpt lat="45.1012251" lon="7.9718885"><ele>402.6</ele><time>2026-05-02T11:51:54.661Z</time></trkpt><trkpt lat="45.1011416" lon="7.9718351"><ele>402.79999999999995</ele><time>2026-05-02T11:51:55.661Z</time></trkpt><trkpt lat="45.1010778" lon="7.9718068"><ele>403.0</ele><time>2026-05-02T11:51:56.661Z</time></trkpt><trkpt lat="45.1010045" lon="7.9717661"><ele>403.0</ele><time>2026-05-02T11:51:58.66Z</time></trkpt><trkpt lat="45.1009188" lon="7.9717395"><ele>403.0</ele><time>2026-05-02T11:52:01.661Z</time></trkpt><trkpt lat="45.1008181" lon="7.9718488"><ele>403.0</ele><time>2026-05-02T11:52:03.662Z</time></trkpt><trkpt lat="45.1007527" lon="7.9719682"><ele>403.0</ele><time>2026-05-02T11:52:04.662Z</time></trkpt><trkpt lat="45.1006706" lon="7.9721251"><ele>403.0</ele><time>2026-05-02T11:52:05.662Z</time></trkpt><trkpt lat="45.1005884" lon="7.972277"><ele>403.0</ele><time>2026-05-02T11:52:06.662Z</time></trkpt><trkpt lat="45.1005056" lon="7.9724286"><ele>403.0</ele><time>2026-05-02T11:52:07.661Z</time></trkpt><trkpt lat="45.1004214" lon="7.9725785"><ele>403.0</ele><time>2026-05-02T11:52:08.662Z</time></trkpt><trkpt lat="45.1003361" lon="7.9727174"><ele>403.0</ele><time>2026-05-02T11:52:09.661Z</time></trkpt><trkpt lat="45.1002529" lon="7.972855"><ele>403.0</ele><time>2026-05-02T11:52:10.661Z</time></trkpt><trkpt lat="45.1001744" lon="7.9729839"><ele>403.0</ele><time>2026-05-02T11:52:11.662Z</time></trkpt><trkpt lat="45.1000973" lon="7.9730973"><ele>403.0</ele><time>2026-05-02T11:52:12.661Z</time></trkpt><trkpt lat="45.1000143" lon="7.9731919"><ele>403.0</ele><time>2026-05-02T11:52:13.662Z</time></trkpt><trkpt lat="45.0999247" lon="7.9732655"><ele>403.0</ele><time>2026-05-02T11:52:14.662Z</time></trkpt><trkpt lat="45.0998274" lon="7.9733226"><ele>403.0</ele><time>2026-05-02T11:52:15.661Z</time></trkpt><trkpt lat="45.0997318" lon="7.9733703"><ele>403.0</ele><time>2026-05-02T11:52:16.662Z</time></trkpt><trkpt lat="45.0996309" lon="7.9734171"><ele>403.0</ele><time>2026-05-02T11:52:17.662Z</time></trkpt><trkpt lat="45.0995218" lon="7.9734697"><ele>403.4</ele><time>2026-05-02T11:52:18.662Z</time></trkpt><trkpt lat="45.0994073" lon="7.9735185"><ele>403.79999999999995</ele><time>2026-05-02T11:52:19.661Z</time></trkpt><trkpt lat="45.0992933" lon="7.9735583"><ele>404.2</ele><time>2026-05-02T11:52:20.662Z</time></trkpt><trkpt lat="45.0991933" lon="7.9735926"><ele>404.6</ele><time>2026-05-02T11:52:21.661Z</time></trkpt><trkpt lat="45.0991112" lon="7.9736229"><ele>405.0</ele><time>2026-05-02T11:52:22.661Z</time></trkpt><trkpt lat="45.0990402" lon="7.9736595"><ele>405.0</ele><time>2026-05-02T11:52:23.661Z</time></trkpt><trkpt lat="45.0989736" lon="7.9737071"><ele>405.0</ele><time>2026-05-02T11:52:24.662Z</time></trkpt><trkpt lat="45.0988997" lon="7.9737955"><ele>405.0</ele><time>2026-05-02T11:52:25.662Z</time></trkpt><trkpt lat="45.0988349" lon="7.9739066"><ele>405.0</ele><time>2026-05-02T11:52:26.662Z</time></trkpt><trkpt lat="45.0987698" lon="7.9740571"><ele>405.0</ele><time>2026-05-02T11:52:27.662Z</time></trkpt><trkpt lat="45.0987076" lon="7.9742076"><ele>405.0</ele><time>2026-05-02T11:52:28.662Z</time></trkpt><trkpt lat="45.0986346" lon="7.9743596"><ele>405.0</ele><time>2026-05-02T11:52:29.662Z</time></trkpt><trkpt lat="45.0985559" lon="7.9744983"><ele>405.0</ele><time>2026-05-02T11:52:30.661Z</time></trkpt><trkpt lat="45.0984672" lon="7.9745968"><ele>405.0</ele><time>2026-05-02T11:52:31.662Z</time></trkpt><trkpt lat="45.0983958" lon="7.9746695"><ele>405.0</ele><time>2026-05-02T11:52:32.662Z</time></trkpt><trkpt lat="45.0983209" lon="7.9747685"><ele>405.0</ele><time>2026-05-02T11:52:34.662Z</time></trkpt><trkpt lat="45.0983147" lon="7.9746677"><ele>405.0</ele><time>2026-05-02T11:52:40.662Z</time></trkpt><trkpt lat="45.0983864" lon="7.974585"><ele>405.0</ele><time>2026-05-02T11:52:42.662Z</time></trkpt><trkpt lat="45.0984807" lon="7.9744679"><ele>405.0</ele><time>2026-05-02T11:52:44.662Z</time></trkpt><trkpt lat="45.0985382" lon="7.9743947"><ele>405.0</ele><time>2026-05-02T11:52:45.661Z</time></trkpt><trkpt lat="45.0985899" lon="7.9743252"><ele>405.0</ele><time>2026-05-02T11:52:46.662Z</time></trkpt><trkpt lat="45.0986757" lon="7.9742135"><ele>405.0</ele><time>2026-05-02T11:52:48.662Z</time></trkpt><trkpt lat="45.0987484" lon="7.9740936"><ele>405.0</ele><time>2026-05-02T11:52:50.661Z</time></trkpt><trkpt lat="45.0987933" lon="7.9739586"><ele>405.0</ele><time>2026-05-02T11:52:52.662Z</time></trkpt><trkpt lat="45.098838" lon="7.9737995"><ele>403.6666666666667</ele><time>2026-05-02T11:52:54.662Z</time></trkpt><trkpt lat="45.098865" lon="7.9737154"><ele>402.33333333333337</ele><time>2026-05-02T11:52:55.661Z</time></trkpt><trkpt lat="45.0988926" lon="7.9736344"><ele>401.0</ele><time>2026-05-02T11:52:56.661Z</time></trkpt><trkpt lat="45.0989241" lon="7.9735463"><ele>399.6666666666667</ele><time>2026-05-02T11:52:57.661Z</time></trkpt><trkpt lat="45.0989614" lon="7.9734581"><ele>398.33333333333337</ele><time>2026-05-02T11:52:58.662Z</time></trkpt><trkpt lat="45.0990114" lon="7.973315"><ele>397.0</ele><time>2026-05-02T11:53:00.662Z</time></trkpt><trkpt lat="45.0990876" lon="7.9732334"><ele>397.0</ele><time>2026-05-02T11:53:02.662Z</time></trkpt><trkpt lat="45.0992039" lon="7.9731775"><ele>397.0</ele><time>2026-05-02T11:53:04.662Z</time></trkpt><trkpt lat="45.0992653" lon="7.9731539"><ele>397.0</ele><time>2026-05-02T11:53:05.662Z</time></trkpt><trkpt lat="45.0993782" lon="7.9731059"><ele>397.0</ele><time>2026-05-02T11:53:07.661Z</time></trkpt><trkpt lat="45.099368" lon="7.9729937"><ele>397.0</ele><time>2026-05-02T11:53:11.662Z</time></trkpt><trkpt lat="45.0992734" lon="7.9729403"><ele>397.0</ele><time>2026-05-02T11:53:13.662Z</time></trkpt><trkpt lat="45.0991503" lon="7.9729037"><ele>397.0</ele><time>2026-05-02T11:53:15.662Z</time></trkpt><trkpt lat="45.0990854" lon="7.9728942"><ele>397.0</ele><time>2026-05-02T11:53:16.662Z</time></trkpt><trkpt lat="45.0989799" lon="7.9728766"><ele>397.0</ele><time>2026-05-02T11:53:18.661Z</time></trkpt><trkpt lat="45.0988722" lon="7.9728669"><ele>397.0</ele><time>2026-05-02T11:53:20.662Z</time></trkpt><trkpt lat="45.0988059" lon="7.9728798"><ele>393.0</ele><time>2026-05-02T11:53:21.662Z</time></trkpt><trkpt lat="45.0987332" lon="7.9728994"><ele>389.0</ele><time>2026-05-02T11:53:22.661Z</time></trkpt><trkpt lat="45.0986593" lon="7.9729203"><ele>385.0</ele><time>2026-05-02T11:53:23.662Z</time></trkpt><trkpt lat="45.0985926" lon="7.9729493"><ele>381.0</ele><time>2026-05-02T11:53:24.662Z</time></trkpt><trkpt lat="45.0984839" lon="7.973017"><ele>377.0</ele><time>2026-05-02T11:53:26.661Z</time></trkpt><trkpt lat="45.0983724" lon="7.9730949"><ele>377.0</ele><time>2026-05-02T11:53:28.662Z</time></trkpt><trkpt lat="45.0982701" lon="7.9731912"><ele>377.0</ele><time>2026-05-02T11:53:30.661Z</time></trkpt><trkpt lat="45.0982239" lon="7.9732526"><ele>377.0</ele><time>2026-05-02T11:53:31.662Z</time></trkpt><trkpt lat="45.0981734" lon="7.9733197"><ele>377.0</ele><time>2026-05-02T11:53:32.661Z</time></trkpt><trkpt lat="45.0980787" lon="7.9734162"><ele>377.0</ele><time>2026-05-02T11:53:34.662Z</time></trkpt><trkpt lat="45.0980024" lon="7.9734538"><ele>377.1666666666667</ele><time>2026-05-02T11:53:36.662Z</time></trkpt><trkpt lat="45.0979324" lon="7.9734259"><ele>377.33333333333337</ele><time>2026-05-02T11:53:38.661Z</time></trkpt><trkpt lat="45.0978298" lon="7.9733688"><ele>377.5</ele><time>2026-05-02T11:53:40.662Z</time></trkpt><trkpt lat="45.0977631" lon="7.9733405"><ele>377.6666666666667</ele><time>2026-05-02T11:53:41.661Z</time></trkpt><trkpt lat="45.0976955" lon="7.9733097"><ele>377.8333333333333</ele><time>2026-05-02T11:53:42.662Z</time></trkpt><trkpt lat="45.0976254" lon="7.9732763"><ele>378.0</ele><time>2026-05-02T11:53:43.662Z</time></trkpt><trkpt lat="45.0975584" lon="7.973248"><ele>375.1666666666667</ele><time>2026-05-02T11:53:44.661Z</time></trkpt><trkpt lat="45.0974915" lon="7.97323"><ele>372.3333333333333</ele><time>2026-05-02T11:53:45.661Z</time></trkpt><trkpt lat="45.0974288" lon="7.9732172"><ele>369.5</ele><time>2026-05-02T11:53:46.662Z</time></trkpt><trkpt lat="45.0973271" lon="7.9731989"><ele>366.66666666666663</ele><time>2026-05-02T11:53:48.662Z</time></trkpt><trkpt lat="45.0972581" lon="7.9731371"><ele>363.8333333333333</ele><time>2026-05-02T11:53:50.662Z</time></trkpt><trkpt lat="45.0972197" lon="7.9730073"><ele>361.0</ele><time>2026-05-02T11:53:52.663Z</time></trkpt><trkpt lat="45.0972041" lon="7.9728277"><ele>360.8333333333333</ele><time>2026-05-02T11:53:54.663Z</time></trkpt><trkpt lat="45.0971938" lon="7.9727324"><ele>360.66666666666663</ele><time>2026-05-02T11:53:55.663Z</time></trkpt><trkpt lat="45.0971824" lon="7.9726388"><ele>360.5</ele><time>2026-05-02T11:53:56.663Z</time></trkpt><trkpt lat="45.0971655" lon="7.9725508"><ele>360.3333333333333</ele><time>2026-05-02T11:53:57.662Z</time></trkpt><trkpt lat="45.0971124" lon="7.972406"><ele>360.1666666666667</ele><time>2026-05-02T11:53:59.663Z</time></trkpt><trkpt lat="45.0970277" lon="7.9723024"><ele>360.0</ele><time>2026-05-02T11:54:01.663Z</time></trkpt><trkpt lat="45.0969324" lon="7.9722666"><ele>360.0</ele><time>2026-05-02T11:54:03.663Z</time></trkpt><trkpt lat="45.0968533" lon="7.9722682"><ele>360.0</ele><time>2026-05-02T11:54:06.662Z</time></trkpt><trkpt lat="45.096749" lon="7.9722548"><ele>360.0</ele><time>2026-05-02T11:54:10.662Z</time></trkpt><trkpt lat="45.0966851" lon="7.9722552"><ele>360.0</ele><time>2026-05-02T11:54:11.663Z</time></trkpt><trkpt lat="45.096606" lon="7.9722661"><ele>360.0</ele><time>2026-05-02T11:54:12.663Z</time></trkpt><trkpt lat="45.0965253" lon="7.9722854"><ele>360.0</ele><time>2026-05-02T11:54:13.663Z</time></trkpt><trkpt lat="45.0964491" lon="7.9723063"><ele>359.0</ele><time>2026-05-02T11:54:14.663Z</time></trkpt><trkpt lat="45.0963788" lon="7.97232"><ele>358.0</ele><time>2026-05-02T11:54:15.663Z</time></trkpt><trkpt lat="45.0963082" lon="7.9723325"><ele>357.0</ele><time>2026-05-02T11:54:16.662Z</time></trkpt><trkpt lat="45.0962384" lon="7.9723413"><ele>356.0</ele><time>2026-05-02T11:54:17.663Z</time></trkpt><trkpt lat="45.0961689" lon="7.9723532"><ele>355.0</ele><time>2026-05-02T11:54:18.662Z</time></trkpt><trkpt lat="45.0961009" lon="7.9723714"><ele>354.0</ele><time>2026-05-02T11:54:19.662Z</time></trkpt><trkpt lat="45.0960367" lon="7.97239"><ele>353.0</ele><time>2026-05-02T11:54:20.663Z</time></trkpt><trkpt lat="45.0959428" lon="7.9724327"><ele>353.0</ele><time>2026-05-02T11:54:22.663Z</time></trkpt><trkpt lat="45.0958762" lon="7.9724888"><ele>353.0</ele><time>2026-05-02T11:54:24.663Z</time></trkpt><trkpt lat="45.0957739" lon="7.9725033"><ele>353.0</ele><time>2026-05-02T11:54:26.663Z</time></trkpt><trkpt lat="45.0956686" lon="7.9725007"><ele>353.0</ele><time>2026-05-02T11:54:28.663Z</time></trkpt><trkpt lat="45.0955538" lon="7.9725067"><ele>353.0</ele><time>2026-05-02T11:54:30.663Z</time></trkpt><trkpt lat="45.0954891" lon="7.9725134"><ele>352.59999999999997</ele><time>2026-05-02T11:54:31.663Z</time></trkpt><trkpt lat="45.0954229" lon="7.9725227"><ele>352.2</ele><time>2026-05-02T11:54:32.663Z</time></trkpt><trkpt lat="45.095301" lon="7.9725392"><ele>351.8</ele><time>2026-05-02T11:54:34.662Z</time></trkpt><trkpt lat="45.0951815" lon="7.9725583"><ele>351.4</ele><time>2026-05-02T11:54:36.662Z</time></trkpt><trkpt lat="45.0950893" lon="7.972565"><ele>351.0</ele><time>2026-05-02T11:54:38.662Z</time></trkpt><trkpt lat="45.0950269" lon="7.9725783"><ele>349.0</ele><time>2026-05-02T11:54:40.662Z</time></trkpt><trkpt lat="45.0949295" lon="7.9725984"><ele>347.0</ele><time>2026-05-02T11:54:42.663Z</time></trkpt><trkpt lat="45.0948246" lon="7.9726119"><ele>345.0</ele><time>2026-05-02T11:54:44.663Z</time></trkpt><trkpt lat="45.0947215" lon="7.9726218"><ele>343.0</ele><time>2026-05-02T11:54:46.663Z</time></trkpt><trkpt lat="45.094632" lon="7.9726189"><ele>341.0</ele><time>2026-05-02T11:54:48.663Z</time></trkpt><trkpt lat="45.0945226" lon="7.9726305"><ele>341.0</ele><time>2026-05-02T11:54:50.662Z</time></trkpt><trkpt lat="45.0944558" lon="7.9726376"><ele>341.0</ele><time>2026-05-02T11:54:51.663Z</time></trkpt><trkpt lat="45.0943851" lon="7.9726566"><ele>341.0</ele><time>2026-05-02T11:54:52.663Z</time></trkpt><trkpt lat="45.0943129" lon="7.9726732"><ele>341.0</ele><time>2026-05-02T11:54:53.663Z</time></trkpt><trkpt lat="45.0942383" lon="7.9726868"><ele>341.0</ele><time>2026-05-02T11:54:54.663Z</time></trkpt><trkpt lat="45.0941636" lon="7.9726954"><ele>341.0</ele><time>2026-05-02T11:54:55.662Z</time></trkpt><trkpt lat="45.094094" lon="7.9726977"><ele>341.0</ele><time>2026-05-02T11:54:56.662Z</time></trkpt><trkpt lat="45.0940239" lon="7.9727042"><ele>341.6666666666667</ele><time>2026-05-02T11:54:57.663Z</time></trkpt><trkpt lat="45.0939561" lon="7.9727218"><ele>342.33333333333337</ele><time>2026-05-02T11:54:58.663Z</time></trkpt><trkpt lat="45.0938881" lon="7.9727702"><ele>343.0</ele><time>2026-05-02T11:54:59.662Z</time></trkpt><trkpt lat="45.0938175" lon="7.9728447"><ele>343.6666666666667</ele><time>2026-05-02T11:55:00.662Z</time></trkpt><trkpt lat="45.0937426" lon="7.972933"><ele>344.3333333333333</ele><time>2026-05-02T11:55:01.663Z</time></trkpt><trkpt lat="45.0936692" lon="7.973017"><ele>345.0</ele><time>2026-05-02T11:55:02.663Z</time></trkpt><trkpt lat="45.0935973" lon="7.9730961"><ele>345.0</ele><time>2026-05-02T11:55:03.663Z</time></trkpt><trkpt lat="45.0935188" lon="7.973177"><ele>345.0</ele><time>2026-05-02T11:55:04.663Z</time></trkpt><trkpt lat="45.0934417" lon="7.973255"><ele>345.0</ele><time>2026-05-02T11:55:05.663Z</time></trkpt><trkpt lat="45.093374" lon="7.9733248"><ele>345.0</ele><time>2026-05-02T11:55:06.663Z</time></trkpt><trkpt lat="45.0933142" lon="7.9733984"><ele>345.0</ele><time>2026-05-02T11:55:07.663Z</time></trkpt><trkpt lat="45.0932531" lon="7.9734687"><ele>345.0</ele><time>2026-05-02T11:55:08.663Z</time></trkpt><trkpt lat="45.0931896" lon="7.973536"><ele>344.3333333333333</ele><time>2026-05-02T11:55:09.663Z</time></trkpt><trkpt lat="45.093137" lon="7.9735926"><ele>343.6666666666667</ele><time>2026-05-02T11:55:10.663Z</time></trkpt><trkpt lat="45.0930589" lon="7.9736655"><ele>343.0</ele><time>2026-05-02T11:55:12.663Z</time></trkpt><trkpt lat="45.0930043" lon="7.9737219"><ele>342.33333333333337</ele><time>2026-05-02T11:55:14.662Z</time></trkpt><trkpt lat="45.0930845" lon="7.9737952"><ele>341.6666666666667</ele><time>2026-05-02T11:55:21.663Z</time></trkpt><trkpt lat="45.0931681" lon="7.9738593"><ele>341.0</ele><time>2026-05-02T11:55:23.663Z</time></trkpt><trkpt lat="45.0932653" lon="7.9739468"><ele>340.33333333333337</ele><time>2026-05-02T11:55:25.663Z</time></trkpt><trkpt lat="45.0933119" lon="7.9740251"><ele>339.6666666666667</ele><time>2026-05-02T11:55:27.663Z</time></trkpt><trkpt lat="45.0932635" lon="7.9741334"><ele>339.0</ele><time>2026-05-02T11:55:30.663Z</time></trkpt><trkpt lat="45.0931639" lon="7.9742224"><ele>338.3333333333333</ele><time>2026-05-02T11:55:32.663Z</time></trkpt><trkpt lat="45.0930998" lon="7.9742747"><ele>337.66666666666663</ele><time>2026-05-02T11:55:33.662Z</time></trkpt><trkpt lat="45.0930351" lon="7.9743336"><ele>337.0</ele><time>2026-05-02T11:55:34.662Z</time></trkpt><trkpt lat="45.0929689" lon="7.9744011"><ele>336.5714285714286</ele><time>2026-05-02T11:55:35.663Z</time></trkpt><trkpt lat="45.0929073" lon="7.9744668"><ele>336.14285714285717</ele><time>2026-05-02T11:55:36.662Z</time></trkpt><trkpt lat="45.0928492" lon="7.9745317"><ele>335.7142857142857</ele><time>2026-05-02T11:55:37.663Z</time></trkpt><trkpt lat="45.0927918" lon="7.9745864"><ele>335.28571428571433</ele><time>2026-05-02T11:55:38.663Z</time></trkpt><trkpt lat="45.0927336" lon="7.9746318"><ele>334.8571428571429</ele><time>2026-05-02T11:55:39.663Z</time></trkpt><trkpt lat="45.0926742" lon="7.9746751"><ele>334.42857142857144</ele><time>2026-05-02T11:55:40.663Z</time></trkpt><trkpt lat="45.0926153" lon="7.9747266"><ele>334.0</ele><time>2026-05-02T11:55:41.663Z</time></trkpt><trkpt lat="45.0925013" lon="7.9748245"><ele>334.0</ele><time>2026-05-02T11:55:43.663Z</time></trkpt><trkpt lat="45.0924403" lon="7.9748778"><ele>334.0</ele><time>2026-05-02T11:55:44.662Z</time></trkpt><trkpt lat="45.0923757" lon="7.974923"><ele>334.0</ele><time>2026-05-02T11:55:45.664Z</time></trkpt><trkpt lat="45.0923152" lon="7.9749684"><ele>334.0</ele><time>2026-05-02T11:55:46.664Z</time></trkpt><trkpt lat="45.0922513" lon="7.9750078"><ele>334.0</ele><time>2026-05-02T11:55:47.664Z</time></trkpt><trkpt lat="45.0921782" lon="7.9750481"><ele>334.0</ele><time>2026-05-02T11:55:48.664Z</time></trkpt><trkpt lat="45.0921082" lon="7.9750807"><ele>334.0</ele><time>2026-05-02T11:55:49.663Z</time></trkpt><trkpt lat="45.0920396" lon="7.9751098"><ele>332.8333333333333</ele><time>2026-05-02T11:55:50.664Z</time></trkpt><trkpt lat="45.0919746" lon="7.9751349"><ele>331.66666666666663</ele><time>2026-05-02T11:55:51.664Z</time></trkpt><trkpt lat="45.0919109" lon="7.9751611"><ele>330.5</ele><time>2026-05-02T11:55:52.664Z</time></trkpt><trkpt lat="45.0918501" lon="7.9751844"><ele>329.3333333333333</ele><time>2026-05-02T11:55:53.664Z</time></trkpt><trkpt lat="45.0917286" lon="7.9752178"><ele>328.1666666666667</ele><time>2026-05-02T11:55:55.664Z</time></trkpt><trkpt lat="45.0916273" lon="7.9752479"><ele>327.0</ele><time>2026-05-02T11:55:57.663Z</time></trkpt><trkpt lat="45.0915609" lon="7.9752834"><ele>326.6666666666667</ele><time>2026-05-02T11:55:59.663Z</time></trkpt><trkpt lat="45.0914912" lon="7.9753474"><ele>326.3333333333333</ele><time>2026-05-02T11:56:01.664Z</time></trkpt><trkpt lat="45.091399" lon="7.975423"><ele>326.0</ele><time>2026-05-02T11:56:03.664Z</time></trkpt><trkpt lat="45.0913209" lon="7.975503"><ele>325.66666666666663</ele><time>2026-05-02T11:56:05.664Z</time></trkpt><trkpt lat="45.0912723" lon="7.9755628"><ele>325.3333333333333</ele><time>2026-05-02T11:56:06.664Z</time></trkpt><trkpt lat="45.0912177" lon="7.9756319"><ele>325.0</ele><time>2026-05-02T11:56:07.664Z</time></trkpt><trkpt lat="45.0911436" lon="7.9757209"><ele>325.0</ele><time>2026-05-02T11:56:08.663Z</time></trkpt><trkpt lat="45.0910623" lon="7.97581"><ele>325.0</ele><time>2026-05-02T11:56:09.664Z</time></trkpt><trkpt lat="45.0909886" lon="7.9758886"><ele>325.0</ele><time>2026-05-02T11:56:10.664Z</time></trkpt><trkpt lat="45.0909203" lon="7.9759655"><ele>325.0</ele><time>2026-05-02T11:56:11.664Z</time></trkpt><trkpt lat="45.0908604" lon="7.976035"><ele>325.0</ele><time>2026-05-02T11:56:12.664Z</time></trkpt><trkpt lat="45.0907681" lon="7.9761231"><ele>323.6</ele><time>2026-05-02T11:56:14.664Z</time></trkpt><trkpt lat="45.0906478" lon="7.976187"><ele>322.2</ele><time>2026-05-02T11:56:16.664Z</time></trkpt><trkpt lat="45.0905777" lon="7.9762101"><ele>320.8</ele><time>2026-05-02T11:56:17.664Z</time></trkpt><trkpt lat="45.0904958" lon="7.9762363"><ele>319.4</ele><time>2026-05-02T11:56:18.664Z</time></trkpt><trkpt lat="45.0904093" lon="7.9762654"><ele>318.0</ele><time>2026-05-02T11:56:19.664Z</time></trkpt><trkpt lat="45.0903246" lon="7.9763026"><ele>318.0</ele><time>2026-05-02T11:56:20.663Z</time></trkpt><trkpt lat="45.0902397" lon="7.9763371"><ele>318.0</ele><time>2026-05-02T11:56:21.663Z</time></trkpt><trkpt lat="45.0901524" lon="7.9763635"><ele>318.0</ele><time>2026-05-02T11:56:22.664Z</time></trkpt><trkpt lat="45.0900786" lon="7.9763722"><ele>318.0</ele><time>2026-05-02T11:56:23.663Z</time></trkpt><trkpt lat="45.0900152" lon="7.976381"><ele>318.0</ele><time>2026-05-02T11:56:24.664Z</time></trkpt><trkpt lat="45.089945" lon="7.9763973"><ele>318.0</ele><time>2026-05-02T11:56:25.664Z</time></trkpt><trkpt lat="45.0898722" lon="7.9764233"><ele>317.8333333333333</ele><time>2026-05-02T11:56:26.664Z</time></trkpt><trkpt lat="45.0897952" lon="7.9764556"><ele>317.6666666666667</ele><time>2026-05-02T11:56:27.664Z</time></trkpt><trkpt lat="45.0897211" lon="7.9764941"><ele>317.5</ele><time>2026-05-02T11:56:28.664Z</time></trkpt><trkpt lat="45.0896375" lon="7.976539"><ele>317.33333333333337</ele><time>2026-05-02T11:56:29.663Z</time></trkpt><trkpt lat="45.089562" lon="7.9765952"><ele>317.1666666666667</ele><time>2026-05-02T11:56:30.664Z</time></trkpt><trkpt lat="45.0894973" lon="7.9766663"><ele>317.0</ele><time>2026-05-02T11:56:31.664Z</time></trkpt><trkpt lat="45.0894393" lon="7.9767614"><ele>317.0</ele><time>2026-05-02T11:56:32.664Z</time></trkpt><trkpt lat="45.0893857" lon="7.9768695"><ele>317.0</ele><time>2026-05-02T11:56:33.664Z</time></trkpt><trkpt lat="45.0893456" lon="7.9769768"><ele>317.0</ele><time>2026-05-02T11:56:34.663Z</time></trkpt><trkpt lat="45.0893103" lon="7.9770792"><ele>317.0</ele><time>2026-05-02T11:56:35.663Z</time></trkpt><trkpt lat="45.0892747" lon="7.9771723"><ele>317.0</ele><time>2026-05-02T11:56:36.664Z</time></trkpt><trkpt lat="45.0892393" lon="7.9772597"><ele>317.0</ele><time>2026-05-02T11:56:37.664Z</time></trkpt><trkpt lat="45.0891979" lon="7.9773398"><ele>317.0</ele><time>2026-05-02T11:56:38.663Z</time></trkpt><trkpt lat="45.0891524" lon="7.9774172"><ele>317.0</ele><time>2026-05-02T11:56:39.664Z</time></trkpt><trkpt lat="45.089108" lon="7.9775013"><ele>317.0</ele><time>2026-05-02T11:56:40.664Z</time></trkpt><trkpt lat="45.0890643" lon="7.9775831"><ele>317.0</ele><time>2026-05-02T11:56:41.664Z</time></trkpt><trkpt lat="45.0890184" lon="7.9776666"><ele>317.0</ele><time>2026-05-02T11:56:42.664Z</time></trkpt><trkpt lat="45.0889708" lon="7.9777468"><ele>317.0</ele><time>2026-05-02T11:56:43.663Z</time></trkpt><trkpt lat="45.0889165" lon="7.9778272"><ele>317.0</ele><time>2026-05-02T11:56:44.664Z</time></trkpt><trkpt lat="45.0888528" lon="7.9779038"><ele>316.8571428571429</ele><time>2026-05-02T11:56:45.664Z</time></trkpt><trkpt lat="45.0887819" lon="7.9779784"><ele>316.7142857142857</ele><time>2026-05-02T11:56:46.664Z</time></trkpt><trkpt lat="45.088718" lon="7.9780508"><ele>316.57142857142856</ele><time>2026-05-02T11:56:47.663Z</time></trkpt><trkpt lat="45.0886699" lon="7.9781238"><ele>316.42857142857144</ele><time>2026-05-02T11:56:48.664Z</time></trkpt><trkpt lat="45.0886412" lon="7.9782071"><ele>316.2857142857143</ele><time>2026-05-02T11:56:49.664Z</time></trkpt><trkpt lat="45.0886232" lon="7.9782932"><ele>316.14285714285717</ele><time>2026-05-02T11:56:50.663Z</time></trkpt><trkpt lat="45.0886156" lon="7.9783933"><ele>316.0</ele><time>2026-05-02T11:56:51.664Z</time></trkpt><trkpt lat="45.0886195" lon="7.9785005"><ele>315.0</ele><time>2026-05-02T11:56:52.663Z</time></trkpt><trkpt lat="45.0886222" lon="7.9785987"><ele>314.0</ele><time>2026-05-02T11:56:53.664Z</time></trkpt><trkpt lat="45.0886042" lon="7.9787557"><ele>313.0</ele><time>2026-05-02T11:56:55.663Z</time></trkpt><trkpt lat="45.0885528" lon="7.978888"><ele>312.0</ele><time>2026-05-02T11:56:57.664Z</time></trkpt><trkpt lat="45.0885158" lon="7.9789656"><ele>311.0</ele><time>2026-05-02T11:56:58.664Z</time></trkpt><trkpt lat="45.0884758" lon="7.9790431"><ele>310.0</ele><time>2026-05-02T11:56:59.664Z</time></trkpt><trkpt lat="45.0884368" lon="7.9791237"><ele>309.5</ele><time>2026-05-02T11:57:00.663Z</time></trkpt><trkpt lat="45.0883974" lon="7.97922"><ele>309.0</ele><time>2026-05-02T11:57:01.664Z</time></trkpt><trkpt lat="45.0883623" lon="7.9793423"><ele>308.5</ele><time>2026-05-02T11:57:02.663Z</time></trkpt><trkpt lat="45.0883256" lon="7.9794548"><ele>308.0</ele><time>2026-05-02T11:57:03.664Z</time></trkpt><trkpt lat="45.0882943" lon="7.9795864"><ele>307.5</ele><time>2026-05-02T11:57:05.664Z</time></trkpt><trkpt lat="45.0882615" lon="7.9796785"><ele>307.0</ele><time>2026-05-02T11:57:09.663Z</time></trkpt><trkpt lat="45.0882003" lon="7.9796385"><ele>307.0</ele><time>2026-05-02T11:57:11.664Z</time></trkpt><trkpt lat="45.0881235" lon="7.9795364"><ele>307.0</ele><time>2026-05-02T11:57:13.663Z</time></trkpt><trkpt lat="45.0880434" lon="7.9794339"><ele>307.0</ele><time>2026-05-02T11:57:15.664Z</time></trkpt><trkpt lat="45.0879907" lon="7.9793771"><ele>307.0</ele><time>2026-05-02T11:57:16.664Z</time></trkpt><trkpt lat="45.0879341" lon="7.9793196"><ele>307.0</ele><time>2026-05-02T11:57:17.663Z</time></trkpt><trkpt lat="45.0878668" lon="7.979254"><ele>307.0</ele><time>2026-05-02T11:57:18.663Z</time></trkpt><trkpt lat="45.0877973" lon="7.9791865"><ele>307.8333333333333</ele><time>2026-05-02T11:57:19.664Z</time></trkpt><trkpt lat="45.0877267" lon="7.9791056"><ele>308.66666666666663</ele><time>2026-05-02T11:57:20.664Z</time></trkpt><trkpt lat="45.0876661" lon="7.9790102"><ele>309.5</ele><time>2026-05-02T11:57:21.664Z</time></trkpt><trkpt lat="45.0876101" lon="7.9789124"><ele>310.3333333333333</ele><time>2026-05-02T11:57:22.664Z</time></trkpt><trkpt lat="45.0875649" lon="7.9788169"><ele>311.1666666666667</ele><time>2026-05-02T11:57:23.663Z</time></trkpt><trkpt lat="45.0875319" lon="7.9787199"><ele>312.0</ele><time>2026-05-02T11:57:24.664Z</time></trkpt><trkpt lat="45.0875043" lon="7.9786323"><ele>312.0</ele><time>2026-05-02T11:57:25.664Z</time></trkpt><trkpt lat="45.0874745" lon="7.9785537"><ele>312.0</ele><time>2026-05-02T11:57:26.664Z</time></trkpt><trkpt lat="45.0874172" lon="7.9784255"><ele>312.0</ele><time>2026-05-02T11:57:28.664Z</time></trkpt><trkpt lat="45.0873009" lon="7.9783811"><ele>312.0</ele><time>2026-05-02T11:57:30.664Z</time></trkpt><trkpt lat="45.0872212" lon="7.9783784"><ele>312.0</ele><time>2026-05-02T11:57:31.664Z</time></trkpt><trkpt lat="45.0871466" lon="7.9783741"><ele>312.0</ele><time>2026-05-02T11:57:32.664Z</time></trkpt><trkpt lat="45.0870768" lon="7.9783658"><ele>314.1666666666667</ele><time>2026-05-02T11:57:33.664Z</time></trkpt><trkpt lat="45.0870076" lon="7.9783396"><ele>316.3333333333333</ele><time>2026-05-02T11:57:34.664Z</time></trkpt><trkpt lat="45.0869346" lon="7.9782883"><ele>318.5</ele><time>2026-05-02T11:57:35.664Z</time></trkpt><trkpt lat="45.0868494" lon="7.9782384"><ele>320.66666666666663</ele><time>2026-05-02T11:57:36.664Z</time></trkpt><trkpt lat="45.0867634" lon="7.9782075"><ele>322.8333333333333</ele><time>2026-05-02T11:57:37.664Z</time></trkpt><trkpt lat="45.0866859" lon="7.9781915"><ele>325.0</ele><time>2026-05-02T11:57:38.665Z</time></trkpt><trkpt lat="45.086591" lon="7.978181"><ele>326.8</ele><time>2026-05-02T11:57:40.664Z</time></trkpt><trkpt lat="45.08653" lon="7.9781317"><ele>328.6</ele><time>2026-05-02T11:57:42.665Z</time></trkpt><trkpt lat="45.0864521" lon="7.9780423"><ele>330.4</ele><time>2026-05-02T11:57:44.665Z</time></trkpt><trkpt lat="45.0863803" lon="7.9779281"><ele>332.2</ele><time>2026-05-02T11:57:46.665Z</time></trkpt><trkpt lat="45.0862937" lon="7.977821"><ele>334.0</ele><time>2026-05-02T11:57:48.665Z</time></trkpt><trkpt lat="45.0862097" lon="7.9777275"><ele>334.0</ele><time>2026-05-02T11:57:50.665Z</time></trkpt><trkpt lat="45.0861197" lon="7.9776207"><ele>334.0</ele><time>2026-05-02T11:57:52.664Z</time></trkpt><trkpt lat="45.0860555" lon="7.9775249"><ele>334.0</ele><time>2026-05-02T11:57:54.664Z</time></trkpt><trkpt lat="45.0860033" lon="7.9774626"><ele>334.0</ele><time>2026-05-02T11:57:56.664Z</time></trkpt><trkpt lat="45.085936" lon="7.9773828"><ele>334.0</ele><time>2026-05-02T11:57:58.665Z</time></trkpt><trkpt lat="45.0858821" lon="7.9773146"><ele>334.0</ele><time>2026-05-02T11:58:00.664Z</time></trkpt><trkpt lat="45.0858734" lon="7.977211"><ele>334.5</ele><time>2026-05-02T11:58:02.665Z</time></trkpt><trkpt lat="45.0859436" lon="7.9770659"><ele>335.0</ele><time>2026-05-02T11:58:04.664Z</time></trkpt><trkpt lat="45.0859794" lon="7.9769811"><ele>335.5</ele><time>2026-05-02T11:58:05.665Z</time></trkpt><trkpt lat="45.0860062" lon="7.9768938"><ele>336.0</ele><time>2026-05-02T11:58:06.665Z</time></trkpt><trkpt lat="45.0860303" lon="7.9767969"><ele>336.5</ele><time>2026-05-02T11:58:07.664Z</time></trkpt><trkpt lat="45.0860612" lon="7.9766967"><ele>337.0</ele><time>2026-05-02T11:58:08.665Z</time></trkpt><trkpt lat="45.0860995" lon="7.9766126"><ele>338.28571428571433</ele><time>2026-05-02T11:58:09.665Z</time></trkpt><trkpt lat="45.0861384" lon="7.9765289"><ele>339.57142857142856</ele><time>2026-05-02T11:58:10.665Z</time></trkpt><trkpt lat="45.0861742" lon="7.9764513"><ele>340.8571428571429</ele><time>2026-05-02T11:58:11.665Z</time></trkpt><trkpt lat="45.0862272" lon="7.9763508"><ele>342.14285714285717</ele><time>2026-05-02T11:58:13.665Z</time></trkpt><trkpt lat="45.0862667" lon="7.976261"><ele>343.42857142857144</ele><time>2026-05-02T11:58:15.665Z</time></trkpt><trkpt lat="45.086306" lon="7.9761583"><ele>344.7142857142857</ele><time>2026-05-02T11:58:17.664Z</time></trkpt><trkpt lat="45.0863238" lon="7.9760676"><ele>346.0</ele><time>2026-05-02T11:58:20.665Z</time></trkpt><trkpt lat="45.0862603" lon="7.9760285"><ele>346.0</ele><time>2026-05-02T11:58:23.664Z</time></trkpt><trkpt lat="45.0861901" lon="7.9759642"><ele>346.0</ele><time>2026-05-02T11:58:35.665Z</time></trkpt><trkpt lat="45.0861319" lon="7.9758784"><ele>346.0</ele><time>2026-05-02T11:58:37.664Z</time></trkpt><trkpt lat="45.0860608" lon="7.9758415"><ele>346.0</ele><time>2026-05-02T11:58:39.665Z</time></trkpt><trkpt lat="45.0860027" lon="7.9757892"><ele>346.0</ele><time>2026-05-02T11:58:42.665Z</time></trkpt><trkpt lat="45.0859667" lon="7.9756971"><ele>346.0</ele><time>2026-05-02T11:58:44.665Z</time></trkpt><trkpt lat="45.0859536" lon="7.9755888"><ele>348.4</ele><time>2026-05-02T11:58:46.665Z</time></trkpt><trkpt lat="45.0858807" lon="7.9755167"><ele>350.8</ele><time>2026-05-02T11:59:00.665Z</time></trkpt><trkpt lat="45.0857726" lon="7.9754362"><ele>353.2</ele><time>2026-05-02T11:59:02.665Z</time></trkpt><trkpt lat="45.0856661" lon="7.9753626"><ele>355.59999999999997</ele><time>2026-05-02T11:59:04.665Z</time></trkpt><trkpt lat="45.0855771" lon="7.9752856"><ele>358.0</ele><time>2026-05-02T11:59:06.665Z</time></trkpt><trkpt lat="45.0854981" lon="7.9751906"><ele>358.2</ele><time>2026-05-02T11:59:08.665Z</time></trkpt><trkpt lat="45.0854301" lon="7.9750684"><ele>358.4</ele><time>2026-05-02T11:59:10.665Z</time></trkpt><trkpt lat="45.0853635" lon="7.9749496"><ele>358.59999999999997</ele><time>2026-05-02T11:59:12.665Z</time></trkpt><trkpt lat="45.0853099" lon="7.9748551"><ele>358.79999999999995</ele><time>2026-05-02T11:59:14.664Z</time></trkpt><trkpt lat="45.0852362" lon="7.9747793"><ele>359.0</ele><time>2026-05-02T11:59:16.664Z</time></trkpt><trkpt lat="45.0851292" lon="7.9746682"><ele>373.0</ele><time>2026-05-02T11:59:18.665Z</time></trkpt><trkpt lat="45.085078" lon="7.9746099"><ele>373.0</ele><time>2026-05-02T11:59:19.664Z</time></trkpt><trkpt lat="45.0850096" lon="7.9744702"><ele>373.0</ele><time>2026-05-02T11:59:21.664Z</time></trkpt><trkpt lat="45.0849851" lon="7.9743848"><ele>373.0</ele><time>2026-05-02T11:59:22.665Z</time></trkpt></trkseg><trkseg><trkpt lat="45.0641612" lon="7.8241399"><ele>361.0</ele><time>2026-05-02T12:33:37.769Z</time></trkpt><trkpt lat="45.064169" lon="7.8242326"><ele>361.0</ele><time>2026-05-02T12:33:45.732Z</time></trkpt></trkseg></trk></gpx>